
Distance (Route):
Temperature : 26.8°C
Humidity : 49.6%
Pressure : 0hPa| Receiver | Frames | First received | Last received |
|---|---|---|---|
| IW2NTF | 1288 | 2026-09-02 11:03:29 | 2026-09-02 13:55:16 |
| DO3MHA-11 | 406 | 2026-09-02 11:53:28 | 2026-09-02 13:21:45 |
| DB0UT-7 | 92 | 2026-09-02 11:59:49 | 2026-09-02 13:18:50 |
| OE5DRO-10 | 91 | 2026-09-02 12:32:04 | 2026-09-02 13:09:05 |
| NBG1-10 | 87 | 2026-09-02 12:07:24 | 2026-09-02 13:15:11 |
| RDZBGO | 64 | 2026-09-02 12:44:40 | 2026-09-02 13:10:30 |
| PG1ADW-2 | 17 | 2026-09-02 12:50:53 | 2026-09-02 13:04:47 |
| BAUMI2-15 | 8 | 2026-09-02 12:57:38 | 2026-09-02 12:58:37 |
| DK5PH-5 | 6 | 2026-09-02 13:00:16 | 2026-09-02 13:03:58 |
| S52SK | 3 | 2026-09-02 12:59:58 | 2026-09-02 13:03:36 |
| IN3HCDX | 1 | 2026-09-02 13:09:03 | 2026-09-02 13:09:03 |
| Receiver | Date | Latitude | Longitude | Direction | Speed | Altitude | Climb | Temperature | Humidity | Pressure | Voltage | Killtimer | Uptime | BKT | XDATA |
|---|---|---|---|---|---|---|---|---|---|---|---|---|---|---|---|
| IW2NTF | 2026-09-02 13:55:16 | 44.92616 | 9.71102 | 96° | 5km/h | 522m | -4.6m/s | 26.8°C | 49.6% | 0hPa | 2.8V | 07:38:22 | 03:20:02 | 00:00:00 | |
| IW2NTF | 2026-09-02 13:55:16 | 44.92617 | 9.71098 | 99° | 5km/h | 532m | -5m/s | 26.7°C | 49.4% | 0hPa | 2.8V | 07:38:24 | 03:20:00 | 00:00:00 | |
| IW2NTF | 2026-09-02 13:55:09 | 44.92618 | 9.71091 | 116° | 5km/h | 551m | -4.6m/s | 26.6°C | 49.6% | 0hPa | 2.8V | 07:38:28 | 03:19:56 | 00:00:00 | |
| IW2NTF | 2026-09-02 13:55:09 | 44.92618 | 9.71087 | 94° | 5km/h | 561m | -5.2m/s | 26.4°C | 49.9% | 0hPa | 2.8V | 07:38:30 | 03:19:54 | 00:00:00 | |
| IW2NTF | 2026-09-02 13:55:09 | 44.92619 | 9.71084 | 93° | 5km/h | 571m | -4.7m/s | 26.4°C | 50.1% | 0hPa | 2.8V | 07:38:32 | 03:19:52 | 00:00:00 | |
| IW2NTF | 2026-09-02 13:55:02 | 44.92619 | 9.71080 | 99° | 5km/h | 581m | -5m/s | 26.3°C | 50% | 0hPa | 2.8V | 07:38:34 | 03:19:50 | 00:00:00 | |
| IW2NTF | 2026-09-02 13:55:02 | 44.92619 | 9.71076 | 104° | 5km/h | 591m | -5.1m/s | 26.2°C | 50.3% | 0hPa | 2.8V | 07:38:36 | 03:19:48 | 00:00:00 | |
| IW2NTF | 2026-09-02 13:55:02 | 44.92620 | 9.71072 | 127° | 5km/h | 601m | -5m/s | 26.1°C | 50.5% | 0hPa | 2.8V | 07:38:38 | 03:19:46 | 00:00:00 | |
| IW2NTF | 2026-09-02 13:54:56 | 44.92623 | 9.71070 | 138° | 5km/h | 611m | -4.6m/s | 26°C | 50.7% | 0hPa | 2.8V | 07:38:40 | 03:19:44 | 00:00:00 | |
| IW2NTF | 2026-09-02 13:54:56 | 44.92628 | 9.71064 | 140° | 7km/h | 631m | -5.2m/s | 25.8°C | 51.1% | 0hPa | 2.8V | 07:38:44 | 03:19:40 | 00:00:00 | |
| IW2NTF | 2026-09-02 13:54:51 | 44.92631 | 9.71061 | 142° | 7km/h | 641m | -5.4m/s | 25.7°C | 51.3% | 0hPa | 2.8V | 07:38:46 | 03:19:38 | 00:00:00 | |
| IW2NTF | 2026-09-02 13:54:51 | 44.92634 | 9.71058 | 152° | 7km/h | 652m | -5m/s | 25.6°C | 51.6% | 0hPa | 2.8V | 07:38:48 | 03:19:36 | 00:00:00 | |
| IW2NTF | 2026-09-02 13:54:51 | 44.92637 | 9.71055 | 149° | 7km/h | 662m | -4.8m/s | 25.5°C | 51.3% | 0hPa | 2.8V | 07:38:50 | 03:19:34 | 00:00:00 | |
| IW2NTF | 2026-09-02 13:54:44 | 44.92640 | 9.71053 | 150° | 5km/h | 672m | -4.8m/s | 25.4°C | 51.5% | 0hPa | 2.8V | 07:38:52 | 03:19:32 | 00:00:00 | |
| IW2NTF | 2026-09-02 13:54:44 | 44.92643 | 9.71051 | 158° | 5km/h | 682m | -4.7m/s | 25.4°C | 51.3% | 0hPa | 2.8V | 07:38:54 | 03:19:30 | 00:00:00 | |
| IW2NTF | 2026-09-02 13:54:44 | 44.92646 | 9.71050 | 164° | 5km/h | 691m | -4.8m/s | 25.3°C | 51.5% | 0hPa | 2.8V | 07:38:56 | 03:19:28 | 00:00:00 | |
| IW2NTF | 2026-09-02 13:54:39 | 44.92649 | 9.71049 | 165° | 7km/h | 700m | -4.3m/s | 25.3°C | 51.5% | 0hPa | 2.8V | 07:38:58 | 03:19:26 | 00:00:00 | |
| IW2NTF | 2026-09-02 13:54:39 | 44.92653 | 9.71047 | 165° | 7km/h | 709m | -4.2m/s | 25.1°C | 52.1% | 0hPa | 2.8V | 07:39:00 | 03:19:24 | 00:00:00 | |
| IW2NTF | 2026-09-02 13:54:39 | 44.92657 | 9.71046 | 160° | 9km/h | 717m | -3.9m/s | 25°C | 52.3% | 0hPa | 2.8V | 07:39:02 | 03:19:22 | 00:00:00 | |
| IW2NTF | 2026-09-02 13:54:32 | 44.92661 | 9.71044 | 159° | 7km/h | 726m | -4.5m/s | 24.9°C | 52.7% | 0hPa | 2.8V | 07:39:04 | 03:19:20 | 00:00:00 | |
| IW2NTF | 2026-09-02 13:54:32 | 44.92664 | 9.71042 | 162° | 5km/h | 734m | -4.2m/s | 24.8°C | 53% | 0hPa | 2.8V | 07:39:06 | 03:19:18 | 00:00:00 | |
| IW2NTF | 2026-09-02 13:54:32 | 44.92667 | 9.71041 | 165° | 5km/h | 743m | -4.8m/s | 24.7°C | 53.3% | 0hPa | 2.8V | 07:39:08 | 03:19:16 | 00:00:00 | |
| IW2NTF | 2026-09-02 13:54:26 | 44.92671 | 9.71040 | 171° | 7km/h | 752m | -4.2m/s | 24.7°C | 53.5% | 0hPa | 2.8V | 07:39:10 | 03:19:14 | 00:00:00 | |
| IW2NTF | 2026-09-02 13:54:26 | 44.92674 | 9.71039 | 167° | 7km/h | 760m | -4.2m/s | 24.6°C | 53.6% | 0hPa | 2.7V | 07:39:12 | 03:19:12 | 00:00:00 | |
| IW2NTF | 2026-09-02 13:54:26 | 44.92677 | 9.71038 | 162° | 7km/h | 769m | -4.3m/s | 24.6°C | 54.4% | 0hPa | 2.8V | 07:39:14 | 03:19:10 | 00:00:00 | |
| IW2NTF | 2026-09-02 13:54:20 | 44.92680 | 9.71036 | 160° | 7km/h | 777m | -3.9m/s | 24.5°C | 54.5% | 0hPa | 2.8V | 07:39:16 | 03:19:08 | 00:00:00 | |
| IW2NTF | 2026-09-02 13:54:20 | 44.92684 | 9.71034 | 160° | 7km/h | 785m | -3.9m/s | 24.4°C | 54.5% | 0hPa | 2.8V | 07:39:18 | 03:19:06 | 00:00:00 | |
| IW2NTF | 2026-09-02 13:54:20 | 44.92687 | 9.71033 | 168° | 7km/h | 792m | -3.4m/s | 24.3°C | 54.5% | 0hPa | 2.8V | 07:39:20 | 03:19:04 | 00:00:00 | |
| IW2NTF | 2026-09-02 13:54:14 | 44.92690 | 9.71032 | 173° | 7km/h | 799m | -3.7m/s | 24.2°C | 54.7% | 0hPa | 2.8V | 07:39:22 | 03:19:02 | 00:00:00 | |
| IW2NTF | 2026-09-02 13:54:14 | 44.92694 | 9.71032 | 172° | 7km/h | 806m | -3.2m/s | 24.1°C | 54.9% | 0hPa | 2.8V | 07:39:24 | 03:19:00 | 00:00:00 | |
| IW2NTF | 2026-09-02 13:54:14 | 44.92697 | 9.71032 | 179° | 5km/h | 814m | -4.6m/s | 24°C | 55.2% | 0hPa | 2.8V | 07:39:26 | 03:18:58 | 00:00:00 | |
| IW2NTF | 2026-09-02 13:54:08 | 44.92699 | 9.71031 | 167° | 5km/h | 823m | -4.2m/s | 24°C | 55.4% | 0hPa | 2.8V | 07:39:28 | 03:18:56 | 00:00:00 | |
| IW2NTF | 2026-09-02 13:54:08 | 44.92702 | 9.71031 | 167° | 5km/h | 830m | -3.5m/s | 23.9°C | 55.5% | 0hPa | 2.8V | 07:39:30 | 03:18:54 | 00:00:00 | |
| IW2NTF | 2026-09-02 13:54:08 | 44.92705 | 9.71029 | 162° | 5km/h | 837m | -3.5m/s | 23.9°C | 55.7% | 0hPa | 2.8V | 07:39:32 | 03:18:52 | 00:00:00 | |
| IW2NTF | 2026-09-02 13:54:02 | 44.92708 | 9.71028 | 164° | 7km/h | 845m | -3.4m/s | 23.8°C | 55.8% | 0hPa | 2.8V | 07:39:34 | 03:18:50 | 00:00:00 | |
| IW2NTF | 2026-09-02 13:54:02 | 44.92712 | 9.71026 | 163° | 9km/h | 851m | -3m/s | 23.7°C | 55.7% | 0hPa | 2.7V | 07:39:36 | 03:18:48 | 00:00:00 | |
| IW2NTF | 2026-09-02 13:54:02 | 44.92716 | 9.71025 | 167° | 9km/h | 857m | -3.4m/s | 23.7°C | 56.2% | 0hPa | 2.8V | 07:39:38 | 03:18:46 | 00:00:00 | |
| IW2NTF | 2026-09-02 13:53:56 | 44.92721 | 9.71024 | 169° | 9km/h | 863m | -3m/s | 23.6°C | 56.3% | 0hPa | 2.8V | 07:39:40 | 03:18:44 | 00:00:00 | |
| IW2NTF | 2026-09-02 13:53:56 | 44.92725 | 9.71023 | 171° | 7km/h | 870m | -3.2m/s | 23.6°C | 56.5% | 0hPa | 2.8V | 07:39:42 | 03:18:42 | 00:00:00 | |
| IW2NTF | 2026-09-02 13:53:56 | 44.92729 | 9.71021 | 165° | 7km/h | 875m | -2.7m/s | 23.6°C | 56.5% | 0hPa | 2.8V | 07:39:44 | 03:18:40 | 00:00:00 | |
| IW2NTF | 2026-09-02 13:53:50 | 44.92732 | 9.71020 | 152° | 7km/h | 881m | -2.5m/s | 23.5°C | 56.8% | 0hPa | 2.8V | 07:39:46 | 03:18:38 | 00:00:00 | |
| IW2NTF | 2026-09-02 13:53:50 | 44.92735 | 9.71017 | 151° | 7km/h | 885m | -2.4m/s | 23.5°C | 56.9% | 0hPa | 2.8V | 07:39:48 | 03:18:36 | 00:00:00 | |
| IW2NTF | 2026-09-02 13:53:50 | 44.92739 | 9.71015 | 156° | 7km/h | 891m | -2.9m/s | 23.4°C | 57% | 0hPa | 2.8V | 07:39:50 | 03:18:34 | 00:00:00 | |
| IW2NTF | 2026-09-02 13:53:44 | 44.92743 | 9.71013 | 166° | 7km/h | 896m | -2.9m/s | 23.4°C | 57.5% | 0hPa | 2.8V | 07:39:52 | 03:18:32 | 00:00:00 | |
| IW2NTF | 2026-09-02 13:53:44 | 44.92746 | 9.71012 | 168° | 7km/h | 903m | -3.2m/s | 23.4°C | 57.5% | 0hPa | 2.8V | 07:39:54 | 03:18:30 | 00:00:00 | |
| IW2NTF | 2026-09-02 13:53:44 | 44.92751 | 9.71011 | 167° | 9km/h | 908m | -2.8m/s | 23.3°C | 57.6% | 0hPa | 2.8V | 07:39:56 | 03:18:28 | 00:00:00 | |
| IW2NTF | 2026-09-02 13:53:39 | 44.92755 | 9.71009 | 164° | 9km/h | 914m | -3.2m/s | 23.2°C | 57.7% | 0hPa | 2.8V | 07:39:58 | 03:18:26 | 00:00:00 | |
| IW2NTF | 2026-09-02 13:53:39 | 44.92759 | 9.71007 | 156° | 7km/h | 920m | -2.7m/s | 23.1°C | 58% | 0hPa | 2.8V | 07:40:00 | 03:18:24 | 00:00:00 | |
| IW2NTF | 2026-09-02 13:53:39 | 44.92762 | 9.71005 | 146° | 5km/h | 925m | -2.1m/s | 23.1°C | 58.3% | 0hPa | 2.8V | 07:40:02 | 03:18:22 | 00:00:00 | |
| IW2NTF | 2026-09-02 13:53:30 | 44.92766 | 9.71002 | 154° | 2km/h | 934m | -2.5m/s | 23°C | 58.3% | 0hPa | 2.8V | 07:40:06 | 03:18:18 | 00:00:00 | |
| IW2NTF | 2026-09-02 13:53:30 | 44.92767 | 9.71002 | 192° | 2km/h | 939m | -2.6m/s | 23°C | 58.5% | 0hPa | 2.8V | 07:40:08 | 03:18:16 | 00:00:00 | |
| IW2NTF | 2026-09-02 13:53:30 | 44.92768 | 9.71002 | 190° | 2km/h | 943m | -1.8m/s | 23°C | 58.7% | 0hPa | 2.8V | 07:40:10 | 03:18:14 | 00:00:00 | |
| IW2NTF | 2026-09-02 13:53:24 | 44.92770 | 9.71002 | 163° | 5km/h | 947m | -2m/s | 22.9°C | 58.9% | 0hPa | 2.8V | 07:40:12 | 03:18:12 | 00:00:00 | |
| IW2NTF | 2026-09-02 13:53:24 | 44.92772 | 9.71000 | 156° | 7km/h | 951m | -2.6m/s | 22.8°C | 59% | 0hPa | 2.8V | 07:40:14 | 03:18:10 | 00:00:00 | |
| IW2NTF | 2026-09-02 13:53:24 | 44.92776 | 9.70998 | 157° | 9km/h | 955m | -1.8m/s | 22.9°C | 58.9% | 0hPa | 2.8V | 07:40:16 | 03:18:08 | 00:00:00 | |
| IW2NTF | 2026-09-02 13:53:18 | 44.92780 | 9.70995 | 157° | 9km/h | 960m | -2.7m/s | 22.8°C | 58.9% | 0hPa | 2.8V | 07:40:18 | 03:18:06 | 00:00:00 | |
| IW2NTF | 2026-09-02 13:53:18 | 44.92785 | 9.70993 | 156° | 9km/h | 965m | -3m/s | 22.7°C | 59.1% | 0hPa | 2.8V | 07:40:20 | 03:18:04 | 00:00:00 | |
| IW2NTF | 2026-09-02 13:53:18 | 44.92789 | 9.70991 | 159° | 7km/h | 970m | -2.3m/s | 22.7°C | 59.4% | 0hPa | 2.8V | 07:40:22 | 03:18:02 | 00:00:00 | |
| IW2NTF | 2026-09-02 13:53:12 | 44.92792 | 9.70990 | 166° | 5km/h | 975m | -2.7m/s | 22.7°C | 59.8% | 0hPa | 2.8V | 07:40:24 | 03:18:00 | 00:00:00 | |
| IW2NTF | 2026-09-02 13:53:12 | 44.92795 | 9.70988 | 153° | 7km/h | 981m | -3m/s | 22.6°C | 59.7% | 0hPa | 2.8V | 07:40:26 | 03:17:58 | 00:00:00 | |
| IW2NTF | 2026-09-02 13:53:12 | 44.92798 | 9.70986 | 152° | 9km/h | 987m | -2.9m/s | 22.6°C | 59.7% | 0hPa | 2.8V | 07:40:28 | 03:17:56 | 00:00:00 | |
| IW2NTF | 2026-09-02 13:53:06 | 44.92802 | 9.70984 | 160° | 9km/h | 992m | -2.9m/s | 22.6°C | 59.7% | 0hPa | 2.8V | 07:40:30 | 03:17:54 | 00:00:00 | |
| IW2NTF | 2026-09-02 13:53:06 | 44.92807 | 9.70982 | 167° | 7km/h | 998m | -2.4m/s | 22.6°C | 59.8% | 0hPa | 2.8V | 07:40:32 | 03:17:52 | 00:00:00 | |
| IW2NTF | 2026-09-02 13:53:06 | 44.92810 | 9.70981 | 171° | 7km/h | 1002m | -2m/s | 22.5°C | 60% | 0hPa | 2.8V | 07:40:34 | 03:17:50 | 00:00:00 | |
| IW2NTF | 2026-09-02 13:53:00 | 44.92814 | 9.70980 | 163° | 7km/h | 1006m | -1.8m/s | 22.5°C | 60.1% | 0hPa | 2.8V | 07:40:36 | 03:17:48 | 00:00:00 | |
| IW2NTF | 2026-09-02 13:53:00 | 44.92817 | 9.70977 | 141° | 7km/h | 1011m | -2.5m/s | 22.4°C | 60.4% | 0hPa | 2.8V | 07:40:38 | 03:17:46 | 00:00:00 | |
| IW2NTF | 2026-09-02 13:53:00 | 44.92820 | 9.70974 | 134° | 7km/h | 1017m | -2.8m/s | 22.3°C | 60.6% | 0hPa | 2.8V | 07:40:40 | 03:17:44 | 00:00:00 | |
| IW2NTF | 2026-09-02 13:52:54 | 44.92823 | 9.70971 | 140° | 7km/h | 1024m | -3m/s | 22.3°C | 60.8% | 0hPa | 2.8V | 07:40:42 | 03:17:42 | 00:00:00 | |
| IW2NTF | 2026-09-02 13:52:54 | 44.92825 | 9.70968 | 143° | 5km/h | 1031m | -3.5m/s | 22.2°C | 61.1% | 0hPa | 2.8V | 07:40:44 | 03:17:40 | 00:00:00 | |
| IW2NTF | 2026-09-02 13:52:54 | 44.92826 | 9.70966 | 138° | 4km/h | 1038m | -3.8m/s | 22.1°C | 61.4% | 0hPa | 2.7V | 07:40:46 | 03:17:38 | 00:00:00 | |
| IW2NTF | 2026-09-02 13:52:48 | 44.92828 | 9.70965 | 170° | 7km/h | 1045m | -3.9m/s | 22°C | 61.5% | 0hPa | 2.8V | 07:40:48 | 03:17:36 | 00:00:00 | |
| IW2NTF | 2026-09-02 13:52:48 | 44.92832 | 9.70964 | 151° | 9km/h | 1054m | -4.3m/s | 21.8°C | 62.2% | 0hPa | 2.8V | 07:40:50 | 03:17:34 | 00:00:00 | |
| IW2NTF | 2026-09-02 13:52:48 | 44.92836 | 9.70961 | 145° | 9km/h | 1063m | -5.9m/s | 21.8°C | 62.1% | 0hPa | 2.8V | 07:40:52 | 03:17:32 | 00:00:00 | |
| IW2NTF | 2026-09-02 13:52:42 | 44.92840 | 9.70958 | 155° | 7km/h | 1074m | -4.7m/s | 21.7°C | 62.7% | 0hPa | 2.8V | 07:40:54 | 03:17:30 | 00:00:00 | |
| IW2NTF | 2026-09-02 13:52:42 | 44.92842 | 9.70955 | 137° | 5km/h | 1083m | -4.8m/s | 21.6°C | 63.2% | 0hPa | 2.8V | 07:40:56 | 03:17:28 | 00:00:00 | |
| IW2NTF | 2026-09-02 13:52:42 | 44.92844 | 9.70953 | 117° | 4km/h | 1092m | -4.1m/s | 21.5°C | 63.2% | 0hPa | 2.8V | 07:40:58 | 03:17:26 | 00:00:00 | |
| IW2NTF | 2026-09-02 13:52:36 | 44.92844 | 9.70950 | 118° | 4km/h | 1101m | -4m/s | 21.4°C | 63.8% | 0hPa | 2.7V | 07:41:00 | 03:17:24 | 00:00:00 | |
| IW2NTF | 2026-09-02 13:52:36 | 44.92846 | 9.70948 | 138° | 5km/h | 1108m | -3.5m/s | 21.4°C | 63.4% | 0hPa | 2.8V | 07:41:02 | 03:17:22 | 00:00:00 | |
| IW2NTF | 2026-09-02 13:52:36 | 44.92849 | 9.70945 | 152° | 7km/h | 1114m | -3.4m/s | 21.3°C | 63.9% | 0hPa | 2.8V | 07:41:04 | 03:17:20 | 00:00:00 | |
| IW2NTF | 2026-09-02 13:52:30 | 44.92852 | 9.70943 | 157° | 9km/h | 1121m | -3.5m/s | 21.3°C | 64.1% | 0hPa | 2.8V | 07:41:06 | 03:17:18 | 00:00:00 | |
| IW2NTF | 2026-09-02 13:52:30 | 44.92857 | 9.70940 | 156° | 9km/h | 1128m | -3.6m/s | 21.1°C | 64.3% | 0hPa | 2.8V | 07:41:08 | 03:17:16 | 00:00:00 | |
| IW2NTF | 2026-09-02 13:52:30 | 44.92861 | 9.70938 | 157° | 7km/h | 1135m | -3.4m/s | 21°C | 64.5% | 0hPa | 2.8V | 07:41:10 | 03:17:14 | 00:00:00 | |
| IW2NTF | 2026-09-02 13:52:25 | 44.92864 | 9.70936 | 154° | 7km/h | 1143m | -3.6m/s | 20.9°C | 65% | 0hPa | 2.8V | 07:41:12 | 03:17:12 | 00:00:00 | |
| IW2NTF | 2026-09-02 13:52:25 | 44.92868 | 9.70934 | 160° | 7km/h | 1150m | -3.4m/s | 20.9°C | 65% | 0hPa | 2.8V | 07:41:14 | 03:17:10 | 00:00:00 | |
| IW2NTF | 2026-09-02 13:52:25 | 44.92871 | 9.70933 | 166° | 9km/h | 1156m | -3.2m/s | 20.8°C | 65.5% | 0hPa | 2.8V | 07:41:16 | 03:17:08 | 00:00:00 | |
| IW2NTF | 2026-09-02 13:52:18 | 44.92876 | 9.70931 | 163° | 9km/h | 1163m | -2.6m/s | 20.8°C | 65.6% | 0hPa | 2.8V | 07:41:18 | 03:17:06 | 00:00:00 | |
| IW2NTF | 2026-09-02 13:52:18 | 44.92884 | 9.70927 | 154° | 7km/h | 1174m | -3.1m/s | 20.7°C | 65.5% | 0hPa | 2.8V | 07:41:22 | 03:17:02 | 00:00:00 | |
| IW2NTF | 2026-09-02 13:52:12 | 44.92888 | 9.70924 | 145° | 7km/h | 1180m | -3m/s | 20.6°C | 65.7% | 0hPa | 2.8V | 07:41:24 | 03:17:00 | 00:00:00 | |
| IW2NTF | 2026-09-02 13:52:12 | 44.92892 | 9.70920 | 147° | 9km/h | 1186m | -2.9m/s | 20.7°C | 65.9% | 0hPa | 2.8V | 07:41:26 | 03:16:58 | 00:00:00 | |
| IW2NTF | 2026-09-02 13:52:12 | 44.92896 | 9.70918 | 155° | 9km/h | 1191m | -2.7m/s | 20.6°C | 66% | 0hPa | 2.8V | 07:41:28 | 03:16:56 | 00:00:00 | |
| IW2NTF | 2026-09-02 13:52:06 | 44.92900 | 9.70915 | 159° | 9km/h | 1196m | -2.7m/s | 20.5°C | 66.2% | 0hPa | 2.8V | 07:41:30 | 03:16:54 | 00:00:00 | |
| IW2NTF | 2026-09-02 13:52:06 | 44.92904 | 9.70913 | 160° | 9km/h | 1202m | -2.3m/s | 20.4°C | 66.4% | 0hPa | 2.8V | 07:41:32 | 03:16:52 | 00:00:00 | |
| IW2NTF | 2026-09-02 13:52:06 | 44.92908 | 9.70911 | 157° | 7km/h | 1206m | -2.4m/s | 20.4°C | 66.6% | 0hPa | 2.8V | 07:41:34 | 03:16:50 | 00:00:00 | |
| IW2NTF | 2026-09-02 13:52:00 | 44.92912 | 9.70909 | 155° | 7km/h | 1210m | -2m/s | 20.4°C | 66.7% | 0hPa | 2.7V | 07:41:36 | 03:16:48 | 00:00:00 | |
| IW2NTF | 2026-09-02 13:52:00 | 44.92915 | 9.70907 | 155° | 7km/h | 1214m | -2m/s | 20.3°C | 66.8% | 0hPa | 2.8V | 07:41:38 | 03:16:46 | 00:00:00 | |
| IW2NTF | 2026-09-02 13:52:00 | 44.92918 | 9.70904 | 159° | 9km/h | 1218m | -1.7m/s | 20.2°C | 67% | 0hPa | 2.8V | 07:41:40 | 03:16:44 | 00:00:00 | |
| IW2NTF | 2026-09-02 13:51:54 | 44.92923 | 9.70902 | 157° | 9km/h | 1223m | -1.9m/s | 20.2°C | 67.2% | 0hPa | 2.7V | 07:41:42 | 03:16:42 | 00:00:00 | |
| IW2NTF | 2026-09-02 13:51:54 | 44.92928 | 9.70899 | 153° | 11km/h | 1227m | -1.7m/s | 20.2°C | 67.4% | 0hPa | 2.7V | 07:41:44 | 03:16:40 | 00:00:00 | |
| IW2NTF | 2026-09-02 13:51:54 | 44.92933 | 9.70896 | 154° | 13km/h | 1230m | -2.2m/s | 20.1°C | 67.6% | 0hPa | 2.7V | 07:41:46 | 03:16:38 | 00:00:00 | |
| IW2NTF | 2026-09-02 13:51:49 | 44.92939 | 9.70892 | 156° | 13km/h | 1234m | -2.3m/s | 20.1°C | 67.7% | 0hPa | 2.7V | 07:41:48 | 03:16:36 | 00:00:00 | |
| IW2NTF | 2026-09-02 13:51:49 | 44.92945 | 9.70888 | 157° | 15km/h | 1239m | -2.1m/s | 20°C | 67.8% | 0hPa | 2.7V | 07:41:50 | 03:16:34 | 00:00:00 | |
| IW2NTF | 2026-09-02 13:51:49 | 44.92952 | 9.70884 | 159° | 15km/h | 1244m | -3m/s | 20°C | 68% | 0hPa | 2.7V | 07:41:52 | 03:16:32 | 00:00:00 | |
| IW2NTF | 2026-09-02 13:51:42 | 44.92967 | 9.70878 | 162° | 15km/h | 1255m | -2.4m/s | 19.9°C | 68.4% | 0hPa | 2.7V | 07:41:56 | 03:16:28 | 00:00:00 | |
| IW2NTF | 2026-09-02 13:51:42 | 44.92973 | 9.70875 | 161° | 13km/h | 1260m | -2.2m/s | 19.8°C | 68.8% | 0hPa | 2.7V | 07:41:58 | 03:16:26 | 00:00:00 | |
| IW2NTF | 2026-09-02 13:51:36 | 44.92979 | 9.70873 | 166° | 9km/h | 1264m | -2m/s | 19.8°C | 68.6% | 0hPa | 2.7V | 07:42:00 | 03:16:24 | 00:00:00 | |
| IW2NTF | 2026-09-02 13:51:36 | 44.92983 | 9.70871 | 156° | 9km/h | 1270m | -3.4m/s | 19.7°C | 69.6% | 0hPa | 2.7V | 07:42:02 | 03:16:22 | 00:00:00 | |
| IW2NTF | 2026-09-02 13:51:36 | 44.92988 | 9.70867 | 149° | 13km/h | 1277m | -3.4m/s | 19.7°C | 69.7% | 0hPa | 2.7V | 07:42:04 | 03:16:20 | 00:00:00 | |
| IW2NTF | 2026-09-02 13:51:30 | 44.92994 | 9.70862 | 144° | 15km/h | 1284m | -3.1m/s | 19.6°C | 70.5% | 0hPa | 2.7V | 07:42:06 | 03:16:18 | 00:00:00 | |
| IW2NTF | 2026-09-02 13:51:30 | 44.93000 | 9.70856 | 142° | 15km/h | 1289m | -3.1m/s | 19.6°C | 70.8% | 0hPa | 2.7V | 07:42:08 | 03:16:16 | 00:00:00 | |
| IW2NTF | 2026-09-02 13:51:30 | 44.93006 | 9.70849 | 145° | 15km/h | 1295m | -3.5m/s | 19.5°C | 70.8% | 0hPa | 2.7V | 07:42:10 | 03:16:14 | 00:00:00 | |
| IW2NTF | 2026-09-02 13:51:24 | 44.93012 | 9.70845 | 157° | 13km/h | 1302m | -3.5m/s | 19.4°C | 71.5% | 0hPa | 2.7V | 07:42:12 | 03:16:12 | 00:00:00 | |
| IW2NTF | 2026-09-02 13:51:24 | 44.93017 | 9.70842 | 162° | 11km/h | 1309m | -3.3m/s | 19.3°C | 72.1% | 0hPa | 2.7V | 07:42:14 | 03:16:10 | 00:00:00 | |
| IW2NTF | 2026-09-02 13:51:24 | 44.93023 | 9.70839 | 157° | 11km/h | 1316m | -3.9m/s | 19.3°C | 72.1% | 0hPa | 2.7V | 07:42:16 | 03:16:08 | 00:00:00 | |
| IW2NTF | 2026-09-02 13:51:19 | 44.93027 | 9.70836 | 149° | 11km/h | 1324m | -4.2m/s | 19.2°C | 72.2% | 0hPa | 2.7V | 07:42:18 | 03:16:06 | 00:00:00 | |
| IW2NTF | 2026-09-02 13:51:19 | 44.93032 | 9.70831 | 137° | 9km/h | 1332m | -3.8m/s | 19.1°C | 72.6% | 0hPa | 2.7V | 07:42:20 | 03:16:04 | 00:00:00 | |
| IW2NTF | 2026-09-02 13:51:19 | 44.93034 | 9.70826 | 126° | 9km/h | 1340m | -3.2m/s | 19.1°C | 72.5% | 0hPa | 2.7V | 07:42:22 | 03:16:02 | 00:00:00 | |
| IW2NTF | 2026-09-02 13:51:12 | 44.93037 | 9.70821 | 129° | 9km/h | 1346m | -3m/s | 19°C | 73.2% | 0hPa | 2.7V | 07:42:24 | 03:16:00 | 00:00:00 | |
| IW2NTF | 2026-09-02 13:51:12 | 44.93044 | 9.70811 | 134° | 9km/h | 1358m | -3.3m/s | 18.9°C | 73.6% | 0hPa | 2.7V | 07:42:28 | 03:15:56 | 00:00:00 | |
| IW2NTF | 2026-09-02 13:51:05 | 44.93048 | 9.70806 | 135° | 9km/h | 1365m | -2.9m/s | 18.8°C | 74.4% | 0hPa | 2.7V | 07:42:30 | 03:15:54 | 00:00:00 | |
| IW2NTF | 2026-09-02 13:51:05 | 44.93051 | 9.70801 | 136° | 9km/h | 1371m | -3m/s | 18.7°C | 74.4% | 0hPa | 2.7V | 07:42:32 | 03:15:52 | 00:00:00 | |
| IW2NTF | 2026-09-02 13:51:05 | 44.93056 | 9.70795 | 141° | 9km/h | 1380m | -3.1m/s | 18.6°C | 75.1% | 0hPa | 2.7V | 07:42:35 | 03:15:49 | 00:00:00 | |
| IW2NTF | 2026-09-02 13:50:59 | 44.93060 | 9.70791 | 148° | 9km/h | 1385m | -3.1m/s | 18.6°C | 74.9% | 0hPa | 2.7V | 07:42:37 | 03:15:47 | 00:00:00 | |
| IW2NTF | 2026-09-02 13:50:59 | 44.93064 | 9.70788 | 156° | 7km/h | 1391m | -2.9m/s | 18.5°C | 75.1% | 0hPa | 2.7V | 07:42:39 | 03:15:45 | 00:00:00 | |
| IW2NTF | 2026-09-02 13:50:59 | 44.93068 | 9.70786 | 160° | 7km/h | 1397m | -2.7m/s | 18.5°C | 74.8% | 0hPa | 2.7V | 07:42:41 | 03:15:43 | 00:00:00 | |
| IW2NTF | 2026-09-02 13:50:53 | 44.93072 | 9.70784 | 158° | 9km/h | 1402m | -2.5m/s | 18.5°C | 74.8% | 0hPa | 2.7V | 07:42:43 | 03:15:41 | 00:00:00 | |
| IW2NTF | 2026-09-02 13:50:53 | 44.93076 | 9.70782 | 156° | 9km/h | 1406m | -1.6m/s | 18.4°C | 75.1% | 0hPa | 2.7V | 07:42:45 | 03:15:39 | 00:00:00 | |
| IW2NTF | 2026-09-02 13:50:53 | 44.93080 | 9.70779 | 152° | 9km/h | 1410m | -1.5m/s | 18.4°C | 75.4% | 0hPa | 2.7V | 07:42:47 | 03:15:37 | 00:00:00 | |
| IW2NTF | 2026-09-02 13:50:47 | 44.93084 | 9.70776 | 155° | 9km/h | 1413m | -1.5m/s | 18.3°C | 75.7% | 0hPa | 2.7V | 07:42:49 | 03:15:35 | 00:00:00 | |
| IW2NTF | 2026-09-02 13:50:47 | 44.93089 | 9.70774 | 164° | 7km/h | 1416m | -1.9m/s | 18.4°C | 75.6% | 0hPa | 2.7V | 07:42:51 | 03:15:33 | 00:00:00 | |
| IW2NTF | 2026-09-02 13:50:47 | 44.93092 | 9.70773 | 175° | 7km/h | 1419m | -2m/s | 18.4°C | 75.6% | 0hPa | 2.7V | 07:42:53 | 03:15:31 | 00:00:00 | |
| IW2NTF | 2026-09-02 13:50:41 | 44.93096 | 9.70772 | 177° | 7km/h | 1423m | -1.8m/s | 18.3°C | 76% | 0hPa | 2.7V | 07:42:55 | 03:15:29 | 00:00:00 | |
| IW2NTF | 2026-09-02 13:50:41 | 44.93099 | 9.70772 | 166° | 7km/h | 1426m | -1.8m/s | 18.3°C | 76% | 0hPa | 2.7V | 07:42:57 | 03:15:27 | 00:00:00 | |
| IW2NTF | 2026-09-02 13:50:41 | 44.93102 | 9.70771 | 167° | 7km/h | 1430m | -1.8m/s | 18.2°C | 76.5% | 0hPa | 2.7V | 07:42:59 | 03:15:25 | 00:00:00 | |
| IW2NTF | 2026-09-02 13:50:35 | 44.93105 | 9.70769 | 160° | 7km/h | 1434m | -1.9m/s | 18.1°C | 76.7% | 0hPa | 2.7V | 07:43:01 | 03:15:23 | 00:00:00 | |
| IW2NTF | 2026-09-02 13:50:35 | 44.93109 | 9.70768 | 164° | 7km/h | 1438m | -1.8m/s | 18.1°C | 76.7% | 0hPa | 2.7V | 07:43:03 | 03:15:21 | 00:00:00 | |
| IW2NTF | 2026-09-02 13:50:35 | 44.93113 | 9.70767 | 166° | 7km/h | 1441m | -1.7m/s | 18.1°C | 76.9% | 0hPa | 2.6V | 07:43:05 | 03:15:19 | 00:00:00 | |
| IW2NTF | 2026-09-02 13:50:29 | 44.93116 | 9.70765 | 165° | 7km/h | 1445m | -2m/s | 18°C | 76.6% | 0hPa | 2.7V | 07:43:07 | 03:15:17 | 00:00:00 | |
| IW2NTF | 2026-09-02 13:50:29 | 44.93120 | 9.70764 | 158° | 7km/h | 1449m | -2.4m/s | 18.1°C | 77% | 0hPa | 2.7V | 07:43:09 | 03:15:15 | 00:00:00 | |
| IW2NTF | 2026-09-02 13:50:29 | 44.93123 | 9.70762 | 161° | 7km/h | 1454m | -2.8m/s | 17.9°C | 77.3% | 0hPa | 2.7V | 07:43:11 | 03:15:13 | 00:00:00 | |
| IW2NTF | 2026-09-02 13:50:23 | 44.93127 | 9.70760 | 153° | 9km/h | 1458m | -1.6m/s | 17.9°C | 77% | 0hPa | 2.6V | 07:43:13 | 03:15:11 | 00:00:00 | |
| IW2NTF | 2026-09-02 13:50:23 | 44.93130 | 9.70757 | 145° | 9km/h | 1462m | -3.1m/s | 17.9°C | 77.3% | 0hPa | 2.7V | 07:43:15 | 03:15:09 | 00:00:00 | |
| IW2NTF | 2026-09-02 13:50:23 | 44.93134 | 9.70753 | 140° | 9km/h | 1469m | -3.1m/s | 17.8°C | 77.7% | 0hPa | 2.7V | 07:43:17 | 03:15:07 | 00:00:00 | |
| IW2NTF | 2026-09-02 13:50:17 | 44.93138 | 9.70749 | 140° | 9km/h | 1475m | -2.5m/s | 17.8°C | 77% | 0hPa | 2.7V | 07:43:19 | 03:15:05 | 00:00:00 | |
| IW2NTF | 2026-09-02 13:50:17 | 44.93142 | 9.70745 | 145° | 9km/h | 1479m | -2.9m/s | 17.7°C | 77.3% | 0hPa | 2.6V | 07:43:21 | 03:15:03 | 00:00:00 | |
| IW2NTF | 2026-09-02 13:50:17 | 44.93146 | 9.70742 | 154° | 11km/h | 1485m | -2.5m/s | 17.6°C | 77.5% | 0hPa | 2.7V | 07:43:23 | 03:15:01 | 00:00:00 | |
| IW2NTF | 2026-09-02 13:50:11 | 44.93151 | 9.70739 | 158° | 11km/h | 1490m | -3.9m/s | 17.6°C | 77.9% | 0hPa | 2.7V | 07:43:25 | 03:14:59 | 00:00:00 | |
| IW2NTF | 2026-09-02 13:50:11 | 44.93156 | 9.70736 | 157° | 9km/h | 1497m | -3.3m/s | 17.5°C | 78.7% | 0hPa | 2.7V | 07:43:27 | 03:14:57 | 00:00:00 | |
| IW2NTF | 2026-09-02 13:50:11 | 44.93161 | 9.70732 | 142° | 11km/h | 1504m | -2.4m/s | 17.5°C | 78.8% | 0hPa | 2.6V | 07:43:29 | 03:14:55 | 00:00:00 | |
| IW2NTF | 2026-09-02 13:50:01 | 44.93176 | 9.70717 | 144° | 7km/h | 1538m | -5m/s | 17.1°C | 80.5% | 0hPa | 2.6V | 07:43:37 | 03:14:47 | 00:00:00 | |
| IW2NTF | 2026-09-02 13:50:01 | 44.93180 | 9.70714 | 165° | 7km/h | 1548m | -4.9m/s | 17.1°C | 80.8% | 0hPa | 2.7V | 07:43:39 | 03:14:45 | 00:00:00 | |
| IW2NTF | 2026-09-02 13:49:55 | 44.93189 | 9.70711 | 173° | 7km/h | 1569m | -5.4m/s | 16.9°C | 83.5% | 0hPa | 2.7V | 07:43:43 | 03:14:41 | 00:00:00 | |
| IW2NTF | 2026-09-02 13:49:55 | 44.93193 | 9.70710 | 176° | 7km/h | 1580m | -5.5m/s | 16.7°C | 83.6% | 0hPa | 2.7V | 07:43:45 | 03:14:39 | 00:00:00 | |
| IW2NTF | 2026-09-02 13:49:49 | 44.93196 | 9.70711 | 191° | 5km/h | 1591m | -6.2m/s | 16.6°C | 84.1% | 0hPa | 2.7V | 07:43:47 | 03:14:37 | 00:00:00 | |
| IW2NTF | 2026-09-02 13:49:49 | 44.93200 | 9.70711 | 162° | 7km/h | 1604m | -5.2m/s | 16.5°C | 84.1% | 0hPa | 2.7V | 07:43:49 | 03:14:35 | 00:00:00 | |
| IW2NTF | 2026-09-02 13:49:49 | 44.93204 | 9.70709 | 165° | 9km/h | 1615m | -5.7m/s | 16.4°C | 85% | 0hPa | 2.7V | 07:43:51 | 03:14:33 | 00:00:00 | |
| IW2NTF | 2026-09-02 13:49:44 | 44.93208 | 9.70707 | 159° | 7km/h | 1626m | -5.6m/s | 16.3°C | 85.6% | 0hPa | 2.7V | 07:43:53 | 03:14:31 | 00:00:00 | |
| IW2NTF | 2026-09-02 13:49:44 | 44.93211 | 9.70706 | 172° | 7km/h | 1636m | -5.2m/s | 16.2°C | 86% | 0hPa | 2.7V | 07:43:55 | 03:14:29 | 00:00:00 | |
| IW2NTF | 2026-09-02 13:49:44 | 44.93215 | 9.70706 | 191° | 5km/h | 1646m | -5.1m/s | 16.1°C | 86.6% | 0hPa | 2.7V | 07:43:57 | 03:14:27 | 00:00:00 | |
| IW2NTF | 2026-09-02 13:49:37 | 44.93218 | 9.70707 | 200° | 5km/h | 1656m | -4.7m/s | 16°C | 87% | 0hPa | 2.6V | 07:43:59 | 03:14:25 | 00:00:00 | |
| IW2NTF | 2026-09-02 13:49:37 | 44.93221 | 9.70709 | 205° | 7km/h | 1666m | -5m/s | 15.9°C | 87.6% | 0hPa | 2.7V | 07:44:01 | 03:14:23 | 00:00:00 | |
| IW2NTF | 2026-09-02 13:49:37 | 44.93225 | 9.70710 | 185° | 9km/h | 1676m | -5.3m/s | 15.8°C | 88% | 0hPa | 2.7V | 07:44:03 | 03:14:21 | 00:00:00 | |
| IW2NTF | 2026-09-02 13:49:31 | 44.93230 | 9.70711 | 172° | 9km/h | 1686m | -5.2m/s | 15.7°C | 88.6% | 0hPa | 2.7V | 07:44:05 | 03:14:19 | 00:00:00 | |
| IW2NTF | 2026-09-02 13:49:31 | 44.93236 | 9.70711 | 187° | 9km/h | 1697m | -5.8m/s | 15.6°C | 88.1% | 0hPa | 2.7V | 07:44:07 | 03:14:17 | 00:00:00 | |
| IW2NTF | 2026-09-02 13:49:31 | 44.93240 | 9.70710 | 177° | 9km/h | 1709m | -5.9m/s | 15.5°C | 89.3% | 0hPa | 2.7V | 07:44:09 | 03:14:15 | 00:00:00 | |
| IW2NTF | 2026-09-02 13:49:25 | 44.93245 | 9.70710 | 178° | 9km/h | 1720m | -5.5m/s | 15.4°C | 88.6% | 0hPa | 2.7V | 07:44:11 | 03:14:13 | 00:00:00 | |
| IW2NTF | 2026-09-02 13:49:25 | 44.93250 | 9.70709 | 164° | 9km/h | 1729m | -4.9m/s | 15.2°C | 88.3% | 0hPa | 2.6V | 07:44:13 | 03:14:11 | 00:00:00 | |
| IW2NTF | 2026-09-02 13:49:25 | 44.93254 | 9.70706 | 140° | 9km/h | 1739m | -4.2m/s | 15.2°C | 88.3% | 0hPa | 2.7V | 07:44:15 | 03:14:09 | 00:00:00 | |
| IW2NTF | 2026-09-02 13:49:18 | 44.93258 | 9.70701 | 138° | 7km/h | 1746m | -4.4m/s | 15.1°C | 88.1% | 0hPa | 2.7V | 07:44:17 | 03:14:07 | 00:00:00 | |
| IW2NTF | 2026-09-02 13:49:18 | 44.93261 | 9.70698 | 141° | 7km/h | 1755m | -4.8m/s | 15°C | 88.3% | 0hPa | 2.7V | 07:44:19 | 03:14:05 | 00:00:00 | |
| IW2NTF | 2026-09-02 13:49:18 | 44.93266 | 9.70692 | 148° | 9km/h | 1768m | -4.7m/s | 14.9°C | 88.9% | 0hPa | 2.7V | 07:44:22 | 03:14:02 | 00:00:00 | |
| IW2NTF | 2026-09-02 13:49:13 | 44.93270 | 9.70688 | 146° | 11km/h | 1777m | -5.1m/s | 14.8°C | 89.7% | 0hPa | 2.6V | 07:44:24 | 03:14:00 | 00:00:00 | |
| IW2NTF | 2026-09-02 13:49:13 | 44.93275 | 9.70684 | 145° | 11km/h | 1787m | -4.1m/s | 14.7°C | 90.5% | 0hPa | 2.7V | 07:44:26 | 03:13:58 | 00:00:00 | |
| IW2NTF | 2026-09-02 13:49:13 | 44.93279 | 9.70680 | 152° | 11km/h | 1795m | -4.3m/s | 14.6°C | 92.1% | 0hPa | 2.7V | 07:44:28 | 03:13:56 | 00:00:00 | |
| IW2NTF | 2026-09-02 13:49:06 | 44.93284 | 9.70677 | 150° | 9km/h | 1804m | -4.8m/s | 14.5°C | 91.4% | 0hPa | 2.7V | 07:44:30 | 03:13:54 | 00:00:00 | |
| IW2NTF | 2026-09-02 13:49:06 | 44.93288 | 9.70673 | 138° | 11km/h | 1812m | -4.1m/s | 14.4°C | 91.4% | 0hPa | 2.7V | 07:44:32 | 03:13:52 | 00:00:00 | |
| IW2NTF | 2026-09-02 13:49:06 | 44.93293 | 9.70667 | 135° | 11km/h | 1821m | -4.6m/s | 14.3°C | 94% | 0hPa | 2.7V | 07:44:34 | 03:13:50 | 00:00:00 | |
| IW2NTF | 2026-09-02 13:49:00 | 44.93296 | 9.70661 | 119° | 11km/h | 1830m | -5.3m/s | 14.3°C | 95.1% | 0hPa | 2.6V | 07:44:36 | 03:13:48 | 00:00:00 | |
| IW2NTF | 2026-09-02 13:49:00 | 44.93300 | 9.70654 | 128° | 11km/h | 1841m | -5.8m/s | 14.2°C | 95.9% | 0hPa | 2.7V | 07:44:38 | 03:13:46 | 00:00:00 | |
| IW2NTF | 2026-09-02 13:49:00 | 44.93303 | 9.70648 | 128° | 11km/h | 1851m | -4.9m/s | 14.1°C | 96.5% | 0hPa | 2.7V | 07:44:40 | 03:13:44 | 00:00:00 | |
| IW2NTF | 2026-09-02 13:48:54 | 44.93308 | 9.70642 | 136° | 13km/h | 1860m | -4.7m/s | 14°C | 97.1% | 0hPa | 2.7V | 07:44:42 | 03:13:42 | 00:00:00 | |
| IW2NTF | 2026-09-02 13:48:54 | 44.93312 | 9.70634 | 123° | 16km/h | 1870m | -4.7m/s | 13.9°C | 97.2% | 0hPa | 2.6V | 07:44:44 | 03:13:40 | 00:00:00 | |
| IW2NTF | 2026-09-02 13:48:54 | 44.93317 | 9.70624 | 111° | 15km/h | 1880m | -5.7m/s | 13.8°C | 98.1% | 0hPa | 2.7V | 07:44:46 | 03:13:38 | 00:00:00 | |
| IW2NTF | 2026-09-02 13:48:48 | 44.93319 | 9.70615 | 107° | 13km/h | 1892m | -6.1m/s | 13.7°C | 98.4% | 0hPa | 2.7V | 07:44:48 | 03:13:36 | 00:00:00 | |
| IW2NTF | 2026-09-02 13:48:48 | 44.93321 | 9.70605 | 105° | 13km/h | 1903m | -5.7m/s | 13.6°C | 98.9% | 0hPa | 2.7V | 07:44:50 | 03:13:34 | 00:00:00 | |
| IW2NTF | 2026-09-02 13:48:48 | 44.93323 | 9.70596 | 100° | 15km/h | 1916m | -5.7m/s | 13.4°C | 98.5% | 0hPa | 2.7V | 07:44:52 | 03:13:32 | 00:00:00 | |
| IW2NTF | 2026-09-02 13:48:42 | 44.93324 | 9.70586 | 103° | 16km/h | 1927m | -5.5m/s | 13.3°C | 98.1% | 0hPa | 2.6V | 07:44:54 | 03:13:30 | 00:00:00 | |
| IW2NTF | 2026-09-02 13:48:42 | 44.93327 | 9.70574 | 106° | 18km/h | 1939m | -5.9m/s | 13.4°C | 96.9% | 0hPa | 2.7V | 07:44:56 | 03:13:28 | 00:00:00 | |
| IW2NTF | 2026-09-02 13:48:42 | 44.93328 | 9.70561 | 100° | 20km/h | 1950m | -6m/s | 14.1°C | 69.1% | 0hPa | 2.7V | 07:44:58 | 03:13:26 | 00:00:00 | |
| IW2NTF | 2026-09-02 13:48:36 | 44.93330 | 9.70547 | 93° | 18km/h | 1962m | -5.8m/s | 13.9°C | 71.5% | 0hPa | 2.7V | 07:45:00 | 03:13:24 | 00:00:00 | |
| IW2NTF | 2026-09-02 13:48:36 | 44.93330 | 9.70534 | 88° | 16km/h | 1972m | -5.7m/s | 13.8°C | 71.2% | 0hPa | 2.7V | 07:45:02 | 03:13:22 | 00:00:00 | |
| IW2NTF | 2026-09-02 13:48:36 | 44.93331 | 9.70523 | 92° | 15km/h | 1984m | -5.8m/s | 13.9°C | 65.5% | 0hPa | 2.7V | 07:45:04 | 03:13:20 | 00:00:00 | |
| IW2NTF | 2026-09-02 13:48:30 | 44.93331 | 9.70514 | 95° | 13km/h | 1996m | -6m/s | 13.6°C | 71.3% | 0hPa | 2.6V | 07:45:06 | 03:13:18 | 00:00:00 | |
| IW2NTF | 2026-09-02 13:48:30 | 44.93333 | 9.70496 | 94° | 13km/h | 2020m | -5.9m/s | 13.7°C | 63.5% | 0hPa | 2.7V | 07:45:10 | 03:13:14 | 00:00:00 | |
| IW2NTF | 2026-09-02 13:48:24 | 44.93330 | 9.70467 | 74° | 13km/h | 2054m | -5.8m/s | 13.6°C | 60.7% | 0hPa | 2.6V | 07:45:16 | 03:13:08 | 00:00:00 | |
| IW2NTF | 2026-09-02 13:48:18 | 44.93325 | 9.70438 | 78° | 15km/h | 2089m | -6.3m/s | 13.3°C | 60.1% | 0hPa | 2.7V | 07:45:22 | 03:13:02 | 00:00:00 | |
| IW2NTF | 2026-09-02 13:48:12 | 44.93320 | 9.70410 | 75° | 13km/h | 2125m | -5.9m/s | 13.1°C | 53% | 0hPa | 2.6V | 07:45:28 | 03:12:56 | 00:00:00 | |
| IW2NTF | 2026-09-02 13:48:06 | 44.93320 | 9.70383 | 104° | 13km/h | 2162m | -6.2m/s | 13°C | 49.7% | 0hPa | 2.6V | 07:45:34 | 03:12:50 | 00:00:00 | |
| IW2NTF | 2026-09-02 13:48:00 | 44.93326 | 9.70348 | 100° | 20km/h | 2198m | -6.2m/s | 12.8°C | 46.7% | 0hPa | 2.7V | 07:45:40 | 03:12:44 | 00:00:00 | |
| IW2NTF | 2026-09-02 13:47:54 | 44.93328 | 9.70301 | 87° | 24km/h | 2235m | -6.2m/s | 12.5°C | 46.5% | 0hPa | 2.7V | 07:45:46 | 03:12:38 | 00:00:00 | |
| IW2NTF | 2026-09-02 13:47:48 | 44.93324 | 9.70249 | 86° | 26km/h | 2271m | -5.6m/s | 12.2°C | 47.7% | 0hPa | 2.7V | 07:45:52 | 03:12:32 | 00:00:00 | |
| IW2NTF | 2026-09-02 13:47:42 | 44.93324 | 9.70200 | 92° | 18km/h | 2305m | -5.7m/s | 12°C | 49.3% | 0hPa | 2.7V | 07:45:58 | 03:12:26 | 00:00:00 | |
| IW2NTF | 2026-09-02 13:47:36 | 44.93318 | 9.70166 | 59° | 18km/h | 2341m | -6.3m/s | 12°C | 42.9% | 0hPa | 2.6V | 07:46:04 | 03:12:20 | 00:00:00 | |
| IW2NTF | 2026-09-02 13:47:29 | 44.93298 | 9.70113 | 73° | 27km/h | 2381m | -5.4m/s | 11.8°C | 37.3% | 0hPa | 2.7V | 07:46:11 | 03:12:13 | 00:00:00 | |
| IW2NTF | 2026-09-02 13:47:21 | 44.93293 | 9.70048 | 85° | 18km/h | 2427m | -6.2m/s | 11.4°C | 35.1% | 0hPa | 2.7V | 07:46:19 | 03:12:05 | 00:00:00 | |
| IW2NTF | 2026-09-02 13:47:15 | 44.93289 | 9.70014 | 70° | 18km/h | 2463m | -6.4m/s | 11.2°C | 32.9% | 0hPa | 2.7V | 07:46:25 | 03:11:59 | 00:00:00 | |
| IW2NTF | 2026-09-02 13:47:09 | 44.93283 | 9.69967 | 92° | 24km/h | 2500m | -5.7m/s | 10.9°C | 33.6% | 0hPa | 2.7V | 07:46:31 | 03:11:53 | 00:00:00 | |
| IW2NTF | 2026-09-02 13:47:03 | 44.93286 | 9.69923 | 89° | 22km/h | 2537m | -6m/s | 10.6°C | 33.4% | 0hPa | 2.6V | 07:46:37 | 03:11:47 | 00:00:00 | |
| IW2NTF | 2026-09-02 13:46:57 | 44.93286 | 9.69866 | 95° | 31km/h | 2574m | -6.5m/s | 10.4°C | 34.7% | 0hPa | 2.7V | 07:46:43 | 03:11:41 | 00:00:00 | |
| IW2NTF | 2026-09-02 13:46:51 | 44.93293 | 9.69802 | 106° | 29km/h | 2612m | -6.5m/s | 10.2°C | 37.7% | 0hPa | 2.7V | 07:46:49 | 03:11:35 | 00:00:00 | |
| IW2NTF | 2026-09-02 13:46:45 | 44.93301 | 9.69746 | 89° | 26km/h | 2651m | -6.6m/s | 9.8°C | 38.7% | 0hPa | 2.6V | 07:46:55 | 03:11:29 | 00:00:00 | |
| IW2NTF | 2026-09-02 13:46:39 | 44.93301 | 9.69679 | 93° | 37km/h | 2690m | -6.6m/s | 9.5°C | 40.7% | 0hPa | 2.7V | 07:47:01 | 03:11:23 | 00:00:00 | |
| IW2NTF | 2026-09-02 13:46:33 | 44.93311 | 9.69601 | 106° | 37km/h | 2729m | -6.5m/s | 9.1°C | 42.9% | 0hPa | 2.7V | 07:47:07 | 03:11:17 | 00:00:00 | |
| IW2NTF | 2026-09-02 13:46:27 | 44.93321 | 9.69530 | 93° | 33km/h | 2768m | -6.8m/s | 8.8°C | 46.9% | 0hPa | 2.7V | 07:47:13 | 03:11:11 | 00:00:00 | |
| IW2NTF | 2026-09-02 13:46:21 | 44.93326 | 9.69451 | 100° | 37km/h | 2808m | -6.5m/s | 8.5°C | 51.5% | 0hPa | 2.7V | 07:47:19 | 03:11:05 | 00:00:00 | |
| IW2NTF | 2026-09-02 13:46:16 | 44.93335 | 9.69380 | 100° | 35km/h | 2846m | -6.6m/s | 8.1°C | 53.1% | 0hPa | 2.7V | 07:47:25 | 03:10:59 | 00:00:00 | |
| IW2NTF | 2026-09-02 13:46:09 | 44.93345 | 9.69294 | 94° | 33km/h | 2891m | -6.2m/s | 7.8°C | 53.7% | 0hPa | 2.7V | 07:47:32 | 03:10:52 | 00:00:00 | |
| IW2NTF | 2026-09-02 13:46:02 | 44.93340 | 9.69220 | 79° | 40km/h | 2929m | -6.5m/s | 7.4°C | 54.2% | 0hPa | 2.7V | 07:47:38 | 03:10:46 | 00:00:00 | |
| IW2NTF | 2026-09-02 13:45:56 | 44.93333 | 9.69127 | 86° | 46km/h | 2969m | -6.6m/s | 7.2°C | 54.3% | 0hPa | 2.6V | 07:47:44 | 03:10:40 | 00:00:00 | |
| IW2NTF | 2026-09-02 13:45:50 | 44.93336 | 9.69030 | 97° | 44km/h | 3007m | -6.5m/s | 6.9°C | 55.5% | 0hPa | 2.7V | 07:47:50 | 03:10:34 | 00:00:00 | |
| IW2NTF | 2026-09-02 13:45:44 | 44.93344 | 9.68939 | 97° | 42km/h | 3047m | -6.7m/s | 6.5°C | 57.4% | 0hPa | 2.7V | 07:47:56 | 03:10:28 | 00:00:00 | |
| IW2NTF | 2026-09-02 13:45:38 | 44.93348 | 9.68853 | 87° | 38km/h | 3088m | -6.8m/s | 6.1°C | 59% | 0hPa | 2.7V | 07:48:02 | 03:10:22 | 00:00:00 | |
| IW2NTF | 2026-09-02 13:45:32 | 44.93341 | 9.68763 | 82° | 46km/h | 3128m | -7.3m/s | 5.7°C | 60.3% | 0hPa | 2.6V | 07:48:08 | 03:10:16 | 00:00:00 | |
| IW2NTF | 2026-09-02 13:45:26 | 44.93333 | 9.68671 | 84° | 44km/h | 3170m | -6.7m/s | 5.3°C | 61.8% | 0hPa | 2.7V | 07:48:14 | 03:10:10 | 00:00:00 | |
| IW2NTF | 2026-09-02 13:45:20 | 44.93330 | 9.68571 | 91° | 46km/h | 3211m | -6.8m/s | 4.9°C | 63.2% | 0hPa | 2.7V | 07:48:20 | 03:10:04 | 00:00:00 | |
| IW2NTF | 2026-09-02 13:45:15 | 44.93330 | 9.68477 | 84° | 46km/h | 3251m | -7m/s | 4.6°C | 64.1% | 0hPa | 2.7V | 07:48:26 | 03:09:58 | 00:00:00 | |
| IW2NTF | 2026-09-02 13:45:08 | 44.93330 | 9.68377 | 96° | 44km/h | 3292m | -6.8m/s | 4.2°C | 65.4% | 0hPa | 2.6V | 07:48:32 | 03:09:52 | 00:00:00 | |
| IW2NTF | 2026-09-02 13:45:02 | 44.93332 | 9.68289 | 86° | 44km/h | 3334m | -6.8m/s | 3.8°C | 66.9% | 0hPa | 2.7V | 07:48:38 | 03:09:46 | 00:00:00 | |
| IW2NTF | 2026-09-02 13:44:56 | 44.93332 | 9.68194 | 91° | 44km/h | 3376m | -7.1m/s | 3.4°C | 68% | 0hPa | 2.7V | 07:48:44 | 03:09:40 | 00:00:00 | |
| IW2NTF | 2026-09-02 13:44:50 | 44.93336 | 9.68102 | 95° | 42km/h | 3419m | -7.5m/s | 3°C | 67.2% | 0hPa | 2.7V | 07:48:50 | 03:09:34 | 00:00:00 | |
| IW2NTF | 2026-09-02 13:44:44 | 44.93341 | 9.68012 | 95° | 42km/h | 3462m | -7m/s | 2.8°C | 62% | 0hPa | 2.7V | 07:48:56 | 03:09:28 | 00:00:00 | |
| IW2NTF | 2026-09-02 13:44:31 | 44.93356 | 9.67810 | 94° | 37km/h | 3559m | -7m/s | 2°C | 59.2% | 0hPa | 2.6V | 07:49:10 | 03:09:14 | 00:00:00 | |
| IW2NTF | 2026-09-02 13:44:24 | 44.93361 | 9.67730 | 96° | 38km/h | 3600m | -6.7m/s | 1.8°C | 51.9% | 0hPa | 2.6V | 07:49:16 | 03:09:08 | 00:00:00 | |
| IW2NTF | 2026-09-02 13:44:18 | 44.93368 | 9.67653 | 98° | 35km/h | 3642m | -7.1m/s | 1.8°C | 39.2% | 0hPa | 2.7V | 07:49:22 | 03:09:02 | 00:00:00 | |
| IW2NTF | 2026-09-02 13:44:12 | 44.93376 | 9.67583 | 99° | 31km/h | 3683m | -7.2m/s | 1.8°C | 30.5% | 0hPa | 2.7V | 07:49:28 | 03:08:56 | 00:00:00 | |
| IW2NTF | 2026-09-02 13:44:06 | 44.93386 | 9.67518 | 103° | 31km/h | 3725m | -7m/s | 1.7°C | 23.4% | 0hPa | 2.7V | 07:49:34 | 03:08:50 | 00:00:00 | |
| IW2NTF | 2026-09-02 13:44:00 | 44.93398 | 9.67454 | 106° | 31km/h | 3766m | -6.9m/s | 2°C | 15.9% | 0hPa | 2.7V | 07:49:40 | 03:08:44 | 00:00:00 | |
| IW2NTF | 2026-09-02 13:43:54 | 44.93414 | 9.67387 | 110° | 35km/h | 3807m | -7.1m/s | 2.1°C | 10.6% | 0hPa | 2.6V | 07:49:46 | 03:08:38 | 00:00:00 | |
| IW2NTF | 2026-09-02 13:43:48 | 44.93432 | 9.67316 | 110° | 37km/h | 3848m | -7.2m/s | 1.9°C | 9.9% | 0hPa | 2.6V | 07:49:52 | 03:08:32 | 00:00:00 | |
| IW2NTF | 2026-09-02 13:43:42 | 44.93452 | 9.67240 | 111° | 37km/h | 3890m | -7.2m/s | 1.8°C | 8.4% | 0hPa | 2.7V | 07:49:58 | 03:08:26 | 00:00:00 | |
| IW2NTF | 2026-09-02 13:43:36 | 44.93473 | 9.67164 | 110° | 38km/h | 3932m | -6.7m/s | 1.7°C | 8% | 0hPa | 2.7V | 07:50:04 | 03:08:20 | 00:00:00 | |
| IW2NTF | 2026-09-02 13:43:30 | 44.93494 | 9.67084 | 110° | 40km/h | 3973m | -7.2m/s | 1.4°C | 8.4% | 0hPa | 2.7V | 07:50:10 | 03:08:14 | 00:00:00 | |
| IW2NTF | 2026-09-02 13:43:24 | 44.93514 | 9.67002 | 107° | 42km/h | 4015m | -6.6m/s | 1.1°C | 8.4% | 0hPa | 2.7V | 07:50:16 | 03:08:08 | 00:00:00 | |
| IW2NTF | 2026-09-02 13:43:18 | 44.93533 | 9.66918 | 107° | 40km/h | 4056m | -7.2m/s | 0.8°C | 8.1% | 0hPa | 2.7V | 07:50:22 | 03:08:02 | 00:00:00 | |
| IW2NTF | 2026-09-02 13:43:12 | 44.93550 | 9.66834 | 103° | 42km/h | 4097m | -6.9m/s | 0.4°C | 7.7% | 0hPa | 2.7V | 07:50:28 | 03:07:56 | 00:00:00 | |
| IW2NTF | 2026-09-02 13:43:06 | 44.93566 | 9.66748 | 103° | 42km/h | 4139m | -7m/s | 0.1°C | 7.7% | 0hPa | 2.6V | 07:50:34 | 03:07:50 | 00:00:00 | |
| IW2NTF | 2026-09-02 13:43:00 | 44.93579 | 9.66659 | 100° | 44km/h | 4181m | -7.3m/s | -0.2°C | 7.8% | 0hPa | 2.6V | 07:50:40 | 03:07:44 | 00:00:00 | |
| IW2NTF | 2026-09-02 13:42:54 | 44.93591 | 9.66562 | 98° | 47km/h | 4223m | -7m/s | -0.4°C | 5.5% | 0hPa | 2.6V | 07:50:46 | 03:07:38 | 00:00:00 | |
| IW2NTF | 2026-09-02 13:42:48 | 44.93602 | 9.66460 | 98° | 49km/h | 4265m | -6.9m/s | -0.4°C | 4.7% | 0hPa | 2.6V | 07:50:52 | 03:07:32 | 00:00:00 | |
| IW2NTF | 2026-09-02 13:42:42 | 44.93613 | 9.66357 | 98° | 47km/h | 4306m | -7m/s | -0.5°C | 7.6% | 0hPa | 2.7V | 07:50:58 | 03:07:26 | 00:00:00 | |
| IW2NTF | 2026-09-02 13:42:36 | 44.93624 | 9.66253 | 99° | 49km/h | 4348m | -7.1m/s | -0.7°C | 4.7% | 0hPa | 2.7V | 07:51:04 | 03:07:20 | 00:00:00 | |
| IW2NTF | 2026-09-02 13:42:30 | 44.93638 | 9.66148 | 101° | 49km/h | 4389m | -6.5m/s | -0.9°C | 4.2% | 0hPa | 2.7V | 07:51:10 | 03:07:14 | 00:00:00 | |
| IW2NTF | 2026-09-02 13:42:24 | 44.93654 | 9.66045 | 104° | 49km/h | 4429m | -6.5m/s | -1.2°C | 4.3% | 0hPa | 2.7V | 07:51:16 | 03:07:08 | 00:00:00 | |
| IW2NTF | 2026-09-02 13:42:18 | 44.93673 | 9.65942 | 105° | 47km/h | 4469m | -6.6m/s | -1.5°C | 5.2% | 0hPa | 2.7V | 07:51:22 | 03:07:02 | 00:00:00 | |
| IW2NTF | 2026-09-02 13:42:12 | 44.93694 | 9.65844 | 107° | 49km/h | 4507m | -6.6m/s | -1.8°C | 5.6% | 0hPa | 2.7V | 07:51:28 | 03:06:56 | 00:00:00 | |
| IW2NTF | 2026-09-02 13:42:06 | 44.93717 | 9.65743 | 108° | 49km/h | 4547m | -6.6m/s | -2.2°C | 5.6% | 0hPa | 2.7V | 07:51:34 | 03:06:50 | 00:00:00 | |
| IW2NTF | 2026-09-02 13:42:00 | 44.93743 | 9.65645 | 112° | 49km/h | 4587m | -6.7m/s | -2.5°C | 6.1% | 0hPa | 2.7V | 07:51:40 | 03:06:44 | 00:00:00 | |
| IW2NTF | 2026-09-02 13:41:54 | 44.93772 | 9.65547 | 112° | 49km/h | 4627m | -6.6m/s | -2.8°C | 7.3% | 0hPa | 2.7V | 07:51:46 | 03:06:38 | 00:00:00 | |
| IW2NTF | 2026-09-02 13:41:48 | 44.93802 | 9.65450 | 114° | 49km/h | 4666m | -6.4m/s | -3.2°C | 9.6% | 0hPa | 2.7V | 07:51:52 | 03:06:32 | 00:00:00 | |
| IW2NTF | 2026-09-02 13:41:42 | 44.93834 | 9.65354 | 115° | 47km/h | 4705m | -6.6m/s | -3.5°C | 11.7% | 0hPa | 2.7V | 07:51:58 | 03:06:26 | 00:00:00 | |
| IW2NTF | 2026-09-02 13:41:36 | 44.93866 | 9.65262 | 115° | 47km/h | 4745m | -6.7m/s | -3.9°C | 12.7% | 0hPa | 2.7V | 07:52:04 | 03:06:20 | 00:00:00 | |
| IW2NTF | 2026-09-02 13:41:30 | 44.93900 | 9.65171 | 119° | 47km/h | 4785m | -6.5m/s | -4.2°C | 13.9% | 0hPa | 2.7V | 07:52:10 | 03:06:14 | 00:00:00 | |
| IW2NTF | 2026-09-02 13:41:22 | 44.93944 | 9.65055 | 115° | 46km/h | 4838m | -6.4m/s | -4.7°C | 16.5% | 0hPa | 2.7V | 07:52:18 | 03:06:06 | 00:00:00 | |
| IW2NTF | 2026-09-02 13:41:16 | 44.93974 | 9.64966 | 114° | 46km/h | 4876m | -6.6m/s | -5°C | 22.1% | 0hPa | 2.7V | 07:52:24 | 03:06:00 | 00:00:00 | |
| IW2NTF | 2026-09-02 13:41:10 | 44.94002 | 9.64874 | 111° | 46km/h | 4915m | -6.8m/s | -5.3°C | 23.5% | 0hPa | 2.6V | 07:52:30 | 03:05:54 | 00:00:00 | |
| IW2NTF | 2026-09-02 13:41:04 | 44.94026 | 9.64781 | 109° | 46km/h | 4954m | -6.8m/s | -5.6°C | 25.8% | 0hPa | 2.7V | 07:52:36 | 03:05:48 | 00:00:00 | |
| IW2NTF | 2026-09-02 13:40:58 | 44.94049 | 9.64688 | 108° | 46km/h | 4994m | -6.9m/s | -5.9°C | 30.4% | 0hPa | 2.7V | 07:52:42 | 03:05:42 | 00:00:00 | |
| IW2NTF | 2026-09-02 13:40:52 | 44.94072 | 9.64594 | 109° | 47km/h | 5034m | -6.4m/s | -6.2°C | 29.3% | 0hPa | 2.6V | 07:52:48 | 03:05:36 | 00:00:00 | |
| IW2NTF | 2026-09-02 13:40:42 | 44.94111 | 9.64442 | 110° | 44km/h | 5098m | -6.3m/s | -6.8°C | 29% | 0hPa | 2.7V | 07:52:58 | 03:05:26 | 00:00:00 | |
| IW2NTF | 2026-09-02 13:40:32 | 44.94151 | 9.64295 | 110° | 44km/h | 5163m | -6.6m/s | -7.3°C | 25.5% | 0hPa | 2.6V | 07:53:08 | 03:05:16 | 00:00:00 | |
| IW2NTF | 2026-09-02 13:40:18 | 44.94217 | 9.64086 | 115° | 46km/h | 5252m | -6.4m/s | -7.7°C | 15.2% | 0hPa | 2.5V | 07:53:22 | 03:05:02 | 00:00:00 | |
| IW2NTF | 2026-09-02 13:40:08 | 44.94269 | 9.63938 | 118° | 47km/h | 5316m | -6.2m/s | -8.2°C | 18.9% | 0hPa | 2.6V | 07:53:32 | 03:04:52 | 00:00:00 | |
| IW2NTF | 2026-09-02 13:39:58 | 44.94329 | 9.63785 | 118° | 47km/h | 5378m | -6.4m/s | -8.7°C | 13.2% | 0hPa | 2.6V | 07:53:42 | 03:04:42 | 00:00:00 | |
| IW2NTF | 2026-09-02 13:39:48 | 44.94387 | 9.63635 | 119° | 49km/h | 5442m | -6.4m/s | -9.1°C | 12.8% | 0hPa | 2.6V | 07:53:52 | 03:04:32 | 00:00:00 | |
| IW2NTF | 2026-09-02 13:39:38 | 44.94445 | 9.63481 | 118° | 49km/h | 5506m | -6.8m/s | -9.7°C | 20.8% | 0hPa | 2.5V | 07:54:02 | 03:04:22 | 00:00:00 | |
| IW2NTF | 2026-09-02 13:39:28 | 44.94508 | 9.63321 | 119° | 51km/h | 5568m | -5.8m/s | -10.2°C | 22.1% | 0hPa | 2.6V | 07:54:12 | 03:04:12 | 00:00:00 | |
| IW2NTF | 2026-09-02 13:39:18 | 44.94573 | 9.63159 | 120° | 51km/h | 5631m | -8.7m/s | -10.8°C | 22.8% | 0hPa | 2.5V | 07:54:22 | 03:04:02 | 00:00:00 | |
| IW2NTF | 2026-09-02 13:39:08 | 44.94640 | 9.62996 | 120° | 53km/h | 5701m | -6.9m/s | -11.4°C | 28.7% | 0hPa | 2.6V | 07:54:32 | 03:03:52 | 00:00:00 | |
| IW2NTF | 2026-09-02 13:38:58 | 44.94705 | 9.62833 | 118° | 53km/h | 5765m | -6.6m/s | -11.9°C | 34.3% | 0hPa | 2.6V | 07:54:42 | 03:03:42 | 00:00:00 | |
| IW2NTF | 2026-09-02 13:38:48 | 44.94768 | 9.62668 | 117° | 53km/h | 5828m | -6.3m/s | -12.4°C | 41.4% | 0hPa | 2.6V | 07:54:52 | 03:03:32 | 00:00:00 | |
| IW2NTF | 2026-09-02 13:38:38 | 44.94828 | 9.62505 | 117° | 49km/h | 5890m | -6.4m/s | -13°C | 44.6% | 0hPa | 2.6V | 07:55:02 | 03:03:22 | 00:00:00 | |
| IW2NTF | 2026-09-02 13:38:28 | 44.94887 | 9.62348 | 117° | 49km/h | 5953m | -6.5m/s | -13.5°C | 47.9% | 0hPa | 2.6V | 07:55:12 | 03:03:12 | 00:00:00 | |
| IW2NTF | 2026-09-02 13:38:18 | 44.94942 | 9.62194 | 114° | 47km/h | 6016m | -6.2m/s | -14°C | 51.9% | 0hPa | 2.6V | 07:55:22 | 03:03:02 | 00:00:00 | |
| IW2NTF | 2026-09-02 13:38:08 | 44.94991 | 9.62031 | 112° | 51km/h | 6079m | -6.4m/s | -14.5°C | 48.5% | 0hPa | 2.6V | 07:55:32 | 03:02:52 | 00:00:00 | |
| IW2NTF | 2026-09-02 13:37:58 | 44.95034 | 9.61856 | 106° | 53km/h | 6142m | -6.4m/s | -14.9°C | 52.8% | 0hPa | 2.6V | 07:55:42 | 03:02:42 | 00:00:00 | |
| IW2NTF | 2026-09-02 13:37:48 | 44.95070 | 9.61667 | 103° | 57km/h | 6204m | -6.3m/s | -15.3°C | 56% | 0hPa | 2.6V | 07:55:52 | 03:02:32 | 00:00:00 | |
| IW2NTF | 2026-09-02 13:37:37 | 44.95105 | 9.61447 | 103° | 58km/h | 6272m | -6.1m/s | -15.7°C | 64.4% | 0hPa | 2.6V | 07:56:03 | 03:02:21 | 00:00:00 | |
| IW2NTF | 2026-09-02 13:35:55 | 44.95747 | 9.59516 | 121° | 64km/h | 6917m | -6.3m/s | -18.1°C | 61.6% | 0hPa | 2.6V | 07:57:45 | 03:00:39 | 00:00:00 | |
| IW2NTF | 2026-09-02 13:35:45 | 44.95833 | 9.59323 | 122° | 64km/h | 6982m | -6.5m/s | -18.4°C | 51.4% | 0hPa | 2.6V | 07:57:55 | 03:00:29 | 00:00:00 | |
| IW2NTF | 2026-09-02 13:35:35 | 44.95922 | 9.59136 | 124° | 62km/h | 7048m | -6.7m/s | -19°C | 48.4% | 0hPa | 2.5V | 07:58:05 | 03:00:19 | 00:00:00 | |
| IW2NTF | 2026-09-02 13:35:25 | 44.96014 | 9.58957 | 125° | 62km/h | 7114m | -6.5m/s | -19.6°C | 48% | 0hPa | 2.5V | 07:58:15 | 03:00:09 | 00:00:00 | |
| IW2NTF | 2026-09-02 13:35:15 | 44.96107 | 9.58782 | 128° | 60km/h | 7182m | -6.9m/s | -20.3°C | 46.9% | 0hPa | 2.5V | 07:58:25 | 02:59:59 | 00:00:00 | |
| IW2NTF | 2026-09-02 13:35:04 | 44.96211 | 9.58605 | 128° | 58km/h | 7250m | -6.1m/s | -20.8°C | 37.4% | 0hPa | 2.5V | 07:58:36 | 02:59:48 | 00:00:00 | |
| IW2NTF | 2026-09-02 13:34:54 | 44.96303 | 9.58443 | 128° | 58km/h | 7314m | -7m/s | -21.2°C | 20.5% | 0hPa | 2.5V | 07:58:46 | 02:59:38 | 00:00:00 | |
| IW2NTF | 2026-09-02 13:34:44 | 44.96395 | 9.58285 | 129° | 57km/h | 7380m | -7m/s | -21.6°C | 18.9% | 0hPa | 2.6V | 07:58:56 | 02:59:28 | 00:00:00 | |
| IW2NTF | 2026-09-02 13:34:31 | 44.96514 | 9.58085 | 129° | 57km/h | 7466m | -6.7m/s | -22.4°C | 19.2% | 0hPa | 2.5V | 07:59:09 | 02:59:15 | 00:00:00 | |
| IW2NTF | 2026-09-02 13:34:21 | 44.96608 | 9.57930 | 130° | 57km/h | 7532m | -6.8m/s | -23.1°C | 19.7% | 0hPa | 2.6V | 07:59:19 | 02:59:05 | 00:00:00 | |
| IW2NTF | 2026-09-02 13:34:10 | 44.96719 | 9.57757 | 133° | 60km/h | 7607m | -6.7m/s | -23.7°C | 20.3% | 0hPa | 2.6V | 07:59:30 | 02:58:54 | 00:00:00 | |
| IW2NTF | 2026-09-02 13:34:00 | 44.96831 | 9.57598 | 135° | 64km/h | 7677m | -7.2m/s | -24.3°C | 21% | 0hPa | 2.5V | 07:59:40 | 02:58:44 | 00:00:00 | |
| IW2NTF | 2026-09-02 13:33:50 | 44.96948 | 9.57435 | 135° | 66km/h | 7747m | -7m/s | -24.9°C | 20% | 0hPa | 2.6V | 07:59:50 | 02:58:34 | 00:00:00 | |
| IW2NTF | 2026-09-02 13:33:41 | 44.97065 | 9.57266 | 134° | 66km/h | 7814m | -6.9m/s | -25.5°C | 20% | 0hPa | 2.6V | 08:00:00 | 02:58:24 | 00:00:00 | |
| IW2NTF | 2026-09-02 13:33:30 | 44.97186 | 9.57092 | 134° | 69km/h | 7882m | -6.8m/s | -26°C | 18.9% | 0hPa | 2.5V | 08:00:10 | 02:58:14 | 00:00:00 | |
| IW2NTF | 2026-09-02 13:33:20 | 44.97308 | 9.56918 | 135° | 71km/h | 7948m | -6.4m/s | -26.6°C | 18.9% | 0hPa | 2.6V | 08:00:20 | 02:58:04 | 00:00:00 | |
| IW2NTF | 2026-09-02 13:33:10 | 44.97433 | 9.56736 | 133° | 69km/h | 8016m | -7.2m/s | -27.1°C | 18.3% | 0hPa | 2.6V | 08:00:30 | 02:57:54 | 00:00:00 | |
| IW2NTF | 2026-09-02 13:33:00 | 44.97554 | 9.56546 | 129° | 71km/h | 8083m | -6.8m/s | -27.4°C | 13.5% | 0hPa | 2.5V | 08:00:40 | 02:57:44 | 00:00:00 | |
| IW2NTF | 2026-09-02 13:32:50 | 44.97667 | 9.56353 | 129° | 69km/h | 8151m | -6.7m/s | -27.7°C | 8.7% | 0hPa | 2.6V | 08:00:50 | 02:57:34 | 00:00:00 | |
| IW2NTF | 2026-09-02 13:32:40 | 44.97787 | 9.56166 | 134° | 71km/h | 8220m | -7.4m/s | -28°C | 11.4% | 0hPa | 2.5V | 08:01:00 | 02:57:24 | 00:00:00 | |
| IW2NTF | 2026-09-02 13:32:30 | 44.97916 | 9.55982 | 135° | 73km/h | 8288m | -6.9m/s | -28.4°C | 13.9% | 0hPa | 2.5V | 08:01:10 | 02:57:14 | 00:00:00 | |
| IW2NTF | 2026-09-02 13:32:20 | 44.98051 | 9.55796 | 135° | 77km/h | 8357m | -7.1m/s | -29.1°C | 15.8% | 0hPa | 2.5V | 08:01:20 | 02:57:04 | 00:00:00 | |
| IW2NTF | 2026-09-02 13:32:09 | 44.98191 | 9.55606 | 136° | 78km/h | 8426m | -7m/s | -29.7°C | 17.9% | 0hPa | 2.6V | 08:01:30 | 02:56:54 | 00:00:00 | |
| IW2NTF | 2026-09-02 13:31:58 | 44.98362 | 9.55375 | 135° | 78km/h | 8508m | -6.9m/s | -30.5°C | 19.8% | 0hPa | 2.5V | 08:01:42 | 02:56:42 | 00:00:00 | |
| IW2NTF | 2026-09-02 13:31:48 | 44.98503 | 9.55175 | 134° | 80km/h | 8577m | -7m/s | -31.2°C | 21.1% | 0hPa | 2.5V | 08:01:52 | 02:56:32 | 00:00:00 | |
| IW2NTF | 2026-09-02 13:31:38 | 44.98645 | 9.54973 | 134° | 80km/h | 8649m | -7m/s | -31.8°C | 22.8% | 0hPa | 2.5V | 08:02:02 | 02:56:22 | 00:00:00 | |
| IW2NTF | 2026-09-02 13:31:27 | 44.98800 | 9.54744 | 133° | 80km/h | 8726m | -7.1m/s | -32.6°C | 24.6% | 0hPa | 2.5V | 08:02:13 | 02:56:11 | 00:00:00 | |
| IW2NTF | 2026-09-02 13:31:17 | 44.98940 | 9.54533 | 132° | 82km/h | 8797m | -7.2m/s | -33.2°C | 26.2% | 0hPa | 2.6V | 08:02:23 | 02:56:01 | 00:00:00 | |
| IW2NTF | 2026-09-02 13:31:07 | 44.99082 | 9.54318 | 133° | 84km/h | 8867m | -7m/s | -33.9°C | 28.8% | 0hPa | 2.5V | 08:02:33 | 02:55:51 | 00:00:00 | |
| IW2NTF | 2026-09-02 13:30:57 | 44.99230 | 9.54103 | 135° | 84km/h | 8936m | -7m/s | -34.6°C | 35.6% | 0hPa | 2.6V | 08:02:43 | 02:55:41 | 00:00:00 | |
| IW2NTF | 2026-09-02 13:30:47 | 44.99387 | 9.53898 | 138° | 84km/h | 9007m | -7.1m/s | -35.1°C | 45.9% | 0hPa | 2.5V | 08:02:53 | 02:55:31 | 00:00:00 | |
| IW2NTF | 2026-09-02 13:30:37 | 44.99551 | 9.53706 | 141° | 84km/h | 9078m | -7.1m/s | -35.6°C | 47.3% | 0hPa | 2.5V | 08:03:03 | 02:55:21 | 00:00:00 | |
| IW2NTF | 2026-09-02 13:30:27 | 44.99722 | 9.53530 | 146° | 84km/h | 9149m | -7.3m/s | -36.1°C | 47.4% | 0hPa | 2.5V | 08:03:13 | 02:55:11 | 00:00:00 | |
| IW2NTF | 2026-09-02 13:30:17 | 44.99901 | 9.53369 | 148° | 84km/h | 9220m | -7.1m/s | -36.4°C | 43.1% | 0hPa | 2.6V | 08:03:23 | 02:55:01 | 00:00:00 | |
| IW2NTF | 2026-09-02 13:30:07 | 45.00089 | 9.53221 | 152° | 86km/h | 9291m | -7.2m/s | -36.9°C | 42.9% | 0hPa | 2.5V | 08:03:33 | 02:54:51 | 00:00:00 | |
| IW2NTF | 2026-09-02 13:29:57 | 45.00283 | 9.53085 | 155° | 86km/h | 9365m | -7.6m/s | -37.3°C | 41.1% | 0hPa | 2.5V | 08:03:43 | 02:54:41 | 00:00:00 | |
| IW2NTF | 2026-09-02 13:29:47 | 45.00486 | 9.52960 | 157° | 89km/h | 9439m | -7.8m/s | -37.8°C | 44.1% | 0hPa | 2.6V | 08:03:53 | 02:54:31 | 00:00:00 | |
| IW2NTF | 2026-09-02 13:29:37 | 45.00703 | 9.52842 | 160° | 91km/h | 9514m | -7.8m/s | -38.1°C | 44.9% | 0hPa | 2.5V | 08:04:03 | 02:54:21 | 00:00:00 | |
| IW2NTF | 2026-09-02 13:29:27 | 45.00923 | 9.52730 | 160° | 93km/h | 9588m | -7.3m/s | -38.6°C | 45.6% | 0hPa | 2.5V | 08:04:13 | 02:54:11 | 00:00:00 | |
| IW2NTF | 2026-09-02 13:29:17 | 45.01147 | 9.52620 | 160° | 93km/h | 9665m | -7.4m/s | -39.2°C | 45.3% | 0hPa | 2.5V | 08:04:23 | 02:54:01 | 00:00:00 | |
| IW2NTF | 2026-09-02 13:29:07 | 45.01374 | 9.52514 | 162° | 97km/h | 9740m | -7.7m/s | -39.8°C | 44.8% | 0hPa | 2.5V | 08:04:33 | 02:53:51 | 00:00:00 | |
| IW2NTF | 2026-09-02 13:28:57 | 45.01615 | 9.52409 | 163° | 102km/h | 9816m | -7.4m/s | -40.2°C | 40.8% | 0hPa | 2.6V | 08:04:43 | 02:53:41 | 00:00:00 | |
| IW2NTF | 2026-09-02 13:28:47 | 45.01864 | 9.52311 | 165° | 104km/h | 9892m | -7.3m/s | -40.8°C | 42.7% | 0hPa | 2.5V | 08:04:53 | 02:53:31 | 00:00:00 | |
| IW2NTF | 2026-09-02 13:28:37 | 45.02124 | 9.52213 | 165° | 108km/h | 9968m | -7.9m/s | -41.3°C | 43.2% | 0hPa | 2.5V | 08:05:03 | 02:53:21 | 00:00:00 | |
| IW2NTF | 2026-09-02 13:28:27 | 45.02394 | 9.52122 | 165° | 111km/h | 10046m | -7.9m/s | -41.9°C | 43.6% | 0hPa | 2.6V | 08:05:13 | 02:53:11 | 00:00:00 | |
| IW2NTF | 2026-09-02 13:28:17 | 45.02670 | 9.52020 | 165° | 113km/h | 10123m | -7.5m/s | -42.4°C | 45.3% | 0hPa | 2.5V | 08:05:23 | 02:53:01 | 00:00:00 | |
| IW2NTF | 2026-09-02 13:28:07 | 45.02958 | 9.51910 | 164° | 120km/h | 10200m | -7.9m/s | -43°C | 49.2% | 0hPa | 2.6V | 08:05:33 | 02:52:51 | 00:00:00 | |
| IW2NTF | 2026-09-02 13:27:57 | 45.03255 | 9.51788 | 162° | 124km/h | 10277m | -7.9m/s | -43.5°C | 52.3% | 0hPa | 2.5V | 08:05:43 | 02:52:41 | 00:00:00 | |
| IW2NTF | 2026-09-02 13:27:43 | 45.03561 | 9.51642 | 160° | 130km/h | 10356m | -8.1m/s | -44°C | 57.5% | 0hPa | 2.6V | 08:05:53 | 02:52:31 | 00:00:00 | |
| IW2NTF | 2026-09-02 13:27:37 | 45.03873 | 9.51486 | 160° | 131km/h | 10434m | -7.9m/s | -44.5°C | 55.7% | 0hPa | 2.5V | 08:06:03 | 02:52:21 | 00:00:00 | |
| IW2NTF | 2026-09-02 13:27:25 | 45.04192 | 9.51333 | 161° | 133km/h | 10512m | -7.8m/s | -45.1°C | 50.5% | 0hPa | 2.5V | 08:06:13 | 02:52:11 | 00:00:00 | |
| IW2NTF | 2026-09-02 13:27:13 | 45.04513 | 9.51184 | 161° | 135km/h | 10592m | -8.1m/s | -45.9°C | 51.7% | 0hPa | 2.6V | 08:06:23 | 02:52:01 | 00:00:00 | |
| IW2NTF | 2026-09-02 13:27:06 | 45.04871 | 9.51014 | 161° | 137km/h | 10680m | -8.2m/s | -46.6°C | 53.7% | 0hPa | 2.6V | 08:06:34 | 02:51:50 | 00:00:00 | |
| IW2NTF | 2026-09-02 13:26:55 | 45.05200 | 9.50861 | 162° | 137km/h | 10759m | -8m/s | -47.3°C | 53.9% | 0hPa | 2.5V | 08:06:44 | 02:51:40 | 00:00:00 | |
| IW2NTF | 2026-09-02 13:26:43 | 45.05531 | 9.50713 | 162° | 137km/h | 10839m | -7.8m/s | -48°C | 56.2% | 0hPa | 2.5V | 08:06:54 | 02:51:30 | 00:00:00 | |
| IW2NTF | 2026-09-02 13:26:31 | 45.05922 | 9.50550 | 164° | 135km/h | 10936m | -8.2m/s | -48.9°C | 61.4% | 0hPa | 2.5V | 08:07:06 | 02:51:18 | 00:00:00 | |
| IW2NTF | 2026-09-02 13:26:24 | 45.06254 | 9.50419 | 163° | 139km/h | 11016m | -7.9m/s | -49.2°C | 60.6% | 0hPa | 2.5V | 08:07:16 | 02:51:08 | 00:00:00 | |
| IW2NTF | 2026-09-02 13:26:14 | 45.06590 | 9.50280 | 163° | 139km/h | 11098m | -8.1m/s | -50°C | 60.2% | 0hPa | 2.6V | 08:07:26 | 02:50:58 | 00:00:00 | |
| IW2NTF | 2026-09-02 13:26:01 | 45.06922 | 9.50141 | 163° | 133km/h | 11179m | -8.3m/s | -50.7°C | 59.7% | 0hPa | 2.6V | 08:07:36 | 02:50:48 | 00:00:00 | |
| IW2NTF | 2026-09-02 13:25:54 | 45.07244 | 9.50011 | 164° | 131km/h | 11262m | -8.3m/s | -51.4°C | 54.7% | 0hPa | 2.5V | 08:07:46 | 02:50:38 | 00:00:00 | |
| IW2NTF | 2026-09-02 13:25:43 | 45.07564 | 9.49884 | 163° | 130km/h | 11346m | -8.2m/s | -52.2°C | 54.1% | 0hPa | 2.5V | 08:07:56 | 02:50:28 | 00:00:00 | |
| IW2NTF | 2026-09-02 13:25:31 | 45.07880 | 9.49737 | 161° | 133km/h | 11431m | -8.4m/s | -52.7°C | 47.2% | 0hPa | 2.5V | 08:08:06 | 02:50:18 | 00:00:00 | |
| IW2NTF | 2026-09-02 13:25:24 | 45.08201 | 9.49576 | 160° | 137km/h | 11516m | -8.6m/s | -52.5°C | 42.1% | 0hPa | 2.6V | 08:08:16 | 02:50:08 | 00:00:00 | |
| IW2NTF | 2026-09-02 13:25:11 | 45.08532 | 9.49403 | 159° | 141km/h | 11602m | -8.6m/s | -53.1°C | 42.1% | 0hPa | 2.6V | 08:08:26 | 02:49:58 | 00:00:00 | |
| IW2NTF | 2026-09-02 13:25:04 | 45.08860 | 9.49241 | 161° | 137km/h | 11688m | -8.6m/s | -53.9°C | 40.4% | 0hPa | 2.6V | 08:08:36 | 02:49:48 | 00:00:00 | |
| IW2NTF | 2026-09-02 13:24:51 | 45.09183 | 9.49079 | 160° | 135km/h | 11775m | -8.8m/s | -54.4°C | 36.1% | 0hPa | 2.5V | 08:08:46 | 02:49:38 | 00:00:00 | |
| IW2NTF | 2026-09-02 13:24:39 | 45.09504 | 9.48926 | 161° | 128km/h | 11864m | -8.9m/s | -54.9°C | 32% | 0hPa | 2.5V | 08:08:56 | 02:49:28 | 00:00:00 | |
| IW2NTF | 2026-09-02 13:24:31 | 45.09805 | 9.48784 | 161° | 119km/h | 11952m | -8.7m/s | -54.9°C | 28.5% | 0hPa | 2.5V | 08:09:06 | 02:49:18 | 00:00:00 | |
| IW2NTF | 2026-09-02 13:24:24 | 45.10082 | 9.48638 | 158° | 115km/h | 12040m | -8.4m/s | -55°C | 25.3% | 0hPa | 2.6V | 08:09:16 | 02:49:08 | 00:00:00 | |
| IW2NTF | 2026-09-02 13:24:13 | 45.10348 | 9.48483 | 156° | 111km/h | 12126m | -8.6m/s | -55.5°C | 25.5% | 0hPa | 2.5V | 08:09:26 | 02:48:58 | 00:00:00 | |
| IW2NTF | 2026-09-02 13:23:59 | 45.10622 | 9.48292 | 149° | 108km/h | 12226m | -8.9m/s | -56.1°C | 24.2% | 0hPa | 2.5V | 08:09:37 | 02:48:47 | 00:00:00 | |
| IW2NTF | 2026-09-02 13:23:52 | 45.10854 | 9.48080 | 145° | 110km/h | 12318m | -9.3m/s | -56.1°C | 22.7% | 0hPa | 2.5V | 08:09:47 | 02:48:37 | 00:00:00 | |
| IW2NTF | 2026-09-02 13:23:39 | 45.11088 | 9.47849 | 145° | 115km/h | 12411m | -9.1m/s | -55.8°C | 20.3% | 0hPa | 2.6V | 08:09:57 | 02:48:27 | 00:00:00 | |
| IW2NTF | 2026-09-02 13:23:34 | 45.11337 | 9.47615 | 147° | 119km/h | 12504m | -9.2m/s | -56.5°C | 19.6% | 0hPa | 2.5V | 08:10:07 | 02:48:17 | 00:00:00 | |
| IW2NTF | 2026-09-02 13:23:23 | 45.11603 | 9.47379 | 148° | 126km/h | 12596m | -9m/s | -57°C | 19.7% | 0hPa | 2.5V | 08:10:17 | 02:48:07 | 00:00:00 | |
| IW2NTF | 2026-09-02 13:23:13 | 45.11866 | 9.47161 | 150° | 117km/h | 12688m | -9.3m/s | -57.5°C | 18.5% | 0hPa | 2.6V | 08:10:27 | 02:47:57 | 00:00:00 | |
| IW2NTF | 2026-09-02 13:23:03 | 45.12114 | 9.46977 | 152° | 104km/h | 12780m | -9.4m/s | -57.4°C | 16% | 0hPa | 2.5V | 08:10:37 | 02:47:47 | 00:00:00 | |
| IW2NTF | 2026-09-02 13:22:53 | 45.12333 | 9.46811 | 150° | 93km/h | 12871m | -9.5m/s | -57.5°C | 14.2% | 0hPa | 2.5V | 08:10:47 | 02:47:37 | 00:00:00 | |
| IW2NTF | 2026-09-02 13:22:43 | 45.12561 | 9.46601 | 143° | 88km/h | 12984m | -9.1m/s | -57.9°C | 12.8% | 0hPa | 2.5V | 08:10:59 | 02:47:25 | 00:00:00 | |
| IW2NTF | 2026-09-02 13:22:31 | 45.12736 | 9.46395 | 138° | 95km/h | 13075m | -9.2m/s | -58.3°C | 11.8% | 0hPa | 2.6V | 08:11:09 | 02:47:15 | 00:00:00 | |
| IW2NTF | 2026-09-02 13:22:19 | 45.12904 | 9.46174 | 136° | 89km/h | 13166m | -9.1m/s | -58.3°C | 10.1% | 0hPa | 2.5V | 08:11:19 | 02:47:05 | 00:00:00 | |
| IW2NTF | 2026-09-02 13:22:07 | 45.13075 | 9.45954 | 140° | 91km/h | 13257m | -9.2m/s | -56.5°C | 8.1% | 0hPa | 2.6V | 08:11:29 | 02:46:55 | 00:00:00 | |
| IW2NTF | 2026-09-02 13:22:01 | 45.13246 | 9.45759 | 141° | 82km/h | 13347m | -9.1m/s | -56°C | 7.3% | 0hPa | 2.5V | 08:11:39 | 02:46:45 | 00:00:00 | |
| IW2NTF | 2026-09-02 13:21:48 | 45.13395 | 9.45582 | 137° | 71km/h | 13439m | -9.4m/s | -56.1°C | 7% | 0hPa | 2.5V | 08:11:49 | 02:46:35 | 00:00:00 | |
| DO3MHA-11 | 2026-09-02 13:21:45 | 45.13408 | 9.45565 | 138° | 66km/h | 13448m | -9.2m/s | -56.1°C | 6.9% | 0hPa | 2.5V | 08:11:00 | 02:46:34 | 00:00:00 | |
| IW2NTF | 2026-09-02 13:21:37 | 45.13512 | 9.45415 | 131° | 62km/h | 13531m | -9.3m/s | -56.3°C | 6.7% | 0hPa | 2.5V | 08:11:59 | 02:46:25 | 00:00:00 | |
| DO3MHA-11 | 2026-09-02 13:21:34 | 45.13532 | 9.45382 | 131° | 60km/h | 13550m | -9.6m/s | -56.4°C | 6.7% | 0hPa | 2.6V | 00:00:00 | 02:46:23 | 00:00:00 | |
| IW2NTF | 2026-09-02 13:21:31 | 45.13608 | 9.45246 | 125° | 60km/h | 13625m | -9.5m/s | -57.1°C | 6.7% | 0hPa | 2.6V | 08:12:09 | 02:46:15 | 00:00:00 | |
| DO3MHA-11 | 2026-09-02 13:21:24 | 45.13625 | 9.45211 | 123° | 60km/h | 13645m | -9.8m/s | -57.2°C | 6.6% | 0hPa | 2.5V | 00:00:00 | 02:46:13 | 00:00:00 | |
| IW2NTF | 2026-09-02 13:21:19 | 45.13688 | 9.45063 | 121° | 62km/h | 13721m | -9.6m/s | -57.8°C | 6.7% | 0hPa | 2.5V | 08:12:19 | 02:46:05 | 00:00:00 | |
| DO3MHA-11 | 2026-09-02 13:21:14 | 45.13705 | 9.45025 | 122° | 66km/h | 13741m | -9.4m/s | -57.9°C | 6.7% | 0hPa | 2.6V | 00:00:00 | 02:46:03 | 00:00:00 | |
| IW2NTF | 2026-09-02 13:21:07 | 45.13773 | 9.44867 | 119° | 66km/h | 13817m | -9.6m/s | -58.4°C | 6.7% | 0hPa | 2.6V | 08:12:29 | 02:45:55 | 00:00:00 | |
| IW2NTF | 2026-09-02 13:21:01 | 45.13859 | 9.44653 | 119° | 68km/h | 13915m | -9.9m/s | -58.7°C | 6.6% | 0hPa | 2.5V | 08:12:39 | 02:45:45 | 00:00:00 | |
| DO3MHA-11 | 2026-09-02 13:21:00 | 45.13823 | 9.44739 | 121° | 69km/h | 13876m | -9.7m/s | -58.5°C | 6.6% | 0hPa | 2.6V | 00:00:00 | 02:45:49 | 00:00:00 | |
| DO3MHA-11 | 2026-09-02 13:20:50 | 45.13910 | 9.44527 | 120° | 69km/h | 13975m | -10.0m/s | -58.5°C | 6.3% | 0hPa | 2.6V | 00:00:00 | 02:45:39 | 00:00:00 | |
| IW2NTF | 2026-09-02 13:20:49 | 45.13947 | 9.44440 | 120° | 71km/h | 14015m | -10m/s | -58.5°C | 6.1% | 0hPa | 2.6V | 08:12:49 | 02:45:35 | 00:00:00 | |
| DO3MHA-11 | 2026-09-02 13:20:40 | 45.14000 | 9.44314 | 120° | 71km/h | 14076m | -10.0m/s | -58.4°C | 6.1% | 0hPa | 2.5V | 00:00:00 | 02:45:29 | 00:00:00 | |
| IW2NTF | 2026-09-02 13:20:37 | 45.14034 | 9.44227 | 119° | 71km/h | 14116m | -10m/s | -58.4°C | 6% | 0hPa | 2.5V | 08:12:59 | 02:45:25 | 00:00:00 | |
| IW2NTF | 2026-09-02 13:20:31 | 45.14126 | 9.44003 | 120° | 77km/h | 14217m | -10.3m/s | -58.6°C | 6.1% | 0hPa | 2.5V | 08:13:09 | 02:45:15 | 00:00:00 | |
| DO3MHA-11 | 2026-09-02 13:20:30 | 45.14089 | 9.44094 | 121° | 77km/h | 14176m | -9.9m/s | -58.6°C | 6.1% | 0hPa | 2.6V | 00:00:00 | 02:45:19 | 00:00:00 | |
| DO3MHA-11 | 2026-09-02 13:20:20 | 45.14187 | 9.43857 | 122° | 78km/h | 14279m | -10.0m/s | -58.5°C | 6.1% | 0hPa | 2.6V | 00:00:00 | 02:45:09 | 00:00:00 | |
| IW2NTF | 2026-09-02 13:20:17 | 45.14229 | 9.43760 | 120° | 78km/h | 14320m | -10.5m/s | -58.7°C | 5.9% | 0hPa | 2.6V | 08:13:19 | 02:45:05 | 00:00:00 | |
| IW2NTF | 2026-09-02 13:20:11 | 45.14332 | 9.43527 | 120° | 73km/h | 14425m | -10.5m/s | -58.7°C | 5.8% | 0hPa | 2.5V | 08:13:29 | 02:44:55 | 00:00:00 | |
| DO3MHA-11 | 2026-09-02 13:20:10 | 45.14292 | 9.43618 | 123° | 73km/h | 14383m | -10.6m/s | -58.7°C | 5.8% | 0hPa | 2.6V | 08:13:00 | 02:44:59 | 00:00:00 | |
| IW2NTF | 2026-09-02 13:20:01 | 45.14418 | 9.43294 | 115° | 77km/h | 14530m | -10.5m/s | -58.9°C | 6.2% | 0hPa | 2.6V | 08:13:39 | 02:44:45 | 00:00:00 | |
| DO3MHA-11 | 2026-09-02 13:20:00 | 45.14385 | 9.43391 | 117° | 78km/h | 14488m | -10.5m/s | -58.7°C | 5.9% | 0hPa | 2.5V | 00:00:00 | 02:44:49 | 00:00:00 | |
| IW2NTF | 2026-09-02 13:19:47 | 45.14507 | 9.43029 | 117° | 84km/h | 14637m | -10.8m/s | -58.5°C | 5.9% | 0hPa | 2.5V | 08:13:49 | 02:44:35 | 00:00:00 | |
| IW2NTF | 2026-09-02 13:19:41 | 45.14606 | 9.42771 | 115° | 80km/h | 14747m | -11.1m/s | -57.6°C | 5.5% | 0hPa | 2.5V | 08:13:59 | 02:44:25 | 00:00:00 | |
| DO3MHA-11 | 2026-09-02 13:19:40 | 45.14569 | 9.42875 | 119° | 80km/h | 14703m | -10.9m/s | -57.8°C | 5.5% | 0hPa | 2.5V | 00:00:00 | 02:44:29 | 00:00:00 | |
| IW2NTF | 2026-09-02 13:19:31 | 45.14689 | 9.42517 | 116° | 77km/h | 14855m | -10.8m/s | -57.2°C | 5.3% | 0hPa | 2.6V | 08:14:09 | 02:44:15 | 00:00:00 | |
| DO3MHA-11 | 2026-09-02 13:19:30 | 45.14655 | 9.42617 | 115° | 75km/h | 14812m | -10.6m/s | -56.9°C | 5.3% | 0hPa | 2.5V | 00:00:00 | 02:44:19 | 00:00:00 | |
| DO3MHA-11 | 2026-09-02 13:19:20 | 45.14744 | 9.42378 | 123° | 69km/h | 14920m | -11.0m/s | -56.8°C | 5.1% | 0hPa | 2.5V | 00:00:00 | 02:44:09 | 00:00:00 | |
| IW2NTF | 2026-09-02 13:19:17 | 45.14784 | 9.42294 | 123° | 69km/h | 14964m | -11m/s | -56.7°C | 4.9% | 0hPa | 2.5V | 08:14:19 | 02:44:05 | 00:00:00 | |
| IW2NTF | 2026-09-02 13:19:11 | 45.14872 | 9.42092 | 119° | 64km/h | 15074m | -11.3m/s | -56.4°C | 4.7% | 0hPa | 2.6V | 08:14:29 | 02:43:55 | 00:00:00 | |
| DO3MHA-11 | 2026-09-02 13:19:10 | 45.14838 | 9.42172 | 122° | 64km/h | 15030m | -10.9m/s | -56.5°C | 4.9% | 0hPa | 2.5V | 00:00:00 | 02:43:59 | 00:00:00 | |
| IW2NTF | 2026-09-02 13:19:01 | 45.14941 | 9.41882 | 109° | 68km/h | 15186m | -11.1m/s | -57.3°C | 5.1% | 0hPa | 2.5V | 08:14:39 | 02:43:45 | 00:00:00 | |
| DO3MHA-11 | 2026-09-02 13:19:00 | 45.14916 | 9.41970 | 115° | 68km/h | 15141m | -11.2m/s | -56.9°C | 4.9% | 0hPa | 2.6V | 00:00:00 | 02:43:49 | 00:00:00 | |
| DB0UT-7 | 2026-09-02 13:18:50 | 45.14977 | 9.41742 | 112° | 57km/h | 15253m | -11.2m/s | -57.8°C | 5.4% | 0hPa | 2.6V | 00:00:00 | 02:43:39 | 00:00:00 | |
| IW2NTF | 2026-09-02 13:18:49 | 45.15004 | 9.41653 | 114° | 68km/h | 15298m | -11.1m/s | -58.1°C | 5.5% | 0hPa | 2.6V | 08:14:49 | 02:43:35 | 00:00:00 | |
| DO3MHA-11 | 2026-09-02 13:18:40 | 45.15046 | 9.41530 | 118° | 55km/h | 15366m | -11.3m/s | -57.9°C | 5.5% | 0hPa | 2.6V | 08:14:00 | 02:43:29 | 00:00:00 | |
| IW2NTF | 2026-09-02 13:18:38 | 45.15072 | 9.41455 | 113° | 57km/h | 15412m | -11.1m/s | -57.4°C | 5.3% | 0hPa | 2.5V | 08:14:59 | 02:43:25 | 00:00:00 | |
| IW2NTF | 2026-09-02 13:18:31 | 45.15107 | 9.41278 | 96° | 49km/h | 15525m | -11.4m/s | -56.2°C | 4.8% | 0hPa | 2.5V | 08:15:09 | 02:43:15 | 00:00:00 | |
| DO3MHA-11 | 2026-09-02 13:18:30 | 45.15098 | 9.41349 | 104° | 51km/h | 15480m | -11.3m/s | -56.7°C | 4.9% | 0hPa | 2.6V | 00:00:00 | 02:43:19 | 00:00:00 | |
| DO3MHA-11 | 2026-09-02 13:18:20 | 45.15114 | 9.41171 | 95° | 51km/h | 15593m | -11.4m/s | -56.2°C | 4.8% | 0hPa | 2.6V | 00:00:00 | 02:43:09 | 00:00:00 | |
| IW2NTF | 2026-09-02 13:18:17 | 45.15121 | 9.41099 | 101° | 51km/h | 15639m | -11.4m/s | -56.4°C | 4.7% | 0hPa | 2.6V | 08:15:19 | 02:43:05 | 00:00:00 | |
| IW2NTF | 2026-09-02 13:18:11 | 45.15159 | 9.40926 | 107° | 49km/h | 15755m | -11.7m/s | -56.5°C | 4.8% | 0hPa | 2.5V | 08:15:29 | 02:42:55 | 00:00:00 | |
| DO3MHA-11 | 2026-09-02 13:18:10 | 45.15143 | 9.40994 | 109° | 51km/h | 15708m | -11.6m/s | -56.5°C | 4.7% | 0hPa | 2.6V | 00:00:00 | 02:42:59 | 00:00:00 | |
| DO3MHA-11 | 2026-09-02 13:18:00 | 45.15180 | 9.40822 | 105° | 55km/h | 15824m | -11.7m/s | -55.8°C | 4.5% | 0hPa | 2.6V | 00:00:00 | 02:42:49 | 00:00:00 | |
| IW2NTF | 2026-09-02 13:17:57 | 45.15193 | 9.40748 | 103° | 55km/h | 15870m | -11.7m/s | -56.1°C | 4.6% | 0hPa | 2.6V | 08:15:39 | 02:42:45 | 00:00:00 | |
| IW2NTF | 2026-09-02 13:17:51 | 45.15221 | 9.40539 | 97° | 66km/h | 15988m | -11.7m/s | -56.4°C | 4.9% | 0hPa | 2.6V | 08:15:49 | 02:42:35 | 00:00:00 | |
| DO3MHA-11 | 2026-09-02 13:17:50 | 45.15211 | 9.40628 | 101° | 66km/h | 15941m | -11.8m/s | -56.4°C | 4.7% | 0hPa | 2.5V | 00:00:00 | 02:42:39 | 00:00:00 | |
| DB0UT-7 | 2026-09-02 13:17:49 | 45.15214 | 9.40606 | 100° | 66km/h | 15953m | -12.0m/s | -56.5°C | 4.8% | 0hPa | 2.5V | 00:00:00 | 02:42:38 | 00:00:00 | |
| IW2NTF | 2026-09-02 13:17:41 | 45.15241 | 9.40294 | 98° | 68km/h | 16106m | -11.6m/s | -56.5°C | 4.9% | 0hPa | 2.5V | 08:15:59 | 02:42:25 | 00:00:00 | |
| DO3MHA-11 | 2026-09-02 13:17:40 | 45.15232 | 9.40392 | 96° | 68km/h | 16059m | -11.6m/s | -56.2°C | 4.8% | 0hPa | 2.6V | 00:00:00 | 02:42:29 | 00:00:00 | |
| DO3MHA-11 | 2026-09-02 13:17:30 | 45.15260 | 9.40152 | 105° | 46km/h | 16177m | -11.7m/s | -56.0°C | 4.6% | 0hPa | 2.5V | 00:00:00 | 02:42:19 | 00:00:00 | |
| IW2NTF | 2026-09-02 13:17:28 | 45.15280 | 9.40064 | 109° | 64km/h | 16225m | -11.7m/s | -55.8°C | 4.5% | 0hPa | 2.5V | 08:16:09 | 02:42:15 | 00:00:00 | |
| IW2NTF | 2026-09-02 13:17:21 | 45.15344 | 9.39865 | 121° | 58km/h | 16345m | -12m/s | -55.9°C | 4.6% | 0hPa | 2.6V | 08:16:19 | 02:42:05 | 00:00:00 | |
| DB0UT-7 | 2026-09-02 13:17:19 | 45.15321 | 9.39921 | 117° | 46km/h | 16309m | -11.6m/s | -55.9°C | 4.6% | 0hPa | 2.5V | 00:00:00 | 00:00:00 | 00:00:00 | |
| IW2NTF | 2026-09-02 13:17:11 | 45.15421 | 9.39712 | 127° | 49km/h | 16464m | -12.2m/s | -55.9°C | 4.6% | 0hPa | 2.5V | 08:16:29 | 02:41:55 | 00:00:00 | |
| IW2NTF | 2026-09-02 13:17:00 | 45.15481 | 9.39580 | 115° | 37km/h | 16586m | -11.8m/s | -56°C | 4.5% | 0hPa | 2.5V | 08:16:39 | 02:41:45 | 00:00:00 | |
| DB0UT-7 | 2026-09-02 13:16:49 | 45.15503 | 9.39504 | 110° | 35km/h | 16671m | -12.3m/s | -56.1°C | 4.5% | 0hPa | 2.6V | 00:00:00 | 02:41:38 | 00:00:00 | |
| IW2NTF | 2026-09-02 13:16:47 | 45.15510 | 9.39474 | 103° | 29km/h | 16708m | -12.4m/s | -56°C | 4.4% | 0hPa | 2.6V | 08:16:49 | 02:41:35 | 00:00:00 | |
| IW2NTF | 2026-09-02 13:16:41 | 45.15520 | 9.39371 | 92° | 29km/h | 16830m | -12.5m/s | -56.8°C | 4.5% | 0hPa | 2.6V | 08:16:59 | 02:41:25 | 00:00:00 | |
| DO3MHA-11 | 2026-09-02 13:16:38 | 45.15519 | 9.39392 | 95° | 31km/h | 16806m | -12.1m/s | -56.5°C | 4.5% | 0hPa | 2.5V | 08:16:00 | 02:41:27 | 00:00:00 | |
| IW2NTF | 2026-09-02 13:16:29 | 45.15518 | 9.39237 | 86° | 42km/h | 16966m | -12.2m/s | -57.9°C | 5% | 0hPa | 2.6V | 08:17:10 | 02:41:14 | 00:00:00 | |
| DO3MHA-11 | 2026-09-02 13:16:28 | 45.15519 | 9.39279 | 88° | 42km/h | 16929m | -12.5m/s | -57.6°C | 4.9% | 0hPa | 2.6V | 00:00:00 | 02:41:17 | 00:00:00 | |
| DB0UT-7 | 2026-09-02 13:16:19 | 45.15513 | 9.39142 | 88° | 46km/h | 17041m | -12.7m/s | -58.3°C | 5.2% | 0hPa | 2.6V | 00:00:00 | 00:00:00 | 00:00:00 | |
| DO3MHA-11 | 2026-09-02 13:16:18 | 45.15513 | 9.39125 | 90° | 47km/h | 17054m | -12.5m/s | -58.3°C | 5.1% | 0hPa | 2.5V | 00:00:00 | 02:41:07 | 00:00:00 | |
| IW2NTF | 2026-09-02 13:16:16 | 45.15513 | 9.39078 | 93° | 46km/h | 17092m | -12.6m/s | -58.5°C | 5.3% | 0hPa | 2.5V | 08:17:20 | 02:41:04 | 00:00:00 | |
| IW2NTF | 2026-09-02 13:16:10 | 45.15543 | 9.38907 | 109° | 47km/h | 17218m | -13m/s | -57.9°C | 5% | 0hPa | 2.5V | 08:17:30 | 02:40:54 | 00:00:00 | |
| DO3MHA-11 | 2026-09-02 13:16:08 | 45.15531 | 9.38958 | 108° | 47km/h | 17180m | -12.5m/s | -58.0°C | 5.1% | 0hPa | 2.6V | 00:00:00 | 02:40:57 | 00:00:00 | |
| IW2NTF | 2026-09-02 13:15:59 | 45.15569 | 9.38750 | 92° | 44km/h | 17346m | -12.6m/s | -57°C | 4.6% | 0hPa | 2.5V | 08:17:40 | 02:40:44 | 00:00:00 | |
| DO3MHA-11 | 2026-09-02 13:15:58 | 45.15566 | 9.38796 | 100° | 44km/h | 17308m | -12.9m/s | -56.8°C | 4.5% | 0hPa | 2.6V | 00:00:00 | 02:40:47 | 00:00:00 | |
| DO3MHA-11 | 2026-09-02 13:15:48 | 45.15569 | 9.38638 | 92° | 47km/h | 17436m | -12.7m/s | -57.4°C | 5.0% | 0hPa | 2.6V | 00:00:00 | 02:40:37 | 00:00:00 | |
| IW2NTF | 2026-09-02 13:15:46 | 45.15572 | 9.38589 | 96° | 47km/h | 17474m | -12.9m/s | -57.7°C | 5.1% | 0hPa | 2.6V | 08:17:50 | 02:40:34 | 00:00:00 | |
| IW2NTF | 2026-09-02 13:15:40 | 45.15598 | 9.38422 | 110° | 47km/h | 17606m | -13.2m/s | -56.7°C | 4.7% | 0hPa | 2.6V | 08:18:00 | 02:40:24 | 00:00:00 | |
| DO3MHA-11 | 2026-09-02 13:15:38 | 45.15587 | 9.38470 | 105° | 40km/h | 17566m | -12.9m/s | -56.9°C | 4.8% | 0hPa | 2.5V | 00:00:00 | 02:40:27 | 00:00:00 | |
| IW2NTF | 2026-09-02 13:15:29 | 45.15642 | 9.38293 | 118° | 35km/h | 17737m | -13.3m/s | -56.3°C | 4.6% | 0hPa | 2.6V | 08:18:10 | 02:40:14 | 00:00:00 | |
| DO3MHA-11 | 2026-09-02 13:15:24 | 45.15646 | 9.38282 | 118° | 31km/h | 17750m | -12.7m/s | -56.1°C | 4.5% | 0hPa | 2.5V | 00:00:00 | 02:40:13 | 00:00:00 | |
| DB0UT-7 | 2026-09-02 13:15:19 | 45.15660 | 9.38230 | 104° | 31km/h | 17817m | -13.2m/s | -55.4°C | 4.3% | 0hPa | 2.5V | 00:00:00 | 00:00:00 | 00:00:00 | |
| IW2NTF | 2026-09-02 13:15:18 | 45.15669 | 9.38155 | 99° | 35km/h | 17912m | -13.3m/s | -55.8°C | 4.3% | 0hPa | 2.5V | 08:18:23 | 02:40:01 | 00:00:00 | |
| DO3MHA-11 | 2026-09-02 13:15:14 | 45.15666 | 9.38179 | 99° | 35km/h | 17885m | -13.5m/s | -55.6°C | 4.3% | 0hPa | 2.5V | 00:00:00 | 02:40:03 | 00:00:00 | |
| NBG1-10 | 2026-09-02 13:15:11 | 45.15671 | 9.38142 | 100° | 33km/h | 17925m | -13.5m/s | -55.8°C | 4.4% | 0hPa | 2.5V | 00:00:00 | 02:40:00 | 00:00:00 | |
| IW2NTF | 2026-09-02 13:15:05 | 45.15680 | 9.38033 | 94° | 27km/h | 18046m | -13.6m/s | -55.8°C | 4.3% | 0hPa | 2.6V | 08:18:33 | 02:39:51 | 00:00:00 | |
| DO3MHA-11 | 2026-09-02 13:15:04 | 45.15679 | 9.38054 | 97° | 26km/h | 18019m | -13.0m/s | -55.8°C | 4.3% | 0hPa | 2.7V | 08:18:00 | 02:39:53 | 00:00:00 | |
| DO3MHA-11 | 2026-09-02 13:14:54 | 45.15679 | 9.37960 | 83° | 33km/h | 18156m | -13.6m/s | -56.1°C | 4.3% | 0hPa | 2.6V | 00:00:00 | 02:39:43 | 00:00:00 | |
| DB0UT-7 | 2026-09-02 13:14:49 | 45.15671 | 9.37904 | 76° | 40km/h | 18224m | -13.6m/s | -56.5°C | 4.4% | 0hPa | 2.6V | 08:18:00 | 02:39:38 | 00:00:00 | |
| IW2NTF | 2026-09-02 13:14:47 | 45.15660 | 9.37844 | 80° | 35km/h | 18293m | -13.8m/s | -56.5°C | 4.6% | 0hPa | 2.6V | 08:18:51 | 02:39:33 | 00:00:00 | |
| DO3MHA-11 | 2026-09-02 13:14:44 | 45.15660 | 9.37844 | 81° | 40km/h | 18293m | -13.8m/s | -56.5°C | 4.6% | 0hPa | 2.5V | 00:00:00 | 02:39:33 | 00:00:00 | |
| NBG1-10 | 2026-09-02 13:14:38 | 45.15655 | 9.37760 | 87° | 29km/h | 18377m | -13.7m/s | -56.6°C | 4.6% | 0hPa | 2.5V | 00:00:00 | 02:39:27 | 00:00:00 | |
| IW2NTF | 2026-09-02 13:14:35 | 45.15652 | 9.37651 | 89° | 42km/h | 18475m | -14m/s | -57°C | 4.7% | 0hPa | 2.5V | 08:19:04 | 02:39:20 | 00:00:00 | |
| DO3MHA-11 | 2026-09-02 13:14:34 | 45.15653 | 9.37696 | 88° | 42km/h | 18433m | -14.1m/s | -56.7°C | 4.6% | 0hPa | 2.6V | 00:00:00 | 02:39:23 | 00:00:00 | |
| DO3MHA-11 | 2026-09-02 13:14:24 | 45.15655 | 9.37545 | 96° | 40km/h | 18574m | -13.8m/s | -56.2°C | 4.7% | 0hPa | 2.6V | 00:00:00 | 02:39:13 | 00:00:00 | |
| IW2NTF | 2026-09-02 13:14:23 | 45.15659 | 9.37501 | 98° | 40km/h | 18616m | -14.2m/s | -56.2°C | 4.7% | 0hPa | 2.6V | 08:19:14 | 02:39:10 | 00:00:00 | |
| DB0UT-7 | 2026-09-02 13:14:19 | 45.15662 | 9.37473 | 100° | 26km/h | 18644m | -14.1m/s | -56.3°C | 4.8% | 0hPa | 2.7V | 00:00:00 | 00:00:00 | 00:00:00 | |
| IW2NTF | 2026-09-02 13:14:16 | 45.15678 | 9.37370 | 108° | 29km/h | 18760m | -14.3m/s | -55.5°C | 4.4% | 0hPa | 2.7V | 08:19:24 | 02:39:00 | 00:00:00 | |
| IW2NTF | 2026-09-02 13:14:05 | 45.15701 | 9.37292 | 100° | 18km/h | 18904m | -14.5m/s | -54.9°C | 4.1% | 0hPa | 2.7V | 08:19:34 | 02:38:50 | 00:00:00 | |
| DO3MHA-11 | 2026-09-02 13:14:04 | 45.15697 | 9.37312 | 112° | 20km/h | 18861m | -14.2m/s | -55.1°C | 4.2% | 0hPa | 2.5V | 00:00:00 | 02:38:53 | 00:00:00 | |
| IW2NTF | 2026-09-02 13:13:54 | 45.15687 | 9.37196 | 77° | 26km/h | 19096m | -14.6m/s | -54.9°C | 4% | 0hPa | 2.5V | 08:19:47 | 02:38:37 | 00:00:00 | |
| DO3MHA-11 | 2026-09-02 13:13:54 | 45.15697 | 9.37244 | 72° | 24km/h | 19007m | -14.8m/s | -54.6°C | 4.0% | 0hPa | 2.5V | 00:00:00 | 02:38:43 | 00:00:00 | |
| DB0UT-7 | 2026-09-02 13:13:49 | 45.15688 | 9.37205 | 76° | 27km/h | 19081m | -14.6m/s | -54.8°C | 4.1% | 0hPa | 2.5V | 00:00:00 | 02:38:38 | 00:00:00 | |
| DO3MHA-11 | 2026-09-02 13:13:44 | 45.15682 | 9.37158 | 85° | 29km/h | 19155m | -14.7m/s | -55.1°C | 4.1% | 0hPa | 2.5V | 00:00:00 | 02:38:33 | 00:00:00 | |
| IW2NTF | 2026-09-02 13:13:41 | 45.15682 | 9.37098 | 94° | 29km/h | 19244m | -14.8m/s | -55.6°C | 4.1% | 0hPa | 2.5V | 08:19:57 | 02:38:27 | 00:00:00 | |
| NBG1-10 | 2026-09-02 13:13:36 | 45.15684 | 9.37077 | 98° | 20km/h | 19274m | -14.7m/s | -55.8°C | 4.3% | 0hPa | 2.7V | 00:00:00 | 02:38:25 | 00:00:00 | |
| DO3MHA-11 | 2026-09-02 13:13:34 | 45.15686 | 9.37056 | 101° | 29km/h | 19304m | -14.8m/s | -55.9°C | 4.3% | 0hPa | 2.7V | 08:20:00 | 02:38:23 | 00:00:00 | |
| IW2NTF | 2026-09-02 13:13:33 | 45.15699 | 9.36992 | 112° | 29km/h | 19394m | -14.8m/s | -56.4°C | 4.5% | 0hPa | 2.7V | 08:20:07 | 02:38:17 | 00:00:00 | |
| DO3MHA-11 | 2026-09-02 13:13:24 | 45.15712 | 9.36957 | 126° | 16km/h | 19453m | -15.2m/s | -56.8°C | 4.6% | 0hPa | 2.7V | 00:00:00 | 02:38:13 | 00:00:00 | |
| IW2NTF | 2026-09-02 13:13:21 | 45.15734 | 9.36929 | 147° | 13km/h | 19544m | -15.2m/s | -56.5°C | 4.7% | 0hPa | 2.7V | 08:20:17 | 02:38:07 | 00:00:00 | |
| DB0UT-7 | 2026-09-02 13:13:19 | 45.15731 | 9.36931 | 148° | 15km/h | 19529m | -15.2m/s | -56.5°C | 4.6% | 0hPa | 2.7V | 00:00:00 | 00:00:00 | 00:00:00 | |
| DO3MHA-11 | 2026-09-02 13:13:14 | 45.15742 | 9.36920 | 132° | 13km/h | 19606m | -15.3m/s | -56.5°C | 4.8% | 0hPa | 2.7V | 00:00:00 | 02:38:03 | 00:00:00 | |
| IW2NTF | 2026-09-02 13:13:09 | 45.15748 | 9.36900 | 107° | 13km/h | 19697m | -15.4m/s | -55.9°C | 4.6% | 0hPa | 2.7V | 08:20:27 | 02:37:57 | 00:00:00 | |
| DO3MHA-11 | 2026-09-02 13:13:04 | 45.15756 | 9.36880 | 123° | 18km/h | 19759m | -15.3m/s | -55.5°C | 4.3% | 0hPa | 2.7V | 00:00:00 | 02:37:53 | 00:00:00 | |
| IW2NTF | 2026-09-02 13:13:03 | 45.15769 | 9.36845 | 108° | 18km/h | 19853m | -15.7m/s | -55.2°C | 4.3% | 0hPa | 2.7V | 08:20:37 | 02:37:47 | 00:00:00 | |
| NBG1-10 | 2026-09-02 13:13:03 | 45.15758 | 9.36875 | 122° | 18km/h | 19775m | -15.2m/s | -55.6°C | 4.4% | 0hPa | 2.7V | 08:20:00 | 02:37:52 | 00:00:00 | |
| DO3MHA-11 | 2026-09-02 13:12:54 | 45.15774 | 9.36820 | 107° | 16km/h | 19915m | -15.5m/s | -55.0°C | 4.2% | 0hPa | 2.5V | 00:00:00 | 02:37:43 | 00:00:00 | |
| IW2NTF | 2026-09-02 13:12:51 | 45.15786 | 9.36785 | 121° | 16km/h | 20010m | -15.9m/s | -55.3°C | 4.4% | 0hPa | 2.5V | 08:20:47 | 02:37:37 | 00:00:00 | |
| DB0UT-7 | 2026-09-02 13:12:49 | 45.15783 | 9.36790 | 123° | 18km/h | 19994m | -15.6m/s | -55.4°C | 4.4% | 0hPa | 2.7V | 00:00:00 | 02:37:38 | 00:00:00 | |
| DO3MHA-11 | 2026-09-02 13:12:44 | 45.15794 | 9.36768 | 126° | 20km/h | 20074m | -15.9m/s | -54.6°C | 4.1% | 0hPa | 2.7V | 00:00:00 | 02:37:33 | 00:00:00 | |
| IW2NTF | 2026-09-02 13:12:39 | 45.15814 | 9.36744 | 152° | 22km/h | 20169m | -15.9m/s | -55.4°C | 4.3% | 0hPa | 2.7V | 08:20:57 | 02:37:27 | 00:00:00 | |
| DO3MHA-11 | 2026-09-02 13:12:34 | 45.15836 | 9.36732 | 163° | 18km/h | 20232m | -16.0m/s | -55.4°C | 4.5% | 0hPa | 2.7V | 00:00:00 | 02:37:23 | 00:00:00 | |
| IW2NTF | 2026-09-02 13:12:33 | 45.15863 | 9.36722 | 167° | 16km/h | 20327m | -15.7m/s | -55°C | 4.3% | 0hPa | 2.7V | 08:21:07 | 02:37:17 | 00:00:00 | |
| NBG1-10 | 2026-09-02 13:12:30 | 45.15855 | 9.36725 | 166° | 13km/h | 20296m | -15.8m/s | -55.1°C | 4.4% | 0hPa | 2.6V | 00:00:00 | 02:37:19 | 00:00:00 | |
| DO3MHA-11 | 2026-09-02 13:12:24 | 45.15879 | 9.36719 | 175° | 20km/h | 20392m | -15.8m/s | -54.7°C | 4.3% | 0hPa | 2.6V | 00:00:00 | 02:37:13 | 00:00:00 | |
| IW2NTF | 2026-09-02 13:12:21 | 45.15910 | 9.36717 | 183° | 22km/h | 20488m | -16.2m/s | -54.7°C | 4.3% | 0hPa | 2.6V | 08:21:17 | 02:37:07 | 00:00:00 | |
| DB0UT-7 | 2026-09-02 13:12:19 | 45.15904 | 9.36717 | 179° | 9km/h | 20472m | -16.1m/s | -54.9°C | 4.4% | 0hPa | 2.6V | 00:00:00 | 00:00:00 | 00:00:00 | |
| DO3MHA-11 | 2026-09-02 13:12:14 | 45.15929 | 9.36723 | 208° | 9km/h | 20553m | -16.2m/s | -54.0°C | 4.1% | 0hPa | 2.6V | 00:00:00 | 02:37:03 | 00:00:00 | |
| IW2NTF | 2026-09-02 13:12:09 | 45.15938 | 9.36740 | 291° | 5km/h | 20650m | -16m/s | -54.2°C | 4.1% | 0hPa | 2.6V | 08:21:27 | 02:36:57 | 00:00:00 | |
| DO3MHA-11 | 2026-09-02 13:12:04 | 45.15935 | 9.36744 | 298° | 5km/h | 20715m | -16.2m/s | -54.5°C | 4.3% | 0hPa | 2.7V | 08:21:00 | 02:36:53 | 00:00:00 | |
| IW2NTF | 2026-09-02 13:12:03 | 45.15934 | 9.36757 | 278° | 7km/h | 20813m | -16.4m/s | -54.1°C | 4.2% | 0hPa | 2.7V | 08:21:37 | 02:36:47 | 00:00:00 | |
| NBG1-10 | 2026-09-02 13:11:57 | 45.15934 | 9.36759 | 287° | 7km/h | 20829m | -16.4m/s | -53.9°C | 4.1% | 0hPa | 2.6V | 00:00:00 | 02:36:46 | 00:00:00 | |
| IW2NTF | 2026-09-02 13:11:54 | 45.15921 | 9.36772 | 352° | 11km/h | 20980m | -17m/s | -53.2°C | 3.8% | 0hPa | 2.6V | 08:21:47 | 02:36:37 | 00:00:00 | |
| DO3MHA-11 | 2026-09-02 13:11:44 | 45.15911 | 9.36773 | 354° | 5km/h | 21048m | -16.7m/s | -53.6°C | 3.9% | 0hPa | 2.6V | 00:00:00 | 02:36:33 | 00:00:00 | |
| IW2NTF | 2026-09-02 13:11:43 | 45.15908 | 9.36767 | 100° | 5km/h | 21149m | -16.9m/s | -53.8°C | 4% | 0hPa | 2.6V | 08:21:57 | 02:36:27 | 00:00:00 | |
| DO3MHA-11 | 2026-09-02 13:11:34 | 45.15909 | 9.36760 | 87° | 7km/h | 21217m | -16.8m/s | -54.1°C | 4.1% | 0hPa | 2.7V | 00:00:00 | 02:36:23 | 00:00:00 | |
| IW2NTF | 2026-09-02 13:11:33 | 45.15911 | 9.36750 | 133° | 9km/h | 21319m | -17.1m/s | -54.3°C | 4.2% | 0hPa | 2.7V | 08:22:07 | 02:36:17 | 00:00:00 | |
| DO3MHA-11 | 2026-09-02 13:11:24 | 45.15920 | 9.36746 | 193° | 18km/h | 21388m | -17.1m/s | -54.0°C | 4.1% | 0hPa | 2.6V | 00:00:00 | 02:36:13 | 00:00:00 | |
| IW2NTF | 2026-09-02 13:11:23 | 45.15938 | 9.36773 | 238° | 24km/h | 21491m | -17.5m/s | -54°C | 4.2% | 0hPa | 2.6V | 08:22:17 | 02:36:07 | 00:00:00 | |
| DB0UT-7 | 2026-09-02 13:11:19 | 45.15935 | 9.36766 | 239° | 18km/h | 21474m | -17.3m/s | -54.0°C | 4.2% | 0hPa | 2.6V | 00:00:00 | 00:00:00 | 00:00:00 | |
| DO3MHA-11 | 2026-09-02 13:11:14 | 45.15949 | 9.36801 | 241° | 18km/h | 21561m | -17.5m/s | -53.6°C | 4.1% | 0hPa | 2.6V | 00:00:00 | 02:36:03 | 00:00:00 | |
| IW2NTF | 2026-09-02 13:11:13 | 45.15955 | 9.36835 | 282° | 16km/h | 21665m | -17.1m/s | -53.7°C | 4.1% | 0hPa | 2.6V | 08:22:27 | 02:35:57 | 00:00:00 | |
| DO3MHA-11 | 2026-09-02 13:11:04 | 45.15947 | 9.36858 | 304° | 18km/h | 21736m | -17.5m/s | -53.7°C | 4.2% | 0hPa | 2.7V | 00:00:00 | 02:35:53 | 00:00:00 | |
| IW2NTF | 2026-09-02 13:11:03 | 45.15927 | 9.36884 | 327° | 18km/h | 21842m | -17.7m/s | -53.1°C | 4% | 0hPa | 2.7V | 08:22:37 | 02:35:47 | 00:00:00 | |
| DO3MHA-11 | 2026-09-02 13:10:54 | 45.15911 | 9.36898 | 327° | 16km/h | 21913m | -17.9m/s | -52.9°C | 3.9% | 0hPa | 2.6V | 00:00:00 | 02:35:43 | 00:00:00 | |
| IW2NTF | 2026-09-02 13:10:53 | 45.15888 | 9.36911 | 3° | 15km/h | 22020m | -17.8m/s | -53°C | 3.9% | 0hPa | 2.6V | 08:22:47 | 02:35:37 | 00:00:00 | |
| NBG1-10 | 2026-09-02 13:10:51 | 45.15899 | 9.36907 | 337° | 9km/h | 21967m | -17.8m/s | -52.9°C | 3.9% | 0hPa | 2.6V | 00:00:00 | 02:35:40 | 00:00:00 | |
| DB0UT-7 | 2026-09-02 13:10:49 | 45.15892 | 9.36911 | 349° | 9km/h | 22002m | -17.7m/s | -52.9°C | 3.9% | 0hPa | 2.6V | 00:00:00 | 02:35:38 | 00:00:00 | |
| DO3MHA-11 | 2026-09-02 13:10:44 | 45.15875 | 9.36903 | 33° | 11km/h | 22092m | -18.2m/s | -52.9°C | 4.0% | 0hPa | 2.6V | 00:00:00 | 02:35:33 | 00:00:00 | |
| IW2NTF | 2026-09-02 13:10:42 | 45.15855 | 9.36887 | 31° | 9km/h | 22220m | -18.4m/s | -52.7°C | 3.9% | 0hPa | 2.6V | 08:22:58 | 02:35:26 | 00:00:00 | |
| DO3MHA-11 | 2026-09-02 13:10:34 | 45.15853 | 9.36882 | 104° | 7km/h | 22274m | -18.3m/s | -52.3°C | 3.8% | 0hPa | 2.7V | 08:23:00 | 02:35:23 | 00:00:00 | |
| IW2NTF | 2026-09-02 13:10:31 | 45.15863 | 9.36869 | 143° | 7km/h | 22403m | -18.7m/s | -52.1°C | 3.7% | 0hPa | 2.6V | 08:23:08 | 02:35:16 | 00:00:00 | |
| RDZBGO | 2026-09-02 13:10:30 | 45.15856 | 9.36877 | 139° | 9km/h | 22330m | -18.3m/s | -52.4°C | 1.2% | 0hPa | 2.7V | 08:23:00 | 00:00:00 | 00:00:00 | |
| DO3MHA-11 | 2026-09-02 13:10:24 | 45.15867 | 9.36864 | 115° | 2km/h | 22459m | -18.5m/s | -52.0°C | 3.6% | 0hPa | 2.7V | 00:00:00 | 02:35:13 | 00:00:00 | |
| IW2NTF | 2026-09-02 13:10:21 | 45.15865 | 9.36860 | 199° | 2km/h | 22588m | -18.4m/s | -52.1°C | 3.7% | 0hPa | 2.7V | 08:23:18 | 02:35:06 | 00:00:00 | |
| DB0UT-7 | 2026-09-02 13:10:19 | 45.15865 | 9.36860 | 45° | 5km/h | 22552m | -18.5m/s | -52.1°C | 3.7% | 0hPa | 2.6V | 08:23:00 | 00:00:00 | 00:00:00 | |
| NBG1-10 | 2026-09-02 13:10:18 | 45.15865 | 9.36860 | 27° | 9km/h | 22570m | -18.1m/s | -52.1°C | 3.7% | 0hPa | 2.7V | 00:00:00 | 02:35:07 | 00:00:00 | |
| DO3MHA-11 | 2026-09-02 13:10:14 | 45.15867 | 9.36862 | 227° | 7km/h | 22645m | -18.9m/s | -52.2°C | 3.7% | 0hPa | 2.7V | 00:00:00 | 02:35:03 | 00:00:00 | |
| IW2NTF | 2026-09-02 13:10:11 | 45.15870 | 9.36878 | 278° | 7km/h | 22776m | -19m/s | -52.7°C | 3.9% | 0hPa | 2.7V | 08:23:28 | 02:34:56 | 00:00:00 | |
| RDZBGO | 2026-09-02 13:10:10 | 45.15869 | 9.36868 | 257° | 7km/h | 22701m | -18.7m/s | -52.5°C | 1.2% | 0hPa | 2.6V | 08:23:00 | 00:00:00 | 00:00:00 | |
| DO3MHA-11 | 2026-09-02 13:10:04 | 45.15868 | 9.36884 | 312° | 5km/h | 22833m | -19.0m/s | -52.6°C | 3.8% | 0hPa | 2.6V | 00:00:00 | 02:34:53 | 00:00:00 | |
| IW2NTF | 2026-09-02 13:10:01 | 45.15862 | 9.36892 | 316° | 7km/h | 22967m | -19.3m/s | -52.8°C | 3.9% | 0hPa | 2.6V | 08:23:38 | 02:34:46 | 00:00:00 | |
| DO3MHA-11 | 2026-09-02 13:09:54 | 45.15856 | 9.36898 | 332° | 7km/h | 23025m | -19.1m/s | -52.5°C | 3.8% | 0hPa | 2.6V | 00:00:00 | 02:34:43 | 00:00:00 | |
| IW2NTF | 2026-09-02 13:09:51 | 45.15842 | 9.36896 | 42° | 4km/h | 23160m | -19.5m/s | -52.4°C | 3.8% | 0hPa | 2.6V | 08:23:48 | 02:34:36 | 00:00:00 | |
| DB0UT-7 | 2026-09-02 13:09:49 | 45.15844 | 9.36898 | 24° | 13km/h | 23122m | -19.1m/s | -52.4°C | 3.8% | 0hPa | 2.6V | 00:00:00 | 02:34:38 | 00:00:00 | |
| RDZBGO | 2026-09-02 13:09:45 | 45.15841 | 9.36895 | 0° | 0km/h | 23180m | -19.7m/s | -52.4°C | 1.2% | 0hPa | 2.6V | 00:00:00 | 00:00:00 | 00:00:00 | |
| DO3MHA-11 | 2026-09-02 13:09:44 | 45.15841 | 9.36895 | 324° | 11km/h | 23219m | -19.3m/s | -52.4°C | 3.9% | 0hPa | 2.6V | 00:00:00 | 02:34:33 | 00:00:00 | |
| IW2NTF | 2026-09-02 13:09:41 | 45.15827 | 9.36902 | 348° | 18km/h | 23357m | -20.1m/s | -52.8°C | 4% | 0hPa | 2.6V | 08:23:58 | 02:34:26 | 00:00:00 | |
| DO3MHA-11 | 2026-09-02 13:09:34 | 45.15812 | 9.36904 | 360° | 18km/h | 23417m | -20.0m/s | -52.5°C | 4.0% | 0hPa | 2.7V | 00:00:00 | 02:34:23 | 00:00:00 | |
| IW2NTF | 2026-09-02 13:09:31 | 45.15784 | 9.36890 | 38° | 18km/h | 23556m | -20m/s | -52.1°C | 3.8% | 0hPa | 2.6V | 08:24:08 | 02:34:16 | 00:00:00 | |
| NBG1-10 | 2026-09-02 13:09:26 | 45.15780 | 9.36886 | 42° | 9km/h | 23576m | -20.1m/s | -52.0°C | 3.8% | 0hPa | 2.6V | 00:00:00 | 02:34:15 | 00:00:00 | |
| DO3MHA-11 | 2026-09-02 13:09:24 | 45.15773 | 9.36877 | 47° | 11km/h | 23617m | -20.4m/s | -51.9°C | 3.8% | 0hPa | 2.7V | 00:00:00 | 02:34:13 | 00:00:00 | |
| RDZBGO | 2026-09-02 13:09:23 | 45.15773 | 9.36876 | 48° | 18km/h | 23617m | -20.4m/s | -52.0°C | 1.2% | 0hPa | 2.7V | 00:00:00 | 00:00:00 | 00:00:00 | |
| IW2NTF | 2026-09-02 13:09:21 | 45.15766 | 9.36851 | 99° | 7km/h | 23757m | -20.4m/s | -51.5°C | 3.8% | 0hPa | 2.7V | 08:24:18 | 02:34:06 | 00:00:00 | |
| DB0UT-7 | 2026-09-02 13:09:19 | 45.15766 | 9.36856 | 87° | 9km/h | 23717m | -20.3m/s | -51.7°C | 3.8% | 0hPa | 2.7V | 00:00:00 | 00:00:00 | 00:00:00 | |
| DO3MHA-11 | 2026-09-02 13:09:14 | 45.15766 | 9.36844 | 87° | 9km/h | 23819m | -20.5m/s | -51.2°C | 3.6% | 0hPa | 2.7V | 00:00:00 | 02:34:03 | 00:00:00 | |
| IW2NTF | 2026-09-02 13:09:11 | 45.15772 | 9.36821 | 120° | 11km/h | 23966m | -20.7m/s | -51.7°C | 3.9% | 0hPa | 2.7V | 08:24:28 | 02:33:56 | 00:00:00 | |
| OE5DRO-10 | 2026-09-02 13:09:05 | 45.15774 | 9.36816 | 112° | 13km/h | 24008m | -20.9m/s | -51.5°C | 3.9% | 0hPa | 2.6V | 08:24:00 | 00:00:00 | 00:00:00 | |
| DO3MHA-11 | 2026-09-02 13:09:04 | 45.15774 | 9.36815 | 79° | 9km/h | 24029m | -21.4m/s | -51.5°C | 3.8% | 0hPa | 2.7V | 08:24:00 | 02:33:53 | 00:00:00 | |
| IN3HCDX | 2026-09-02 13:09:03 | 45.15774 | 9.36815 | 79° | 4km/h | 24029m | -21.4m/s | 0°C | 0% | 0hPa | 2.6V | 08:24:00 | 00:00:00 | 00:00:00 | |
| IW2NTF | 2026-09-02 13:09:01 | 45.15758 | 9.36806 | 11° | 11km/h | 24177m | -21.1m/s | -50.8°C | 3.7% | 0hPa | 2.6V | 08:24:38 | 02:33:46 | 00:00:00 | |
| RDZBGO | 2026-09-02 13:09:00 | 45.15770 | 9.36810 | 15° | 11km/h | 24093m | -20.9m/s | -51.3°C | 1.2% | 0hPa | 2.7V | 08:25:00 | 00:00:00 | 00:00:00 | |
| DO3MHA-11 | 2026-09-02 13:08:54 | 45.15751 | 9.36801 | 38° | 18km/h | 24241m | -21.2m/s | -50.7°C | 3.7% | 0hPa | 2.7V | 00:00:00 | 02:33:43 | 00:00:00 | |
| NBG1-10 | 2026-09-02 13:08:53 | 45.15749 | 9.36799 | 29° | 20km/h | 24262m | -21.4m/s | -50.6°C | 3.7% | 0hPa | 2.7V | 00:00:00 | 02:33:42 | 00:00:00 | |
| IW2NTF | 2026-09-02 13:08:50 | 45.15731 | 9.36779 | 41° | 22km/h | 24390m | -21.1m/s | -50.3°C | 3.7% | 0hPa | 2.7V | 08:24:48 | 02:33:36 | 00:00:00 | |
| DB0UT-7 | 2026-09-02 13:08:49 | 45.15739 | 9.36789 | 33° | 20km/h | 24348m | -21.2m/s | -50.4°C | 3.7% | 0hPa | 2.6V | 00:00:00 | 02:33:38 | 00:00:00 | |
| OE5DRO-10 | 2026-09-02 13:08:45 | 45.15721 | 9.36768 | 41° | 22km/h | 24433m | -20.9m/s | -50.1°C | 3.7% | 0hPa | 2.7V | 00:00:00 | 00:00:00 | 00:00:00 | |
| DO3MHA-11 | 2026-09-02 13:08:44 | 45.15715 | 9.36760 | 46° | 24km/h | 24454m | -21.7m/s | -50.1°C | 3.6% | 0hPa | 2.7V | 00:00:00 | 02:33:33 | 00:00:00 | |
| IW2NTF | 2026-09-02 13:08:42 | 45.15693 | 9.36708 | 97° | 18km/h | 24605m | -21.4m/s | -49.6°C | 3.5% | 0hPa | 2.7V | 08:24:58 | 02:33:26 | 00:00:00 | |
| RDZBGO | 2026-09-02 13:08:40 | 45.15701 | 9.36738 | 53° | 27km/h | 24518m | -21.8m/s | -49.9°C | 1.1% | 0hPa | 2.6V | 08:25:00 | 00:00:00 | 00:00:00 | |
| DO3MHA-11 | 2026-09-02 13:08:34 | 45.15698 | 9.36692 | 136° | 16km/h | 24670m | -21.8m/s | -49.1°C | 3.3% | 0hPa | 2.6V | 00:00:00 | 02:33:23 | 00:00:00 | |
| IW2NTF | 2026-09-02 13:08:32 | 45.15724 | 9.36676 | 185° | 15km/h | 24823m | -21.7m/s | -48.8°C | 3.2% | 0hPa | 2.7V | 08:25:08 | 02:33:16 | 00:00:00 | |
| OE5DRO-10 | 2026-09-02 13:08:26 | 45.15728 | 9.36677 | 195° | 18km/h | 24845m | -22.0m/s | -48.8°C | 3.2% | 0hPa | 2.7V | 00:00:00 | 00:00:00 | 00:00:00 | |
| DO3MHA-11 | 2026-09-02 13:08:24 | 45.15734 | 9.36681 | 214° | 18km/h | 24889m | -22.1m/s | -48.6°C | 3.2% | 0hPa | 2.7V | 00:00:00 | 02:33:13 | 00:00:00 | |
| IW2NTF | 2026-09-02 13:08:22 | 45.15740 | 9.36720 | 285° | 20km/h | 25044m | -21.8m/s | -49°C | 3.3% | 0hPa | 2.7V | 08:25:18 | 02:33:06 | 00:00:00 | |
| NBG1-10 | 2026-09-02 13:08:20 | 45.15742 | 9.36699 | 264° | 9km/h | 24978m | -22.0m/s | -48.8°C | 3.2% | 0hPa | 2.6V | 00:00:00 | 02:33:09 | 00:00:00 | |
| DB0UT-7 | 2026-09-02 13:08:19 | 45.15742 | 9.36706 | 272° | 11km/h | 25000m | -22.1m/s | -48.8°C | 3.3% | 0hPa | 2.6V | 00:00:00 | 00:00:00 | 00:00:00 | |
| DO3MHA-11 | 2026-09-02 13:08:14 | 45.15732 | 9.36740 | 311° | 16km/h | 25111m | -22.3m/s | -49.1°C | 3.3% | 0hPa | 2.6V | 00:00:00 | 02:33:03 | 00:00:00 | |
| IW2NTF | 2026-09-02 13:08:12 | 45.15705 | 9.36751 | 12° | 15km/h | 25267m | -22.2m/s | -49.3°C | 3.4% | 0hPa | 2.6V | 08:25:28 | 02:32:56 | 00:00:00 | |
| OE5DRO-10 | 2026-09-02 13:08:07 | 45.15705 | 9.36751 | 13° | 7km/h | 25267m | -22.2m/s | -49.3°C | 3.4% | 0hPa | 2.6V | 00:00:00 | 00:00:00 | 00:00:00 | |
| DO3MHA-11 | 2026-09-02 13:08:04 | 45.15695 | 9.36746 | 35° | 5km/h | 25333m | -22.2m/s | -49.0°C | 3.4% | 0hPa | 2.7V | 00:00:00 | 02:32:53 | 00:00:00 | |
| RDZBGO | 2026-09-02 13:07:59 | 45.15690 | 9.36741 | 0° | 0km/h | 25422m | -22.1m/s | -48.8°C | 1.0% | 0hPa | 2.7V | 08:26:00 | 00:00:00 | 00:00:00 | |
| DO3MHA-11 | 2026-09-02 13:07:54 | 45.15691 | 9.36735 | 92° | 5km/h | 25557m | -22.3m/s | -48.6°C | 3.2% | 0hPa | 2.7V | 00:00:00 | 02:32:43 | 00:00:00 | |
| DB0UT-7 | 2026-09-02 13:07:49 | 45.15688 | 9.36725 | 29° | 7km/h | 25670m | -22.6m/s | -48.7°C | 3.2% | 0hPa | 2.7V | 00:00:00 | 02:32:38 | 00:00:00 | |
| OE5DRO-10 | 2026-09-02 13:07:48 | 45.15688 | 9.36725 | 322° | 7km/h | 25692m | -22.1m/s | -48.6°C | 3.2% | 0hPa | 2.7V | 00:00:00 | 00:00:00 | 00:00:00 | |
| DO3MHA-11 | 2026-09-02 13:07:44 | 45.15689 | 9.36731 | 223° | 7km/h | 25782m | -22.8m/s | -48.9°C | 3.3% | 0hPa | 2.7V | 00:00:00 | 02:32:33 | 00:00:00 | |
| IW2NTF | 2026-09-02 13:07:42 | 45.15690 | 9.36726 | 37° | 11km/h | 25943m | -23m/s | -49.3°C | 3.4% | 0hPa | 2.7V | 08:25:58 | 02:32:26 | 00:00:00 | |
| RDZBGO | 2026-09-02 13:07:38 | 45.15692 | 9.36731 | 64° | 5km/h | 25898m | -22.9m/s | -49.3°C | 1.1% | 0hPa | 2.6V | 08:26:00 | 00:00:00 | 00:00:00 | |
| DO3MHA-11 | 2026-09-02 13:07:34 | 45.15682 | 9.36719 | 32° | 9km/h | 26013m | -23.0m/s | -49.3°C | 3.5% | 0hPa | 2.6V | 08:26:00 | 02:32:23 | 00:00:00 | |
| IW2NTF | 2026-09-02 13:07:32 | 45.15684 | 9.36701 | 135° | 13km/h | 26173m | -23.6m/s | -48.9°C | 3.3% | 0hPa | 2.7V | 08:26:08 | 02:32:16 | 00:00:00 | |
| NBG1-10 | 2026-09-02 13:07:29 | 45.15680 | 9.36707 | 131° | 7km/h | 26127m | -23.0m/s | -48.8°C | 3.2% | 0hPa | 2.6V | 08:26:00 | 02:32:18 | 00:00:00 | |
| DO3MHA-11 | 2026-09-02 13:07:24 | 45.15690 | 9.36695 | 156° | 7km/h | 26244m | -23.3m/s | -48.9°C | 3.3% | 0hPa | 2.6V | 00:00:00 | 02:32:13 | 00:00:00 | |
| DB0UT-7 | 2026-09-02 13:07:19 | 45.15698 | 9.36699 | 232° | 7km/h | 26361m | -23.6m/s | -49.0°C | 3.3% | 0hPa | 2.6V | 00:00:00 | 00:00:00 | 00:00:00 | |
| RDZBGO | 2026-09-02 13:07:18 | 45.15698 | 9.36699 | 233° | 7km/h | 26361m | -23.7m/s | -49.0°C | 1.0% | 0hPa | 2.6V | 08:27:00 | 00:00:00 | 00:00:00 | |
| OE5DRO-10 | 2026-09-02 13:07:10 | 45.15690 | 9.36699 | 39° | 7km/h | 26572m | -23.7m/s | -49.3°C | 3.4% | 0hPa | 2.6V | 00:00:00 | 00:00:00 | 00:00:00 | |
| RDZBGO | 2026-09-02 13:06:57 | 45.15692 | 9.36682 | 317° | 4km/h | 26858m | -24.3m/s | -49.2°C | 1.1% | 0hPa | 2.6V | 08:27:00 | 00:00:00 | 00:00:00 | |
| NBG1-10 | 2026-09-02 13:06:56 | 45.15690 | 9.36684 | 353° | 11km/h | 26907m | -24.0m/s | -49.0°C | 3.5% | 0hPa | 2.6V | 00:00:00 | 02:31:45 | 00:00:00 | |
| OE5DRO-10 | 2026-09-02 13:06:51 | 45.15678 | 9.36680 | 48° | 15km/h | 27029m | -24.2m/s | -49.0°C | 3.6% | 0hPa | 2.6V | 00:00:00 | 00:00:00 | 00:00:00 | |
| DB0UT-7 | 2026-09-02 13:06:49 | 45.15674 | 9.36672 | 56° | 15km/h | 27078m | -24.8m/s | -48.8°C | 3.5% | 0hPa | 2.6V | 00:00:00 | 02:31:38 | 00:00:00 | |
| RDZBGO | 2026-09-02 13:06:36 | 45.15651 | 9.36624 | 53° | 15km/h | 27376m | -24.9m/s | -47.4°C | 1.0% | 0hPa | 2.6V | 08:27:00 | 00:00:00 | 00:00:00 | |
| OE5DRO-10 | 2026-09-02 13:06:32 | 45.15640 | 9.36605 | 34° | 18km/h | 27501m | -24.6m/s | -47.4°C | 3.3% | 0hPa | 2.6V | 00:00:00 | 00:00:00 | 00:00:00 | |
| DB0UT-7 | 2026-09-02 13:06:19 | 45.15590 | 9.36613 | 11° | 22km/h | 27828m | -25.4m/s | -45.8°C | 2.9% | 0hPa | 2.6V | 00:00:00 | 00:00:00 | 00:00:00 | |
| NBG1-10 | 2026-09-02 13:06:17 | 45.15578 | 9.36608 | 12° | 20km/h | 27879m | -24.9m/s | -45.5°C | 2.9% | 0hPa | 2.6V | 00:00:00 | 02:31:06 | 00:00:00 | |
| RDZBGO | 2026-09-02 13:06:16 | 45.15578 | 9.36608 | 13° | 22km/h | 27879m | -24.9m/s | -45.6°C | 0.8% | 0hPa | 2.6V | 08:27:00 | 00:00:00 | 00:00:00 | |
| OE5DRO-10 | 2026-09-02 13:06:13 | 45.15558 | 9.36599 | 17° | 22km/h | 27981m | -25.7m/s | -45.3°C | 2.9% | 0hPa | 2.6V | 08:27:00 | 00:00:00 | 00:00:00 | |
| RDZBGO | 2026-09-02 13:05:55 | 45.15471 | 9.36535 | 56° | 15km/h | 28419m | -26.3m/s | -45.4°C | 0.9% | 0hPa | 2.7V | 08:27:00 | 00:00:00 | 00:00:00 | |
| OE5DRO-10 | 2026-09-02 13:05:52 | 45.15466 | 9.36519 | 69° | 16km/h | 28525m | -26.8m/s | -45.3°C | 2.8% | 0hPa | 2.7V | 00:00:00 | 00:00:00 | 00:00:00 | |
| DB0UT-7 | 2026-09-02 13:05:49 | 45.15460 | 9.36504 | 57° | 15km/h | 28605m | -27.3m/s | -45.5°C | 2.9% | 0hPa | 2.7V | 08:27:00 | 02:30:38 | 00:00:00 | |
| IW2NTF | 2026-09-02 13:05:47 | 45.15450 | 9.36461 | 97° | 18km/h | 28796m | -27.4m/s | -46°C | 3.1% | 0hPa | 2.7V | 08:27:53 | 02:30:31 | 00:00:00 | |
| NBG1-10 | 2026-09-02 13:05:44 | 45.15451 | 9.36473 | 83° | 13km/h | 28741m | -27.8m/s | -46.1°C | 3.1% | 0hPa | 2.7V | 00:00:00 | 02:30:33 | 00:00:00 | |
| IW2NTF | 2026-09-02 13:05:37 | 45.15475 | 9.36426 | 234° | 9km/h | 29072m | -27.9m/s | -44.9°C | 2.9% | 0hPa | 2.6V | 08:28:03 | 02:30:21 | 00:00:00 | |
| RDZBGO | 2026-09-02 13:05:34 | 45.15468 | 9.36426 | 154° | 15km/h | 28989m | -28.2m/s | -45.1°C | 0.9% | 0hPa | 2.6V | 08:28:00 | 00:00:00 | 00:00:00 | |
| OE5DRO-10 | 2026-09-02 13:05:33 | 45.15473 | 9.36425 | 179° | 9km/h | 29044m | -27.8m/s | -44.9°C | 2.9% | 0hPa | 2.6V | 00:00:00 | 00:00:00 | 00:00:00 | |
| IW2NTF | 2026-09-02 13:05:22 | 45.15454 | 9.36438 | 49° | 15km/h | 29382m | -28.6m/s | -44.4°C | 2.9% | 0hPa | 2.6V | 08:28:14 | 02:30:10 | 00:00:00 | |
| DO3MHA-11 | 2026-09-02 13:05:22 | 45.15456 | 9.36441 | 44° | 9km/h | 29354m | -27.6m/s | -44.3°C | 2.9% | 0hPa | 2.7V | 00:00:00 | 02:30:11 | 00:00:00 | |
| DB0UT-7 | 2026-09-02 13:05:19 | 45.15451 | 9.36430 | 58° | 15km/h | 29439m | -28.5m/s | -44.4°C | 2.9% | 0hPa | 2.7V | 00:00:00 | 00:00:00 | 00:00:00 | |
| RDZBGO | 2026-09-02 13:05:14 | 45.15447 | 9.36419 | 56° | 4km/h | 29553m | -29.0m/s | -44.6°C | 0.9% | 0hPa | 2.7V | 08:28:00 | 00:00:00 | 00:00:00 | |
| IW2NTF | 2026-09-02 13:05:12 | 45.15446 | 9.36407 | 83° | 16km/h | 29669m | -29.3m/s | -43.6°C | 2.9% | 0hPa | 2.7V | 08:28:24 | 02:30:00 | 00:00:00 | |
| DO3MHA-11 | 2026-09-02 13:05:12 | 45.15446 | 9.36412 | 73° | 22km/h | 29640m | -29.1m/s | -43.9°C | 3.0% | 0hPa | 2.7V | 00:00:00 | 02:30:01 | 00:00:00 | |
| NBG1-10 | 2026-09-02 13:05:11 | 45.15445 | 9.36407 | 84° | 16km/h | 29670m | -29.2m/s | -43.5°C | 2.9% | 0hPa | 2.7V | 00:00:00 | 02:30:00 | 00:00:00 | |
| IW2NTF | 2026-09-02 13:05:02 | 45.15450 | 9.36327 | 175° | 13km/h | 30028m | -28.9m/s | -41.8°C | 2.5% | 0hPa | 2.7V | 08:28:36 | 02:29:48 | 00:00:00 | |
| DO3MHA-11 | 2026-09-02 13:05:02 | 45.15442 | 9.36333 | 117° | 15km/h | 29943m | -29.2m/s | -41.9°C | 2.5% | 0hPa | 2.6V | 00:00:00 | 02:29:51 | 00:00:00 | |
| OE5DRO-10 | 2026-09-02 13:04:54 | 45.15470 | 9.36325 | 162° | 15km/h | 30176m | -30.2m/s | -41.9°C | 2.6% | 0hPa | 2.6V | 00:00:00 | 00:00:00 | 00:00:00 | |
| RDZBGO | 2026-09-02 13:04:53 | 45.15470 | 9.36325 | 162° | 16km/h | 30176m | -30.2m/s | -42.0°C | 0.7% | 0hPa | 2.6V | 08:28:00 | 00:00:00 | 00:00:00 | |
| IW2NTF | 2026-09-02 13:04:52 | 45.15480 | 9.36318 | 33° | 0km/h | 30323m | -30.3m/s | -41.2°C | 2.4% | 0hPa | 2.6V | 08:28:46 | 02:29:38 | 00:00:00 | |
| DB0UT-7 | 2026-09-02 13:04:49 | 45.15480 | 9.36318 | 34° | 18km/h | 30324m | -30.3m/s | -41.2°C | 2.4% | 0hPa | 2.6V | 00:00:00 | 02:29:38 | 00:00:00 | |
| PG1ADW-2 | 2026-09-02 13:04:47 | 45.15479 | 9.36319 | 318° | 11km/h | 30385m | -30.6m/s | -41.1°C | 2.5% | 0hPa | 2.6V | 00:00:00 | 02:29:36 | 00:00:00 | |
| IW2NTF | 2026-09-02 13:04:42 | 45.15447 | 9.36345 | 352° | 22km/h | 30642m | -32.9m/s | -40.8°C | 2.4% | 0hPa | 2.7V | 08:30:00 | 02:29:28 | 00:00:00 | |
| DO3MHA-11 | 2026-09-02 13:04:42 | 45.15463 | 9.36336 | 329° | 20km/h | 30544m | -33.0m/s | -41.0°C | 2.5% | 0hPa | 2.6V | 00:00:00 | 02:29:31 | 00:00:00 | |
| NBG1-10 | 2026-09-02 13:04:38 | 45.15442 | 9.36345 | 355° | 18km/h | 30675m | -32.7m/s | -40.8°C | 2.4% | 0hPa | 2.6V | 00:00:00 | 02:29:27 | 00:00:00 | |
| OE5DRO-10 | 2026-09-02 13:04:35 | 45.15427 | 9.36343 | 23° | 22km/h | 30777m | -33.8m/s | -40.5°C | 2.4% | 0hPa | 2.6V | 00:00:00 | 00:00:00 | 00:00:00 | |
| IW2NTF | 2026-09-02 13:04:32 | 45.15409 | 9.36323 | 73° | 13km/h | 30975m | -34.2m/s | -40.2°C | 2.3% | 0hPa | 2.6V | 08:30:00 | 02:29:18 | 00:00:00 | |
| DO3MHA-11 | 2026-09-02 13:04:32 | 45.15414 | 9.36335 | 40° | 20km/h | 30875m | -32.8m/s | -40.0°C | 2.3% | 0hPa | 2.7V | 00:00:00 | 02:29:21 | 00:00:00 | |
| IW2NTF | 2026-09-02 13:04:22 | 45.15442 | 9.36255 | 145° | 29km/h | 31313m | -32.5m/s | -40.3°C | 2.4% | 0hPa | 2.7V | 08:30:00 | 02:29:08 | 00:00:00 | |
| DO3MHA-11 | 2026-09-02 13:04:22 | 45.15425 | 9.36275 | 133° | 27km/h | 31213m | -34.9m/s | -40.0°C | 2.3% | 0hPa | 2.7V | 00:00:00 | 02:29:11 | 00:00:00 | |
| DB0UT-7 | 2026-09-02 13:04:19 | 45.15442 | 9.36255 | 146° | 18km/h | 31313m | -32.5m/s | -40.3°C | 2.4% | 0hPa | 2.7V | 00:00:00 | 00:00:00 | 00:00:00 | |
| OE5DRO-10 | 2026-09-02 13:04:16 | 45.15459 | 9.36241 | 155° | 13km/h | 31411m | -33.3m/s | -39.9°C | 2.3% | 0hPa | 2.6V | 00:00:00 | 00:00:00 | 00:00:00 | |
| IW2NTF | 2026-09-02 13:04:13 | 45.15499 | 9.36236 | 201° | 24km/h | 31650m | -36.1m/s | -39.5°C | 2.2% | 0hPa | 2.6V | 08:30:00 | 02:28:58 | 00:00:00 | |
| RDZBGO | 2026-09-02 13:04:12 | 45.15482 | 9.36232 | 182° | 24km/h | 31546m | -33.9m/s | -39.8°C | 0.7% | 0hPa | 2.7V | 08:29:00 | 00:00:00 | 00:00:00 | |
| IW2NTF | 2026-09-02 13:04:02 | 45.15494 | 9.36292 | 332° | 18km/h | 32009m | -35m/s | -39.8°C | 2.4% | 0hPa | 2.7V | 08:30:00 | 02:28:48 | 00:00:00 | |
| DO3MHA-11 | 2026-09-02 13:04:02 | 45.15506 | 9.36279 | 308° | 13km/h | 31906m | -36.3m/s | -39.9°C | 2.3% | 0hPa | 2.6V | 00:00:00 | 02:28:51 | 00:00:00 | |
| DK5PH-5 | 2026-09-02 13:03:58 | 45.15490 | 9.36294 | 352° | 26km/h | 32045m | -35.8m/s | -39.7°C | 2.4% | 0hPa | 2.6V | 00:00:00 | 02:28:47 | 00:00:00 | |
| IW2NTF | 2026-09-02 13:03:52 | 45.15474 | 9.36303 | 317° | 22km/h | 32364m | -35.8m/s | -39.1°C | 2.4% | 0hPa | 2.6V | 08:30:00 | 02:28:38 | 00:00:00 | |
| DO3MHA-11 | 2026-09-02 13:03:52 | 45.15482 | 9.36292 | 325° | 20km/h | 32257m | -37.0m/s | -39.6°C | 2.4% | 0hPa | 2.6V | 00:00:00 | 02:28:41 | 00:00:00 | |
| RDZBGO | 2026-09-02 13:03:51 | 45.15482 | 9.36292 | 325° | 5km/h | 32256m | -37.0m/s | -39.6°C | 0.7% | 0hPa | 2.6V | 00:00:00 | 00:00:00 | 00:00:00 | |
| DB0UT-7 | 2026-09-02 13:03:49 | 45.15474 | 9.36303 | 318° | 18km/h | 32365m | -35.7m/s | -39.1°C | 2.4% | 0hPa | 2.6V | 00:00:00 | 02:28:38 | 00:00:00 | |
| OE5DRO-10 | 2026-09-02 13:03:48 | 45.15469 | 9.36308 | 328° | 15km/h | 32401m | -36.7m/s | -38.9°C | 2.3% | 0hPa | 2.6V | 00:00:00 | 00:00:00 | 00:00:00 | |
| DO3MHA-11 | 2026-09-02 13:03:42 | 45.15440 | 9.36326 | 9° | 7km/h | 32621m | -36.1m/s | -38.4°C | 2.3% | 0hPa | 2.6V | 00:00:00 | 02:28:31 | 00:00:00 | |
| IW2NTF | 2026-09-02 13:03:40 | 45.15439 | 9.36325 | 136° | 5km/h | 32731m | -37.8m/s | -37.6°C | 2.1% | 0hPa | 2.7V | 08:30:00 | 02:28:28 | 00:00:00 | |
| S52SK | 2026-09-02 13:03:36 | 45.15442 | 9.36325 | 244° | 5km/h | 32846m | -38.2m/s | 0°C | 0% | 0hPa | 2.6V | 00:00:00 | 00:00:00 | 00:00:00 | |
| IW2NTF | 2026-09-02 13:03:34 | 45.15416 | 9.36331 | 20° | 24km/h | 33120m | -40.8m/s | -37°C | 2% | 0hPa | 2.6V | 08:30:00 | 02:28:18 | 00:00:00 | |
| DO3MHA-11 | 2026-09-02 13:03:32 | 45.15432 | 9.36334 | 346° | 24km/h | 33001m | -38.6m/s | -36.6°C | 1.9% | 0hPa | 2.7V | 00:00:00 | 02:28:21 | 00:00:00 | |
| RDZBGO | 2026-09-02 13:03:30 | 45.15427 | 9.36334 | 5° | 24km/h | 33040m | -40.2m/s | -36.8°C | 0.5% | 0hPa | 2.7V | 00:00:00 | 00:00:00 | 00:00:00 | |
| OE5DRO-10 | 2026-09-02 13:03:29 | 45.15416 | 9.36331 | 21° | 27km/h | 33121m | -40.7m/s | -37.0°C | 2.0% | 0hPa | 2.7V | 00:00:00 | 00:00:00 | 00:00:00 | |
| DO3MHA-11 | 2026-09-02 13:03:22 | 45.15421 | 9.36278 | 132° | 27km/h | 33386m | -35.7m/s | -36.9°C | 2.1% | 0hPa | 2.7V | 00:00:00 | 02:28:11 | 00:00:00 | |
| IW2NTF | 2026-09-02 13:03:20 | 45.15438 | 9.36255 | 144° | 26km/h | 33496m | -36.6m/s | -36.8°C | 2.1% | 0hPa | 2.7V | 08:30:00 | 02:28:08 | 00:00:00 | |
| IW2NTF | 2026-09-02 13:03:15 | 45.15466 | 9.36328 | 226° | 29km/h | 33871m | -35.9m/s | -36°C | 1.9% | 0hPa | 2.6V | 08:30:00 | 02:27:58 | 00:00:00 | |
| PG1ADW-2 | 2026-09-02 13:03:13 | 45.15453 | 9.36283 | 263° | 33km/h | 33723m | -38.5m/s | -36.5°C | 1.9% | 0hPa | 2.6V | 00:00:00 | 00:00:00 | 00:00:00 | |
| DO3MHA-11 | 2026-09-02 13:03:11 | 45.15457 | 9.36308 | 253° | 27km/h | 33799m | -35.9m/s | -36.1°C | 1.9% | 0hPa | 2.6V | 00:00:00 | 02:28:00 | 00:00:00 | |
| OE5DRO-10 | 2026-09-02 13:03:10 | 45.15461 | 9.36319 | 233° | 27km/h | 33835m | -36.4m/s | -35.9°C | 1.8% | 0hPa | 2.6V | 00:00:00 | 00:00:00 | 08:30:00 | |
| IW2NTF | 2026-09-02 13:03:00 | 45.15483 | 9.36391 | 353° | 13km/h | 33914m | 3.2m/s | -36.4°C | 2% | 0hPa | 2.7V | 08:30:00 | 02:27:48 | 00:00:00 | |
| DO3MHA-11 | 2026-09-02 13:03:00 | 45.15488 | 9.36390 | 341° | 27km/h | 33918m | 3.2m/s | -36.4°C | 1.9% | 0hPa | 2.7V | 00:00:00 | 02:27:49 | 00:00:00 | |
| IW2NTF | 2026-09-02 13:02:54 | 45.15535 | 9.36433 | 278° | 24km/h | 33864m | 6.1m/s | -36°C | 1.9% | 0hPa | 2.7V | 08:30:00 | 02:27:38 | 00:00:00 | |
| OE5DRO-10 | 2026-09-02 13:02:51 | 45.15531 | 9.36415 | 233° | 24km/h | 33876m | 4.8m/s | -35.9°C | 1.9% | 0hPa | 2.7V | 00:00:00 | 00:00:00 | 00:00:00 | |
| DO3MHA-11 | 2026-09-02 13:02:50 | 45.15534 | 9.36424 | 254° | 24km/h | 33871m | 5.7m/s | -35.9°C | 1.9% | 0hPa | 2.7V | 00:00:00 | 02:27:39 | 00:00:00 | |
| DB0UT-7 | 2026-09-02 13:02:49 | 45.15535 | 9.36433 | 279° | 24km/h | 33865m | 6.1m/s | -36.0°C | 1.9% | 0hPa | 2.7V | 00:00:00 | 02:27:38 | 00:00:00 | |
| DK5PH-5 | 2026-09-02 13:02:46 | 45.15527 | 9.36451 | 310° | 24km/h | 33850m | 4.0m/s | -36.1°C | 1.9% | 0hPa | 2.6V | 00:00:00 | 02:27:35 | 00:00:00 | |
| NBG1-10 | 2026-09-02 13:02:43 | 45.15538 | 9.36467 | 205° | 26km/h | 33830m | 5.9m/s | -36.2°C | 2.0% | 0hPa | 2.6V | 00:00:00 | 02:27:31 | 00:00:00 | |
| IW2NTF | 2026-09-02 13:02:40 | 45.15564 | 9.36483 | 204° | 38km/h | 33814m | 4.4m/s | -36.5°C | 2% | 0hPa | 2.6V | 08:30:00 | 02:27:28 | 00:00:00 | |
| PG1ADW-2 | 2026-09-02 13:02:39 | 45.15564 | 9.36483 | 205° | 24km/h | 33815m | 4.4m/s | -36.5°C | 2.0% | 0hPa | 2.6V | 00:00:00 | 00:00:00 | 08:30:00 | |
| IW2NTF | 2026-09-02 13:02:34 | 45.15592 | 9.36549 | 245° | 31km/h | 33765m | 3.8m/s | -36.7°C | 2% | 0hPa | 2.7V | 08:30:00 | 02:27:18 | 00:00:00 | |
| OE5DRO-10 | 2026-09-02 13:02:32 | 45.15586 | 9.36519 | 266° | 26km/h | 33779m | 5.4m/s | -36.8°C | 2.1% | 0hPa | 2.6V | 00:00:00 | 00:00:00 | 00:00:00 | |
| DO3MHA-11 | 2026-09-02 13:02:30 | 45.15589 | 9.36539 | 254° | 22km/h | 33769m | 4.4m/s | -36.7°C | 2.1% | 0hPa | 2.6V | 00:00:00 | 02:27:19 | 00:00:00 | |
| RDZBGO | 2026-09-02 13:02:28 | 45.15592 | 9.36549 | 247° | 31km/h | 33765m | 3.8m/s | -36.7°C | 0.5% | 0hPa | 2.6V | 00:00:00 | 00:00:00 | 00:00:00 | |
| IW2NTF | 2026-09-02 13:02:20 | 45.15637 | 9.36580 | 222° | 35km/h | 33714m | 5.7m/s | -36.8°C | 2.1% | 0hPa | 2.6V | 08:30:00 | 02:27:08 | 00:00:00 | |
| DB0UT-7 | 2026-09-02 13:02:19 | 45.15637 | 9.36580 | 223° | 26km/h | 33714m | 5.6m/s | -36.8°C | 2.1% | 0hPa | 2.6V | 00:00:00 | 00:00:00 | 00:00:00 | |
| DK5PH-5 | 2026-09-02 13:02:16 | 45.15656 | 9.36609 | 228° | 24km/h | 33700m | 4.9m/s | -36.7°C | 2.1% | 0hPa | 2.6V | 00:00:00 | 02:27:05 | 00:00:00 | |
| IW2NTF | 2026-09-02 13:02:14 | 45.15695 | 9.36627 | 195° | 29km/h | 33663m | 5.6m/s | -36.7°C | 2.1% | 0hPa | 2.6V | 08:30:00 | 02:26:58 | 00:00:00 | |
| OE5DRO-10 | 2026-09-02 13:02:13 | 45.15671 | 9.36624 | 192° | 26km/h | 33684m | 4.9m/s | -36.6°C | 2.0% | 0hPa | 2.7V | 00:00:00 | 00:00:00 | 00:00:00 | |
| DO3MHA-11 | 2026-09-02 13:02:10 | 45.15688 | 9.36625 | 186° | 26km/h | 33669m | 5.5m/s | -36.8°C | 2.1% | 0hPa | 2.6V | 00:00:00 | 02:26:59 | 00:00:00 | |
| NBG1-10 | 2026-09-02 13:02:09 | 45.15695 | 9.36627 | 196° | 20km/h | 33664m | 5.5m/s | -36.7°C | 2.1% | 0hPa | 2.6V | 00:00:00 | 02:26:58 | 08:30:00 | |
| RDZBGO | 2026-09-02 13:02:07 | 45.15702 | 9.36631 | 205° | 31km/h | 33658m | 5.2m/s | -36.8°C | 0.6% | 0hPa | 2.6V | 00:00:00 | 00:00:00 | 00:00:00 | |
| IW2NTF | 2026-09-02 13:02:04 | 45.15745 | 9.36677 | 216° | 24km/h | 33612m | 5.8m/s | -37°C | 2.1% | 0hPa | 2.6V | 08:30:00 | 02:26:48 | 00:00:00 | |
| DO3MHA-11 | 2026-09-02 13:02:00 | 45.15741 | 9.36673 | 221° | 24km/h | 33618m | 5.2m/s | -36.9°C | 2.1% | 0hPa | 2.6V | 00:00:00 | 02:26:49 | 00:00:00 | |
| PG1ADW-2 | 2026-09-02 13:01:59 | 45.15745 | 9.36677 | 217° | 22km/h | 33613m | 5.8m/s | -37.0°C | 2.1% | 0hPa | 2.6V | 00:00:00 | 00:00:00 | 00:00:00 | |
| OE5DRO-10 | 2026-09-02 13:01:54 | 45.15777 | 9.36695 | 179° | 16km/h | 33588m | 5.8m/s | -36.9°C | 2.1% | 0hPa | 2.6V | 00:00:00 | 00:00:00 | 00:00:00 | |
| DO3MHA-11 | 2026-09-02 13:01:50 | 45.15793 | 9.36691 | 207° | 16km/h | 33568m | 4.4m/s | -36.9°C | 2.0% | 0hPa | 2.6V | 00:00:00 | 02:26:39 | 00:00:00 | |
| DB0UT-7 | 2026-09-02 13:01:49 | 45.15795 | 9.36694 | 240° | 15km/h | 33563m | 5.9m/s | -36.9°C | 2.0% | 0hPa | 2.6V | 00:00:00 | 02:26:38 | 00:00:00 | |
| RDZBGO | 2026-09-02 13:01:47 | 45.15796 | 9.36699 | 252° | 20km/h | 33557m | 6.4m/s | -37.0°C | 0.6% | 0hPa | 2.6V | 00:00:00 | 00:00:00 | 00:00:00 | |
| IW2NTF | 2026-09-02 13:01:46 | 45.15801 | 9.36725 | 256° | 24km/h | 33542m | 3.8m/s | -36.9°C | 2.1% | 0hPa | 2.6V | 08:30:00 | 02:26:34 | 00:00:00 | |
| DK5PH-5 | 2026-09-02 13:01:46 | 45.15800 | 9.36717 | 257° | 15km/h | 33546m | 4.1m/s | -36.9°C | 2.1% | 0hPa | 2.6V | 00:00:00 | 02:26:35 | 00:00:00 | |
| IW2NTF | 2026-09-02 13:01:40 | 45.15818 | 9.36728 | 249° | 16km/h | 33489m | 4.8m/s | -37.1°C | 2.1% | 0hPa | 2.6V | 08:30:00 | 02:26:24 | 00:00:00 | |
| PG1ADW-2 | 2026-09-02 13:01:39 | 45.15808 | 9.36726 | 126° | 13km/h | 33510m | 4.6m/s | -37.1°C | 2.1% | 0hPa | 2.6V | 00:00:00 | 00:00:00 | 00:00:00 | |
| NBG1-10 | 2026-09-02 13:01:36 | 45.15816 | 9.36723 | 224° | 16km/h | 33494m | 4.9m/s | -37.1°C | 2.1% | 0hPa | 2.7V | 00:00:00 | 02:26:25 | 00:00:00 | |
| OE5DRO-10 | 2026-09-02 13:01:35 | 45.15818 | 9.36728 | 250° | 13km/h | 33489m | 4.8m/s | -37.1°C | 2.1% | 0hPa | 2.7V | 00:00:00 | 00:00:00 | 00:00:00 | |
| RDZBGO | 2026-09-02 13:01:27 | 45.15801 | 9.36756 | 7° | 9km/h | 33452m | 4.5m/s | -37.2°C | 0.6% | 0hPa | 2.7V | 00:00:00 | 00:00:00 | 00:00:00 | |
| IW2NTF | 2026-09-02 13:01:26 | 45.15802 | 9.36756 | 182° | 9km/h | 33435m | 5.6m/s | -37.1°C | 2.1% | 0hPa | 2.7V | 08:30:00 | 02:26:14 | 00:00:00 | |
| IW2NTF | 2026-09-02 13:01:20 | 45.15790 | 9.36756 | 305° | 15km/h | 33384m | 5.7m/s | -37.1°C | 2.1% | 0hPa | 2.6V | 08:30:00 | 02:26:04 | 00:00:00 | |
| DO3MHA-11 | 2026-09-02 13:01:20 | 45.15809 | 9.36751 | 33° | 13km/h | 33409m | 5.2m/s | -37.1°C | 2.1% | 0hPa | 2.7V | 00:00:00 | 02:26:09 | 00:00:00 | |
| DB0UT-7 | 2026-09-02 13:01:19 | 45.15806 | 9.36749 | 14° | 16km/h | 33405m | 4.7m/s | -37.1°C | 2.1% | 0hPa | 2.7V | 00:00:00 | 00:00:00 | 08:30:00 | |
| OE5DRO-10 | 2026-09-02 13:01:16 | 45.15793 | 9.36752 | 330° | 15km/h | 33390m | 5.6m/s | -37.0°C | 2.1% | 0hPa | 2.6V | 00:00:00 | 00:00:00 | 00:00:00 | |
| DO3MHA-11 | 2026-09-02 13:01:10 | 45.15795 | 9.36760 | 101° | 18km/h | 33360m | 5.7m/s | -37.1°C | 2.1% | 0hPa | 2.6V | 00:00:00 | 02:25:59 | 08:30:00 | |
| RDZBGO | 2026-09-02 13:01:08 | 45.15792 | 9.36747 | 59° | 24km/h | 33349m | 5.4m/s | -37.0°C | 0.6% | 0hPa | 2.6V | 00:00:00 | 00:00:00 | 00:00:00 | |
| IW2NTF | 2026-09-02 13:01:06 | 45.15778 | 9.36733 | 10° | 20km/h | 33334m | 4.9m/s | -37.1°C | 2.1% | 0hPa | 2.6V | 08:30:00 | 02:25:54 | 00:00:00 | |
| IW2NTF | 2026-09-02 13:01:00 | 45.15760 | 9.36734 | 27° | 27km/h | 33282m | 5.5m/s | -37.1°C | 2.2% | 0hPa | 2.7V | 08:30:00 | 02:25:44 | 00:00:00 | |
| DO3MHA-11 | 2026-09-02 13:01:00 | 45.15771 | 9.36747 | 233° | 18km/h | 33309m | 4.3m/s | -37.2°C | 2.2% | 0hPa | 2.7V | 00:00:00 | 02:25:49 | 00:00:00 | |
| S52SK | 2026-09-02 13:00:59 | 45.15771 | 9.36747 | 234° | 7km/h | 33309m | 4.3m/s | 0°C | 0% | 0hPa | 2.7V | 00:00:00 | 00:00:00 | 00:00:00 | |
| PG1ADW-2 | 2026-09-02 13:00:58 | 45.15771 | 9.36747 | 67° | 13km/h | 33299m | 5.6m/s | -37.3°C | 2.2% | 0hPa | 2.7V | 00:00:00 | 02:25:47 | 00:00:00 | |
| OE5DRO-10 | 2026-09-02 13:00:57 | 45.15769 | 9.36743 | 49° | 20km/h | 33294m | 5.7m/s | -37.3°C | 2.2% | 0hPa | 2.7V | 00:00:00 | 00:00:00 | 00:00:00 | |
| DO3MHA-11 | 2026-09-02 13:00:50 | 45.15733 | 9.36732 | 330° | 18km/h | 33257m | 4.8m/s | -37.1°C | 2.2% | 0hPa | 2.7V | 00:00:00 | 02:25:39 | 00:00:00 | |
| DB0UT-7 | 2026-09-02 13:00:49 | 45.15731 | 9.36734 | 324° | 16km/h | 33252m | 4.9m/s | -37.1°C | 2.2% | 0hPa | 2.7V | 00:00:00 | 02:25:38 | 00:00:00 | |
| IW2NTF | 2026-09-02 13:00:46 | 45.15720 | 9.36736 | 3° | 20km/h | 33231m | 6m/s | -37.3°C | 2.2% | 0hPa | 2.7V | 08:30:00 | 02:25:34 | 00:00:00 | |
| DK5PH-5 | 2026-09-02 13:00:46 | 45.15725 | 9.36736 | 4° | 18km/h | 33237m | 5.8m/s | 0°C | 0% | 0hPa | 2.6V | 00:00:00 | 02:25:35 | 00:00:00 | |
| NBG1-10 | 2026-09-02 13:00:45 | 45.15721 | 9.36736 | 4° | 15km/h | 33231m | 5.9m/s | -37.2°C | 2.2% | 0hPa | 2.6V | 00:00:00 | 02:25:34 | 00:00:00 | |
| IW2NTF | 2026-09-02 13:00:40 | 45.15680 | 9.36751 | 342° | 7km/h | 33179m | 3.8m/s | -37°C | 2.1% | 0hPa | 2.6V | 08:30:00 | 02:25:24 | 00:00:00 | |
| DO3MHA-11 | 2026-09-02 13:00:40 | 45.15688 | 9.36742 | 339° | 16km/h | 33206m | 5.1m/s | -37.1°C | 2.2% | 0hPa | 2.7V | 00:00:00 | 02:25:29 | 00:00:00 | |
| OE5DRO-10 | 2026-09-02 13:00:38 | 45.15682 | 9.36747 | 313° | 16km/h | 33195m | 6.1m/s | -37.0°C | 2.2% | 0hPa | 2.6V | 00:00:00 | 00:00:00 | 00:00:00 | |
| PG1ADW-2 | 2026-09-02 13:00:35 | 45.15680 | 9.36750 | 343° | 18km/h | 33180m | 3.8m/s | -36.9°C | 2.1% | 0hPa | 2.6V | 00:00:00 | 00:00:00 | 00:00:00 | |
| DO3MHA-11 | 2026-09-02 13:00:30 | 45.15646 | 9.36760 | 345° | 16km/h | 33152m | 3.8m/s | -36.9°C | 2.1% | 0hPa | 2.6V | 00:00:00 | 02:25:19 | 00:00:00 | |
| IW2NTF | 2026-09-02 13:00:26 | 45.15626 | 9.36780 | 227° | 11km/h | 33126m | 5.7m/s | -36.9°C | 2.2% | 0hPa | 2.6V | 08:30:00 | 02:25:14 | 00:00:00 | |
| RDZBGO | 2026-09-02 13:00:25 | 45.15625 | 9.36777 | 269° | 11km/h | 33132m | 5.9m/s | -37.0°C | 0.6% | 0hPa | 2.7V | 00:00:00 | 00:00:00 | 00:00:00 | |
| IW2NTF | 2026-09-02 13:00:20 | 45.15610 | 9.36790 | 327° | 16km/h | 33071m | 4.9m/s | -36.6°C | 2% | 0hPa | 2.7V | 08:30:00 | 02:25:04 | 00:00:00 | |
| DO3MHA-11 | 2026-09-02 13:00:20 | 45.15627 | 9.36784 | 2° | 15km/h | 33099m | 5.1m/s | -36.6°C | 2.0% | 0hPa | 2.7V | 00:00:00 | 02:25:09 | 00:00:00 | |
| DB0UT-7 | 2026-09-02 13:00:19 | 45.15624 | 9.36784 | 358° | 15km/h | 33094m | 5.4m/s | -36.6°C | 2.0% | 0hPa | 2.7V | 00:00:00 | 00:00:00 | 00:00:00 | |
| DK5PH-5 | 2026-09-02 13:00:16 | 45.15613 | 9.36788 | 335° | 16km/h | 33077m | 5.1m/s | 0°C | 0% | 0hPa | 2.7V | 00:00:00 | 02:25:05 | 00:00:00 | |
| PG1ADW-2 | 2026-09-02 13:00:15 | 45.15610 | 9.36790 | 328° | 15km/h | 33071m | 4.9m/s | -36.5°C | 2.0% | 0hPa | 2.7V | 00:00:00 | 00:00:00 | 00:00:00 | |
| DO3MHA-11 | 2026-09-02 13:00:10 | 45.15595 | 9.36807 | 291° | 13km/h | 33045m | 5.0m/s | -36.6°C | 2.0% | 0hPa | 2.7V | 00:00:00 | 02:24:59 | 00:00:00 | |
| IW2NTF | 2026-09-02 13:00:06 | 45.15602 | 9.36812 | 150° | 2km/h | 33018m | 4.4m/s | -36.9°C | 1.9% | 0hPa | 2.7V | 08:30:00 | 02:24:54 | 00:00:00 | |
| RDZBGO | 2026-09-02 13:00:05 | 45.15602 | 9.36812 | 0° | 0km/h | 33018m | 4.4m/s | -36.9°C | 0.5% | 0hPa | 2.7V | 00:00:00 | 00:00:00 | 00:00:00 | |
| IW2NTF | 2026-09-02 13:00:01 | 45.15577 | 9.36836 | 211° | 16km/h | 32964m | 4.6m/s | -37.2°C | 2.1% | 0hPa | 2.7V | 08:30:00 | 02:24:44 | 00:00:00 | |
| OE5DRO-10 | 2026-09-02 13:00:00 | 45.15581 | 9.36814 | 342° | 16km/h | 32991m | 4.1m/s | -37.2°C | 2.0% | 0hPa | 2.7V | 00:00:00 | 00:00:00 | 00:00:00 | |
| S52SK | 2026-09-02 12:59:58 | 45.15575 | 9.36818 | 328° | 22km/h | 32986m | 5.2m/s | 0°C | 0% | 0hPa | 2.7V | 00:00:00 | 00:00:00 | 00:00:00 | |
| PG1ADW-2 | 2026-09-02 12:59:55 | 45.15576 | 9.36836 | 212° | 9km/h | 32964m | 4.6m/s | -37.2°C | 2.1% | 0hPa | 2.7V | 00:00:00 | 00:00:00 | 00:00:00 | |
| DO3MHA-11 | 2026-09-02 12:59:50 | 45.15578 | 9.36835 | 12° | 15km/h | 32937m | 4.7m/s | -37.1°C | 2.2% | 0hPa | 2.7V | 00:00:00 | 02:24:39 | 00:00:00 | |
| DB0UT-7 | 2026-09-02 12:59:49 | 45.15573 | 9.36834 | 357° | 9km/h | 32933m | 4.5m/s | -37.1°C | 2.1% | 0hPa | 2.7V | 00:00:00 | 02:24:38 | 00:00:00 | |
| IW2NTF | 2026-09-02 12:59:46 | 45.15560 | 9.36850 | 274° | 15km/h | 32910m | 5.2m/s | -36.8°C | 2.1% | 0hPa | 2.6V | 08:30:00 | 02:24:34 | 00:00:00 | |
| NBG1-10 | 2026-09-02 12:59:43 | 45.15562 | 9.36858 | 220° | 11km/h | 32901m | 5.2m/s | -36.7°C | 2.0% | 0hPa | 2.7V | 00:00:00 | 02:24:32 | 00:00:00 | |
| OE5DRO-10 | 2026-09-02 12:59:41 | 45.15564 | 9.36857 | 120° | 7km/h | 32890m | 5.1m/s | -36.6°C | 2.0% | 0hPa | 2.6V | 00:00:00 | 00:00:00 | 00:00:00 | |
| IW2NTF | 2026-09-02 12:59:40 | 45.15559 | 9.36849 | 298° | 7km/h | 32858m | 5.6m/s | -36.9°C | 2% | 0hPa | 2.6V | 08:30:00 | 02:24:24 | 00:00:00 | |
| DO3MHA-11 | 2026-09-02 12:59:40 | 45.15565 | 9.36854 | 88° | 7km/h | 32885m | 4.9m/s | -36.7°C | 2.0% | 0hPa | 2.6V | 00:00:00 | 02:24:29 | 08:30:00 | |
| DO3MHA-11 | 2026-09-02 12:59:30 | 45.15558 | 9.36855 | 31° | 9km/h | 32832m | 5.2m/s | -37.0°C | 2.0% | 0hPa | 2.6V | 00:00:00 | 02:24:19 | 00:00:00 | |
| IW2NTF | 2026-09-02 12:59:26 | 45.15554 | 9.36857 | 233° | 5km/h | 32805m | 5.6m/s | -37.1°C | 2% | 0hPa | 2.6V | 08:30:00 | 02:24:14 | 00:00:00 | |
| RDZBGO | 2026-09-02 12:59:23 | 45.15559 | 9.36860 | 191° | 15km/h | 32795m | 4.9m/s | -37.2°C | 0.6% | 0hPa | 2.7V | 00:00:00 | 00:00:00 | 00:00:00 | |
| OE5DRO-10 | 2026-09-02 12:59:22 | 45.15563 | 9.36860 | 175° | 18km/h | 32791m | 4.3m/s | -37.2°C | 2.0% | 0hPa | 2.7V | 00:00:00 | 00:00:00 | 00:00:00 | |
| IW2NTF | 2026-09-02 12:59:20 | 45.15554 | 9.36854 | 327° | 22km/h | 32754m | 4.8m/s | -37.5°C | 2% | 0hPa | 2.7V | 08:30:00 | 02:24:04 | 00:00:00 | |
| DO3MHA-11 | 2026-09-02 12:59:20 | 45.15569 | 9.36856 | 127° | 16km/h | 32782m | 5.0m/s | -37.3°C | 2.0% | 0hPa | 2.7V | 00:00:00 | 02:24:09 | 00:00:00 | |
| DB0UT-7 | 2026-09-02 12:59:19 | 45.15569 | 9.36853 | 74° | 22km/h | 32776m | 5.7m/s | -37.3°C | 2.0% | 0hPa | 2.7V | 00:00:00 | 00:00:00 | 00:00:00 | |
| DO3MHA-11 | 2026-09-02 12:59:10 | 45.15551 | 9.36877 | 183° | 26km/h | 32730m | 5.3m/s | -37.9°C | 2.1% | 0hPa | 2.7V | 00:00:00 | 02:23:59 | 00:00:00 | |
| PG1ADW-2 | 2026-09-02 12:59:09 | 45.15554 | 9.36875 | 135° | 24km/h | 32725m | 5.3m/s | -38.0°C | 2.1% | 0hPa | 2.7V | 00:00:00 | 00:00:00 | 00:00:00 | |
| IW2NTF | 2026-09-02 12:59:06 | 45.15543 | 9.36863 | 358° | 27km/h | 32703m | 5.6m/s | -38.2°C | 2.1% | 0hPa | 2.7V | 08:30:00 | 02:23:54 | 00:00:00 | |
| RDZBGO | 2026-09-02 12:59:03 | 45.15528 | 9.36871 | 330° | 37km/h | 32693m | 5.3m/s | -38.3°C | 0.6% | 0hPa | 2.7V | 00:00:00 | 00:00:00 | 00:00:00 | |
| IW2NTF | 2026-09-02 12:59:00 | 45.15501 | 9.36904 | 17° | 18km/h | 32651m | 5.2m/s | -38.2°C | 2.2% | 0hPa | 2.7V | 08:30:00 | 02:23:44 | 00:00:00 | |
| DO3MHA-11 | 2026-09-02 12:59:00 | 45.15511 | 9.36896 | 298° | 22km/h | 32678m | 5.1m/s | -38.3°C | 2.2% | 0hPa | 2.6V | 00:00:00 | 02:23:49 | 00:00:00 | |
| DO3MHA-11 | 2026-09-02 12:58:50 | 45.15463 | 9.36922 | 320° | 27km/h | 32625m | 5.4m/s | -38.3°C | 2.1% | 0hPa | 2.6V | 00:00:00 | 02:23:39 | 00:00:00 | |
| DB0UT-7 | 2026-09-02 12:58:49 | 45.15456 | 9.36932 | 313° | 18km/h | 32620m | 5.3m/s | -38.3°C | 2.2% | 0hPa | 2.6V | 00:00:00 | 02:23:38 | 00:00:00 | |
| IW2NTF | 2026-09-02 12:58:46 | 45.15439 | 9.36962 | 321° | 16km/h | 32599m | 5m/s | -38.4°C | 2.2% | 0hPa | 2.6V | 08:30:00 | 02:23:34 | 00:00:00 | |
| OE5DRO-10 | 2026-09-02 12:58:44 | 45.15435 | 9.36966 | 337° | 20km/h | 32594m | 5.5m/s | -38.4°C | 2.1% | 0hPa | 2.7V | 00:00:00 | 00:00:00 | 00:00:00 | |
| RDZBGO | 2026-09-02 12:58:43 | 45.15430 | 9.36968 | 345° | 20km/h | 32588m | 5.8m/s | -38.5°C | 0.6% | 0hPa | 2.7V | 00:00:00 | 00:00:00 | 00:00:00 | |
| IW2NTF | 2026-09-02 12:58:40 | 45.15393 | 9.36996 | 304° | 13km/h | 32544m | 5.2m/s | -38.4°C | 2.1% | 0hPa | 2.7V | 08:30:00 | 02:23:24 | 00:00:00 | |
| DO3MHA-11 | 2026-09-02 12:58:40 | 45.15412 | 9.36976 | 337° | 20km/h | 32572m | 5.0m/s | -38.5°C | 2.2% | 0hPa | 2.6V | 00:00:00 | 02:23:29 | 00:00:00 | |
| BAUMI2-15 | 2026-09-02 12:58:37 | 45.15398 | 9.36988 | 319° | 15km/h | 32556m | 6.0m/s | 0°C | 0% | 0hPa | 2.6V | 00:00:00 | 02:23:26 | 00:00:00 | |
| NBG1-10 | 2026-09-02 12:58:34 | 45.15391 | 9.36999 | 308° | 9km/h | 32539m | 4.6m/s | -38.5°C | 2.1% | 0hPa | 2.6V | 00:00:00 | 02:23:23 | 00:00:00 | |
| DO3MHA-11 | 2026-09-02 12:58:30 | 45.15375 | 9.37017 | 333° | 13km/h | 32518m | 4.1m/s | -38.5°C | 2.2% | 0hPa | 2.6V | 00:00:00 | 02:23:19 | 00:00:00 | |
| IW2NTF | 2026-09-02 12:58:26 | 45.15358 | 9.37027 | 357° | 2km/h | 32490m | 5.1m/s | -38.5°C | 2.1% | 0hPa | 2.6V | 08:30:00 | 02:23:14 | 00:00:00 | |
| BAUMI2-15 | 2026-09-02 12:58:25 | 45.15358 | 9.37027 | 358° | 5km/h | 32490m | 5.0m/s | 0°C | 0% | 0hPa | 2.6V | 00:00:00 | 02:23:14 | 00:00:00 | |
| RDZBGO | 2026-09-02 12:58:21 | 45.15355 | 9.37031 | 310° | 13km/h | 32475m | 6.2m/s | -38.7°C | 0.6% | 0hPa | 2.6V | 00:00:00 | 00:00:00 | 00:00:00 | |
| IW2NTF | 2026-09-02 12:58:20 | 45.15335 | 9.37059 | 349° | 4km/h | 32437m | 4.7m/s | -38.8°C | 2.2% | 0hPa | 2.6V | 08:30:00 | 02:23:04 | 00:00:00 | |
| DO3MHA-11 | 2026-09-02 12:58:20 | 45.15349 | 9.37041 | 315° | 11km/h | 32464m | 5.1m/s | -38.7°C | 2.2% | 0hPa | 2.6V | 00:00:00 | 02:23:09 | 00:00:00 | |
| DB0UT-7 | 2026-09-02 12:58:19 | 45.15345 | 9.37047 | 316° | 11km/h | 32459m | 4.6m/s | -38.8°C | 2.2% | 0hPa | 2.6V | 00:00:00 | 00:00:00 | 00:00:00 | |
| BAUMI2-15 | 2026-09-02 12:58:15 | 45.15335 | 9.37058 | 350° | 5km/h | 32437m | 4.7m/s | 0°C | 0% | 0hPa | 2.6V | 00:00:00 | 02:23:04 | 00:00:00 | |
| DO3MHA-11 | 2026-09-02 12:58:10 | 45.15330 | 9.37063 | 293° | 11km/h | 32411m | 4.5m/s | -38.7°C | 2.2% | 0hPa | 2.6V | 00:00:00 | 02:22:59 | 08:30:00 | |
| IW2NTF | 2026-09-02 12:58:09 | 45.15337 | 9.37076 | 196° | 11km/h | 32384m | 4.5m/s | -38.9°C | 2.2% | 0hPa | 2.6V | 08:30:00 | 02:22:54 | 00:00:00 | |
| PG1ADW-2 | 2026-09-02 12:58:09 | 45.15330 | 9.37067 | 271° | 11km/h | 32406m | 4.5m/s | -38.7°C | 2.2% | 0hPa | 2.7V | 00:00:00 | 02:22:58 | 00:00:00 | |
| BAUMI2-15 | 2026-09-02 12:58:08 | 45.15330 | 9.37069 | 246° | 9km/h | 32401m | 5.1m/s | 0°C | 0% | 0hPa | 2.7V | 00:00:00 | 02:22:57 | 00:00:00 | |
| OE5DRO-10 | 2026-09-02 12:58:07 | 45.15334 | 9.37075 | 205° | 11km/h | 32390m | 5.8m/s | -38.8°C | 2.2% | 0hPa | 2.7V | 00:00:00 | 00:00:00 | 00:00:00 | |
| BAUMI2-15 | 2026-09-02 12:58:02 | 45.15340 | 9.37081 | 313° | 9km/h | 32370m | 6.4m/s | 0°C | 0% | 0hPa | 2.7V | 00:00:00 | 02:22:51 | 00:00:00 | |
| NBG1-10 | 2026-09-02 12:58:01 | 45.15337 | 9.37084 | 328° | 13km/h | 32364m | 6.7m/s | -39.1°C | 2.2% | 0hPa | 2.7V | 00:00:00 | 02:22:50 | 00:00:00 | |
| DO3MHA-11 | 2026-09-02 12:58:00 | 45.15332 | 9.37087 | 333° | 11km/h | 32357m | 5.6m/s | -39.2°C | 2.2% | 0hPa | 2.6V | 00:00:00 | 02:22:49 | 00:00:00 | |
| IW2NTF | 2026-09-02 12:57:56 | 45.15318 | 9.37099 | 195° | 4km/h | 32331m | 5.1m/s | -39.4°C | 2.3% | 0hPa | 2.6V | 08:30:00 | 02:22:44 | 00:00:00 | |
| BAUMI2-15 | 2026-09-02 12:57:55 | 45.15318 | 9.37099 | 196° | 11km/h | 32331m | 5.1m/s | 0°C | 0% | 0hPa | 2.7V | 00:00:00 | 02:22:44 | 00:00:00 | |
| IW2NTF | 2026-09-02 12:57:50 | 45.15306 | 9.37112 | 32° | 9km/h | 32277m | 5.3m/s | -39.6°C | 2.3% | 0hPa | 2.7V | 08:30:00 | 02:22:34 | 00:00:00 | |
| DO3MHA-11 | 2026-09-02 12:57:50 | 45.15320 | 9.37104 | 314° | 13km/h | 32305m | 5.3m/s | -39.4°C | 2.3% | 0hPa | 2.7V | 00:00:00 | 02:22:39 | 00:00:00 | |
| DB0UT-7 | 2026-09-02 12:57:49 | 45.15317 | 9.37108 | 324° | 15km/h | 32299m | 4.9m/s | -39.5°C | 2.3% | 0hPa | 2.7V | 00:00:00 | 02:22:38 | 00:00:00 | |
| OE5DRO-10 | 2026-09-02 12:57:47 | 45.15311 | 9.37112 | 344° | 13km/h | 32289m | 5.7m/s | -39.5°C | 2.2% | 0hPa | 2.7V | 00:00:00 | 00:00:00 | 00:00:00 | |
| BAUMI2-15 | 2026-09-02 12:57:45 | 45.15306 | 9.37112 | 33° | 11km/h | 32278m | 5.3m/s | 0°C | 0% | 0hPa | 2.7V | 00:00:00 | 02:22:34 | 00:00:00 | |
| DO3MHA-11 | 2026-09-02 12:57:40 | 45.15292 | 9.37097 | 17° | 15km/h | 32251m | 4.6m/s | -39.7°C | 2.3% | 0hPa | 2.7V | 00:00:00 | 02:22:29 | 00:00:00 | |
| BAUMI2-15 | 2026-09-02 12:57:38 | 45.15285 | 9.37096 | 341° | 11km/h | 32241m | 5.3m/s | 0°C | 0% | 0hPa | 2.7V | 00:00:00 | 02:22:27 | 00:00:00 | |
| IW2NTF | 2026-09-02 12:57:36 | 45.15282 | 9.37105 | 278° | 11km/h | 32223m | 4.4m/s | -39.7°C | 2.3% | 0hPa | 2.7V | 08:30:00 | 02:22:24 | 00:00:00 | |
| IW2NTF | 2026-09-02 12:57:31 | 45.15247 | 9.37124 | 241° | 9km/h | 32173m | 5.3m/s | -39.5°C | 2.3% | 0hPa | 2.7V | 08:30:00 | 02:22:14 | 00:00:00 | |
| DO3MHA-11 | 2026-09-02 12:57:30 | 45.15264 | 9.37120 | 353° | 16km/h | 32198m | 4.3m/s | -39.6°C | 2.3% | 0hPa | 2.7V | 00:00:00 | 02:22:19 | 00:00:00 | |
| RDZBGO | 2026-09-02 12:57:20 | 45.15248 | 9.37148 | 302° | 24km/h | 32154m | 5.0m/s | -39.5°C | 0.7% | 0hPa | 2.7V | 00:00:00 | 00:00:00 | 00:00:00 | |
| DB0UT-7 | 2026-09-02 12:57:19 | 45.15238 | 9.37159 | 341° | 16km/h | 32143m | 5.4m/s | -39.4°C | 2.3% | 0hPa | 2.7V | 00:00:00 | 00:00:00 | 00:00:00 | |
| IW2NTF | 2026-09-02 12:57:16 | 45.15216 | 9.37159 | 4° | 11km/h | 32122m | 4.9m/s | -39.7°C | 2.3% | 0hPa | 2.7V | 08:30:00 | 02:22:04 | 00:00:00 | |
| IW2NTF | 2026-09-02 12:57:10 | 45.15202 | 9.37208 | 357° | 4km/h | 32058m | 4.4m/s | -39.6°C | 2.4% | 0hPa | 2.7V | 08:30:00 | 02:21:52 | 00:00:00 | |
| PG1ADW-2 | 2026-09-02 12:57:09 | 45.15210 | 9.37191 | 287° | 16km/h | 32091m | 4.7m/s | 0°C | 0% | 0hPa | 2.6V | 00:00:00 | 00:00:00 | 00:00:00 | |
| OE5DRO-10 | 2026-09-02 12:57:08 | 45.15209 | 9.37198 | 296° | 18km/h | 32086m | 4.6m/s | -39.7°C | 2.3% | 0hPa | 2.6V | 00:00:00 | 00:00:00 | 00:00:00 | |
| DO3MHA-11 | 2026-09-02 12:57:00 | 45.15195 | 9.37213 | 326° | 20km/h | 32044m | 6.1m/s | -39.6°C | 2.3% | 0hPa | 2.6V | 00:00:00 | 02:21:49 | 00:00:00 | |
| IW2NTF | 2026-09-02 12:56:56 | 45.15174 | 9.37260 | 246° | 15km/h | 32000m | 5m/s | -39.8°C | 2.3% | 0hPa | 2.6V | 08:30:00 | 02:21:41 | 00:00:00 | |
| NBG1-10 | 2026-09-02 12:56:55 | 45.15173 | 9.37244 | 294° | 20km/h | 32017m | 6.1m/s | -39.7°C | 2.3% | 0hPa | 2.7V | 00:00:00 | 02:21:44 | 00:00:00 | |
| DO3MHA-11 | 2026-09-02 12:56:50 | 45.15176 | 9.37271 | 267° | 15km/h | 31989m | 5.6m/s | -39.8°C | 2.3% | 0hPa | 2.7V | 00:00:00 | 02:21:39 | 00:00:00 | |
| DB0UT-7 | 2026-09-02 12:56:49 | 45.15176 | 9.37278 | 278° | 22km/h | 31984m | 4.7m/s | -39.8°C | 2.3% | 0hPa | 2.7V | 00:00:00 | 02:21:38 | 08:30:00 | |
| PG1ADW-2 | 2026-09-02 12:56:48 | 45.15175 | 9.37284 | 288° | 24km/h | 31979m | 4.4m/s | 0°C | 0% | 0hPa | 2.6V | 00:00:00 | 02:21:37 | 00:00:00 | |
| OE5DRO-10 | 2026-09-02 12:56:47 | 45.15173 | 9.37290 | 294° | 20km/h | 31974m | 5.0m/s | -39.8°C | 2.3% | 0hPa | 2.6V | 00:00:00 | 00:00:00 | 00:00:00 | |
| IW2NTF | 2026-09-02 12:56:43 | 45.15165 | 9.37308 | 302° | 13km/h | 31948m | 4.2m/s | -40.1°C | 2.3% | 0hPa | 2.6V | 08:30:00 | 02:21:31 | 00:00:00 | |
| RDZBGO | 2026-09-02 12:56:40 | 45.15160 | 9.37320 | 293° | 26km/h | 31938m | 6.4m/s | -40.2°C | 0.7% | 0hPa | 2.7V | 00:00:00 | 00:00:00 | 00:00:00 | |
| IW2NTF | 2026-09-02 12:56:36 | 45.15173 | 9.37388 | 188° | 16km/h | 31895m | 4.8m/s | -40.1°C | 2.3% | 0hPa | 2.7V | 08:30:00 | 02:21:21 | 00:00:00 | |
| DO3MHA-11 | 2026-09-02 12:56:30 | 45.15179 | 9.37389 | 227° | 24km/h | 31885m | 5.8m/s | -40.1°C | 2.3% | 0hPa | 2.7V | 00:00:00 | 02:21:19 | 00:00:00 | |
| OE5DRO-10 | 2026-09-02 12:56:28 | 45.15177 | 9.37397 | 295° | 22km/h | 31874m | 4.8m/s | -40.0°C | 2.3% | 0hPa | 2.7V | 00:00:00 | 00:00:00 | 00:00:00 | |
| PG1ADW-2 | 2026-09-02 12:56:25 | 45.15174 | 9.37423 | 262° | 26km/h | 31860m | 5.5m/s | 0°C | 0% | 0hPa | 2.6V | 00:00:00 | 00:00:00 | 08:30:00 | |
| IW2NTF | 2026-09-02 12:56:23 | 45.15186 | 9.37450 | 221° | 29km/h | 31843m | 5.1m/s | -39.9°C | 2.3% | 0hPa | 2.6V | 08:30:00 | 02:21:11 | 00:00:00 | |
| NBG1-10 | 2026-09-02 12:56:22 | 45.15185 | 9.37449 | 222° | 24km/h | 31844m | 5.1m/s | -39.8°C | 2.3% | 0hPa | 2.6V | 00:00:00 | 02:21:11 | 08:30:00 | |
| DO3MHA-11 | 2026-09-02 12:56:20 | 45.15197 | 9.37462 | 215° | 16km/h | 31833m | 5.6m/s | -39.9°C | 2.3% | 0hPa | 2.7V | 00:00:00 | 02:21:09 | 00:00:00 | |
| DB0UT-7 | 2026-09-02 12:56:19 | 45.15202 | 9.37467 | 215° | 22km/h | 31828m | 5.4m/s | -39.9°C | 2.3% | 0hPa | 2.7V | 00:00:00 | 00:00:00 | 00:00:00 | |
| RDZBGO | 2026-09-02 12:56:18 | 45.15202 | 9.37467 | 216° | 24km/h | 31828m | 5.5m/s | -39.9°C | 0.7% | 0hPa | 2.7V | 00:00:00 | 00:00:00 | 00:00:00 | |
| IW2NTF | 2026-09-02 12:56:13 | 45.15224 | 9.37488 | 214° | 16km/h | 31790m | 4.8m/s | -39.8°C | 2.3% | 0hPa | 2.7V | 08:30:00 | 02:21:01 | 00:00:00 | |
| DO3MHA-11 | 2026-09-02 12:56:10 | 45.15231 | 9.37498 | 237° | 27km/h | 31779m | 6.4m/s | -39.7°C | 2.3% | 0hPa | 2.6V | 00:00:00 | 02:20:59 | 00:00:00 | |
| OE5DRO-10 | 2026-09-02 12:56:09 | 45.15234 | 9.37506 | 243° | 26km/h | 31773m | 5.4m/s | -39.7°C | 2.2% | 0hPa | 2.7V | 00:00:00 | 00:00:00 | 00:00:00 | |
| PG1ADW-2 | 2026-09-02 12:56:05 | 45.15252 | 9.37533 | 202° | 24km/h | 31754m | 6.4m/s | 0°C | 0% | 0hPa | 2.7V | 00:00:00 | 00:00:00 | 00:00:00 | |
| IW2NTF | 2026-09-02 12:56:03 | 45.15274 | 9.37535 | 172° | 27km/h | 31737m | 4.1m/s | -39.8°C | 2.2% | 0hPa | 2.7V | 08:30:00 | 02:20:51 | 00:00:00 | |
| DO3MHA-11 | 2026-09-02 12:56:00 | 45.15285 | 9.37533 | 184° | 20km/h | 31728m | 6.1m/s | -39.8°C | 2.2% | 0hPa | 2.7V | 00:00:00 | 02:20:49 | 00:00:00 | |
| RDZBGO | 2026-09-02 12:55:58 | 45.15288 | 9.37535 | 214° | 11km/h | 31722m | 5.7m/s | -40.0°C | 0.7% | 0hPa | 2.7V | 00:00:00 | 00:00:00 | 00:00:00 | |
| IW2NTF | 2026-09-02 12:55:53 | 45.15316 | 9.37551 | 171° | 33km/h | 31687m | 4.8m/s | -40.3°C | 2.3% | 0hPa | 2.7V | 08:30:00 | 02:20:41 | 00:00:00 | |
| DO3MHA-11 | 2026-09-02 12:55:50 | 45.15332 | 9.37547 | 172° | 27km/h | 31677m | 5.4m/s | -40.4°C | 2.4% | 0hPa | 2.6V | 00:00:00 | 02:20:39 | 00:00:00 | |
| DB0UT-7 | 2026-09-02 12:55:49 | 45.15339 | 9.37546 | 177° | 29km/h | 31671m | 5.7m/s | -40.4°C | 2.4% | 0hPa | 2.6V | 00:00:00 | 02:20:38 | 00:00:00 | |
| NBG1-10 | 2026-09-02 12:55:47 | 45.15351 | 9.37548 | 196° | 27km/h | 31661m | 4.9m/s | -40.5°C | 2.4% | 0hPa | 2.6V | 00:00:00 | 02:20:36 | 00:00:00 | |
| IW2NTF | 2026-09-02 12:55:43 | 45.15385 | 9.37558 | 177° | 33km/h | 31634m | 4.9m/s | -40.5°C | 2.4% | 0hPa | 2.6V | 08:30:00 | 02:20:31 | 00:00:00 | |
| DO3MHA-11 | 2026-09-02 12:55:40 | 45.15401 | 9.37553 | 162° | 29km/h | 31624m | 5.8m/s | -40.5°C | 2.4% | 0hPa | 2.7V | 00:00:00 | 02:20:29 | 00:00:00 | |
| RDZBGO | 2026-09-02 12:55:37 | 45.15412 | 9.37545 | 142° | 26km/h | 31612m | 5.5m/s | -40.6°C | 0.7% | 0hPa | 2.6V | 00:00:00 | 00:00:00 | 00:00:00 | |
| IW2NTF | 2026-09-02 12:55:36 | 45.15453 | 9.37507 | 164° | 37km/h | 31581m | 4.1m/s | -40.5°C | 2.4% | 0hPa | 2.6V | 08:30:00 | 02:20:21 | 00:00:00 | |
| DO3MHA-11 | 2026-09-02 12:55:31 | 45.15468 | 9.37504 | 179° | 26km/h | 31571m | 6.3m/s | -40.5°C | 2.4% | 0hPa | 2.6V | 00:00:00 | 02:20:19 | 00:00:00 | |
| IW2NTF | 2026-09-02 12:55:23 | 45.15511 | 9.37479 | 136° | 38km/h | 31527m | 4.9m/s | -40.6°C | 2.5% | 0hPa | 2.6V | 08:30:00 | 02:20:11 | 00:00:00 | |
| DO3MHA-11 | 2026-09-02 12:55:20 | 45.15523 | 9.37462 | 137° | 24km/h | 31517m | 5.3m/s | -40.7°C | 2.5% | 0hPa | 2.7V | 00:00:00 | 02:20:09 | 00:00:00 | |
| DB0UT-7 | 2026-09-02 12:55:19 | 45.15529 | 9.37455 | 143° | 27km/h | 31512m | 4.9m/s | -40.7°C | 2.5% | 0hPa | 2.7V | 00:00:00 | 00:00:00 | 00:00:00 | |
| RDZBGO | 2026-09-02 12:55:17 | 45.15534 | 9.37451 | 155° | 24km/h | 31507m | 5.0m/s | -40.8°C | 0.8% | 0hPa | 2.6V | 00:00:00 | 00:00:00 | 00:00:00 | |
| IW2NTF | 2026-09-02 12:55:13 | 45.15569 | 9.37447 | 169° | 16km/h | 31475m | 6m/s | -40.8°C | 2.5% | 0hPa | 2.6V | 08:30:00 | 02:20:01 | 00:00:00 | |
| NBG1-10 | 2026-09-02 12:55:13 | 45.15564 | 9.37448 | 181° | 18km/h | 31481m | 4.3m/s | -40.7°C | 2.5% | 0hPa | 2.6V | 00:00:00 | 02:20:02 | 00:00:00 | |
| OE5DRO-10 | 2026-09-02 12:55:11 | 45.15572 | 9.37445 | 144° | 29km/h | 31470m | 5.8m/s | -40.7°C | 2.5% | 0hPa | 2.6V | 00:00:00 | 00:00:00 | 00:00:00 | |
| DO3MHA-11 | 2026-09-02 12:55:10 | 45.15574 | 9.37441 | 120° | 29km/h | 31465m | 4.9m/s | -40.8°C | 2.5% | 0hPa | 2.6V | 00:00:00 | 02:19:59 | 08:30:00 | |
| IW2NTF | 2026-09-02 12:55:04 | 45.15620 | 9.37376 | 151° | 27km/h | 31425m | 5.4m/s | -41°C | 2.5% | 0hPa | 2.6V | 08:30:00 | 02:19:51 | 00:00:00 | |
| DO3MHA-11 | 2026-09-02 12:55:00 | 45.15629 | 9.37367 | 126° | 29km/h | 31414m | 5.1m/s | -40.9°C | 2.6% | 0hPa | 2.6V | 00:00:00 | 02:19:49 | 00:00:00 | |
| RDZBGO | 2026-09-02 12:54:57 | 45.15635 | 9.37346 | 115° | 27km/h | 31399m | 5.4m/s | -41.0°C | 0.7% | 0hPa | 2.6V | 00:00:00 | 00:00:00 | 00:00:00 | |
| IW2NTF | 2026-09-02 12:54:53 | 45.15664 | 9.37298 | 136° | 33km/h | 31373m | 5.2m/s | -40.9°C | 2.5% | 0hPa | 2.6V | 08:30:00 | 02:19:41 | 00:00:00 | |
| OE5DRO-10 | 2026-09-02 12:54:52 | 45.15664 | 9.37298 | 137° | 24km/h | 31373m | 5.1m/s | -40.9°C | 2.5% | 0hPa | 2.7V | 00:00:00 | 00:00:00 | 00:00:00 | |
| DO3MHA-11 | 2026-09-02 12:54:50 | 45.15673 | 9.37282 | 121° | 26km/h | 31362m | 5.8m/s | -40.7°C | 2.5% | 0hPa | 2.7V | 00:00:00 | 02:19:39 | 00:00:00 | |
| DB0UT-7 | 2026-09-02 12:54:49 | 45.15676 | 9.37275 | 108° | 20km/h | 31356m | 5.4m/s | -40.7°C | 2.5% | 0hPa | 2.7V | 00:00:00 | 02:19:38 | 00:00:00 | |
| IW2NTF | 2026-09-02 12:54:43 | 45.15696 | 9.37221 | 134° | 27km/h | 31319m | 4.5m/s | -40.6°C | 2.4% | 0hPa | 2.7V | 08:30:00 | 02:19:31 | 00:00:00 | |
| DO3MHA-11 | 2026-09-02 12:54:40 | 45.15704 | 9.37208 | 120° | 22km/h | 31309m | 6.0m/s | -40.5°C | 2.4% | 0hPa | 2.6V | 00:00:00 | 02:19:29 | 00:00:00 | |
| RDZBGO | 2026-09-02 12:54:35 | 45.15706 | 9.37184 | 95° | 20km/h | 31287m | 6.2m/s | -40.5°C | 0.7% | 0hPa | 2.7V | 00:00:00 | 00:00:00 | 00:00:00 | |
| IW2NTF | 2026-09-02 12:54:33 | 45.15713 | 9.37149 | 107° | 26km/h | 31266m | 5.2m/s | -40.8°C | 2.4% | 0hPa | 2.7V | 08:30:00 | 02:19:21 | 00:00:00 | |
| OE5DRO-10 | 2026-09-02 12:54:33 | 45.15710 | 9.37158 | 109° | 18km/h | 31271m | 4.4m/s | -40.7°C | 2.3% | 0hPa | 2.6V | 00:00:00 | 00:00:00 | 08:30:00 | |
| DO3MHA-11 | 2026-09-02 12:54:30 | 45.15716 | 9.37133 | 101° | 15km/h | 31255m | 5.2m/s | -40.9°C | 2.4% | 0hPa | 2.7V | 00:00:00 | 02:19:19 | 00:00:00 | |
| IW2NTF | 2026-09-02 12:54:27 | 45.15733 | 9.37103 | 105° | 7km/h | 31215m | 4.7m/s | -41°C | 2.4% | 0hPa | 2.7V | 08:30:00 | 02:19:11 | 00:00:00 | |
| DO3MHA-11 | 2026-09-02 12:54:20 | 45.15730 | 9.37097 | 37° | 20km/h | 31203m | 6.3m/s | -40.9°C | 2.4% | 0hPa | 2.7V | 00:00:00 | 02:19:09 | 00:00:00 | |
| DB0UT-7 | 2026-09-02 12:54:19 | 45.15725 | 9.37093 | 34° | 18km/h | 31197m | 4.9m/s | -40.9°C | 2.4% | 0hPa | 2.7V | 00:00:00 | 00:00:00 | 00:00:00 | |
| RDZBGO | 2026-09-02 12:54:14 | 45.15714 | 9.37070 | 101° | 18km/h | 31178m | 6.3m/s | -41.1°C | 0.7% | 0hPa | 2.7V | 00:00:00 | 00:00:00 | 00:00:00 | |
| IW2NTF | 2026-09-02 12:54:13 | 45.15724 | 9.37053 | 149° | 20km/h | 31162m | 4.5m/s | -41.1°C | 2.5% | 0hPa | 2.7V | 08:30:00 | 02:19:01 | 00:00:00 | |
| DO3MHA-11 | 2026-09-02 12:54:10 | 45.15730 | 9.37049 | 155° | 20km/h | 31152m | 5.4m/s | -41.0°C | 2.5% | 0hPa | 2.6V | 00:00:00 | 02:18:59 | 00:00:00 | |
| IW2NTF | 2026-09-02 12:54:03 | 45.15705 | 9.37016 | 67° | 29km/h | 31109m | 5.1m/s | -41.1°C | 2.5% | 0hPa | 2.6V | 08:30:00 | 02:18:51 | 00:00:00 | |
| DO3MHA-11 | 2026-09-02 12:54:00 | 45.15699 | 9.36997 | 67° | 13km/h | 31098m | 5.3m/s | -41.0°C | 2.5% | 0hPa | 2.6V | 00:00:00 | 02:18:49 | 00:00:00 | |
| RDZBGO | 2026-09-02 12:53:55 | 45.15694 | 9.36975 | 132° | 5km/h | 31071m | 5.7m/s | -41.0°C | 0.7% | 0hPa | 2.6V | 00:00:00 | 00:00:00 | 00:00:00 | |
| IW2NTF | 2026-09-02 12:53:54 | 45.15691 | 9.36971 | 22° | 16km/h | 31057m | 5.3m/s | -40.8°C | 2.4% | 0hPa | 2.6V | 08:30:00 | 02:18:41 | 00:00:00 | |
| DO3MHA-11 | 2026-09-02 12:53:50 | 45.15679 | 9.36964 | 24° | 22km/h | 31045m | 6.2m/s | -40.8°C | 2.4% | 0hPa | 2.7V | 00:00:00 | 02:18:39 | 00:00:00 | |
| DB0UT-7 | 2026-09-02 12:53:49 | 45.15670 | 9.36958 | 28° | 22km/h | 31040m | 4.5m/s | -40.9°C | 2.4% | 0hPa | 2.7V | 00:00:00 | 02:18:38 | 00:00:00 | |
| IW2NTF | 2026-09-02 12:53:44 | 45.15645 | 9.36922 | 271° | 2km/h | 31004m | 5.6m/s | -41.1°C | 2.4% | 0hPa | 2.6V | 08:30:00 | 02:18:31 | 00:00:00 | |
| DO3MHA-11 | 2026-09-02 12:53:40 | 45.15641 | 9.36925 | 341° | 24km/h | 30993m | 5.5m/s | -41.2°C | 2.4% | 0hPa | 2.7V | 00:00:00 | 02:18:29 | 08:30:00 | |
| OE5DRO-10 | 2026-09-02 12:53:36 | 45.15614 | 9.36927 | 9° | 24km/h | 30972m | 5.7m/s | -41.4°C | 2.4% | 0hPa | 2.7V | 00:00:00 | 00:00:00 | 00:00:00 | |
| RDZBGO | 2026-09-02 12:53:34 | 45.15607 | 9.36924 | 17° | 27km/h | 30966m | 6.0m/s | -41.4°C | 0.7% | 0hPa | 2.7V | 00:00:00 | 00:00:00 | 00:00:00 | |
| IW2NTF | 2026-09-02 12:53:33 | 45.15584 | 9.36909 | 16° | 18km/h | 30937m | 5.6m/s | -41.3°C | 2.4% | 0hPa | 2.7V | 08:30:00 | 02:18:19 | 00:00:00 | |
| DO3MHA-11 | 2026-09-02 12:53:30 | 45.15584 | 9.36909 | 17° | 22km/h | 30938m | 5.6m/s | -41.3°C | 2.4% | 0hPa | 2.6V | 00:00:00 | 02:18:19 | 00:00:00 | |
| DO3MHA-11 | 2026-09-02 12:53:20 | 45.15534 | 9.36940 | 353° | 16km/h | 30882m | 4.6m/s | -41.2°C | 2.4% | 0hPa | 2.6V | 00:00:00 | 02:18:09 | 00:00:00 | |
| DB0UT-7 | 2026-09-02 12:53:19 | 45.15527 | 9.36941 | 360° | 20km/h | 30877m | 4.5m/s | -41.2°C | 2.4% | 0hPa | 2.6V | 00:00:00 | 00:00:00 | 00:00:00 | |
| IW2NTF | 2026-09-02 12:53:17 | 45.15514 | 9.36937 | 40° | 7km/h | 30859m | 6m/s | -41.4°C | 2.4% | 0hPa | 2.6V | 08:30:00 | 02:18:05 | 00:00:00 | |
| OE5DRO-10 | 2026-09-02 12:53:17 | 45.15516 | 9.36939 | 19° | 20km/h | 30866m | 6.8m/s | -41.3°C | 2.4% | 0hPa | 2.7V | 00:00:00 | 00:00:00 | 00:00:00 | |
| RDZBGO | 2026-09-02 12:53:13 | 45.15512 | 9.36936 | 354° | 4km/h | 30850m | 4.4m/s | -41.5°C | 0.7% | 0hPa | 2.7V | 00:00:00 | 00:00:00 | 00:00:00 | |
| IW2NTF | 2026-09-02 12:53:12 | 45.15466 | 9.36981 | 318° | 27km/h | 30805m | 5.4m/s | -41.6°C | 2.5% | 0hPa | 2.7V | 08:30:00 | 02:17:55 | 00:00:00 | |
| DO3MHA-11 | 2026-09-02 12:53:10 | 45.15495 | 9.36950 | 328° | 26km/h | 30828m | 5.0m/s | -41.7°C | 2.5% | 0hPa | 2.6V | 00:00:00 | 02:17:59 | 00:00:00 | |
| DO3MHA-11 | 2026-09-02 12:53:00 | 45.15442 | 9.36994 | 355° | 20km/h | 30772m | 4.6m/s | -41.4°C | 2.4% | 0hPa | 2.7V | 00:00:00 | 02:17:49 | 00:00:00 | |
| IW2NTF | 2026-09-02 12:52:57 | 45.15431 | 9.37007 | 287° | 18km/h | 30749m | 5.7m/s | -41.6°C | 2.5% | 0hPa | 2.7V | 08:30:00 | 02:17:45 | 00:00:00 | |
| RDZBGO | 2026-09-02 12:52:53 | 45.15424 | 9.37028 | 310° | 24km/h | 30732m | 6.1m/s | -41.5°C | 0.7% | 0hPa | 2.7V | 00:00:00 | 00:00:00 | 00:00:00 | |
| IW2NTF | 2026-09-02 12:52:52 | 45.15398 | 9.37042 | 331° | 4km/h | 30694m | 5.2m/s | -41.8°C | 2.4% | 0hPa | 2.7V | 08:30:00 | 02:17:35 | 00:00:00 | |
| DO3MHA-11 | 2026-09-02 12:52:50 | 45.15409 | 9.37041 | 347° | 15km/h | 30717m | 4.5m/s | -41.5°C | 2.4% | 0hPa | 2.6V | 00:00:00 | 02:17:39 | 00:00:00 | |
| DB0UT-7 | 2026-09-02 12:52:49 | 45.15404 | 9.37042 | 355° | 13km/h | 30712m | 5.5m/s | -41.7°C | 2.4% | 0hPa | 2.6V | 00:00:00 | 02:17:38 | 00:00:00 | |
| DO3MHA-11 | 2026-09-02 12:52:40 | 45.15379 | 9.37069 | 312° | 13km/h | 30662m | 5.4m/s | -42.0°C | 2.5% | 0hPa | 2.6V | 00:00:00 | 02:17:29 | 00:00:00 | |
| OE5DRO-10 | 2026-09-02 12:52:39 | 45.15375 | 9.37075 | 308° | 11km/h | 30656m | 6.0m/s | -41.9°C | 2.5% | 0hPa | 2.7V | 00:00:00 | 00:00:00 | 00:00:00 | |
| IW2NTF | 2026-09-02 12:52:37 | 45.15369 | 9.37084 | 2° | 5km/h | 30640m | 5.6m/s | -42°C | 2.5% | 0hPa | 2.6V | 08:30:00 | 02:17:25 | 00:00:00 | |
| RDZBGO | 2026-09-02 12:52:32 | 45.15362 | 9.37077 | 46° | 15km/h | 30622m | 4.6m/s | -41.9°C | 0.8% | 0hPa | 2.6V | 00:00:00 | 00:00:00 | 00:00:00 | |
| IW2NTF | 2026-09-02 12:52:31 | 45.15363 | 9.37084 | 271° | 16km/h | 30584m | 6.3m/s | -41.8°C | 2.5% | 0hPa | 2.6V | 08:30:00 | 02:17:15 | 00:00:00 | |
| NBG1-10 | 2026-09-02 12:52:31 | 45.15358 | 9.37071 | 60° | 11km/h | 30613m | 5.3m/s | -41.8°C | 2.5% | 0hPa | 2.6V | 00:00:00 | 02:17:20 | 00:00:00 | |
| DO3MHA-11 | 2026-09-02 12:52:30 | 45.15358 | 9.37070 | 149° | 11km/h | 30607m | 6.3m/s | -41.8°C | 2.5% | 0hPa | 2.6V | 00:00:00 | 02:17:19 | 00:00:00 | |
| OE5DRO-10 | 2026-09-02 12:52:20 | 45.15358 | 9.37101 | 124° | 11km/h | 30551m | 5.3m/s | -41.7°C | 2.5% | 0hPa | 2.6V | 00:00:00 | 00:00:00 | 00:00:00 | |
| DB0UT-7 | 2026-09-02 12:52:19 | 45.15359 | 9.37099 | 121° | 13km/h | 30546m | 4.9m/s | -41.7°C | 2.5% | 0hPa | 2.6V | 00:00:00 | 00:00:00 | 08:30:00 | |
| IW2NTF | 2026-09-02 12:52:17 | 45.15361 | 9.37090 | 75° | 5km/h | 30529m | 5.5m/s | -41.7°C | 2.5% | 0hPa | 2.7V | 08:30:00 | 02:17:05 | 00:00:00 | |
| RDZBGO | 2026-09-02 12:52:12 | 45.15361 | 9.37091 | 227° | 7km/h | 30514m | 5.7m/s | -41.8°C | 0.8% | 0hPa | 2.6V | 00:00:00 | 00:00:00 | 00:00:00 | |
| IW2NTF | 2026-09-02 12:52:11 | 45.15376 | 9.37095 | 55° | 9km/h | 30475m | 5.7m/s | -41.8°C | 2.5% | 0hPa | 2.6V | 08:30:00 | 02:16:55 | 00:00:00 | |
| DO3MHA-11 | 2026-09-02 12:52:10 | 45.15370 | 9.37097 | 196° | 13km/h | 30497m | 4.4m/s | -41.8°C | 2.5% | 0hPa | 2.7V | 00:00:00 | 02:16:59 | 08:30:00 | |
| IW2NTF | 2026-09-02 12:52:01 | 45.15389 | 9.37054 | 146° | 11km/h | 30423m | 4.2m/s | -41.8°C | 2.4% | 0hPa | 2.6V | 08:30:00 | 02:16:45 | 00:00:00 | |
| OE5DRO-10 | 2026-09-02 12:52:00 | 45.15379 | 9.37068 | 133° | 15km/h | 30444m | 4.7m/s | -41.9°C | 2.5% | 0hPa | 2.7V | 00:00:00 | 00:00:00 | 00:00:00 | |
| NBG1-10 | 2026-09-02 12:51:58 | 45.15384 | 9.37060 | 136° | 16km/h | 30433m | 5.6m/s | -41.7°C | 2.5% | 0hPa | 2.7V | 00:00:00 | 02:16:47 | 00:00:00 | |
| RDZBGO | 2026-09-02 12:51:51 | 45.15404 | 9.37044 | 156° | 20km/h | 30401m | 4.8m/s | -42.0°C | 0.7% | 0hPa | 2.7V | 00:00:00 | 00:00:00 | 00:00:00 | |
| DB0UT-7 | 2026-09-02 12:51:50 | 45.15413 | 9.37035 | 121° | 16km/h | 30385m | 6.0m/s | -42.0°C | 2.5% | 0hPa | 2.7V | 00:00:00 | 02:16:38 | 00:00:00 | |
| IW2NTF | 2026-09-02 12:51:47 | 45.15417 | 9.37023 | 141° | 13km/h | 30366m | 5.8m/s | -42.3°C | 2.5% | 0hPa | 2.7V | 08:30:00 | 02:16:34 | 00:00:00 | |
| OE5DRO-10 | 2026-09-02 12:51:41 | 45.15438 | 9.37015 | 173° | 20km/h | 30344m | 5.1m/s | -42.4°C | 2.6% | 0hPa | 2.7V | 00:00:00 | 00:00:00 | 08:30:00 | |
| DO3MHA-11 | 2026-09-02 12:51:40 | 45.15444 | 9.37014 | 175° | 16km/h | 30338m | 6.0m/s | -42.4°C | 2.6% | 0hPa | 2.7V | 00:00:00 | 02:16:29 | 00:00:00 | |
| IW2NTF | 2026-09-02 12:51:37 | 45.15466 | 9.37012 | 173° | 16km/h | 30310m | 5.2m/s | -42.6°C | 2.7% | 0hPa | 2.7V | 08:30:00 | 02:16:24 | 00:00:00 | |
| RDZBGO | 2026-09-02 12:51:31 | 45.15477 | 9.37010 | 177° | 13km/h | 30294m | 6.0m/s | -42.5°C | 0.8% | 0hPa | 2.6V | 00:00:00 | 00:00:00 | 00:00:00 | |
| IW2NTF | 2026-09-02 12:51:30 | 45.15517 | 9.37009 | 173° | 27km/h | 30257m | 4.6m/s | -42.4°C | 2.6% | 0hPa | 2.6V | 08:30:00 | 02:16:14 | 00:00:00 | |
| DO3MHA-11 | 2026-09-02 12:51:30 | 45.15484 | 9.37010 | 183° | 20km/h | 30284m | 4.1m/s | -42.4°C | 2.6% | 0hPa | 2.6V | 00:00:00 | 02:16:19 | 00:00:00 | |
| NBG1-10 | 2026-09-02 12:51:25 | 45.15517 | 9.37009 | 174° | 22km/h | 30258m | 4.5m/s | -42.3°C | 2.6% | 0hPa | 2.6V | 00:00:00 | 02:16:14 | 00:00:00 | |
| OE5DRO-10 | 2026-09-02 12:51:22 | 45.15529 | 9.37004 | 137° | 16km/h | 30241m | 5.0m/s | -42.3°C | 2.6% | 0hPa | 2.6V | 00:00:00 | 00:00:00 | 00:00:00 | |
| DB0UT-7 | 2026-09-02 12:51:20 | 45.15532 | 9.36999 | 156° | 20km/h | 30225m | 5.4m/s | -42.4°C | 2.5% | 0hPa | 2.6V | 00:00:00 | 00:00:00 | 00:00:00 | |
| PG1ADW-2 | 2026-09-02 12:51:17 | 45.15538 | 9.36997 | 173° | 18km/h | 30216m | 4.5m/s | 0°C | 0% | 0hPa | 2.6V | 00:00:00 | 00:00:00 | 00:00:00 | |
| IW2NTF | 2026-09-02 12:51:16 | 45.15553 | 9.36991 | 152° | 16km/h | 30194m | 4.9m/s | -42.1°C | 2.5% | 0hPa | 2.6V | 08:30:00 | 02:16:02 | 00:00:00 | |
| RDZBGO | 2026-09-02 12:51:11 | 45.15561 | 9.36984 | 148° | 24km/h | 30184m | 5.5m/s | -42.1°C | 0.7% | 0hPa | 2.7V | 00:00:00 | 00:00:00 | 00:00:00 | |
| DO3MHA-11 | 2026-09-02 12:51:10 | 45.15567 | 9.36979 | 148° | 18km/h | 30179m | 6.0m/s | -42.0°C | 2.5% | 0hPa | 2.7V | 00:00:00 | 02:15:59 | 00:00:00 | |
| IW2NTF | 2026-09-02 12:51:04 | 45.15585 | 9.36939 | 106° | 13km/h | 30137m | 5.7m/s | -42°C | 2.5% | 0hPa | 2.6V | 08:30:00 | 02:15:51 | 00:00:00 | |
| OE5DRO-10 | 2026-09-02 12:51:03 | 45.15585 | 9.36943 | 85° | 20km/h | 30142m | 4.3m/s | -42.0°C | 2.5% | 0hPa | 2.7V | 00:00:00 | 00:00:00 | 00:00:00 | |
| DO3MHA-11 | 2026-09-02 12:51:00 | 45.15590 | 9.36930 | 142° | 22km/h | 30126m | 5.0m/s | -42.1°C | 2.5% | 0hPa | 2.7V | 00:00:00 | 02:15:49 | 00:00:00 | |
| IW2NTF | 2026-09-02 12:50:58 | 45.15618 | 9.36873 | 111° | 22km/h | 30083m | 5.5m/s | -42.3°C | 2.5% | 0hPa | 2.7V | 08:30:00 | 02:15:41 | 00:00:00 | |
| PG1ADW-2 | 2026-09-02 12:50:53 | 45.15616 | 9.36880 | 111° | 22km/h | 30089m | 5.8m/s | 0°C | 0% | 0hPa | 2.6V | 00:00:00 | 00:00:00 | 00:00:00 | |
| RDZBGO | 2026-09-02 12:50:50 | 45.15620 | 9.36866 | 110° | 18km/h | 30078m | 4.9m/s | -42.3°C | 0.8% | 0hPa | 2.6V | 00:00:00 | 00:00:00 | 00:00:00 | |
| DO3MHA-11 | 2026-09-02 12:50:48 | 45.15621 | 9.36849 | 75° | 31km/h | 30062m | 5.4m/s | -42.2°C | 2.5% | 0hPa | 2.6V | 00:00:00 | 02:15:37 | 00:00:00 | |
| IW2NTF | 2026-09-02 12:50:46 | 45.15628 | 9.36798 | 113° | 38km/h | 30030m | 4.5m/s | -42.4°C | 2.6% | 0hPa | 2.6V | 08:30:00 | 02:15:31 | 00:00:00 | |
| OE5DRO-10 | 2026-09-02 12:50:44 | 45.15621 | 9.36821 | 111° | 26km/h | 30042m | 6.6m/s | -42.3°C | 2.6% | 0hPa | 2.6V | 00:00:00 | 00:00:00 | 00:00:00 | |
| NBG1-10 | 2026-09-02 12:50:41 | 45.15632 | 9.36785 | 108° | 31km/h | 30026m | 4.5m/s | -42.3°C | 2.5% | 0hPa | 2.6V | 00:00:00 | 02:15:30 | 00:00:00 | |
| IW2NTF | 2026-09-02 12:50:38 | 45.15628 | 9.36665 | 102° | 35km/h | 29966m | 4.8m/s | -42.7°C | 2.5% | 0hPa | 2.6V | 08:30:00 | 02:15:19 | 00:00:00 | |
| RDZBGO | 2026-09-02 12:50:29 | 45.15628 | 9.36665 | 103° | 37km/h | 29967m | 4.8m/s | -42.7°C | 0.8% | 0hPa | 2.7V | 00:00:00 | 00:00:00 | 00:00:00 | |
| DO3MHA-11 | 2026-09-02 12:50:28 | 45.15634 | 9.36640 | 115° | 29km/h | 29956m | 6.0m/s | -42.7°C | 2.6% | 0hPa | 2.7V | 00:00:00 | 02:15:17 | 00:00:00 | |
| IW2NTF | 2026-09-02 12:50:22 | 45.15622 | 9.36546 | 114° | 22km/h | 29899m | 6m/s | -42.9°C | 2.5% | 0hPa | 2.7V | 08:30:00 | 02:15:06 | 00:00:00 | |
| DB0UT-7 | 2026-09-02 12:50:19 | 45.15622 | 9.36560 | 61° | 24km/h | 29912m | 5.4m/s | -43.0°C | 2.6% | 0hPa | 2.6V | 00:00:00 | 00:00:00 | 00:00:00 | |
| DO3MHA-11 | 2026-09-02 12:50:18 | 45.15621 | 9.36553 | 88° | 26km/h | 29906m | 6.2m/s | -42.8°C | 2.5% | 0hPa | 2.6V | 00:00:00 | 02:15:07 | 00:00:00 | |
| RDZBGO | 2026-09-02 12:50:09 | 45.15635 | 9.36482 | 70° | 22km/h | 29863m | 6.3m/s | -43.1°C | 0.8% | 0hPa | 2.6V | 00:00:00 | 00:00:00 | 00:00:00 | |
| DO3MHA-11 | 2026-09-02 12:50:08 | 45.15629 | 9.36471 | 43° | 24km/h | 29852m | 5.0m/s | -43.3°C | 2.6% | 0hPa | 2.6V | 00:00:00 | 02:14:57 | 00:00:00 | |
| IW2NTF | 2026-09-02 12:50:04 | 45.15627 | 9.36405 | 123° | 24km/h | 29800m | 4.5m/s | -43.5°C | 2.7% | 0hPa | 2.7V | 08:30:00 | 02:14:47 | 00:00:00 | |
| DO3MHA-11 | 2026-09-02 12:49:58 | 45.15627 | 9.36405 | 124° | 18km/h | 29801m | 4.4m/s | -43.4°C | 2.7% | 0hPa | 2.6V | 00:00:00 | 02:14:47 | 00:00:00 | |
| IW2NTF | 2026-09-02 12:49:51 | 45.15604 | 9.36345 | 86° | 15km/h | 29748m | 5.8m/s | -43.6°C | 2.6% | 0hPa | 2.6V | 08:30:00 | 02:14:37 | 00:00:00 | |
| DB0UT-7 | 2026-09-02 12:49:49 | 45.15605 | 9.36350 | 75° | 20km/h | 29753m | 4.8m/s | -43.5°C | 2.6% | 0hPa | 2.6V | 00:00:00 | 02:14:38 | 00:00:00 | |
| DO3MHA-11 | 2026-09-02 12:49:46 | 45.15605 | 9.36332 | 96° | 20km/h | 29737m | 5.2m/s | -43.6°C | 2.6% | 0hPa | 2.6V | 00:00:00 | 02:14:35 | 00:00:00 | |
| IW2NTF | 2026-09-02 12:49:43 | 45.15594 | 9.36274 | 39° | 27km/h | 29693m | 4.5m/s | -44.3°C | 2.7% | 0hPa | 2.6V | 08:30:00 | 02:14:27 | 00:00:00 | |
| DO3MHA-11 | 2026-09-02 12:49:35 | 45.15584 | 9.36260 | 64° | 20km/h | 29678m | 5.4m/s | -44.4°C | 2.8% | 0hPa | 2.7V | 00:00:00 | 02:14:24 | 00:00:00 | |
| IW2NTF | 2026-09-02 12:49:32 | 45.15586 | 9.36203 | 87° | 22km/h | 29637m | 6m/s | -44.5°C | 2.8% | 0hPa | 2.7V | 08:30:00 | 02:14:16 | 00:00:00 | |
| NBG1-10 | 2026-09-02 12:49:31 | 45.15587 | 9.36239 | 100° | 22km/h | 29657m | 5.7m/s | -44.5°C | 2.8% | 0hPa | 2.6V | 00:00:00 | 02:14:20 | 08:30:00 | |
| RDZBGO | 2026-09-02 12:49:28 | 45.15587 | 9.36221 | 88° | 26km/h | 29647m | 4.6m/s | -44.6°C | 0.9% | 0hPa | 2.6V | 00:00:00 | 00:00:00 | 00:00:00 | |
| DO3MHA-11 | 2026-09-02 12:49:25 | 45.15587 | 9.36189 | 101° | 20km/h | 29626m | 4.6m/s | -44.4°C | 2.8% | 0hPa | 2.6V | 00:00:00 | 02:14:14 | 00:00:00 | |
| DB0UT-7 | 2026-09-02 12:49:19 | 45.15586 | 9.36143 | 81° | 18km/h | 29594m | 5.0m/s | -44.6°C | 2.8% | 0hPa | 2.6V | 00:00:00 | 00:00:00 | 00:00:00 | |
| IW2NTF | 2026-09-02 12:49:16 | 45.15586 | 9.36102 | 62° | 16km/h | 29562m | 6.2m/s | -44.8°C | 2.8% | 0hPa | 2.6V | 08:30:00 | 02:14:02 | 00:00:00 | |
| RDZBGO | 2026-09-02 12:49:07 | 45.15569 | 9.36079 | 49° | 15km/h | 29535m | 5.8m/s | -44.7°C | 0.9% | 0hPa | 2.7V | 00:00:00 | 00:00:00 | 00:00:00 | |
| IW2NTF | 2026-09-02 12:49:05 | 45.15558 | 9.36057 | 48° | 24km/h | 29508m | 5.9m/s | -44.6°C | 2.8% | 0hPa | 2.7V | 08:30:00 | 02:13:52 | 00:00:00 | |
| NBG1-10 | 2026-09-02 12:48:58 | 45.15540 | 9.36031 | 62° | 13km/h | 29482m | 5.6m/s | -44.5°C | 2.7% | 0hPa | 2.7V | 00:00:00 | 02:13:47 | 00:00:00 | |
| IW2NTF | 2026-09-02 12:48:57 | 45.15535 | 9.36008 | 60° | 20km/h | 29455m | 4.5m/s | -44.3°C | 2.8% | 0hPa | 2.7V | 08:30:00 | 02:13:42 | 00:00:00 | |
| DO3MHA-11 | 2026-09-02 12:48:50 | 45.15526 | 9.35992 | 48° | 13km/h | 29442m | 6.2m/s | -44.4°C | 2.8% | 0hPa | 2.6V | 00:00:00 | 02:13:39 | 00:00:00 | |
| DB0UT-7 | 2026-09-02 12:48:49 | 45.15524 | 9.35989 | 33° | 11km/h | 29435m | 5.7m/s | -44.4°C | 2.8% | 0hPa | 2.6V | 00:00:00 | 02:13:38 | 00:00:00 | |
| IW2NTF | 2026-09-02 12:48:46 | 45.15504 | 9.35984 | 20° | 18km/h | 29403m | 4.4m/s | -44.2°C | 2.8% | 0hPa | 2.6V | 08:30:00 | 02:13:32 | 00:00:00 | |
| IW2NTF | 2026-09-02 12:48:38 | 45.15481 | 9.35973 | 2° | 11km/h | 29349m | 6.1m/s | -44.4°C | 2.8% | 0hPa | 2.7V | 08:30:00 | 02:13:22 | 00:00:00 | |
| IW2NTF | 2026-09-02 12:48:28 | 45.15453 | 9.35977 | 250° | 5km/h | 29294m | 5.5m/s | -44.3°C | 2.8% | 0hPa | 2.7V | 08:30:00 | 02:13:12 | 00:00:00 | |
| RDZBGO | 2026-09-02 12:48:26 | 45.15460 | 9.35977 | 12° | 16km/h | 29317m | 4.8m/s | -44.4°C | 0.9% | 0hPa | 2.6V | 00:00:00 | 00:00:00 | 00:00:00 | |
| NBG1-10 | 2026-09-02 12:48:25 | 45.15454 | 9.35975 | 5° | 20km/h | 29307m | 5.8m/s | -44.3°C | 2.9% | 0hPa | 2.6V | 00:00:00 | 02:13:14 | 00:00:00 | |
| DB0UT-7 | 2026-09-02 12:48:19 | 45.15452 | 9.35981 | 7° | 7km/h | 29273m | 4.7m/s | -44.1°C | 2.8% | 0hPa | 2.6V | 00:00:00 | 00:00:00 | 00:00:00 | |
| IW2NTF | 2026-09-02 12:48:18 | 45.15443 | 9.35982 | 280° | 5km/h | 29241m | 5m/s | -44.2°C | 2.7% | 0hPa | 2.6V | 08:30:00 | 02:13:02 | 00:00:00 | |
| IW2NTF | 2026-09-02 12:48:08 | 45.15448 | 9.35983 | 104° | 4km/h | 29186m | 5.5m/s | -44.4°C | 2.8% | 0hPa | 2.7V | 08:30:00 | 02:12:52 | 00:00:00 | |
| RDZBGO | 2026-09-02 12:48:05 | 45.15443 | 9.35986 | 168° | 9km/h | 29203m | 5.4m/s | -44.3°C | 0.8% | 0hPa | 2.7V | 00:00:00 | 00:00:00 | 00:00:00 | |
| OE5DRO-10 | 2026-09-02 12:47:58 | 45.15450 | 9.35982 | 194° | 11km/h | 29161m | 5.1m/s | -44.5°C | 2.8% | 0hPa | 2.7V | 00:00:00 | 00:00:00 | 00:00:00 | |
| IW2NTF | 2026-09-02 12:47:51 | 45.15467 | 9.35963 | 182° | 13km/h | 29101m | 5.3m/s | -44.6°C | 2.7% | 0hPa | 2.7V | 08:30:00 | 02:12:36 | 00:00:00 | |
| DB0UT-7 | 2026-09-02 12:47:49 | 45.15462 | 9.35965 | 150° | 15km/h | 29113m | 6.1m/s | -44.5°C | 2.8% | 0hPa | 2.6V | 00:00:00 | 02:12:38 | 08:30:00 | |
| RDZBGO | 2026-09-02 12:47:44 | 45.15473 | 9.35964 | 198° | 9km/h | 29090m | 5.4m/s | -44.7°C | 0.9% | 0hPa | 2.6V | 00:00:00 | 00:00:00 | 00:00:00 | |
| IW2NTF | 2026-09-02 12:47:37 | 45.15508 | 9.35933 | 153° | 16km/h | 29020m | 4.7m/s | -44.7°C | 2.8% | 0hPa | 2.6V | 08:30:00 | 02:12:21 | 00:00:00 | |
| OE5DRO-10 | 2026-09-02 12:47:37 | 45.15497 | 9.35950 | 121° | 16km/h | 29048m | 5.9m/s | -44.6°C | 2.9% | 0hPa | 2.7V | 00:00:00 | 00:00:00 | 00:00:00 | |
| DO3MHA-11 | 2026-09-02 12:47:33 | 45.15504 | 9.35935 | 149° | 18km/h | 29025m | 5.8m/s | -44.7°C | 2.8% | 0hPa | 2.7V | 00:00:00 | 02:12:22 | 08:30:00 | |
| RDZBGO | 2026-09-02 12:47:25 | 45.15518 | 9.35905 | 110° | 18km/h | 28984m | 5.7m/s | -45.0°C | 0.9% | 0hPa | 2.7V | 00:00:00 | 00:00:00 | 00:00:00 | |
| DB0UT-7 | 2026-09-02 12:47:19 | 45.15537 | 9.35873 | 109° | 20km/h | 28951m | 5.7m/s | -45.0°C | 2.9% | 0hPa | 2.7V | 00:00:00 | 00:00:00 | 00:00:00 | |
| OE5DRO-10 | 2026-09-02 12:47:16 | 45.15537 | 9.35855 | 91° | 20km/h | 28935m | 5.4m/s | -44.8°C | 2.8% | 0hPa | 2.7V | 00:00:00 | 00:00:00 | 00:00:00 | |
| RDZBGO | 2026-09-02 12:47:04 | 45.15547 | 9.35768 | 102° | 18km/h | 28870m | 5.2m/s | -45.0°C | 0.8% | 0hPa | 2.7V | 00:00:00 | 00:00:00 | 00:00:00 | |
| OE5DRO-10 | 2026-09-02 12:46:57 | 45.15547 | 9.35718 | 117° | 26km/h | 28831m | 4.7m/s | -45.2°C | 2.9% | 0hPa | 2.7V | 00:00:00 | 00:00:00 | 00:00:00 | |
| IW2NTF | 2026-09-02 12:46:50 | 45.15533 | 9.35605 | 60° | 31km/h | 28761m | 5m/s | -45.6°C | 3% | 0hPa | 2.7V | 08:30:00 | 02:11:33 | 00:00:00 | |
| DB0UT-7 | 2026-09-02 12:46:49 | 45.15545 | 9.35660 | 80° | 24km/h | 28788m | 5.0m/s | -45.5°C | 2.9% | 0hPa | 2.6V | 00:00:00 | 02:11:38 | 00:00:00 | |
| RDZBGO | 2026-09-02 12:46:42 | 45.15530 | 9.35596 | 60° | 26km/h | 28756m | 5.3m/s | -45.6°C | 0.9% | 0hPa | 2.6V | 00:00:00 | 00:00:00 | 00:00:00 | |
| IW2NTF | 2026-09-02 12:46:39 | 45.15503 | 9.35539 | 60° | 27km/h | 28708m | 6.1m/s | -45.6°C | 3.1% | 0hPa | 2.6V | 08:30:00 | 02:11:23 | 00:00:00 | |
| OE5DRO-10 | 2026-09-02 12:46:38 | 45.15518 | 9.35567 | 52° | 22km/h | 28730m | 6.1m/s | -45.6°C | 3.0% | 0hPa | 2.6V | 00:00:00 | 00:00:00 | 00:00:00 | |
| NBG1-10 | 2026-09-02 12:46:34 | 45.15502 | 9.35539 | 61° | 20km/h | 28708m | 6.0m/s | -45.6°C | 3.1% | 0hPa | 2.6V | 00:00:00 | 02:11:23 | 00:00:00 | |
| IW2NTF | 2026-09-02 12:46:29 | 45.15477 | 9.35477 | 38° | 15km/h | 28652m | 5.3m/s | -45.3°C | 3% | 0hPa | 2.6V | 08:30:00 | 02:11:13 | 00:00:00 | |
| RDZBGO | 2026-09-02 12:46:22 | 45.15474 | 9.35473 | 38° | 16km/h | 28647m | 4.9m/s | -45.2°C | 0.9% | 0hPa | 2.7V | 00:00:00 | 00:00:00 | 00:00:00 | |
| IW2NTF | 2026-09-02 12:46:19 | 45.15441 | 9.35415 | 78° | 20km/h | 28599m | 4.7m/s | -45°C | 2.9% | 0hPa | 2.7V | 08:30:00 | 02:11:03 | 00:00:00 | |
| DB0UT-7 | 2026-09-02 12:46:19 | 45.15454 | 9.35454 | 41° | 16km/h | 28626m | 4.0m/s | -45.0°C | 2.9% | 0hPa | 2.6V | 00:00:00 | 00:00:00 | 00:00:00 | |
| RDZBGO | 2026-09-02 12:46:02 | 45.15408 | 9.35364 | 64° | 20km/h | 28534m | 4.8m/s | -44.4°C | 0.9% | 0hPa | 2.6V | 00:00:00 | 00:00:00 | 00:00:00 | |
| OE5DRO-10 | 2026-09-02 12:46:00 | 45.15405 | 9.35352 | 83° | 16km/h | 28522m | 5.6m/s | -44.4°C | 2.8% | 0hPa | 2.6V | 00:00:00 | 00:00:00 | 00:00:00 | |
| IW2NTF | 2026-09-02 12:45:51 | 45.15379 | 9.35326 | 73° | 15km/h | 28465m | 4.6m/s | -44.2°C | 2.8% | 0hPa | 2.6V | 08:30:00 | 02:10:38 | 00:00:00 | |
| DB0UT-7 | 2026-09-02 12:45:49 | 45.15378 | 9.35326 | 74° | 18km/h | 28465m | 4.5m/s | -44.2°C | 2.8% | 0hPa | 2.7V | 00:00:00 | 02:10:38 | 00:00:00 | |
| IW2NTF | 2026-09-02 12:45:44 | 45.15352 | 9.35281 | 351° | 9km/h | 28411m | 6.2m/s | -44°C | 2.7% | 0hPa | 2.7V | 08:30:00 | 02:10:28 | 00:00:00 | |
| OE5DRO-10 | 2026-09-02 12:45:41 | 45.15356 | 9.35282 | 27° | 18km/h | 28422m | 5.2m/s | -44.0°C | 2.7% | 0hPa | 2.6V | 00:00:00 | 00:00:00 | 00:00:00 | |
| IW2NTF | 2026-09-02 12:45:31 | 45.15315 | 9.35240 | 34° | 35km/h | 28356m | 4.9m/s | -44.2°C | 2.8% | 0hPa | 2.6V | 08:30:00 | 02:10:18 | 00:00:00 | |
| IW2NTF | 2026-09-02 12:45:25 | 45.15272 | 9.35205 | 43° | 20km/h | 28297m | 6.3m/s | -44.1°C | 2.7% | 0hPa | 2.6V | 08:30:00 | 02:10:07 | 00:00:00 | |
| OE5DRO-10 | 2026-09-02 12:45:22 | 45.15287 | 9.35217 | 20° | 22km/h | 28319m | 5.7m/s | -44.0°C | 2.8% | 0hPa | 2.7V | 00:00:00 | 00:00:00 | 00:00:00 | |
| RDZBGO | 2026-09-02 12:45:21 | 45.15286 | 9.35217 | 21° | 13km/h | 28319m | 5.8m/s | -44.0°C | 0% | 0hPa | 2.6V | 00:00:00 | 00:00:00 | 00:00:00 | |
| DB0UT-7 | 2026-09-02 12:45:19 | 45.15275 | 9.35209 | 35° | 26km/h | 28303m | 4.9m/s | -44.0°C | 2.8% | 0hPa | 2.6V | 00:00:00 | 00:00:00 | 00:00:00 | |
| NBG1-10 | 2026-09-02 12:45:16 | 45.15264 | 9.35193 | 48° | 22km/h | 28286m | 4.4m/s | -43.9°C | 2.7% | 0hPa | 2.6V | 00:00:00 | 02:10:05 | 00:00:00 | |
| IW2NTF | 2026-09-02 12:45:07 | 45.15213 | 9.35162 | 27° | 18km/h | 28234m | 5.1m/s | -44°C | 2.8% | 0hPa | 2.6V | 08:30:00 | 02:09:55 | 00:00:00 | |
| IW2NTF | 2026-09-02 12:45:02 | 45.15141 | 9.35122 | 2° | 29km/h | 28178m | 5m/s | -44.4°C | 2.8% | 0hPa | 2.6V | 08:30:00 | 02:09:45 | 00:00:00 | |
| RDZBGO | 2026-09-02 12:45:01 | 45.15188 | 9.35147 | 26° | 35km/h | 28211m | 6.0m/s | 0°C | 0% | 0hPa | 2.7V | 00:00:00 | 00:00:00 | 00:00:00 | |
| DB0UT-7 | 2026-09-02 12:44:49 | 45.15100 | 9.35106 | 18° | 26km/h | 28141m | 6.2m/s | -44.2°C | 2.8% | 0hPa | 2.7V | 00:00:00 | 02:09:38 | 00:00:00 | |
| IW2NTF | 2026-09-02 12:44:47 | 45.15043 | 9.35092 | 13° | 18km/h | 28104m | 4.7m/s | -44.2°C | 2.8% | 0hPa | 2.6V | 08:30:00 | 02:09:31 | 00:00:00 | |
| OE5DRO-10 | 2026-09-02 12:44:44 | 45.15054 | 9.35095 | 10° | 24km/h | 28115m | 5.8m/s | -44.1°C | 2.8% | 0hPa | 2.6V | 00:00:00 | 00:00:00 | 00:00:00 | |
| RDZBGO | 2026-09-02 12:44:40 | 45.15038 | 9.35090 | 11° | 18km/h | 28100m | 5.0m/s | 0°C | 0% | 0hPa | 2.6V | 00:00:00 | 00:00:00 | 00:00:00 | |
| OE5DRO-10 | 2026-09-02 12:44:25 | 45.14948 | 9.35061 | 41° | 20km/h | 28014m | 5.3m/s | -44.1°C | 2.8% | 0hPa | 2.6V | 00:00:00 | 00:00:00 | 00:00:00 | |
| DB0UT-7 | 2026-09-02 12:44:19 | 45.14922 | 9.35042 | 10° | 22km/h | 27982m | 6.2m/s | -44.2°C | 2.7% | 0hPa | 2.7V | 00:00:00 | 00:00:00 | 00:00:00 | |
| NBG1-10 | 2026-09-02 12:44:17 | 45.14913 | 9.35040 | 4° | 20km/h | 27970m | 4.9m/s | -44.2°C | 2.7% | 0hPa | 2.7V | 00:00:00 | 02:09:06 | 00:00:00 | |
| OE5DRO-10 | 2026-09-02 12:44:06 | 45.14860 | 9.35022 | 7° | 24km/h | 27913m | 5.8m/s | -44.6°C | 2.8% | 0hPa | 2.7V | 00:00:00 | 00:00:00 | 00:00:00 | |
| IW2NTF | 2026-09-02 12:44:01 | 45.14811 | 9.35015 | 34° | 26km/h | 27865m | 6m/s | -44.8°C | 2.7% | 0hPa | 2.7V | 08:30:00 | 02:08:46 | 00:00:00 | |
| DB0UT-7 | 2026-09-02 12:43:49 | 45.14768 | 9.34994 | 348° | 18km/h | 27824m | 6.1m/s | -45.0°C | 2.9% | 0hPa | 2.7V | 00:00:00 | 02:08:38 | 00:00:00 | |
| OE5DRO-10 | 2026-09-02 12:43:47 | 45.14755 | 9.34999 | 343° | 20km/h | 27812m | 4.8m/s | -45.1°C | 2.9% | 0hPa | 2.7V | 00:00:00 | 00:00:00 | 00:00:00 | |
| IW2NTF | 2026-09-02 12:43:36 | 45.14679 | 9.35026 | 329° | 22km/h | 27720m | 6m/s | -45.5°C | 2.9% | 0hPa | 2.7V | 08:30:00 | 02:08:19 | 00:00:00 | |
| NBG1-10 | 2026-09-02 12:43:31 | 45.14684 | 9.35022 | 330° | 13km/h | 27725m | 3.9m/s | -45.4°C | 2.9% | 0hPa | 2.6V | 00:00:00 | 02:08:20 | 00:00:00 | |
| OE5DRO-10 | 2026-09-02 12:43:28 | 45.14671 | 9.35032 | 336° | 16km/h | 27709m | 4.5m/s | -45.5°C | 2.9% | 0hPa | 2.6V | 00:00:00 | 00:00:00 | 08:30:00 | |
| IW2NTF | 2026-09-02 12:43:20 | 45.14645 | 9.35058 | 276° | 22km/h | 27657m | 5m/s | -45.9°C | 2.9% | 0hPa | 2.6V | 08:30:00 | 02:08:07 | 00:00:00 | |
| DB0UT-7 | 2026-09-02 12:43:19 | 45.14645 | 9.35051 | 278° | 15km/h | 27662m | 4.9m/s | -45.8°C | 2.8% | 0hPa | 2.6V | 00:00:00 | 00:00:00 | 08:30:00 | |
| OE5DRO-10 | 2026-09-02 12:43:09 | 45.14626 | 9.35092 | 19° | 13km/h | 27610m | 6.2m/s | -45.9°C | 2.9% | 0hPa | 2.6V | 00:00:00 | 00:00:00 | 00:00:00 | |
| OE5DRO-10 | 2026-09-02 12:42:50 | 45.14569 | 9.35099 | 333° | 9km/h | 27511m | 4.4m/s | -46.6°C | 3.0% | 0hPa | 2.6V | 00:00:00 | 00:00:00 | 00:00:00 | |
| DB0UT-7 | 2026-09-02 12:42:49 | 45.14566 | 9.35102 | 327° | 9km/h | 27506m | 5.2m/s | -46.7°C | 3.0% | 0hPa | 2.6V | 00:00:00 | 02:07:38 | 00:00:00 | |
| IW2NTF | 2026-09-02 12:42:34 | 45.14539 | 9.35088 | 272° | 4km/h | 27406m | 5.5m/s | -46.7°C | 3.1% | 0hPa | 2.6V | 08:30:00 | 02:07:19 | 00:00:00 | |
| OE5DRO-10 | 2026-09-02 12:42:31 | 45.14539 | 9.35086 | 277° | 9km/h | 27412m | 5.4m/s | -46.7°C | 3.1% | 0hPa | 2.6V | 00:00:00 | 00:00:00 | 00:00:00 | |
| IW2NTF | 2026-09-02 12:42:26 | 45.14528 | 9.35059 | 85° | 13km/h | 27355m | 5m/s | -46.9°C | 3% | 0hPa | 2.7V | 08:30:00 | 02:07:09 | 00:00:00 | |
| DB0UT-7 | 2026-09-02 12:42:19 | 45.14527 | 9.35055 | 70° | 13km/h | 27350m | 5.8m/s | -46.8°C | 3.0% | 0hPa | 2.7V | 00:00:00 | 00:00:00 | 00:00:00 | |
| OE5DRO-10 | 2026-09-02 12:42:12 | 45.14522 | 9.35061 | 11° | 15km/h | 27314m | 5.4m/s | -47.0°C | 3.0% | 0hPa | 2.7V | 00:00:00 | 00:00:00 | 00:00:00 | |
| IW2NTF | 2026-09-02 12:42:11 | 45.14508 | 9.35053 | 38° | 18km/h | 27293m | 4.6m/s | -47.1°C | 3.1% | 0hPa | 2.7V | 08:30:00 | 02:06:57 | 00:00:00 | |
| IW2NTF | 2026-09-02 12:42:00 | 45.14493 | 9.35024 | 55° | 13km/h | 27241m | 4.5m/s | -47.8°C | 3.2% | 0hPa | 2.7V | 08:30:00 | 02:06:47 | 00:00:00 | |
| NBG1-10 | 2026-09-02 12:41:54 | 45.14479 | 9.35005 | 35° | 11km/h | 27220m | 4.7m/s | -47.8°C | 3.2% | 0hPa | 2.7V | 00:00:00 | 02:06:43 | 00:00:00 | |
| OE5DRO-10 | 2026-09-02 12:41:53 | 45.14475 | 9.35000 | 40° | 15km/h | 27216m | 4.3m/s | -47.7°C | 3.2% | 0hPa | 2.7V | 00:00:00 | 00:00:00 | 00:00:00 | |
| IW2NTF | 2026-09-02 12:41:50 | 45.14466 | 9.34978 | 66° | 7km/h | 27189m | 6.1m/s | -47.8°C | 3.2% | 0hPa | 2.7V | 08:30:00 | 02:06:37 | 00:00:00 | |
| DB0UT-7 | 2026-09-02 12:41:49 | 45.14466 | 9.34981 | 78° | 11km/h | 27195m | 4.8m/s | -47.7°C | 3.2% | 0hPa | 2.7V | 00:00:00 | 02:06:38 | 00:00:00 | |
| IW2NTF | 2026-09-02 12:41:41 | 45.14438 | 9.34947 | 26° | 18km/h | 27137m | 4.2m/s | -47.9°C | 3.1% | 0hPa | 2.6V | 08:30:00 | 02:06:27 | 00:00:00 | |
| OE5DRO-10 | 2026-09-02 12:41:34 | 45.14430 | 9.34937 | 106° | 11km/h | 27117m | 4.6m/s | -47.8°C | 3.1% | 0hPa | 2.6V | 00:00:00 | 00:00:00 | 00:00:00 | |
| IW2NTF | 2026-09-02 12:41:30 | 45.14431 | 9.34938 | 63° | 7km/h | 27084m | 5.1m/s | -48.5°C | 3.3% | 0hPa | 2.6V | 08:30:00 | 02:06:17 | 00:00:00 | |
| IW2NTF | 2026-09-02 12:41:20 | 45.14400 | 9.34918 | 343° | 13km/h | 27033m | 5.9m/s | -48.5°C | 3.2% | 0hPa | 2.7V | 08:30:00 | 02:06:07 | 00:00:00 | |
| DB0UT-7 | 2026-09-02 12:41:19 | 45.14403 | 9.34918 | 6° | 11km/h | 27039m | 4.7m/s | -48.5°C | 3.2% | 0hPa | 2.6V | 00:00:00 | 00:00:00 | 00:00:00 | |
| OE5DRO-10 | 2026-09-02 12:41:15 | 45.14389 | 9.34925 | 341° | 11km/h | 27018m | 4.3m/s | -48.5°C | 3.3% | 0hPa | 2.6V | 00:00:00 | 00:00:00 | 00:00:00 | |
| IW2NTF | 2026-09-02 12:41:09 | 45.14366 | 9.34917 | 24° | 11km/h | 26981m | 4.3m/s | -48.6°C | 3.4% | 0hPa | 2.6V | 08:30:00 | 02:05:57 | 00:00:00 | |
| IW2NTF | 2026-09-02 12:40:59 | 45.14348 | 9.34923 | 15° | 7km/h | 26929m | 5.8m/s | -48.7°C | 3.3% | 0hPa | 2.6V | 08:30:00 | 02:05:47 | 00:00:00 | |
| OE5DRO-10 | 2026-09-02 12:40:56 | 45.14345 | 9.34918 | 77° | 11km/h | 26920m | 4.6m/s | -48.5°C | 3.3% | 0hPa | 2.6V | 00:00:00 | 00:00:00 | 00:00:00 | |
| NBG1-10 | 2026-09-02 12:40:53 | 45.14345 | 9.34909 | 119° | 11km/h | 26903m | 4.7m/s | -48.7°C | 3.3% | 0hPa | 2.6V | 00:00:00 | 02:05:42 | 08:30:00 | |
| IW2NTF | 2026-09-02 12:40:52 | 45.14353 | 9.34908 | 198° | 7km/h | 26877m | 4.2m/s | -48.9°C | 3.4% | 0hPa | 2.6V | 08:30:00 | 02:05:37 | 00:00:00 | |
| DB0UT-7 | 2026-09-02 12:40:49 | 45.14351 | 9.34907 | 181° | 11km/h | 26882m | 4.9m/s | -48.7°C | 3.4% | 0hPa | 2.6V | 00:00:00 | 02:05:38 | 00:00:00 | |
| IW2NTF | 2026-09-02 12:40:40 | 45.14373 | 9.34915 | 164° | 20km/h | 26825m | 6m/s | -48.8°C | 3.4% | 0hPa | 2.6V | 08:30:00 | 02:05:27 | 00:00:00 | |
| OE5DRO-10 | 2026-09-02 12:40:37 | 45.14378 | 9.34914 | 177° | 9km/h | 26820m | 5.2m/s | -48.8°C | 3.4% | 0hPa | 2.6V | 00:00:00 | 00:00:00 | 08:30:00 | |
| IW2NTF | 2026-09-02 12:40:29 | 45.14399 | 9.34921 | 225° | 4km/h | 26773m | 4.8m/s | -48.7°C | 3.3% | 0hPa | 2.7V | 08:30:00 | 02:05:17 | 00:00:00 | |
| IW2NTF | 2026-09-02 12:40:19 | 45.14418 | 9.34908 | 154° | 4km/h | 26721m | 6.1m/s | -48.5°C | 3.4% | 0hPa | 2.7V | 08:30:00 | 02:05:07 | 00:00:00 | |
| DB0UT-7 | 2026-09-02 12:40:19 | 45.14416 | 9.34908 | 187° | 5km/h | 26727m | 4.5m/s | -48.5°C | 3.4% | 0hPa | 2.7V | 00:00:00 | 00:00:00 | 00:00:00 | |
| OE5DRO-10 | 2026-09-02 12:40:18 | 45.14418 | 9.34908 | 155° | 5km/h | 26721m | 6.1m/s | -48.5°C | 3.4% | 0hPa | 2.7V | 00:00:00 | 00:00:00 | 00:00:00 | |
| IW2NTF | 2026-09-02 12:40:09 | 45.14412 | 9.34889 | 108° | 5km/h | 26666m | 5.7m/s | -48.6°C | 3.3% | 0hPa | 2.7V | 08:30:00 | 02:04:57 | 00:00:00 | |
| NBG1-10 | 2026-09-02 12:40:08 | 45.14412 | 9.34889 | 109° | 5km/h | 26666m | 5.6m/s | -48.5°C | 3.3% | 0hPa | 2.7V | 00:00:00 | 02:04:57 | 00:00:00 | |
| DO3MHA-11 | 2026-09-02 12:40:01 | 45.14415 | 9.34886 | 88° | 7km/h | 26628m | 4.2m/s | -48.5°C | 3.4% | 0hPa | 2.7V | 00:00:00 | 02:04:50 | 00:00:00 | |
| IW2NTF | 2026-09-02 12:39:59 | 45.14414 | 9.34885 | 340° | 5km/h | 26611m | 5m/s | -48.5°C | 3.3% | 0hPa | 2.7V | 08:30:00 | 02:04:47 | 00:00:00 | |
| OE5DRO-10 | 2026-09-02 12:39:59 | 45.14415 | 9.34884 | 5° | 5km/h | 26617m | 5.9m/s | -48.4°C | 3.4% | 0hPa | 2.7V | 00:00:00 | 00:00:00 | 00:00:00 | |
| DO3MHA-11 | 2026-09-02 12:39:50 | 45.14408 | 9.34866 | 89° | 4km/h | 26570m | 5.8m/s | -48.4°C | 3.3% | 0hPa | 2.7V | 00:00:00 | 02:04:39 | 00:00:00 | |
| IW2NTF | 2026-09-02 12:39:49 | 45.14411 | 9.34865 | 150° | 4km/h | 26547m | 5.5m/s | -48.5°C | 3.4% | 0hPa | 2.7V | 08:30:00 | 02:04:35 | 00:00:00 | |
| DB0UT-7 | 2026-09-02 12:39:49 | 45.14408 | 9.34865 | 206° | 7km/h | 26565m | 5.4m/s | -48.4°C | 3.3% | 0hPa | 2.6V | 00:00:00 | 02:04:38 | 00:00:00 | |
| IW2NTF | 2026-09-02 12:39:40 | 45.14394 | 9.34856 | 347° | 7km/h | 26491m | 6.4m/s | -48.6°C | 3.4% | 0hPa | 2.6V | 08:30:00 | 02:04:25 | 00:00:00 | |
| NBG1-10 | 2026-09-02 12:39:35 | 45.14392 | 9.34857 | 310° | 9km/h | 26486m | 5.3m/s | -48.5°C | 3.3% | 0hPa | 2.7V | 00:00:00 | 02:04:24 | 00:00:00 | |
| DO3MHA-11 | 2026-09-02 12:39:30 | 45.14395 | 9.34871 | 210° | 7km/h | 26458m | 5.2m/s | -48.3°C | 3.3% | 0hPa | 2.7V | 00:00:00 | 02:04:19 | 00:00:00 | |
| IW2NTF | 2026-09-02 12:39:29 | 45.14399 | 9.34876 | 85° | 4km/h | 26432m | 6m/s | -48.2°C | 3.3% | 0hPa | 2.7V | 08:30:00 | 02:04:14 | 00:00:00 | |
| DO3MHA-11 | 2026-09-02 12:39:21 | 45.14397 | 9.34867 | 329° | 13km/h | 26405m | 6.6m/s | -48.3°C | 3.3% | 0hPa | 2.6V | 00:00:00 | 02:04:09 | 00:00:00 | |
| IW2NTF | 2026-09-02 12:39:20 | 45.14399 | 9.34891 | 221° | 18km/h | 26377m | 5.9m/s | -48.3°C | 3.2% | 0hPa | 2.6V | 08:30:00 | 02:04:04 | 00:00:00 | |
| DB0UT-7 | 2026-09-02 12:39:19 | 45.14395 | 9.34869 | 293° | 13km/h | 26399m | 5.7m/s | -48.2°C | 3.3% | 0hPa | 2.6V | 00:00:00 | 00:00:00 | 00:00:00 | |
| DO3MHA-11 | 2026-09-02 12:39:10 | 45.14414 | 9.34896 | 197° | 11km/h | 26350m | 4.9m/s | -48.2°C | 3.4% | 0hPa | 2.6V | 00:00:00 | 02:03:59 | 08:30:00 | |
| IW2NTF | 2026-09-02 12:39:06 | 45.14421 | 9.34922 | 233° | 18km/h | 26301m | 4.5m/s | -48.3°C | 3.3% | 0hPa | 2.6V | 08:30:00 | 02:03:50 | 00:00:00 | |
| OE5DRO-10 | 2026-09-02 12:39:02 | 45.14419 | 9.34917 | 251° | 16km/h | 26306m | 4.1m/s | -48.2°C | 3.3% | 0hPa | 2.6V | 00:00:00 | 00:00:00 | 00:00:00 | |
| DO3MHA-11 | 2026-09-02 12:39:00 | 45.14425 | 9.34927 | 213° | 15km/h | 26296m | 6.2m/s | -48.3°C | 3.3% | 0hPa | 2.6V | 00:00:00 | 02:03:49 | 00:00:00 | |
| IW2NTF | 2026-09-02 12:38:49 | 45.14477 | 9.34928 | 180° | 18km/h | 26222m | 6.1m/s | -48.3°C | 3.3% | 0hPa | 2.6V | 08:30:00 | 02:03:35 | 00:00:00 | |
| DB0UT-7 | 2026-09-02 12:38:49 | 45.14464 | 9.34930 | 178° | 11km/h | 26239m | 5.8m/s | -48.3°C | 3.3% | 0hPa | 2.7V | 00:00:00 | 02:03:38 | 08:30:00 | |
| OE5DRO-10 | 2026-09-02 12:38:43 | 45.14490 | 9.34931 | 193° | 9km/h | 26207m | 4.6m/s | -48.2°C | 3.3% | 0hPa | 2.7V | 00:00:00 | 00:00:00 | 00:00:00 | |
| DO3MHA-11 | 2026-09-02 12:38:39 | 45.14501 | 9.34928 | 135° | 9km/h | 26185m | 4.8m/s | -48.3°C | 3.3% | 0hPa | 2.7V | 00:00:00 | 02:03:28 | 00:00:00 | |
| IW2NTF | 2026-09-02 12:38:37 | 45.14510 | 9.34921 | 170° | 13km/h | 26141m | 6.2m/s | -48.3°C | 3.3% | 0hPa | 2.6V | 08:30:00 | 02:03:20 | 00:00:00 | |
| DO3MHA-11 | 2026-09-02 12:38:29 | 45.14516 | 9.34921 | 192° | 9km/h | 26130m | 4.7m/s | -48.3°C | 3.3% | 0hPa | 2.6V | 00:00:00 | 02:03:18 | 00:00:00 | |
| OE5DRO-10 | 2026-09-02 12:38:24 | 45.14527 | 9.34921 | 146° | 4km/h | 26105m | 4.2m/s | -48.2°C | 3.2% | 0hPa | 2.6V | 00:00:00 | 00:00:00 | 00:00:00 | |
| IW2NTF | 2026-09-02 12:38:23 | 45.14513 | 9.34925 | 6° | 7km/h | 26072m | 5.5m/s | -48.4°C | 3.3% | 0hPa | 2.6V | 08:30:00 | 02:03:07 | 00:00:00 | |
| DB0UT-7 | 2026-09-02 12:38:19 | 45.14515 | 9.34925 | 350° | 7km/h | 26078m | 5.7m/s | -48.2°C | 3.3% | 0hPa | 2.7V | 00:00:00 | 00:00:00 | 00:00:00 | |
| IW2NTF | 2026-09-02 12:38:10 | 45.14503 | 9.34915 | 11° | 18km/h | 26008m | 5m/s | -48.5°C | 3.3% | 0hPa | 2.7V | 08:30:00 | 02:02:55 | 00:00:00 | |
| DO3MHA-11 | 2026-09-02 12:38:08 | 45.14509 | 9.34917 | 18° | 15km/h | 26020m | 4.9m/s | -48.4°C | 3.3% | 0hPa | 2.6V | 00:00:00 | 02:02:57 | 00:00:00 | |
| OE5DRO-10 | 2026-09-02 12:38:05 | 45.14498 | 9.34913 | 17° | 9km/h | 26004m | 4.3m/s | -48.6°C | 3.3% | 0hPa | 2.6V | 00:00:00 | 00:00:00 | 00:00:00 | |
| IW2NTF | 2026-09-02 12:38:00 | 45.14484 | 9.34888 | 300° | 2km/h | 25958m | 5m/s | -48.7°C | 3.4% | 0hPa | 2.6V | 08:30:00 | 02:02:45 | 00:00:00 | |
| NBG1-10 | 2026-09-02 12:37:56 | 45.14484 | 9.34888 | 301° | 9km/h | 25958m | 4.9m/s | -48.6°C | 3.4% | 0hPa | 2.7V | 00:00:00 | 02:02:45 | 00:00:00 | |
| IW2NTF | 2026-09-02 12:37:49 | 45.14473 | 9.34891 | 183° | 7km/h | 25905m | 4.8m/s | -48.7°C | 3.4% | 0hPa | 2.7V | 08:30:00 | 02:02:35 | 00:00:00 | |
| DB0UT-7 | 2026-09-02 12:37:49 | 45.14475 | 9.34891 | 1° | 9km/h | 25921m | 4.4m/s | -48.7°C | 3.4% | 0hPa | 2.7V | 00:00:00 | 02:02:38 | 00:00:00 | |
| DO3MHA-11 | 2026-09-02 12:37:48 | 45.14473 | 9.34891 | 9° | 7km/h | 25916m | 5.1m/s | -48.6°C | 3.4% | 0hPa | 2.7V | 00:00:00 | 02:02:37 | 00:00:00 | |
| OE5DRO-10 | 2026-09-02 12:37:47 | 45.14473 | 9.34891 | 184° | 9km/h | 25906m | 4.8m/s | -48.6°C | 3.4% | 0hPa | 2.7V | 00:00:00 | 00:00:00 | 08:30:00 | |
| IW2NTF | 2026-09-02 12:37:39 | 45.14476 | 9.34908 | 348° | 7km/h | 25855m | 5.2m/s | -48.5°C | 3.3% | 0hPa | 2.6V | 08:30:00 | 02:02:25 | 00:00:00 | |
| DO3MHA-11 | 2026-09-02 12:37:38 | 45.14477 | 9.34907 | 331° | 9km/h | 25865m | 4.8m/s | -48.4°C | 3.4% | 0hPa | 2.7V | 00:00:00 | 02:02:27 | 08:30:00 | |
| IW2NTF | 2026-09-02 12:37:30 | 45.14480 | 9.34950 | 273° | 18km/h | 25805m | 4.5m/s | -48.3°C | 3.3% | 0hPa | 2.6V | 08:30:00 | 02:02:15 | 00:00:00 | |
| DO3MHA-11 | 2026-09-02 12:37:28 | 45.14477 | 9.34936 | 242° | 13km/h | 25816m | 5.3m/s | -48.3°C | 3.4% | 0hPa | 2.7V | 00:00:00 | 02:02:17 | 00:00:00 | |
| OE5DRO-10 | 2026-09-02 12:37:27 | 45.14479 | 9.34943 | 257° | 13km/h | 25810m | 5.1m/s | -48.3°C | 3.4% | 0hPa | 2.7V | 00:00:00 | 00:00:00 | 00:00:00 | |
| NBG1-10 | 2026-09-02 12:37:23 | 45.14475 | 9.34962 | 336° | 9km/h | 25790m | 5.5m/s | -48.3°C | 3.3% | 0hPa | 2.7V | 00:00:00 | 02:02:12 | 00:00:00 | |
| IW2NTF | 2026-09-02 12:37:20 | 45.14465 | 9.34974 | 230° | 13km/h | 25753m | 5.4m/s | -48.2°C | 3.3% | 0hPa | 2.6V | 08:30:00 | 02:02:05 | 00:00:00 | |
| DB0UT-7 | 2026-09-02 12:37:19 | 45.14466 | 9.34966 | 326° | 9km/h | 25769m | 4.4m/s | -48.2°C | 3.3% | 0hPa | 2.7V | 00:00:00 | 00:00:00 | 00:00:00 | |
| DO3MHA-11 | 2026-09-02 12:37:16 | 45.14465 | 9.34974 | 231° | 11km/h | 25754m | 5.4m/s | -48.2°C | 3.3% | 0hPa | 2.6V | 00:00:00 | 02:02:05 | 00:00:00 | |
| IW2NTF | 2026-09-02 12:37:09 | 45.14471 | 9.35003 | 94° | 13km/h | 25706m | 4.2m/s | -48°C | 3.3% | 0hPa | 2.6V | 08:30:00 | 02:01:55 | 00:00:00 | |
| OE5DRO-10 | 2026-09-02 12:37:08 | 45.14472 | 9.35010 | 40° | 7km/h | 25717m | 6.2m/s | -48.1°C | 3.3% | 0hPa | 2.6V | 00:00:00 | 00:00:00 | 00:00:00 | |
| DO3MHA-11 | 2026-09-02 12:37:06 | 45.14471 | 9.35003 | 95° | 9km/h | 25706m | 4.1m/s | -48.0°C | 3.3% | 0hPa | 2.6V | 00:00:00 | 02:01:55 | 00:00:00 | |
| IW2NTF | 2026-09-02 12:36:59 | 45.14473 | 9.35012 | 257° | 7km/h | 25658m | 5.9m/s | -47.7°C | 3.3% | 0hPa | 2.7V | 08:30:00 | 02:01:45 | 00:00:00 | |
| DO3MHA-11 | 2026-09-02 12:36:56 | 45.14473 | 9.35012 | 258° | 7km/h | 25658m | 5.9m/s | -47.7°C | 3.3% | 0hPa | 2.6V | 00:00:00 | 02:01:45 | 00:00:00 | |
| IW2NTF | 2026-09-02 12:36:49 | 45.14465 | 9.35019 | 289° | 16km/h | 25608m | 4.5m/s | -47.9°C | 3.3% | 0hPa | 2.6V | 08:30:00 | 02:01:35 | 00:00:00 | |
| DB0UT-7 | 2026-09-02 12:36:49 | 45.14470 | 9.35010 | 12° | 9km/h | 25624m | 4.8m/s | -47.9°C | 3.2% | 0hPa | 2.7V | 00:00:00 | 02:01:38 | 00:00:00 | |
| NBG1-10 | 2026-09-02 12:36:48 | 45.14468 | 9.35011 | 324° | 16km/h | 25619m | 5.7m/s | -47.9°C | 3.2% | 0hPa | 2.7V | 00:00:00 | 02:01:37 | 00:00:00 | |
| DO3MHA-11 | 2026-09-02 12:36:46 | 45.14465 | 9.35019 | 290° | 9km/h | 25609m | 4.5m/s | -47.8°C | 3.3% | 0hPa | 2.7V | 00:00:00 | 02:01:35 | 00:00:00 | |
| IW2NTF | 2026-09-02 12:36:40 | 45.14466 | 9.35026 | 79° | 15km/h | 25558m | 4.8m/s | -48°C | 3.2% | 0hPa | 2.7V | 08:30:00 | 02:01:25 | 00:00:00 | |
| DO3MHA-11 | 2026-09-02 12:36:36 | 45.14466 | 9.35026 | 80° | 9km/h | 25558m | 4.8m/s | -47.9°C | 3.2% | 0hPa | 2.7V | 00:00:00 | 02:01:25 | 00:00:00 | |
| OE5DRO-10 | 2026-09-02 12:36:30 | 45.14461 | 9.35030 | 276° | 5km/h | 25530m | 5.1m/s | -47.9°C | 3.2% | 0hPa | 2.7V | 00:00:00 | 00:00:00 | 00:00:00 | |
| IW2NTF | 2026-09-02 12:36:28 | 45.14460 | 9.35039 | 307° | 2km/h | 25510m | 5.6m/s | -48°C | 3.2% | 0hPa | 2.7V | 08:30:00 | 02:01:15 | 00:00:00 | |
| DO3MHA-11 | 2026-09-02 12:36:26 | 45.14460 | 9.35039 | 308° | 5km/h | 25511m | 5.6m/s | -48.0°C | 3.2% | 0hPa | 2.7V | 00:00:00 | 02:01:15 | 00:00:00 | |
| DB0UT-7 | 2026-09-02 12:36:19 | 45.14454 | 9.35028 | 39° | 7km/h | 25476m | 5.2m/s | -48.1°C | 3.3% | 0hPa | 2.7V | 00:00:00 | 00:00:00 | 00:00:00 | |
| IW2NTF | 2026-09-02 12:36:18 | 45.14455 | 9.35032 | 240° | 9km/h | 25461m | 4m/s | -48.1°C | 3.2% | 0hPa | 2.7V | 08:30:00 | 02:01:05 | 00:00:00 | |
| DO3MHA-11 | 2026-09-02 12:36:16 | 45.14455 | 9.35032 | 241° | 5km/h | 25462m | 3.9m/s | -48.1°C | 3.2% | 0hPa | 2.6V | 00:00:00 | 02:01:05 | 00:00:00 | |
| OE5DRO-10 | 2026-09-02 12:36:11 | 45.14460 | 9.35034 | 127° | 5km/h | 25437m | 5.0m/s | -48.2°C | 3.2% | 0hPa | 2.6V | 00:00:00 | 00:00:00 | 00:00:00 | |
| IW2NTF | 2026-09-02 12:36:08 | 45.14458 | 9.35029 | 50° | 9km/h | 25412m | 5.3m/s | -48.4°C | 3.2% | 0hPa | 2.6V | 08:30:00 | 02:00:55 | 00:00:00 | |
| DO3MHA-11 | 2026-09-02 12:36:06 | 45.14458 | 9.35029 | 51° | 7km/h | 25412m | 5.3m/s | -48.4°C | 3.2% | 0hPa | 2.6V | 00:00:00 | 02:00:55 | 08:30:00 | |
| IW2NTF | 2026-09-02 12:35:58 | 45.14445 | 9.35024 | 31° | 2km/h | 25363m | 5.4m/s | -49°C | 3.4% | 0hPa | 2.6V | 08:30:00 | 02:00:45 | 00:00:00 | |
| DO3MHA-11 | 2026-09-02 12:35:56 | 45.14445 | 9.35024 | 32° | 11km/h | 25363m | 5.4m/s | -48.9°C | 3.4% | 0hPa | 2.7V | 00:00:00 | 02:00:45 | 00:00:00 | |
| OE5DRO-10 | 2026-09-02 12:35:52 | 45.14438 | 9.35026 | 8° | 15km/h | 25343m | 5.6m/s | -48.8°C | 3.4% | 0hPa | 2.7V | 00:00:00 | 00:00:00 | 00:00:00 | |
| DB0UT-7 | 2026-09-02 12:35:49 | 45.14427 | 9.35024 | 358° | 18km/h | 25329m | 5.5m/s | -48.9°C | 3.4% | 0hPa | 2.7V | 00:00:00 | 02:00:38 | 00:00:00 | |
| IW2NTF | 2026-09-02 12:35:49 | 45.14418 | 9.35029 | 306° | 9km/h | 25313m | 4.6m/s | -49°C | 3.4% | 0hPa | 2.6V | 08:30:00 | 02:00:35 | 00:00:00 | |
| DO3MHA-11 | 2026-09-02 12:35:46 | 45.14419 | 9.35029 | 307° | 11km/h | 25314m | 4.6m/s | -49.0°C | 3.4% | 0hPa | 2.6V | 00:00:00 | 02:00:35 | 00:00:00 | |
| IW2NTF | 2026-09-02 12:35:39 | 45.14391 | 9.35045 | 349° | 29km/h | 25264m | 4.3m/s | -49.1°C | 3.3% | 0hPa | 2.6V | 08:30:00 | 02:00:25 | 00:00:00 | |
| DO3MHA-11 | 2026-09-02 12:35:36 | 45.14390 | 9.35045 | 350° | 18km/h | 25264m | 4.3m/s | -49.0°C | 3.3% | 0hPa | 2.6V | 00:00:00 | 02:00:25 | 00:00:00 | |
| OE5DRO-10 | 2026-09-02 12:35:33 | 45.14372 | 9.35054 | 325° | 22km/h | 25251m | 5.6m/s | -49.2°C | 3.5% | 0hPa | 2.6V | 00:00:00 | 00:00:00 | 00:00:00 | |
| IW2NTF | 2026-09-02 12:35:29 | 45.14342 | 9.35091 | 340° | 27km/h | 25206m | 4.3m/s | -49.1°C | 3.4% | 0hPa | 2.6V | 08:30:00 | 02:00:13 | 00:00:00 | |
| DO3MHA-11 | 2026-09-02 12:35:23 | 45.14336 | 9.35094 | 342° | 26km/h | 25201m | 4.8m/s | -49.0°C | 3.4% | 0hPa | 2.7V | 00:00:00 | 02:00:12 | 00:00:00 | |
| IW2NTF | 2026-09-02 12:35:19 | 45.14308 | 9.35155 | 268° | 16km/h | 25156m | 5.8m/s | -48.8°C | 3.3% | 0hPa | 2.7V | 08:30:00 | 02:00:03 | 00:00:00 | |
| DB0UT-7 | 2026-09-02 12:35:19 | 45.14313 | 9.35111 | 305° | 22km/h | 25182m | 4.7m/s | -48.8°C | 3.4% | 0hPa | 2.7V | 00:00:00 | 00:00:00 | 00:00:00 | |
| NBG1-10 | 2026-09-02 12:35:13 | 45.14308 | 9.35159 | 278° | 20km/h | 25151m | 4.8m/s | -48.7°C | 3.3% | 0hPa | 2.7V | 00:00:00 | 02:00:02 | 00:00:00 | |
| IW2NTF | 2026-09-02 12:35:08 | 45.14288 | 9.35207 | 275° | 20km/h | 25106m | 4.4m/s | -48.9°C | 3.3% | 0hPa | 2.7V | 08:30:00 | 01:59:53 | 00:00:00 | |
| DO3MHA-11 | 2026-09-02 12:35:03 | 45.14288 | 9.35214 | 275° | 20km/h | 25101m | 4.7m/s | -48.9°C | 3.3% | 0hPa | 2.7V | 00:00:00 | 01:59:52 | 00:00:00 | |
| IW2NTF | 2026-09-02 12:34:58 | 45.14278 | 9.35272 | 268° | 26km/h | 25054m | 5.9m/s | -49.2°C | 3.5% | 0hPa | 2.7V | 08:30:00 | 01:59:43 | 00:00:00 | |
| OE5DRO-10 | 2026-09-02 12:34:55 | 45.14278 | 9.35264 | 276° | 22km/h | 25060m | 6.1m/s | -49.2°C | 3.5% | 0hPa | 2.7V | 00:00:00 | 00:00:00 | 08:30:00 | |
| DO3MHA-11 | 2026-09-02 12:34:53 | 45.14278 | 9.35282 | 263° | 24km/h | 25048m | 4.8m/s | -49.2°C | 3.5% | 0hPa | 2.7V | 00:00:00 | 01:59:42 | 00:00:00 | |
| IW2NTF | 2026-09-02 12:34:50 | 45.14297 | 9.35356 | 243° | 13km/h | 24998m | 5.8m/s | -49.1°C | 3.4% | 0hPa | 2.7V | 08:30:00 | 01:59:33 | 00:00:00 | |
| DB0UT-7 | 2026-09-02 12:34:49 | 45.14288 | 9.35324 | 245° | 16km/h | 25027m | 5.1m/s | -49.1°C | 3.5% | 0hPa | 2.7V | 00:00:00 | 01:59:38 | 00:00:00 | |
| DO3MHA-11 | 2026-09-02 12:34:43 | 45.14299 | 9.35360 | 228° | 18km/h | 24992m | 5.8m/s | -48.9°C | 3.4% | 0hPa | 2.7V | 00:00:00 | 01:59:32 | 00:00:00 | |
| NBG1-10 | 2026-09-02 12:34:40 | 45.14306 | 9.35370 | 232° | 16km/h | 24976m | 6.0m/s | -49.0°C | 3.4% | 0hPa | 2.7V | 00:00:00 | 01:59:29 | 08:30:00 | |
| IW2NTF | 2026-09-02 12:34:39 | 45.14324 | 9.35406 | 209° | 20km/h | 24945m | 4.3m/s | -48.9°C | 3.4% | 0hPa | 2.7V | 08:30:00 | 01:59:23 | 00:00:00 | |
| OE5DRO-10 | 2026-09-02 12:34:36 | 45.14316 | 9.35396 | 236° | 16km/h | 24955m | 5.6m/s | -48.9°C | 3.4% | 0hPa | 2.7V | 00:00:00 | 00:00:00 | 00:00:00 | |
| DO3MHA-11 | 2026-09-02 12:34:33 | 45.14328 | 9.35409 | 199° | 13km/h | 24940m | 4.6m/s | -48.9°C | 3.4% | 0hPa | 2.7V | 00:00:00 | 01:59:22 | 08:30:00 | |
| IW2NTF | 2026-09-02 12:34:29 | 45.14351 | 9.35401 | 203° | 15km/h | 24889m | 4.9m/s | -49°C | 3.3% | 0hPa | 2.7V | 08:30:00 | 01:59:13 | 00:00:00 | |
| DO3MHA-11 | 2026-09-02 12:34:24 | 45.14355 | 9.35403 | 205° | 20km/h | 24885m | 4.9m/s | -49.1°C | 3.3% | 0hPa | 2.7V | 00:00:00 | 01:59:12 | 00:00:00 | |
| IW2NTF | 2026-09-02 12:34:19 | 45.14396 | 9.35395 | 133° | 16km/h | 24837m | 6.1m/s | -49.3°C | 3.3% | 0hPa | 2.7V | 08:30:00 | 01:59:03 | 00:00:00 | |
| OE5DRO-10 | 2026-09-02 12:34:17 | 45.14387 | 9.35403 | 159° | 15km/h | 24853m | 5.4m/s | -49.2°C | 3.4% | 0hPa | 2.7V | 00:00:00 | 00:00:00 | 00:00:00 | |
| DO3MHA-11 | 2026-09-02 12:34:13 | 45.14399 | 9.35390 | 135° | 15km/h | 24831m | 5.4m/s | -49.2°C | 3.3% | 0hPa | 2.7V | 00:00:00 | 01:59:02 | 00:00:00 | |
| IW2NTF | 2026-09-02 12:34:09 | 45.14424 | 9.35363 | 119° | 15km/h | 24784m | 5.4m/s | -49.6°C | 3.4% | 0hPa | 2.7V | 08:30:00 | 01:58:53 | 00:00:00 | |
| DO3MHA-11 | 2026-09-02 12:34:03 | 45.14425 | 9.35358 | 107° | 13km/h | 24778m | 6.0m/s | -49.6°C | 3.4% | 0hPa | 2.7V | 00:00:00 | 01:58:52 | 00:00:00 | |
| IW2NTF | 2026-09-02 12:33:59 | 45.14435 | 9.35319 | 74° | 9km/h | 24732m | 5.4m/s | -49.6°C | 3.4% | 0hPa | 2.7V | 08:30:00 | 01:58:43 | 00:00:00 | |
| OE5DRO-10 | 2026-09-02 12:33:58 | 45.14429 | 9.35334 | 125° | 15km/h | 24753m | 4.7m/s | -49.6°C | 3.5% | 0hPa | 2.6V | 00:00:00 | 00:00:00 | 00:00:00 | |
| NBG1-10 | 2026-09-02 12:33:57 | 45.14432 | 9.35330 | 128° | 16km/h | 24748m | 4.3m/s | -49.6°C | 3.5% | 0hPa | 2.6V | 00:00:00 | 01:58:46 | 00:00:00 | |
| DO3MHA-11 | 2026-09-02 12:33:53 | 45.14434 | 9.35316 | 59° | 15km/h | 24727m | 4.8m/s | -49.5°C | 3.4% | 0hPa | 2.6V | 00:00:00 | 01:58:42 | 00:00:00 | |
| IW2NTF | 2026-09-02 12:33:49 | 45.14418 | 9.35268 | 69° | 18km/h | 24673m | 5.4m/s | -50°C | 3.5% | 0hPa | 2.6V | 08:30:00 | 01:58:32 | 00:00:00 | |
| DB0UT-7 | 2026-09-02 12:33:49 | 45.14430 | 9.35300 | 77° | 22km/h | 24706m | 4.4m/s | -49.6°C | 3.4% | 0hPa | 2.7V | 00:00:00 | 01:58:38 | 00:00:00 | |
| DO3MHA-11 | 2026-09-02 12:33:43 | 45.14418 | 9.35268 | 70° | 22km/h | 24674m | 5.3m/s | -50.0°C | 3.5% | 0hPa | 2.7V | 00:00:00 | 01:58:32 | 00:00:00 | |
| OE5DRO-10 | 2026-09-02 12:33:39 | 45.14409 | 9.35245 | 54° | 26km/h | 24653m | 4.5m/s | -50.2°C | 3.5% | 0hPa | 2.7V | 00:00:00 | 00:00:00 | 00:00:00 | |
| IW2NTF | 2026-09-02 12:33:38 | 45.14389 | 9.35201 | 45° | 33km/h | 24620m | 5.4m/s | -50.3°C | 3.5% | 0hPa | 2.7V | 08:30:00 | 01:58:22 | 00:00:00 | |
| DO3MHA-11 | 2026-09-02 12:33:33 | 45.14388 | 9.35201 | 46° | 27km/h | 24620m | 5.3m/s | -50.3°C | 3.5% | 0hPa | 2.7V | 00:00:00 | 01:58:22 | 00:00:00 | |
| IW2NTF | 2026-09-02 12:33:28 | 45.14328 | 9.35156 | 20° | 22km/h | 24567m | 6.2m/s | -50.7°C | 3.6% | 0hPa | 2.7V | 08:30:00 | 01:58:12 | 00:00:00 | |
| NBG1-10 | 2026-09-02 12:33:24 | 45.14334 | 9.35158 | 19° | 22km/h | 24573m | 4.9m/s | -50.6°C | 3.6% | 0hPa | 2.6V | 00:00:00 | 01:58:13 | 00:00:00 | |
| DO3MHA-11 | 2026-09-02 12:33:23 | 45.14328 | 9.35156 | 21° | 26km/h | 24568m | 6.2m/s | -50.7°C | 3.6% | 0hPa | 2.6V | 00:00:00 | 01:58:12 | 00:00:00 | |
| OE5DRO-10 | 2026-09-02 12:33:20 | 45.14315 | 9.35145 | 36° | 26km/h | 24553m | 5.4m/s | -50.7°C | 3.6% | 0hPa | 2.6V | 00:00:00 | 00:00:00 | 00:00:00 | |
| DB0UT-7 | 2026-09-02 12:33:19 | 45.14310 | 9.35140 | 38° | 22km/h | 24547m | 5.9m/s | -50.8°C | 3.6% | 0hPa | 2.6V | 00:00:00 | 00:00:00 | 00:00:00 | |
| IW2NTF | 2026-09-02 12:33:17 | 45.14275 | 9.35104 | 22° | 29km/h | 24515m | 5.9m/s | -50.8°C | 3.6% | 0hPa | 2.6V | 08:30:00 | 01:58:02 | 00:00:00 | |
| DO3MHA-11 | 2026-09-02 12:33:13 | 45.14275 | 9.35104 | 23° | 24km/h | 24515m | 5.9m/s | -50.7°C | 3.6% | 0hPa | 2.7V | 00:00:00 | 01:58:02 | 00:00:00 | |
| IW2NTF | 2026-09-02 12:33:04 | 45.14218 | 9.35083 | 41° | 24km/h | 24464m | 5.1m/s | -50.9°C | 3.6% | 0hPa | 2.7V | 08:30:00 | 01:57:52 | 00:00:00 | |
| DO3MHA-11 | 2026-09-02 12:33:03 | 45.14218 | 9.35083 | 42° | 18km/h | 24464m | 5.0m/s | -50.8°C | 3.6% | 0hPa | 2.7V | 00:00:00 | 01:57:52 | 08:30:00 | |
| IW2NTF | 2026-09-02 12:32:54 | 45.14184 | 9.35052 | 13° | 9km/h | 24411m | 4.8m/s | -50.9°C | 3.7% | 0hPa | 2.7V | 08:30:00 | 01:57:42 | 00:00:00 | |
| DO3MHA-11 | 2026-09-02 12:32:53 | 45.14184 | 9.35052 | 14° | 16km/h | 24411m | 4.8m/s | -50.8°C | 3.7% | 0hPa | 2.6V | 00:00:00 | 01:57:42 | 00:00:00 | |
| NBG1-10 | 2026-09-02 12:32:50 | 45.14174 | 9.35047 | 29° | 20km/h | 24395m | 5.1m/s | -50.8°C | 3.6% | 0hPa | 2.6V | 00:00:00 | 01:57:39 | 00:00:00 | |
| DB0UT-7 | 2026-09-02 12:32:49 | 45.14170 | 9.35043 | 33° | 20km/h | 24390m | 4.7m/s | -50.9°C | 3.7% | 0hPa | 2.7V | 00:00:00 | 01:57:38 | 00:00:00 | |
| IW2NTF | 2026-09-02 12:32:48 | 45.14146 | 9.35025 | 12° | 22km/h | 24358m | 5.1m/s | -51.2°C | 3.7% | 0hPa | 2.6V | 08:30:00 | 01:57:32 | 00:00:00 | |
| OE5DRO-10 | 2026-09-02 12:32:42 | 45.14141 | 9.35024 | 8° | 20km/h | 24353m | 6.0m/s | 0°C | 0% | 0hPa | 2.7V | 00:00:00 | 00:00:00 | 00:00:00 | |
| IW2NTF | 2026-09-02 12:32:38 | 45.14090 | 9.35022 | 10° | 18km/h | 24306m | 4.2m/s | -51.2°C | 3.7% | 0hPa | 2.7V | 08:30:00 | 01:57:22 | 00:00:00 | |
| IW2NTF | 2026-09-02 12:32:26 | 45.14052 | 9.35046 | 346° | 18km/h | 24256m | 5.8m/s | -51.3°C | 3.7% | 0hPa | 2.7V | 08:30:00 | 01:57:12 | 00:00:00 | |
| OE5DRO-10 | 2026-09-02 12:32:23 | 45.14052 | 9.35046 | 347° | 15km/h | 24256m | 5.7m/s | 0°C | 0% | 0hPa | 2.6V | 00:00:00 | 00:00:00 | 00:00:00 | |
| DO3MHA-11 | 2026-09-02 12:32:22 | 45.14047 | 9.35047 | 360° | 16km/h | 24251m | 4.5m/s | -51.2°C | 3.6% | 0hPa | 2.6V | 00:00:00 | 01:57:11 | 00:00:00 | |
| DB0UT-7 | 2026-09-02 12:32:19 | 45.14032 | 9.35041 | 27° | 11km/h | 24236m | 5.3m/s | 0°C | 0% | 0hPa | 2.6V | 00:00:00 | 00:00:00 | 00:00:00 | |
| IW2NTF | 2026-09-02 12:32:17 | 45.14013 | 9.35053 | 299° | 5km/h | 24196m | 4.7m/s | -51.4°C | 3.7% | 0hPa | 2.6V | 08:30:00 | 01:57:00 | 00:00:00 | |
| NBG1-10 | 2026-09-02 12:32:17 | 45.14025 | 9.35037 | 13° | 7km/h | 24226m | 5.1m/s | -51.1°C | 3.6% | 0hPa | 2.6V | 00:00:00 | 01:57:06 | 00:00:00 | |
| DO3MHA-11 | 2026-09-02 12:32:12 | 45.14014 | 9.35050 | 295° | 13km/h | 24201m | 5.5m/s | -51.3°C | 3.7% | 0hPa | 2.6V | 00:00:00 | 01:57:01 | 00:00:00 | |
| IW2NTF | 2026-09-02 12:32:06 | 45.13987 | 9.35042 | 172° | 4km/h | 24147m | 5.5m/s | -51.7°C | 3.7% | 0hPa | 2.6V | 08:30:00 | 01:56:50 | 00:00:00 | |
| OE5DRO-10 | 2026-09-02 12:32:04 | 45.13990 | 9.35045 | 22° | 7km/h | 24162m | 5.5m/s | 0°C | 0% | 0hPa | 2.6V | 00:00:00 | 00:00:00 | 00:00:00 | |
| DO3MHA-11 | 2026-09-02 12:32:02 | 45.13987 | 9.35042 | 94° | 5km/h | 24152m | 4.7m/s | -51.6°C | 3.7% | 0hPa | 2.6V | 00:00:00 | 01:56:51 | 00:00:00 | |
| IW2NTF | 2026-09-02 12:31:56 | 45.13985 | 9.35029 | 357° | 11km/h | 24098m | 4.8m/s | -51.9°C | 3.9% | 0hPa | 2.6V | 08:30:00 | 01:56:40 | 00:00:00 | |
| DO3MHA-11 | 2026-09-02 12:31:52 | 45.13988 | 9.35029 | 15° | 5km/h | 24104m | 5.5m/s | -52.0°C | 3.9% | 0hPa | 2.6V | 00:00:00 | 01:56:41 | 00:00:00 | |
| DB0UT-7 | 2026-09-02 12:31:49 | 45.13980 | 9.35030 | 352° | 7km/h | 24088m | 5.7m/s | 0°C | 0% | 0hPa | 2.6V | 00:00:00 | 01:56:38 | 00:00:00 | |
| IW2NTF | 2026-09-02 12:31:46 | 45.13976 | 9.35024 | 76° | 9km/h | 24048m | 5.5m/s | -52°C | 3.8% | 0hPa | 2.6V | 08:30:00 | 01:56:30 | 00:00:00 | |
| DO3MHA-11 | 2026-09-02 12:31:42 | 45.13977 | 9.35027 | 69° | 9km/h | 24054m | 5.4m/s | -51.9°C | 3.8% | 0hPa | 2.7V | 00:00:00 | 01:56:31 | 00:00:00 | |
| IW2NTF | 2026-09-02 12:31:37 | 45.13962 | 9.35005 | 160° | 2km/h | 23999m | 5.1m/s | -52°C | 3.9% | 0hPa | 2.7V | 08:30:00 | 01:56:20 | 00:00:00 | |
| DO3MHA-11 | 2026-09-02 12:31:32 | 45.13962 | 9.35006 | 141° | 4km/h | 24005m | 4.4m/s | -52.0°C | 4.0% | 0hPa | 2.7V | 00:00:00 | 01:56:21 | 08:30:00 | |
| IW2NTF | 2026-09-02 12:31:26 | 45.13959 | 9.34991 | 83° | 7km/h | 23948m | 5.9m/s | -51.9°C | 3.8% | 0hPa | 2.6V | 08:30:00 | 01:56:10 | 00:00:00 | |
| DO3MHA-11 | 2026-09-02 12:31:22 | 45.13959 | 9.34994 | 62° | 5km/h | 23953m | 4.7m/s | -51.8°C | 3.8% | 0hPa | 2.6V | 00:00:00 | 01:56:11 | 00:00:00 | |
| IW2NTF | 2026-09-02 12:31:15 | 45.13965 | 9.34972 | 79° | 7km/h | 23891m | 5.4m/s | -51.7°C | 3.7% | 0hPa | 2.6V | 08:30:00 | 01:55:58 | 00:00:00 | |
| DO3MHA-11 | 2026-09-02 12:31:12 | 45.13963 | 9.34980 | 124° | 5km/h | 23905m | 4.9m/s | -51.5°C | 3.7% | 0hPa | 2.6V | 00:00:00 | 01:56:01 | 00:00:00 | |
| NBG1-10 | 2026-09-02 12:31:09 | 45.13965 | 9.34971 | 80° | 9km/h | 23892m | 5.3m/s | -51.6°C | 3.7% | 0hPa | 2.6V | 00:00:00 | 01:55:58 | 00:00:00 | |
| IW2NTF | 2026-09-02 12:31:04 | 45.13960 | 9.34965 | 357° | 4km/h | 23842m | 4.8m/s | -51.8°C | 3.8% | 0hPa | 2.6V | 08:30:00 | 01:55:48 | 00:00:00 | |
| DO3MHA-11 | 2026-09-02 12:31:02 | 45.13960 | 9.34965 | 149° | 5km/h | 23858m | 4.6m/s | -51.7°C | 3.8% | 0hPa | 2.7V | 00:00:00 | 01:55:51 | 00:00:00 | |
| IW2NTF | 2026-09-02 12:30:55 | 45.13942 | 9.34945 | 12° | 11km/h | 23794m | 5.4m/s | -51.9°C | 3.8% | 0hPa | 2.6V | 08:30:00 | 01:55:38 | 00:00:00 | |
| DO3MHA-11 | 2026-09-02 12:30:52 | 45.13951 | 9.34948 | 22° | 13km/h | 23809m | 4.9m/s | -52.0°C | 3.8% | 0hPa | 2.6V | 00:00:00 | 01:55:41 | 00:00:00 | |
| IW2NTF | 2026-09-02 12:30:40 | 45.13913 | 9.34923 | 31° | 18km/h | 23745m | 5.1m/s | -52.1°C | 3.9% | 0hPa | 2.6V | 08:30:00 | 01:55:28 | 00:00:00 | |
| NBG1-10 | 2026-09-02 12:30:36 | 45.13899 | 9.34917 | 10° | 18km/h | 23731m | 4.7m/s | -52.0°C | 3.9% | 0hPa | 2.6V | 00:00:00 | 01:55:25 | 00:00:00 | |
| IW2NTF | 2026-09-02 12:30:34 | 45.13877 | 9.34909 | 35° | 13km/h | 23696m | 5.8m/s | -52.3°C | 3.9% | 0hPa | 2.6V | 08:30:00 | 01:55:18 | 00:00:00 | |
| DO3MHA-11 | 2026-09-02 12:30:31 | 45.13883 | 9.34912 | 11° | 16km/h | 23706m | 4.5m/s | -52.2°C | 3.9% | 0hPa | 2.7V | 00:00:00 | 01:55:20 | 00:00:00 | |
| IW2NTF | 2026-09-02 12:30:24 | 45.13842 | 9.34881 | 339° | 13km/h | 23647m | 4.8m/s | -52°C | 3.9% | 0hPa | 2.7V | 08:30:00 | 01:55:08 | 00:00:00 | |
| DO3MHA-11 | 2026-09-02 12:30:21 | 45.13849 | 9.34880 | 12° | 15km/h | 23657m | 5.0m/s | -52.0°C | 3.9% | 0hPa | 2.7V | 00:00:00 | 01:55:10 | 00:00:00 | |
| IW2NTF | 2026-09-02 12:30:11 | 45.13803 | 9.34876 | 9° | 22km/h | 23599m | 4.6m/s | -52°C | 3.8% | 0hPa | 2.7V | 08:30:00 | 01:54:58 | 00:00:00 | |
| DO3MHA-11 | 2026-09-02 12:30:11 | 45.13813 | 9.34880 | 21° | 22km/h | 23609m | 5.3m/s | -51.9°C | 3.8% | 0hPa | 2.7V | 00:00:00 | 01:55:00 | 00:00:00 | |
| IW2NTF | 2026-09-02 12:30:04 | 45.13749 | 9.34884 | 6° | 18km/h | 23550m | 4m/s | -52.1°C | 3.9% | 0hPa | 2.7V | 08:30:00 | 01:54:48 | 00:00:00 | |
| DO3MHA-11 | 2026-09-02 12:30:01 | 45.13759 | 9.34884 | 352° | 20km/h | 23560m | 5.5m/s | -52.0°C | 3.9% | 0hPa | 2.6V | 00:00:00 | 01:54:50 | 08:30:00 | |
| IW2NTF | 2026-09-02 12:29:52 | 45.13696 | 9.34887 | 335° | 24km/h | 23500m | 4.2m/s | -52.4°C | 3.9% | 0hPa | 2.7V | 08:30:00 | 01:54:38 | 00:00:00 | |
| DO3MHA-11 | 2026-09-02 12:29:51 | 45.13707 | 9.34881 | 352° | 22km/h | 23511m | 5.5m/s | -52.3°C | 3.8% | 0hPa | 2.7V | 00:00:00 | 01:54:40 | 00:00:00 | |
| IW2NTF | 2026-09-02 12:29:45 | 45.13646 | 9.34909 | 355° | 20km/h | 23451m | 5m/s | -52.4°C | 3.9% | 0hPa | 2.7V | 08:30:00 | 01:54:28 | 00:00:00 | |
| DO3MHA-11 | 2026-09-02 12:29:41 | 45.13656 | 9.34906 | 346° | 20km/h | 23462m | 4.6m/s | -52.6°C | 3.9% | 0hPa | 2.6V | 00:00:00 | 01:54:30 | 00:00:00 | |
| IW2NTF | 2026-09-02 12:29:34 | 45.13606 | 9.34933 | 325° | 13km/h | 23403m | 5.5m/s | -52.5°C | 3.9% | 0hPa | 2.6V | 08:30:00 | 01:54:18 | 00:00:00 | |
| DO3MHA-11 | 2026-09-02 12:29:31 | 45.13611 | 9.34928 | 332° | 13km/h | 23413m | 4.3m/s | -52.4°C | 4.0% | 0hPa | 2.6V | 00:00:00 | 01:54:20 | 00:00:00 | |
| NBG1-10 | 2026-09-02 12:29:30 | 45.13608 | 9.34930 | 327° | 11km/h | 23408m | 4.8m/s | -52.4°C | 3.9% | 0hPa | 2.6V | 00:00:00 | 01:54:19 | 08:30:00 | |
| IW2NTF | 2026-09-02 12:29:25 | 45.13580 | 9.34958 | 303° | 15km/h | 23355m | 5.1m/s | -52.6°C | 4% | 0hPa | 2.7V | 08:30:00 | 01:54:08 | 00:00:00 | |
| DO3MHA-11 | 2026-09-02 12:29:20 | 45.13582 | 9.34953 | 308° | 11km/h | 23360m | 4.2m/s | -52.6°C | 4.0% | 0hPa | 2.6V | 00:00:00 | 01:54:09 | 00:00:00 | |
| IW2NTF | 2026-09-02 12:29:15 | 45.13564 | 9.34984 | 274° | 4km/h | 23307m | 4.6m/s | -52.5°C | 3.9% | 0hPa | 2.6V | 08:30:00 | 01:53:58 | 00:00:00 | |
| DO3MHA-11 | 2026-09-02 12:29:10 | 45.13564 | 9.34983 | 300° | 5km/h | 23312m | 4.8m/s | -52.5°C | 3.9% | 0hPa | 2.7V | 00:00:00 | 01:53:59 | 00:00:00 | |
| IW2NTF | 2026-09-02 12:29:05 | 45.13562 | 9.35003 | 347° | 5km/h | 23257m | 4.4m/s | -52.4°C | 3.9% | 0hPa | 2.7V | 08:30:00 | 01:53:48 | 00:00:00 | |
| DO3MHA-11 | 2026-09-02 12:29:00 | 45.13563 | 9.35002 | 328° | 7km/h | 23261m | 4.6m/s | -52.4°C | 4.0% | 0hPa | 2.6V | 00:00:00 | 01:53:49 | 00:00:00 | |
| IW2NTF | 2026-09-02 12:28:51 | 45.13552 | 9.35003 | 230° | 0km/h | 23210m | 4.2m/s | -52.4°C | 3.9% | 0hPa | 2.6V | 08:30:00 | 01:53:38 | 00:00:00 | |
| DO3MHA-11 | 2026-09-02 12:28:50 | 45.13551 | 9.35002 | 256° | 7km/h | 23214m | 4.6m/s | -52.3°C | 3.9% | 0hPa | 2.7V | 00:00:00 | 01:53:39 | 00:00:00 | |
| IW2NTF | 2026-09-02 12:28:44 | 45.13535 | 9.35005 | 238° | 2km/h | 23163m | 4.8m/s | -52.5°C | 3.9% | 0hPa | 2.7V | 08:30:00 | 01:53:28 | 00:00:00 | |
| IW2NTF | 2026-09-02 12:28:32 | 45.13524 | 9.35034 | 310° | 16km/h | 23114m | 5.5m/s | -52.5°C | 3.8% | 0hPa | 2.6V | 08:30:00 | 01:53:18 | 00:00:00 | |
| DO3MHA-11 | 2026-09-02 12:28:30 | 45.13527 | 9.35030 | 316° | 13km/h | 23119m | 4.5m/s | -52.4°C | 3.8% | 0hPa | 2.6V | 00:00:00 | 01:53:19 | 08:30:00 | |
| IW2NTF | 2026-09-02 12:28:21 | 45.13519 | 9.35050 | 304° | 5km/h | 23065m | 5.1m/s | -52.7°C | 4% | 0hPa | 2.7V | 08:30:00 | 01:53:08 | 00:00:00 | |
| DO3MHA-11 | 2026-09-02 12:28:20 | 45.13519 | 9.35049 | 266° | 7km/h | 23070m | 3.5m/s | -52.6°C | 3.9% | 0hPa | 2.7V | 00:00:00 | 01:53:09 | 00:00:00 | |
| IW2NTF | 2026-09-02 12:28:14 | 45.13504 | 9.35071 | 318° | 2km/h | 23015m | 3.9m/s | -52.8°C | 4% | 0hPa | 2.7V | 08:30:00 | 01:52:58 | 00:00:00 | |
| DO3MHA-11 | 2026-09-02 12:28:10 | 45.13504 | 9.35070 | 325° | 9km/h | 23020m | 4.4m/s | -52.7°C | 4.0% | 0hPa | 2.7V | 00:00:00 | 01:52:59 | 00:00:00 | |
| IW2NTF | 2026-09-02 12:28:02 | 45.13490 | 9.35099 | 268° | 13km/h | 22966m | 4.6m/s | -52.8°C | 4.1% | 0hPa | 2.7V | 08:30:00 | 01:52:48 | 00:00:00 | |
| NBG1-10 | 2026-09-02 12:28:01 | 45.13491 | 9.35089 | 298° | 11km/h | 22976m | 5.7m/s | -52.8°C | 4.0% | 0hPa | 2.6V | 00:00:00 | 01:52:50 | 00:00:00 | |
| DO3MHA-11 | 2026-09-02 12:28:00 | 45.13490 | 9.35094 | 281° | 9km/h | 22971m | 5.0m/s | -52.8°C | 4.1% | 0hPa | 2.6V | 00:00:00 | 01:52:49 | 00:00:00 | |
| IW2NTF | 2026-09-02 12:27:54 | 45.13483 | 9.35128 | 325° | 15km/h | 22916m | 4.3m/s | -52.7°C | 3.9% | 0hPa | 2.6V | 08:30:00 | 01:52:38 | 00:00:00 | |
| DO3MHA-11 | 2026-09-02 12:27:50 | 45.13485 | 9.35125 | 329° | 11km/h | 22921m | 4.8m/s | -52.7°C | 3.9% | 0hPa | 2.6V | 00:00:00 | 01:52:39 | 00:00:00 | |
| IW2NTF | 2026-09-02 12:27:40 | 45.13485 | 9.35159 | 238° | 11km/h | 22867m | 4.8m/s | -52.4°C | 3.9% | 0hPa | 2.6V | 08:30:00 | 01:52:28 | 00:00:00 | |
| DO3MHA-11 | 2026-09-02 12:27:40 | 45.13483 | 9.35156 | 222° | 13km/h | 22872m | 5.4m/s | -52.3°C | 3.9% | 0hPa | 2.6V | 00:00:00 | 01:52:29 | 00:00:00 | |
| IW2NTF | 2026-09-02 12:27:34 | 45.13473 | 9.35196 | 237° | 5km/h | 22818m | 4.5m/s | -52.4°C | 3.9% | 0hPa | 2.6V | 08:30:00 | 01:52:18 | 00:00:00 | |
| DO3MHA-11 | 2026-09-02 12:27:30 | 45.13472 | 9.35194 | 278° | 9km/h | 22823m | 5.3m/s | -52.3°C | 3.9% | 0hPa | 2.7V | 00:00:00 | 01:52:19 | 00:00:00 | |
| NBG1-10 | 2026-09-02 12:27:28 | 45.13474 | 9.35197 | 206° | 7km/h | 22814m | 4.4m/s | -52.3°C | 4.0% | 0hPa | 2.6V | 00:00:00 | 01:52:17 | 00:00:00 | |
| IW2NTF | 2026-09-02 12:27:23 | 45.13488 | 9.35226 | 298° | 13km/h | 22759m | 5.5m/s | -52.3°C | 3.9% | 0hPa | 2.6V | 08:30:00 | 01:52:06 | 00:00:00 | |
| DO3MHA-11 | 2026-09-02 12:27:20 | 45.13491 | 9.35212 | 276° | 9km/h | 22773m | 5.4m/s | -52.2°C | 3.8% | 0hPa | 2.6V | 00:00:00 | 01:52:09 | 00:00:00 | |
| DO3MHA-11 | 2026-09-02 12:27:10 | 45.13489 | 9.35234 | 150° | 5km/h | 22725m | 5.5m/s | -52.3°C | 4.0% | 0hPa | 2.6V | 00:00:00 | 01:51:59 | 00:00:00 | |
| IW2NTF | 2026-09-02 12:27:08 | 45.13493 | 9.35233 | 223° | 5km/h | 22710m | 5.4m/s | -52.4°C | 4% | 0hPa | 2.6V | 08:30:00 | 01:51:56 | 00:00:00 | |
| IW2NTF | 2026-09-02 12:27:00 | 45.13504 | 9.35250 | 127° | 5km/h | 22653m | 5m/s | -52.3°C | 3.9% | 0hPa | 2.6V | 08:30:00 | 01:51:44 | 00:00:00 | |
| DO3MHA-11 | 2026-09-02 12:27:00 | 45.13497 | 9.35248 | 232° | 5km/h | 22678m | 5.5m/s | -52.3°C | 3.9% | 0hPa | 2.6V | 00:00:00 | 01:51:49 | 08:30:00 | |
| NBG1-10 | 2026-09-02 12:26:55 | 45.13503 | 9.35250 | 128° | 4km/h | 22653m | 4.9m/s | -52.3°C | 3.9% | 0hPa | 2.6V | 00:00:00 | 01:51:44 | 00:00:00 | |
| IW2NTF | 2026-09-02 12:26:48 | 45.13501 | 9.35256 | 256° | 5km/h | 22604m | 4.7m/s | -52.3°C | 3.9% | 0hPa | 2.6V | 08:30:00 | 01:51:34 | 00:00:00 | |
| DO3MHA-11 | 2026-09-02 12:26:48 | 45.13501 | 9.35249 | 293° | 4km/h | 22619m | 4.9m/s | -52.2°C | 3.8% | 0hPa | 2.7V | 00:00:00 | 01:51:37 | 00:00:00 | |
| IW2NTF | 2026-09-02 12:26:38 | 45.13503 | 9.35242 | 79° | 7km/h | 22556m | 4.3m/s | -52.2°C | 3.9% | 0hPa | 2.7V | 08:30:00 | 01:51:24 | 00:00:00 | |
| DO3MHA-11 | 2026-09-02 12:26:37 | 45.13503 | 9.35248 | 89° | 4km/h | 22566m | 5.5m/s | -52.3°C | 3.9% | 0hPa | 2.7V | 00:00:00 | 01:51:26 | 00:00:00 | |
| IW2NTF | 2026-09-02 12:26:28 | 45.13505 | 9.35232 | 139° | 5km/h | 22508m | 4.2m/s | -52.2°C | 3.9% | 0hPa | 2.7V | 08:30:00 | 01:51:14 | 00:00:00 | |
| DO3MHA-11 | 2026-09-02 12:26:26 | 45.13504 | 9.35233 | 139° | 9km/h | 22513m | 4.9m/s | -52.1°C | 3.8% | 0hPa | 2.7V | 00:00:00 | 01:51:15 | 00:00:00 | |
| NBG1-10 | 2026-09-02 12:26:22 | 45.13508 | 9.35224 | 119° | 9km/h | 22493m | 4.7m/s | -52.2°C | 3.9% | 0hPa | 2.7V | 00:00:00 | 01:51:11 | 00:00:00 | |
| IW2NTF | 2026-09-02 12:26:18 | 45.13518 | 9.35208 | 96° | 9km/h | 22459m | 4.2m/s | -52.3°C | 3.9% | 0hPa | 2.7V | 08:30:00 | 01:51:04 | 00:00:00 | |
| DO3MHA-11 | 2026-09-02 12:26:15 | 45.13518 | 9.35208 | 97° | 9km/h | 22459m | 4.1m/s | -52.3°C | 3.9% | 0hPa | 2.6V | 00:00:00 | 01:51:04 | 00:00:00 | |
| IW2NTF | 2026-09-02 12:26:10 | 45.13525 | 9.35176 | 154° | 15km/h | 22412m | 4.9m/s | -52.3°C | 3.8% | 0hPa | 2.6V | 08:30:00 | 01:50:54 | 00:00:00 | |
| DO3MHA-11 | 2026-09-02 12:26:05 | 45.13525 | 9.35175 | 155° | 9km/h | 22412m | 4.8m/s | -52.2°C | 3.8% | 0hPa | 2.6V | 00:00:00 | 01:50:54 | 00:00:00 | |
| IW2NTF | 2026-09-02 12:25:58 | 45.13533 | 9.35163 | 26° | 9km/h | 22363m | 5.9m/s | -52.6°C | 3.9% | 0hPa | 2.6V | 08:30:00 | 01:50:44 | 00:00:00 | |
| DO3MHA-11 | 2026-09-02 12:25:55 | 45.13533 | 9.35163 | 27° | 7km/h | 22363m | 5.8m/s | -52.5°C | 3.9% | 0hPa | 2.6V | 00:00:00 | 01:50:44 | 00:00:00 | |
| NBG1-10 | 2026-09-02 12:25:49 | 45.13532 | 9.35148 | 134° | 13km/h | 22334m | 4.9m/s | -52.6°C | 3.8% | 0hPa | 2.6V | 00:00:00 | 01:50:38 | 00:00:00 | |
| IW2NTF | 2026-09-02 12:25:48 | 45.13535 | 9.35140 | 70° | 2km/h | 22314m | 5.7m/s | -52.6°C | 3.9% | 0hPa | 2.6V | 08:30:00 | 01:50:34 | 00:00:00 | |
| DO3MHA-11 | 2026-09-02 12:25:45 | 45.13535 | 9.35140 | 71° | 9km/h | 22315m | 5.7m/s | -52.6°C | 3.9% | 0hPa | 2.6V | 00:00:00 | 01:50:34 | 00:00:00 | |
| IW2NTF | 2026-09-02 12:25:39 | 45.13512 | 9.35122 | 50° | 11km/h | 22257m | 5.3m/s | -52.9°C | 4% | 0hPa | 2.6V | 08:30:00 | 01:50:22 | 00:00:00 | |
| DO3MHA-11 | 2026-09-02 12:25:35 | 45.13515 | 9.35126 | 31° | 15km/h | 22267m | 3.9m/s | -52.9°C | 4.0% | 0hPa | 2.6V | 00:00:00 | 01:50:24 | 00:00:00 | |
| DB0UT-7 | 2026-09-02 12:25:30 | 45.13506 | 9.35111 | 51° | 16km/h | 22242m | 5.0m/s | 0°C | 0% | 0hPa | 2.6V | 00:00:00 | 00:00:00 | 00:00:00 | |
| IW2NTF | 2026-09-02 12:25:27 | 45.13484 | 9.35092 | 26° | 16km/h | 22207m | 5.6m/s | -53.1°C | 4.1% | 0hPa | 2.6V | 08:30:00 | 01:50:12 | 00:00:00 | |
| DO3MHA-11 | 2026-09-02 12:25:22 | 45.13480 | 9.35089 | 28° | 13km/h | 22202m | 4.5m/s | -53.0°C | 4.1% | 0hPa | 2.6V | 00:00:00 | 01:50:11 | 08:30:00 | |
| IW2NTF | 2026-09-02 12:25:16 | 45.13456 | 9.35071 | 9° | 13km/h | 22158m | 5.5m/s | -53°C | 4% | 0hPa | 2.7V | 08:30:00 | 01:50:02 | 00:00:00 | |
| DO3MHA-11 | 2026-09-02 12:25:12 | 45.13452 | 9.35070 | 14° | 20km/h | 22153m | 5.2m/s | -52.9°C | 4.1% | 0hPa | 2.7V | 00:00:00 | 01:50:01 | 00:00:00 | |
| IW2NTF | 2026-09-02 12:25:08 | 45.13407 | 9.35065 | 340° | 13km/h | 22108m | 5.3m/s | -52.9°C | 4.1% | 0hPa | 2.7V | 08:30:00 | 01:49:52 | 00:00:00 | |
| DO3MHA-11 | 2026-09-02 12:25:02 | 45.13404 | 9.35067 | 330° | 20km/h | 22104m | 4.1m/s | -52.8°C | 4.1% | 0hPa | 2.6V | 00:00:00 | 01:49:51 | 00:00:00 | |
| IW2NTF | 2026-09-02 12:24:57 | 45.13359 | 9.35081 | 16° | 22km/h | 22062m | 5.5m/s | -52.7°C | 3.9% | 0hPa | 2.6V | 08:30:00 | 01:49:42 | 00:00:00 | |
| DO3MHA-11 | 2026-09-02 12:24:52 | 45.13354 | 9.35079 | 23° | 18km/h | 22058m | 4.1m/s | -52.6°C | 3.9% | 0hPa | 2.7V | 00:00:00 | 01:49:41 | 00:00:00 | |
| IW2NTF | 2026-09-02 12:24:49 | 45.13317 | 9.35097 | 336° | 18km/h | 22016m | 5.2m/s | -52.5°C | 3.9% | 0hPa | 2.6V | 08:30:00 | 01:49:32 | 00:00:00 | |
| DO3MHA-11 | 2026-09-02 12:24:42 | 45.13314 | 9.35099 | 338° | 13km/h | 22011m | 5.3m/s | -52.5°C | 3.9% | 0hPa | 2.6V | 00:00:00 | 01:49:31 | 00:00:00 | |
| IW2NTF | 2026-09-02 12:24:34 | 45.13290 | 9.35106 | 314° | 16km/h | 21968m | 5.2m/s | -52.8°C | 3.9% | 0hPa | 2.6V | 08:30:00 | 01:49:22 | 00:00:00 | |
| NBG1-10 | 2026-09-02 12:24:33 | 45.13290 | 9.35106 | 315° | 16km/h | 21969m | 5.2m/s | -52.7°C | 3.9% | 0hPa | 2.7V | 00:00:00 | 01:49:22 | 00:00:00 | |
| DO3MHA-11 | 2026-09-02 12:24:32 | 45.13287 | 9.35110 | 321° | 18km/h | 21963m | 5.0m/s | -52.8°C | 3.9% | 0hPa | 2.7V | 00:00:00 | 01:49:21 | 00:00:00 | |
| IW2NTF | 2026-09-02 12:24:26 | 45.13252 | 9.35139 | 331° | 15km/h | 21919m | 5.3m/s | -52.7°C | 4% | 0hPa | 2.7V | 08:30:00 | 01:49:12 | 00:00:00 | |
| DO3MHA-11 | 2026-09-02 12:24:23 | 45.13249 | 9.35142 | 314° | 16km/h | 21915m | 4.8m/s | -52.7°C | 4.0% | 0hPa | 2.6V | 00:00:00 | 01:49:11 | 00:00:00 | |
| IW2NTF | 2026-09-02 12:24:18 | 45.13221 | 9.35179 | 334° | 13km/h | 21872m | 4.8m/s | -52.8°C | 3.8% | 0hPa | 2.7V | 08:30:00 | 01:49:02 | 00:00:00 | |
| DO3MHA-11 | 2026-09-02 12:24:12 | 45.13218 | 9.35180 | 344° | 13km/h | 21868m | 5.4m/s | -52.7°C | 3.8% | 0hPa | 2.7V | 00:00:00 | 01:49:01 | 00:00:00 | |
| IW2NTF | 2026-09-02 12:24:04 | 45.13204 | 9.35213 | 304° | 13km/h | 21826m | 4.1m/s | -53.2°C | 3.9% | 0hPa | 2.7V | 08:30:00 | 01:48:52 | 00:00:00 | |
| DO3MHA-11 | 2026-09-02 12:24:02 | 45.13202 | 9.35217 | 302° | 18km/h | 21822m | 5.1m/s | -53.3°C | 4.0% | 0hPa | 2.6V | 00:00:00 | 01:48:51 | 00:00:00 | |
| NBG1-10 | 2026-09-02 12:24:00 | 45.13198 | 9.35226 | 301° | 15km/h | 21812m | 4.2m/s | -53.5°C | 4.1% | 0hPa | 2.6V | 00:00:00 | 01:48:49 | 00:00:00 | |
| IW2NTF | 2026-09-02 12:23:59 | 45.13181 | 9.35265 | 279° | 20km/h | 21779m | 4.5m/s | -53.8°C | 4.2% | 0hPa | 2.6V | 08:30:00 | 01:48:42 | 00:00:00 | |
| DB0UT-7 | 2026-09-02 12:23:53 | 45.13180 | 9.35265 | 280° | 35km/h | 21779m | 4.4m/s | 0°C | 0% | 0hPa | 2.7V | 00:00:00 | 01:48:42 | 00:00:00 | |
| DO3MHA-11 | 2026-09-02 12:23:52 | 45.13180 | 9.35272 | 280° | 13km/h | 21774m | 5.6m/s | -53.7°C | 4.2% | 0hPa | 2.7V | 00:00:00 | 01:48:41 | 08:30:00 | |
| IW2NTF | 2026-09-02 12:23:45 | 45.13175 | 9.35309 | 268° | 11km/h | 21730m | 5.3m/s | -53.7°C | 4.1% | 0hPa | 2.6V | 08:30:00 | 01:48:32 | 00:00:00 | |
| DO3MHA-11 | 2026-09-02 12:23:43 | 45.13176 | 9.35313 | 262° | 16km/h | 21725m | 5.4m/s | -53.6°C | 4.1% | 0hPa | 2.6V | 00:00:00 | 01:48:31 | 00:00:00 | |
| IW2NTF | 2026-09-02 12:23:39 | 45.13184 | 9.35363 | 235° | 16km/h | 21682m | 3.8m/s | -53.4°C | 4.1% | 0hPa | 2.6V | 08:30:00 | 01:48:22 | 00:00:00 | |
| DO3MHA-11 | 2026-09-02 12:23:32 | 45.13186 | 9.35368 | 234° | 13km/h | 21678m | 5.1m/s | -53.4°C | 4.1% | 0hPa | 2.6V | 00:00:00 | 01:48:21 | 00:00:00 | |
| NBG1-10 | 2026-09-02 12:23:27 | 45.13197 | 9.35379 | 207° | 20km/h | 21654m | 5.1m/s | -53.1°C | 4.0% | 0hPa | 2.6V | 00:00:00 | 01:48:16 | 08:30:00 | |
| IW2NTF | 2026-09-02 12:23:24 | 45.13210 | 9.35394 | 234° | 16km/h | 21635m | 4.4m/s | -53.3°C | 3.9% | 0hPa | 2.7V | 08:30:00 | 01:48:12 | 00:00:00 | |
| DO3MHA-11 | 2026-09-02 12:23:22 | 45.13212 | 9.35398 | 238° | 16km/h | 21631m | 4.1m/s | -53.3°C | 4.0% | 0hPa | 2.6V | 00:00:00 | 01:48:11 | 00:00:00 | |
| DO3MHA-11 | 2026-09-02 12:23:12 | 45.13238 | 9.35442 | 214° | 26km/h | 21583m | 3.9m/s | -53.3°C | 4.1% | 0hPa | 2.7V | 00:00:00 | 01:48:01 | 00:00:00 | |
| IW2NTF | 2026-09-02 12:23:06 | 45.13279 | 9.35510 | 221° | 24km/h | 21536m | 5.3m/s | -53.3°C | 4% | 0hPa | 2.7V | 08:30:00 | 01:47:51 | 00:00:00 | |
| DO3MHA-11 | 2026-09-02 12:23:02 | 45.13279 | 9.35510 | 222° | 20km/h | 21536m | 5.2m/s | -53.3°C | 4.0% | 0hPa | 2.6V | 00:00:00 | 01:47:51 | 00:00:00 | |
| IW2NTF | 2026-09-02 12:22:56 | 45.13323 | 9.35545 | 210° | 24km/h | 21486m | 4.7m/s | -53.5°C | 4.1% | 0hPa | 2.6V | 08:30:00 | 01:47:41 | 00:00:00 | |
| NBG1-10 | 2026-09-02 12:22:54 | 45.13314 | 9.35536 | 217° | 18km/h | 21497m | 4.6m/s | -53.4°C | 4.0% | 0hPa | 2.6V | 00:00:00 | 01:47:43 | 00:00:00 | |
| DO3MHA-11 | 2026-09-02 12:22:52 | 45.13323 | 9.35545 | 211° | 22km/h | 21487m | 4.6m/s | -53.5°C | 4.1% | 0hPa | 2.6V | 00:00:00 | 01:47:41 | 00:00:00 | |
| IW2NTF | 2026-09-02 12:22:46 | 45.13373 | 9.35572 | 202° | 18km/h | 21441m | 5.4m/s | -53.7°C | 4.1% | 0hPa | 2.6V | 08:30:00 | 01:47:31 | 00:00:00 | |
| DO3MHA-11 | 2026-09-02 12:22:42 | 45.13373 | 9.35572 | 203° | 18km/h | 21441m | 5.3m/s | -53.6°C | 4.1% | 0hPa | 2.6V | 00:00:00 | 01:47:31 | 00:00:00 | |
| IW2NTF | 2026-09-02 12:22:35 | 45.13419 | 9.35568 | 154° | 15km/h | 21394m | 5m/s | -53.8°C | 4.1% | 0hPa | 2.6V | 08:30:00 | 01:47:21 | 00:00:00 | |
| DO3MHA-11 | 2026-09-02 12:22:31 | 45.13422 | 9.35566 | 164° | 13km/h | 21389m | 4.5m/s | -53.7°C | 4.1% | 0hPa | 2.7V | 00:00:00 | 01:47:20 | 00:00:00 | |
| IW2NTF | 2026-09-02 12:22:23 | 45.13449 | 9.35567 | 187° | 11km/h | 21347m | 5.4m/s | -53.7°C | 4% | 0hPa | 2.7V | 08:30:00 | 01:47:11 | 00:00:00 | |
| DO3MHA-11 | 2026-09-02 12:22:21 | 45.13452 | 9.35566 | 167° | 7km/h | 21342m | 4.6m/s | -53.7°C | 4.0% | 0hPa | 2.6V | 00:00:00 | 01:47:10 | 08:30:00 | |
| IW2NTF | 2026-09-02 12:22:14 | 45.13462 | 9.35547 | 121° | 9km/h | 21299m | 4.6m/s | -54.1°C | 4.2% | 0hPa | 2.7V | 08:30:00 | 01:47:01 | 00:00:00 | |
| DO3MHA-11 | 2026-09-02 12:22:11 | 45.13463 | 9.35544 | 145° | 13km/h | 21294m | 5.0m/s | -54.1°C | 4.2% | 0hPa | 2.7V | 00:00:00 | 01:47:00 | 00:00:00 | |
| IW2NTF | 2026-09-02 12:22:03 | 45.13480 | 9.35515 | 96° | 9km/h | 21252m | 4.3m/s | -54°C | 4.2% | 0hPa | 2.7V | 08:30:00 | 01:46:51 | 00:00:00 | |
| DO3MHA-11 | 2026-09-02 12:22:01 | 45.13480 | 9.35512 | 88° | 11km/h | 21248m | 5.4m/s | -54.0°C | 4.2% | 0hPa | 2.6V | 00:00:00 | 01:46:50 | 00:00:00 | |
| IW2NTF | 2026-09-02 12:21:57 | 45.13488 | 9.35480 | 97° | 15km/h | 21206m | 4.1m/s | -53.8°C | 4.1% | 0hPa | 2.6V | 08:30:00 | 01:46:41 | 00:00:00 | |
| DO3MHA-11 | 2026-09-02 12:21:51 | 45.13489 | 9.35476 | 97° | 5km/h | 21202m | 4.2m/s | -53.8°C | 4.1% | 0hPa | 2.7V | 00:00:00 | 01:46:40 | 00:00:00 | |
| NBG1-10 | 2026-09-02 12:21:48 | 45.13490 | 9.35467 | 103° | 5km/h | 21188m | 4.9m/s | -53.9°C | 4.2% | 0hPa | 2.6V | 00:00:00 | 01:46:37 | 00:00:00 | |
| IW2NTF | 2026-09-02 12:21:47 | 45.13495 | 9.35462 | 138° | 7km/h | 21159m | 4.8m/s | -53.8°C | 4.1% | 0hPa | 2.6V | 08:30:00 | 01:46:31 | 00:00:00 | |
| DO3MHA-11 | 2026-09-02 12:21:41 | 45.13496 | 9.35460 | 111° | 9km/h | 21154m | 5.2m/s | -53.8°C | 4.1% | 0hPa | 2.6V | 00:00:00 | 01:46:30 | 00:00:00 | |
| IW2NTF | 2026-09-02 12:21:37 | 45.13491 | 9.35437 | 339° | 7km/h | 21113m | 4.5m/s | -54.1°C | 4.3% | 0hPa | 2.6V | 08:30:00 | 01:46:21 | 00:00:00 | |
| DO3MHA-11 | 2026-09-02 12:21:31 | 45.13490 | 9.35438 | 312° | 5km/h | 21107m | 5.8m/s | -54.0°C | 4.3% | 0hPa | 2.7V | 00:00:00 | 01:46:20 | 00:00:00 | |
| IW2NTF | 2026-09-02 12:21:25 | 45.13481 | 9.35440 | 26° | 4km/h | 21067m | 3.9m/s | -53.8°C | 4.1% | 0hPa | 2.7V | 08:30:00 | 01:46:11 | 00:00:00 | |
| DO3MHA-11 | 2026-09-02 12:21:20 | 45.13480 | 9.35438 | 71° | 5km/h | 21058m | 4.6m/s | -53.6°C | 4.1% | 0hPa | 2.6V | 00:00:00 | 01:46:09 | 00:00:00 | |
| NBG1-10 | 2026-09-02 12:21:15 | 45.13477 | 9.35436 | 279° | 9km/h | 21036m | 4.6m/s | -53.6°C | 4.0% | 0hPa | 2.7V | 00:00:00 | 01:46:04 | 00:00:00 | |
| DO3MHA-11 | 2026-09-02 12:21:10 | 45.13477 | 9.35440 | 67° | 4km/h | 21014m | 3.8m/s | -53.5°C | 3.9% | 0hPa | 2.7V | 00:00:00 | 01:45:59 | 00:00:00 | |
| DO3MHA-11 | 2026-09-02 12:21:00 | 45.13478 | 9.35445 | 222° | 7km/h | 20968m | 3.9m/s | -53.7°C | 4.0% | 0hPa | 2.7V | 00:00:00 | 01:45:49 | 00:00:00 | |
| DO3MHA-11 | 2026-09-02 12:20:50 | 45.13487 | 9.35462 | 121° | 11km/h | 20923m | 4.2m/s | -54.3°C | 4.0% | 0hPa | 2.7V | 00:00:00 | 01:45:39 | 08:30:00 | |
| IW2NTF | 2026-09-02 12:20:46 | 45.13505 | 9.35467 | 189° | 15km/h | 20889m | 3.7m/s | -54.8°C | 4.3% | 0hPa | 2.7V | 08:30:00 | 01:45:32 | 00:00:00 | |
| DO3MHA-11 | 2026-09-02 12:20:40 | 45.13515 | 9.35471 | 208° | 7km/h | 20876m | 3.6m/s | -54.8°C | 4.3% | 0hPa | 2.7V | 00:00:00 | 01:45:29 | 00:00:00 | |
| IW2NTF | 2026-09-02 12:20:36 | 45.13521 | 9.35460 | 32° | 5km/h | 20844m | 4.4m/s | -55.3°C | 4.3% | 0hPa | 2.7V | 08:30:00 | 01:45:22 | 00:00:00 | |
| NBG1-10 | 2026-09-02 12:20:34 | 45.13521 | 9.35460 | 33° | 11km/h | 20844m | 4.4m/s | -55.2°C | 4.3% | 0hPa | 2.7V | 00:00:00 | 01:45:22 | 00:00:00 | |
| DO3MHA-11 | 2026-09-02 12:20:30 | 45.13518 | 9.35460 | 317° | 7km/h | 20830m | 5.1m/s | -55.2°C | 4.4% | 0hPa | 2.7V | 00:00:00 | 01:45:19 | 00:00:00 | |
| IW2NTF | 2026-09-02 12:20:24 | 45.13527 | 9.35472 | 174° | 9km/h | 20795m | 4.9m/s | -55.4°C | 4.4% | 0hPa | 2.7V | 08:30:00 | 01:45:12 | 00:00:00 | |
| IW2NTF | 2026-09-02 12:20:15 | 45.13550 | 9.35483 | 205° | 20km/h | 20746m | 3.8m/s | -55.4°C | 4.4% | 0hPa | 2.6V | 08:30:00 | 01:45:02 | 00:00:00 | |
| DO3MHA-11 | 2026-09-02 12:20:11 | 45.13564 | 9.35489 | 182° | 15km/h | 20732m | 4.3m/s | -55.2°C | 4.4% | 0hPa | 2.7V | 00:00:00 | 01:44:59 | 00:00:00 | |
| IW2NTF | 2026-09-02 12:20:04 | 45.13609 | 9.35488 | 181° | 26km/h | 20681m | 5.2m/s | -55.4°C | 4.4% | 0hPa | 2.7V | 08:30:00 | 01:44:48 | 00:00:00 | |
| DO3MHA-11 | 2026-09-02 12:19:50 | 45.13660 | 9.35476 | 144° | 27km/h | 20639m | 4.5m/s | -55.2°C | 4.4% | 0hPa | 2.7V | 00:00:00 | 01:44:39 | 00:00:00 | |
| IW2NTF | 2026-09-02 12:19:43 | 45.13749 | 9.35432 | 151° | 22km/h | 20572m | 5.2m/s | -55.2°C | 4.5% | 0hPa | 2.5V | 08:30:00 | 01:44:25 | 00:00:00 | |
| DO3MHA-11 | 2026-09-02 12:19:40 | 45.13725 | 9.35446 | 168° | 26km/h | 20592m | 4.6m/s | -55.3°C | 4.6% | 0hPa | 2.6V | 00:00:00 | 01:44:29 | 00:00:00 | |
| IW2NTF | 2026-09-02 12:19:30 | 45.13820 | 9.35381 | 168° | 26km/h | 20514m | 5.4m/s | -54.9°C | 4.4% | 0hPa | 2.6V | 08:30:00 | 01:44:13 | 00:00:00 | |
| DO3MHA-11 | 2026-09-02 12:19:30 | 45.13782 | 9.35403 | 151° | 27km/h | 20544m | 5.4m/s | -55.1°C | 4.4% | 0hPa | 2.6V | 00:00:00 | 01:44:19 | 00:00:00 | |
| NBG1-10 | 2026-09-02 12:19:27 | 45.13800 | 9.35390 | 158° | 22km/h | 20530m | 5.5m/s | -54.9°C | 4.4% | 0hPa | 2.6V | 00:00:00 | 01:44:16 | 00:00:00 | |
| DO3MHA-11 | 2026-09-02 12:19:20 | 45.13846 | 9.35373 | 161° | 22km/h | 20495m | 3.8m/s | -54.7°C | 4.3% | 0hPa | 2.6V | 00:00:00 | 01:44:09 | 08:30:00 | |
| IW2NTF | 2026-09-02 12:19:18 | 45.13877 | 9.35350 | 149° | 24km/h | 20466m | 3.8m/s | -54.7°C | 4.2% | 0hPa | 2.6V | 08:30:00 | 01:44:03 | 00:00:00 | |
| DO3MHA-11 | 2026-09-02 12:19:10 | 45.13896 | 9.35340 | 169° | 24km/h | 20448m | 5.0m/s | -54.6°C | 4.2% | 0hPa | 2.7V | 00:00:00 | 01:43:59 | 00:00:00 | |
| IW2NTF | 2026-09-02 12:19:07 | 45.13933 | 9.35329 | 169° | 24km/h | 20418m | 4m/s | -54.7°C | 4.2% | 0hPa | 2.7V | 08:30:00 | 01:43:53 | 00:00:00 | |
| DO3MHA-11 | 2026-09-02 12:19:00 | 45.13953 | 9.35319 | 151° | 18km/h | 20399m | 5.2m/s | -54.7°C | 4.1% | 0hPa | 2.7V | 00:00:00 | 01:43:49 | 00:00:00 | |
| IW2NTF | 2026-09-02 12:18:55 | 45.13973 | 9.35305 | 162° | 18km/h | 20370m | 5.4m/s | -54.8°C | 4.2% | 0hPa | 2.7V | 08:30:00 | 01:43:43 | 00:00:00 | |
| DO3MHA-11 | 2026-09-02 12:18:50 | 45.13995 | 9.35296 | 160° | 22km/h | 20351m | 4.6m/s | -54.9°C | 4.3% | 0hPa | 2.6V | 00:00:00 | 01:43:39 | 00:00:00 | |
| IW2NTF | 2026-09-02 12:18:46 | 45.14023 | 9.35274 | 138° | 15km/h | 20323m | 5.2m/s | -55.4°C | 4.3% | 0hPa | 2.7V | 08:30:00 | 01:43:33 | 00:00:00 | |
| DO3MHA-11 | 2026-09-02 12:18:40 | 45.14039 | 9.35257 | 151° | 31km/h | 20304m | 4.8m/s | -55.2°C | 4.5% | 0hPa | 2.6V | 00:00:00 | 01:43:29 | 00:00:00 | |
| NBG1-10 | 2026-09-02 12:18:39 | 45.14045 | 9.35252 | 153° | 27km/h | 20299m | 3.8m/s | -55.1°C | 4.5% | 0hPa | 2.6V | 00:00:00 | 01:43:28 | 00:00:00 | |
| IW2NTF | 2026-09-02 12:18:35 | 45.14080 | 9.35221 | 145° | 31km/h | 20275m | 5.3m/s | -55.1°C | 4.4% | 0hPa | 2.6V | 08:30:00 | 01:43:23 | 00:00:00 | |
| DO3MHA-11 | 2026-09-02 12:18:30 | 45.14102 | 9.35194 | 137° | 27km/h | 20256m | 4.1m/s | -55.0°C | 4.5% | 0hPa | 2.6V | 00:00:00 | 01:43:19 | 00:00:00 | |
| IW2NTF | 2026-09-02 12:18:26 | 45.14135 | 9.35164 | 147° | 31km/h | 20226m | 4.1m/s | -54.9°C | 4.4% | 0hPa | 2.6V | 08:30:00 | 01:43:13 | 00:00:00 | |
| DO3MHA-11 | 2026-09-02 12:18:20 | 45.14158 | 9.35141 | 138° | 24km/h | 20209m | 3.6m/s | -54.7°C | 4.3% | 0hPa | 2.7V | 00:00:00 | 01:43:09 | 00:00:00 | |
| IW2NTF | 2026-09-02 12:18:15 | 45.14183 | 9.35099 | 137° | 22km/h | 20181m | 3.9m/s | -54.5°C | 4.3% | 0hPa | 2.6V | 08:30:00 | 01:43:03 | 00:00:00 | |
| DO3MHA-11 | 2026-09-02 12:18:10 | 45.14200 | 9.35077 | 133° | 24km/h | 20163m | 4.8m/s | -54.4°C | 4.3% | 0hPa | 2.7V | 00:00:00 | 01:42:59 | 00:00:00 | |
| IW2NTF | 2026-09-02 12:18:09 | 45.14228 | 9.35041 | 129° | 26km/h | 20134m | 4.9m/s | -54.2°C | 4.2% | 0hPa | 2.7V | 08:30:00 | 01:42:53 | 00:00:00 | |
| NBG1-10 | 2026-09-02 12:18:06 | 45.14219 | 9.35053 | 142° | 22km/h | 20144m | 3.9m/s | -54.3°C | 4.2% | 0hPa | 2.6V | 00:00:00 | 01:42:55 | 08:30:00 | |
| DO3MHA-11 | 2026-09-02 12:18:00 | 45.14240 | 9.35015 | 122° | 22km/h | 20115m | 4.3m/s | -54.2°C | 4.0% | 0hPa | 2.5V | 00:00:00 | 01:42:49 | 00:00:00 | |
| IW2NTF | 2026-09-02 12:17:54 | 45.14264 | 9.34964 | 128° | 24km/h | 20077m | 4.8m/s | -54.2°C | 4.1% | 0hPa | 2.5V | 08:30:00 | 01:42:41 | 00:00:00 | |
| DO3MHA-11 | 2026-09-02 12:17:50 | 45.14271 | 9.34948 | 115° | 22km/h | 20068m | 4.1m/s | -54.2°C | 4.1% | 0hPa | 2.6V | 00:00:00 | 01:42:39 | 08:30:00 | |
| IW2NTF | 2026-09-02 12:17:48 | 45.14287 | 9.34889 | 104° | 22km/h | 20030m | 4.1m/s | -54.6°C | 4% | 0hPa | 2.7V | 08:30:00 | 01:42:31 | 00:00:00 | |
| DO3MHA-11 | 2026-09-02 12:17:40 | 45.14290 | 9.34875 | 109° | 20km/h | 20021m | 4.3m/s | -54.7°C | 4.0% | 0hPa | 2.7V | 00:00:00 | 01:42:29 | 00:00:00 | |
| IW2NTF | 2026-09-02 12:17:37 | 45.14294 | 9.34817 | 83° | 18km/h | 19984m | 5.1m/s | -55.3°C | 4.3% | 0hPa | 2.7V | 08:30:00 | 01:42:21 | 00:00:00 | |
| NBG1-10 | 2026-09-02 12:17:33 | 45.14294 | 9.34824 | 91° | 16km/h | 19988m | 3.8m/s | -55.2°C | 4.3% | 0hPa | 2.7V | 00:00:00 | 01:42:22 | 00:00:00 | |
| DO3MHA-11 | 2026-09-02 12:17:20 | 45.14277 | 9.34758 | 101° | 20km/h | 19926m | 3.1m/s | -55.5°C | 4.5% | 0hPa | 2.7V | 00:00:00 | 01:42:09 | 00:00:00 | |
| DO3MHA-11 | 2026-09-02 12:17:10 | 45.14275 | 9.34690 | 65° | 16km/h | 19880m | 4.9m/s | -55.7°C | 4.4% | 0hPa | 2.6V | 00:00:00 | 01:41:59 | 00:00:00 | |
| NBG1-10 | 2026-09-02 12:17:00 | 45.14279 | 9.34636 | 102° | 15km/h | 19834m | 4.9m/s | -55.7°C | 4.5% | 0hPa | 2.6V | 00:00:00 | 01:41:49 | 00:00:00 | |
| DO3MHA-11 | 2026-09-02 12:16:59 | 45.14280 | 9.34627 | 96° | 18km/h | 19829m | 4.8m/s | -55.7°C | 4.5% | 0hPa | 2.6V | 00:00:00 | 01:41:48 | 00:00:00 | |
| DO3MHA-11 | 2026-09-02 12:16:49 | 45.14280 | 9.34564 | 98° | 15km/h | 19782m | 5.0m/s | -55.6°C | 4.5% | 0hPa | 2.6V | 00:00:00 | 01:41:38 | 00:00:00 | |
| IW2NTF | 2026-09-02 12:16:43 | 45.14285 | 9.34515 | 100° | 16km/h | 19740m | 5m/s | -55.5°C | 4.5% | 0hPa | 2.6V | 08:30:00 | 01:41:29 | 00:00:00 | |
| DO3MHA-11 | 2026-09-02 12:16:41 | 45.14286 | 9.34509 | 101° | 15km/h | 19736m | 3.7m/s | -55.5°C | 4.5% | 0hPa | 2.7V | 00:00:00 | 01:41:28 | 00:00:00 | |
| IW2NTF | 2026-09-02 12:16:31 | 45.14301 | 9.34467 | 100° | 15km/h | 19695m | 5.3m/s | -55.3°C | 4.3% | 0hPa | 2.7V | 08:30:00 | 01:41:19 | 00:00:00 | |
| DO3MHA-11 | 2026-09-02 12:16:29 | 45.14302 | 9.34461 | 109° | 13km/h | 19691m | 4.7m/s | -55.2°C | 4.3% | 0hPa | 2.7V | 00:00:00 | 01:41:18 | 00:00:00 | |
| IW2NTF | 2026-09-02 12:16:26 | 45.14316 | 9.34424 | 115° | 11km/h | 19650m | 5.1m/s | -55.5°C | 4.4% | 0hPa | 2.7V | 08:30:00 | 01:41:09 | 00:00:00 | |
| NBG1-10 | 2026-09-02 12:16:24 | 45.14308 | 9.34438 | 122° | 11km/h | 19668m | 4.8m/s | -55.2°C | 4.2% | 0hPa | 2.6V | 00:00:00 | 01:41:13 | 00:00:00 | |
| DO3MHA-11 | 2026-09-02 12:16:19 | 45.14317 | 9.34420 | 100° | 7km/h | 19645m | 4.3m/s | -55.4°C | 4.4% | 0hPa | 2.7V | 00:00:00 | 01:41:08 | 08:30:00 | |
| IW2NTF | 2026-09-02 12:16:13 | 45.14325 | 9.34394 | 136° | 7km/h | 19595m | 4.8m/s | -55.8°C | 4.4% | 0hPa | 2.7V | 08:30:00 | 01:40:57 | 00:00:00 | |
| DO3MHA-11 | 2026-09-02 12:16:09 | 45.14323 | 9.34396 | 148° | 11km/h | 19600m | 3.6m/s | -55.7°C | 4.5% | 0hPa | 2.7V | 00:00:00 | 01:40:58 | 00:00:00 | |
| DO3MHA-11 | 2026-09-02 12:15:59 | 45.14342 | 9.34371 | 145° | 16km/h | 19553m | 4.0m/s | -55.7°C | 4.5% | 0hPa | 2.7V | 00:00:00 | 01:40:48 | 00:00:00 | |
| IW2NTF | 2026-09-02 12:15:57 | 45.14367 | 9.34349 | 138° | 16km/h | 19521m | 4.3m/s | -55.6°C | 4.4% | 0hPa | 2.7V | 08:30:00 | 01:40:41 | 00:00:00 | |
| NBG1-10 | 2026-09-02 12:15:51 | 45.14371 | 9.34345 | 142° | 22km/h | 19517m | 5.4m/s | -55.5°C | 4.5% | 0hPa | 2.6V | 00:00:00 | 01:40:40 | 00:00:00 | |
| DO3MHA-11 | 2026-09-02 12:15:49 | 45.14378 | 9.34336 | 144° | 20km/h | 19508m | 3.8m/s | -55.5°C | 4.4% | 0hPa | 2.6V | 00:00:00 | 01:40:38 | 00:00:00 | |
| IW2NTF | 2026-09-02 12:15:46 | 45.14413 | 9.34297 | 139° | 18km/h | 19467m | 4.7m/s | -55.8°C | 4.5% | 0hPa | 2.6V | 08:30:00 | 01:40:29 | 00:00:00 | |
| DO3MHA-11 | 2026-09-02 12:15:39 | 45.14417 | 9.34292 | 136° | 18km/h | 19463m | 4.1m/s | -55.7°C | 4.5% | 0hPa | 2.7V | 00:00:00 | 01:40:28 | 00:00:00 | |
| IW2NTF | 2026-09-02 12:15:33 | 45.14439 | 9.34243 | 119° | 26km/h | 19422m | 5.5m/s | -55.9°C | 4.5% | 0hPa | 2.7V | 08:30:00 | 01:40:19 | 00:00:00 | |
| DO3MHA-11 | 2026-09-02 12:15:29 | 45.14442 | 9.34234 | 121° | 27km/h | 19418m | 5.2m/s | -55.8°C | 4.6% | 0hPa | 2.6V | 00:00:00 | 01:40:18 | 00:00:00 | |
| NBG1-10 | 2026-09-02 12:15:19 | 45.14467 | 9.34127 | 93° | 29km/h | 19365m | 5.0m/s | -55.4°C | 4.4% | 0hPa | 2.6V | 00:00:00 | 01:40:07 | 00:00:00 | |
| DO3MHA-11 | 2026-09-02 12:15:16 | 45.14469 | 9.34108 | 104° | 29km/h | 19356m | 3.8m/s | -55.3°C | 4.4% | 0hPa | 2.6V | 00:00:00 | 01:40:05 | 00:00:00 | |
| DO3MHA-11 | 2026-09-02 12:15:01 | 45.14488 | 9.33959 | 103° | 29km/h | 19286m | 5.1m/s | -55.1°C | 4.3% | 0hPa | 2.7V | 00:00:00 | 01:39:50 | 00:00:00 | |
| DO3MHA-11 | 2026-09-02 12:14:51 | 45.14496 | 9.33855 | 91° | 29km/h | 19242m | 5.5m/s | -54.9°C | 4.4% | 0hPa | 2.7V | 00:00:00 | 01:39:40 | 00:00:00 | |
| IW2NTF | 2026-09-02 12:14:46 | 45.14492 | 9.33752 | 79° | 26km/h | 19197m | 5m/s | -54.9°C | 4.4% | 0hPa | 2.7V | 08:30:00 | 01:39:30 | 00:00:00 | |
| NBG1-10 | 2026-09-02 12:14:45 | 45.14497 | 9.33793 | 86° | 26km/h | 19216m | 5.2m/s | -54.9°C | 4.4% | 0hPa | 2.6V | 00:00:00 | 01:39:34 | 00:00:00 | |
| DO3MHA-11 | 2026-09-02 12:14:41 | 45.14492 | 9.33752 | 80° | 26km/h | 19197m | 5.0m/s | -54.8°C | 4.4% | 0hPa | 2.7V | 00:00:00 | 01:39:30 | 08:30:00 | |
| IW2NTF | 2026-09-02 12:14:35 | 45.14484 | 9.33668 | 65° | 27km/h | 19151m | 5.1m/s | -54.5°C | 4.2% | 0hPa | 2.7V | 08:30:00 | 01:39:20 | 00:00:00 | |
| IW2NTF | 2026-09-02 12:14:25 | 45.14454 | 9.33586 | 69° | 22km/h | 19106m | 4m/s | -54.5°C | 4.1% | 0hPa | 2.6V | 08:30:00 | 01:39:10 | 00:00:00 | |
| DO3MHA-11 | 2026-09-02 12:14:19 | 45.14449 | 9.33571 | 62° | 22km/h | 19097m | 4.2m/s | -54.7°C | 4.2% | 0hPa | 2.7V | 00:00:00 | 01:39:08 | 00:00:00 | |
| DO3MHA-11 | 2026-09-02 12:14:09 | 45.14419 | 9.33510 | 56° | 16km/h | 19052m | 4.4m/s | -55.0°C | 4.2% | 0hPa | 2.7V | 00:00:00 | 01:38:58 | 00:00:00 | |
| IW2NTF | 2026-09-02 12:14:05 | 45.14397 | 9.33473 | 53° | 20km/h | 19020m | 5.2m/s | -55.3°C | 4.3% | 0hPa | 2.7V | 08:30:00 | 01:38:51 | 00:00:00 | |
| DO3MHA-11 | 2026-09-02 12:13:56 | 45.14388 | 9.33437 | 92° | 16km/h | 18991m | 5.3m/s | -55.2°C | 4.3% | 0hPa | 2.7V | 00:00:00 | 01:38:45 | 00:00:00 | |
| IW2NTF | 2026-09-02 12:13:53 | 45.14388 | 9.33405 | 83° | 11km/h | 18968m | 3.6m/s | -55.6°C | 4.4% | 0hPa | 2.7V | 08:30:00 | 01:38:40 | 00:00:00 | |
| DO3MHA-11 | 2026-09-02 12:13:46 | 45.14385 | 9.33382 | 83° | 18km/h | 18947m | 4.5m/s | -55.6°C | 4.3% | 0hPa | 2.6V | 00:00:00 | 01:38:35 | 00:00:00 | |
| IW2NTF | 2026-09-02 12:13:45 | 45.14383 | 9.33328 | 107° | 22km/h | 18907m | 4.1m/s | -55.8°C | 4.4% | 0hPa | 2.6V | 08:30:00 | 01:38:26 | 00:00:00 | |
| DO3MHA-11 | 2026-09-02 12:13:36 | 45.14384 | 9.33320 | 111° | 24km/h | 18903m | 3.9m/s | -55.8°C | 4.4% | 0hPa | 2.6V | 00:00:00 | 01:38:25 | 00:00:00 | |
| NBG1-10 | 2026-09-02 12:13:28 | 45.14395 | 9.33253 | 93° | 33km/h | 18866m | 4.7m/s | -56.5°C | 4.6% | 0hPa | 2.6V | 00:00:00 | 01:38:17 | 00:00:00 | |
| DO3MHA-11 | 2026-09-02 12:13:26 | 45.14396 | 9.33236 | 95° | 29km/h | 18857m | 5.0m/s | -56.5°C | 4.7% | 0hPa | 2.6V | 00:00:00 | 01:38:15 | 00:00:00 | |
| IW2NTF | 2026-09-02 12:13:19 | 45.14397 | 9.33099 | 84° | 27km/h | 18798m | 4.4m/s | -56.4°C | 4.5% | 0hPa | 2.7V | 08:30:00 | 01:38:02 | 00:00:00 | |
| DO3MHA-11 | 2026-09-02 12:13:16 | 45.14400 | 9.33131 | 82° | 33km/h | 18812m | 4.7m/s | -56.3°C | 4.5% | 0hPa | 2.7V | 00:00:00 | 01:38:05 | 00:00:00 | |
| IW2NTF | 2026-09-02 12:13:08 | 45.14392 | 9.32977 | 86° | 37km/h | 18753m | 4.4m/s | -56.5°C | 4.7% | 0hPa | 2.7V | 08:30:00 | 01:37:52 | 00:00:00 | |
| DO3MHA-11 | 2026-09-02 12:13:06 | 45.14393 | 9.33016 | 91° | 35km/h | 18767m | 4.5m/s | -56.6°C | 4.7% | 0hPa | 2.6V | 00:00:00 | 01:37:55 | 00:00:00 | |
| IW2NTF | 2026-09-02 12:12:57 | 45.14381 | 9.32858 | 74° | 33km/h | 18707m | 3.4m/s | -56.6°C | 4.5% | 0hPa | 2.6V | 08:30:00 | 01:37:42 | 00:00:00 | |
| DO3MHA-11 | 2026-09-02 12:12:56 | 45.14387 | 9.32893 | 77° | 33km/h | 18721m | 4.2m/s | -56.6°C | 4.5% | 0hPa | 2.7V | 00:00:00 | 01:37:45 | 08:30:00 | |
| NBG1-10 | 2026-09-02 12:12:54 | 45.14383 | 9.32869 | 74° | 38km/h | 18712m | 4.7m/s | -56.5°C | 4.5% | 0hPa | 2.6V | 00:00:00 | 01:37:43 | 00:00:00 | |
| IW2NTF | 2026-09-02 12:12:45 | 45.14363 | 9.32727 | 72° | 38km/h | 18664m | 4m/s | -57°C | 4.7% | 0hPa | 2.6V | 08:30:00 | 01:37:32 | 00:00:00 | |
| DO3MHA-11 | 2026-09-02 12:12:38 | 45.14349 | 9.32670 | 73° | 44km/h | 18644m | 4.8m/s | -57.2°C | 4.8% | 0hPa | 2.6V | 00:00:00 | 01:37:27 | 00:00:00 | |
| IW2NTF | 2026-09-02 12:12:31 | 45.14340 | 9.32559 | 80° | 46km/h | 18612m | 4.2m/s | -57.2°C | 4.8% | 0hPa | 2.6V | 08:30:00 | 01:37:20 | 00:00:00 | |
| DO3MHA-11 | 2026-09-02 12:12:28 | 45.14331 | 9.32517 | 69° | 40km/h | 18598m | 4.5m/s | -57.2°C | 4.7% | 0hPa | 2.6V | 00:00:00 | 01:37:17 | 00:00:00 | |
| NBG1-10 | 2026-09-02 12:12:21 | 45.14305 | 9.32428 | 83° | 33km/h | 18568m | 4.2m/s | -57.5°C | 5.0% | 0hPa | 2.6V | 00:00:00 | 01:37:10 | 08:30:00 | |
| DO3MHA-11 | 2026-09-02 12:12:18 | 45.14302 | 9.32383 | 84° | 33km/h | 18555m | 3.2m/s | -57.5°C | 4.9% | 0hPa | 2.7V | 00:00:00 | 01:37:07 | 00:00:00 | |
| IW2NTF | 2026-09-02 12:12:17 | 45.14288 | 9.32298 | 65° | 37km/h | 18528m | 3.6m/s | -57.5°C | 5% | 0hPa | 2.7V | 08:30:00 | 01:37:01 | 00:00:00 | |
| IW2NTF | 2026-09-02 12:12:05 | 45.14268 | 9.32192 | 84° | 31km/h | 18481m | 4.4m/s | -57.2°C | 4.9% | 0hPa | 2.7V | 08:30:00 | 01:36:51 | 00:00:00 | |
| DO3MHA-11 | 2026-09-02 12:12:01 | 45.14267 | 9.32181 | 82° | 31km/h | 18476m | 5.2m/s | -57.1°C | 4.9% | 0hPa | 2.7V | 00:00:00 | 01:36:50 | 00:00:00 | |
| IW2NTF | 2026-09-02 12:11:55 | 45.14243 | 9.32095 | 61° | 31km/h | 18434m | 5.4m/s | -57°C | 4.8% | 0hPa | 2.7V | 08:30:00 | 01:36:41 | 00:00:00 | |
| NBG1-10 | 2026-09-02 12:11:49 | 45.14232 | 9.32052 | 79° | 31km/h | 18415m | 4.9m/s | -56.8°C | 4.8% | 0hPa | 2.6V | 00:00:00 | 01:36:37 | 00:00:00 | |
| IW2NTF | 2026-09-02 12:11:45 | 45.14220 | 9.31985 | 63° | 31km/h | 18386m | 4.4m/s | -56.5°C | 4.8% | 0hPa | 2.6V | 08:30:00 | 01:36:31 | 00:00:00 | |
| DO3MHA-11 | 2026-09-02 12:11:43 | 45.14223 | 9.31995 | 69° | 33km/h | 18391m | 5.6m/s | -56.5°C | 4.8% | 0hPa | 2.7V | 00:00:00 | 01:36:32 | 00:00:00 | |
| IW2NTF | 2026-09-02 12:11:36 | 45.14191 | 9.31878 | 80° | 29km/h | 18339m | 4m/s | -56.2°C | 4.5% | 0hPa | 2.7V | 08:30:00 | 01:36:21 | 00:00:00 | |
| DO3MHA-11 | 2026-09-02 12:11:33 | 45.14193 | 9.31888 | 81° | 29km/h | 18343m | 4.8m/s | -56.3°C | 4.5% | 0hPa | 2.7V | 00:00:00 | 01:36:22 | 00:00:00 | |
| IW2NTF | 2026-09-02 12:11:25 | 45.14169 | 9.31777 | 65° | 35km/h | 18293m | 5m/s | -56.1°C | 4.6% | 0hPa | 2.7V | 08:30:00 | 01:36:11 | 00:00:00 | |
| DO3MHA-11 | 2026-09-02 12:11:23 | 45.14173 | 9.31789 | 65° | 33km/h | 18298m | 3.5m/s | -56.1°C | 4.6% | 0hPa | 2.7V | 00:00:00 | 01:36:12 | 00:00:00 | |
| IW2NTF | 2026-09-02 12:11:15 | 45.14155 | 9.31667 | 63° | 26km/h | 18248m | 4m/s | -56.3°C | 4.7% | 0hPa | 2.7V | 08:30:00 | 01:36:01 | 00:00:00 | |
| NBG1-10 | 2026-09-02 12:11:15 | 45.14160 | 9.31696 | 88° | 33km/h | 18262m | 3.9m/s | -55.9°C | 4.6% | 0hPa | 2.6V | 00:00:00 | 01:36:04 | 00:00:00 | |
| DO3MHA-11 | 2026-09-02 12:11:13 | 45.14158 | 9.31675 | 73° | 40km/h | 18253m | 4.4m/s | -56.1°C | 4.7% | 0hPa | 2.6V | 00:00:00 | 01:36:02 | 00:00:00 | |
| IW2NTF | 2026-09-02 12:11:05 | 45.14122 | 9.31537 | 95° | 46km/h | 18202m | 5.2m/s | -55.9°C | 4.5% | 0hPa | 2.6V | 08:30:00 | 01:35:51 | 00:00:00 | |
| DO3MHA-11 | 2026-09-02 12:11:03 | 45.14121 | 9.31554 | 92° | 35km/h | 18207m | 3.5m/s | -56.0°C | 4.5% | 0hPa | 2.6V | 00:00:00 | 01:35:52 | 08:30:00 | |
| DO3MHA-11 | 2026-09-02 12:10:50 | 45.14105 | 9.31417 | 81° | 33km/h | 18142m | 3.5m/s | -55.7°C | 4.3% | 0hPa | 2.6V | 00:00:00 | 01:35:39 | 00:00:00 | |
| IW2NTF | 2026-09-02 12:10:45 | 45.14101 | 9.31328 | 82° | 35km/h | 18105m | 4.8m/s | -55.6°C | 4.3% | 0hPa | 2.6V | 08:30:00 | 01:35:31 | 00:00:00 | |
| NBG1-10 | 2026-09-02 12:10:42 | 45.14101 | 9.31328 | 83° | 31km/h | 18105m | 4.7m/s | -55.5°C | 4.3% | 0hPa | 2.6V | 00:00:00 | 01:35:31 | 00:00:00 | |
| DO3MHA-11 | 2026-09-02 12:10:40 | 45.14099 | 9.31303 | 88° | 26km/h | 18095m | 3.7m/s | -55.5°C | 4.3% | 0hPa | 2.6V | 00:00:00 | 01:35:29 | 00:00:00 | |
| IW2NTF | 2026-09-02 12:10:32 | 45.14079 | 9.31171 | 93° | 40km/h | 18038m | 5.1m/s | -56.7°C | 4.8% | 0hPa | 2.6V | 08:30:00 | 01:35:16 | 00:00:00 | |
| DO3MHA-11 | 2026-09-02 12:10:30 | 45.14081 | 9.31208 | 78° | 33km/h | 18053m | 4.4m/s | -56.7°C | 4.7% | 0hPa | 2.7V | 00:00:00 | 01:35:19 | 00:00:00 | |
| IW2NTF | 2026-09-02 12:10:19 | 45.14088 | 9.31059 | 93° | 26km/h | 17993m | 4.7m/s | -56.2°C | 4.7% | 0hPa | 2.7V | 08:30:00 | 01:35:06 | 00:00:00 | |
| IW2NTF | 2026-09-02 12:10:12 | 45.14096 | 9.30943 | 103° | 33km/h | 17948m | 3.8m/s | -56°C | 4.6% | 0hPa | 2.6V | 08:30:00 | 01:34:56 | 00:00:00 | |
| NBG1-10 | 2026-09-02 12:10:09 | 45.14093 | 9.30966 | 97° | 33km/h | 17957m | 4.5m/s | -55.9°C | 4.6% | 0hPa | 2.6V | 00:00:00 | 01:34:58 | 00:00:00 | |
| DO3MHA-11 | 2026-09-02 12:10:08 | 45.14094 | 9.30954 | 102° | 35km/h | 17952m | 4.8m/s | -55.9°C | 4.6% | 0hPa | 2.6V | 00:00:00 | 01:34:57 | 00:00:00 | |
| IW2NTF | 2026-09-02 12:10:03 | 45.14107 | 9.30820 | 97° | 35km/h | 17902m | 5m/s | -55.8°C | 4.6% | 0hPa | 2.6V | 08:30:00 | 01:34:46 | 00:00:00 | |
| DO3MHA-11 | 2026-09-02 12:09:52 | 45.14116 | 9.30758 | 100° | 33km/h | 17878m | 4.0m/s | -55.5°C | 4.5% | 0hPa | 2.7V | 00:00:00 | 01:34:41 | 00:00:00 | |
| IW2NTF | 2026-09-02 12:09:48 | 45.14123 | 9.30697 | 97° | 33km/h | 17855m | 5m/s | -55.5°C | 4.5% | 0hPa | 2.7V | 08:30:00 | 01:34:36 | 00:00:00 | |
| DO3MHA-11 | 2026-09-02 12:09:41 | 45.14131 | 9.30635 | 96° | 35km/h | 17831m | 4.2m/s | -55.3°C | 4.3% | 0hPa | 2.7V | 00:00:00 | 01:34:30 | 00:00:00 | |
| IW2NTF | 2026-09-02 12:09:40 | 45.14134 | 9.30591 | 101° | 38km/h | 17814m | 4.5m/s | -55.3°C | 4.4% | 0hPa | 2.6V | 08:30:00 | 01:34:26 | 00:00:00 | |
| NBG1-10 | 2026-09-02 12:09:36 | 45.14136 | 9.30577 | 107° | 35km/h | 17810m | 4.7m/s | -55.3°C | 4.4% | 0hPa | 2.6V | 00:00:00 | 01:34:25 | 00:00:00 | |
| DO3MHA-11 | 2026-09-02 12:09:31 | 45.14148 | 9.30514 | 101° | 31km/h | 17788m | 4.4m/s | -55.1°C | 4.3% | 0hPa | 2.6V | 00:00:00 | 01:34:20 | 00:00:00 | |
| IW2NTF | 2026-09-02 12:09:28 | 45.14156 | 9.30472 | 106° | 29km/h | 17769m | 5.4m/s | -55.3°C | 4.5% | 0hPa | 2.6V | 08:30:00 | 01:34:16 | 00:00:00 | |
| IW2NTF | 2026-09-02 12:09:21 | 45.14186 | 9.30363 | 119° | 35km/h | 17720m | 4.4m/s | -55.3°C | 4.3% | 0hPa | 2.6V | 08:30:00 | 01:34:06 | 00:00:00 | |
| DO3MHA-11 | 2026-09-02 12:09:21 | 45.14172 | 9.30408 | 109° | 35km/h | 17739m | 4.9m/s | -55.2°C | 4.4% | 0hPa | 2.7V | 00:00:00 | 01:34:10 | 00:00:00 | |
| DO3MHA-11 | 2026-09-02 12:09:11 | 45.14213 | 9.30297 | 123° | 38km/h | 17693m | 3.7m/s | -55.3°C | 4.3% | 0hPa | 2.7V | 00:00:00 | 01:34:00 | 08:30:00 | |
| IW2NTF | 2026-09-02 12:09:08 | 45.14230 | 9.30246 | 110° | 40km/h | 17674m | 5.1m/s | -55.4°C | 4.4% | 0hPa | 2.7V | 08:30:00 | 01:33:56 | 00:00:00 | |
| NBG1-10 | 2026-09-02 12:09:03 | 45.14241 | 9.30190 | 106° | 44km/h | 17655m | 4.1m/s | -55.6°C | 4.5% | 0hPa | 2.6V | 00:00:00 | 01:33:52 | 00:00:00 | |
| IW2NTF | 2026-09-02 12:09:01 | 45.14274 | 9.30096 | 118° | 40km/h | 17618m | 5m/s | -55.9°C | 4.5% | 0hPa | 2.6V | 08:30:00 | 01:33:44 | 00:00:00 | |
| DO3MHA-11 | 2026-09-02 12:08:50 | 45.14295 | 9.30026 | 112° | 40km/h | 17594m | 4.8m/s | -55.9°C | 4.5% | 0hPa | 2.7V | 00:00:00 | 01:33:39 | 00:00:00 | |
| IW2NTF | 2026-09-02 12:08:49 | 45.14318 | 9.29933 | 109° | 38km/h | 17562m | 3.9m/s | -56.3°C | 4.6% | 0hPa | 2.7V | 08:30:00 | 01:33:32 | 00:00:00 | |
| DO3MHA-11 | 2026-09-02 12:08:40 | 45.14327 | 9.29889 | 103° | 51km/h | 17549m | 3.8m/s | -56.3°C | 4.6% | 0hPa | 2.6V | 00:00:00 | 01:33:29 | 00:00:00 | |
| IW2NTF | 2026-09-02 12:08:34 | 45.14350 | 9.29764 | 106° | 57km/h | 17516m | 4.8m/s | -56.7°C | 4.5% | 0hPa | 2.7V | 08:30:00 | 01:33:22 | 00:00:00 | |
| DO3MHA-11 | 2026-09-02 12:08:30 | 45.14360 | 9.29711 | 103° | 44km/h | 17503m | 5.3m/s | -56.7°C | 4.6% | 0hPa | 2.7V | 00:00:00 | 01:33:19 | 00:00:00 | |
| IW2NTF | 2026-09-02 12:08:28 | 45.14368 | 9.29606 | 98° | 49km/h | 17473m | 4.3m/s | -57.1°C | 4.9% | 0hPa | 2.7V | 08:30:00 | 01:33:12 | 00:00:00 | |
| IW2NTF | 2026-09-02 12:08:14 | 45.14383 | 9.29461 | 94° | 35km/h | 17428m | 3.2m/s | -57.6°C | 4.9% | 0hPa | 2.6V | 08:30:00 | 01:33:02 | 00:00:00 | |
| DO3MHA-11 | 2026-09-02 12:08:10 | 45.14387 | 9.29416 | 98° | 49km/h | 17414m | 4.6m/s | -57.6°C | 5.0% | 0hPa | 2.7V | 00:00:00 | 01:32:59 | 00:00:00 | |
| IW2NTF | 2026-09-02 12:08:09 | 45.14401 | 9.29292 | 91° | 44km/h | 17385m | 3.5m/s | -57.4°C | 5.1% | 0hPa | 2.6V | 08:30:00 | 01:32:52 | 00:00:00 | |
| DO3MHA-11 | 2026-09-02 12:08:00 | 45.14402 | 9.29246 | 93° | 46km/h | 17372m | 4.1m/s | -57.2°C | 5.0% | 0hPa | 2.6V | 00:00:00 | 01:32:49 | 00:00:00 | |
| NBG1-10 | 2026-09-02 12:07:57 | 45.14404 | 9.29196 | 93° | 47km/h | 17358m | 3.5m/s | 0°C | 0% | 0hPa | 2.6V | 00:00:00 | 01:32:46 | 00:00:00 | |
| IW2NTF | 2026-09-02 12:07:55 | 45.14407 | 9.29128 | 92° | 44km/h | 17341m | 4.3m/s | -57.1°C | 4.8% | 0hPa | 2.6V | 08:30:00 | 01:32:42 | 00:00:00 | |
| DO3MHA-11 | 2026-09-02 12:07:50 | 45.14408 | 9.29081 | 93° | 46km/h | 17329m | 3.5m/s | -57.1°C | 4.8% | 0hPa | 2.6V | 00:00:00 | 01:32:39 | 00:00:00 | |
| IW2NTF | 2026-09-02 12:07:49 | 45.14420 | 9.28970 | 93° | 47km/h | 17300m | 3.6m/s | -57.1°C | 4.9% | 0hPa | 2.6V | 08:30:00 | 01:32:32 | 00:00:00 | |
| DO3MHA-11 | 2026-09-02 12:07:40 | 45.14421 | 9.28923 | 93° | 46km/h | 17287m | 4.1m/s | -57.5°C | 5.0% | 0hPa | 2.7V | 00:00:00 | 01:32:29 | 08:30:00 | |
| IW2NTF | 2026-09-02 12:07:36 | 45.14435 | 9.28815 | 111° | 47km/h | 17255m | 4m/s | -57.6°C | 5.1% | 0hPa | 2.7V | 08:30:00 | 01:32:22 | 00:00:00 | |
| DO3MHA-11 | 2026-09-02 12:07:30 | 45.14448 | 9.28763 | 108° | 53km/h | 17243m | 3.8m/s | -57.6°C | 5.1% | 0hPa | 2.6V | 00:00:00 | 01:32:19 | 00:00:00 | |
| IW2NTF | 2026-09-02 12:07:28 | 45.14473 | 9.28636 | 105° | 51km/h | 17213m | 4.9m/s | -57.5°C | 5.1% | 0hPa | 2.6V | 08:30:00 | 01:32:12 | 00:00:00 | |
| NBG1-10 | 2026-09-02 12:07:24 | 45.14470 | 9.28653 | 103° | 49km/h | 17217m | 3.2m/s | 0°C | 0% | 0hPa | 2.6V | 00:00:00 | 01:32:13 | 00:00:00 | |
| DO3MHA-11 | 2026-09-02 12:07:20 | 45.14485 | 9.28586 | 108° | 47km/h | 17200m | 4.5m/s | -57.4°C | 5.1% | 0hPa | 2.6V | 00:00:00 | 01:32:09 | 00:00:00 | |
| IW2NTF | 2026-09-02 12:07:16 | 45.14501 | 9.28456 | 90° | 46km/h | 17165m | 4.2m/s | -57.1°C | 4.9% | 0hPa | 2.6V | 08:30:00 | 01:32:01 | 00:00:00 | |
| DO3MHA-11 | 2026-09-02 12:07:10 | 45.14501 | 9.28423 | 93° | 44km/h | 17157m | 4.5m/s | -57.2°C | 4.9% | 0hPa | 2.6V | 00:00:00 | 01:31:59 | 00:00:00 | |
| IW2NTF | 2026-09-02 12:07:07 | 45.14512 | 9.28299 | 93° | 44km/h | 17123m | 4.7m/s | -57.4°C | 5.1% | 0hPa | 2.7V | 08:30:00 | 01:31:51 | 00:00:00 | |
| DO3MHA-11 | 2026-09-02 12:07:00 | 45.14513 | 9.28267 | 91° | 46km/h | 17115m | 4.8m/s | -57.3°C | 5.1% | 0hPa | 2.7V | 00:00:00 | 01:31:49 | 00:00:00 | |
| IW2NTF | 2026-09-02 12:06:57 | 45.14512 | 9.28135 | 90° | 44km/h | 17079m | 3.8m/s | -57.6°C | 5.1% | 0hPa | 2.7V | 08:30:00 | 01:31:41 | 00:00:00 | |
| DO3MHA-11 | 2026-09-02 12:06:50 | 45.14514 | 9.28104 | 96° | 46km/h | 17070m | 4.0m/s | -57.6°C | 5.0% | 0hPa | 2.6V | 00:00:00 | 01:31:39 | 00:00:00 | |
| IW2NTF | 2026-09-02 12:06:44 | 45.14522 | 9.27944 | 97° | 44km/h | 17025m | 3.6m/s | -58.2°C | 5.3% | 0hPa | 2.6V | 08:30:00 | 01:31:29 | 00:00:00 | |
| DO3MHA-11 | 2026-09-02 12:06:39 | 45.14523 | 9.27928 | 96° | 46km/h | 17022m | 3.9m/s | -58.2°C | 5.4% | 0hPa | 2.6V | 00:00:00 | 01:31:28 | 00:00:00 | |
| IW2NTF | 2026-09-02 12:06:34 | 45.14528 | 9.27785 | 90° | 49km/h | 16984m | 4.3m/s | -58.2°C | 5.3% | 0hPa | 2.6V | 08:30:00 | 01:31:19 | 00:00:00 | |
| DO3MHA-11 | 2026-09-02 12:06:29 | 45.14528 | 9.27767 | 91° | 44km/h | 16979m | 5.0m/s | -58.1°C | 5.3% | 0hPa | 2.6V | 00:00:00 | 01:31:18 | 00:00:00 | |
| IW2NTF | 2026-09-02 12:06:24 | 45.14528 | 9.27628 | 97° | 40km/h | 16941m | 4.6m/s | -57.8°C | 5.3% | 0hPa | 2.6V | 08:30:00 | 01:31:09 | 00:00:00 | |
| DO3MHA-11 | 2026-09-02 12:06:19 | 45.14529 | 9.27614 | 97° | 37km/h | 16937m | 5.0m/s | -57.8°C | 5.3% | 0hPa | 2.7V | 00:00:00 | 01:31:08 | 00:00:00 | |
| IW2NTF | 2026-09-02 12:06:15 | 45.14538 | 9.27498 | 87° | 40km/h | 16898m | 3.5m/s | -57.8°C | 5.2% | 0hPa | 2.7V | 08:30:00 | 01:30:59 | 00:00:00 | |
| DO3MHA-11 | 2026-09-02 12:06:09 | 45.14538 | 9.27483 | 90° | 37km/h | 16894m | 4.9m/s | -57.8°C | 5.2% | 0hPa | 2.6V | 00:00:00 | 01:30:58 | 08:30:00 | |
| IW2NTF | 2026-09-02 12:06:05 | 45.14550 | 9.27371 | 110° | 29km/h | 16855m | 4.2m/s | -57.6°C | 5.3% | 0hPa | 2.7V | 08:30:00 | 01:30:49 | 00:00:00 | |
| DO3MHA-11 | 2026-09-02 12:05:59 | 45.14553 | 9.27361 | 113° | 37km/h | 16851m | 3.8m/s | -57.5°C | 5.3% | 0hPa | 2.6V | 00:00:00 | 01:30:48 | 00:00:00 | |
| IW2NTF | 2026-09-02 12:05:56 | 45.14578 | 9.27248 | 105° | 33km/h | 16811m | 4m/s | -57.2°C | 5.1% | 0hPa | 2.6V | 08:30:00 | 01:30:39 | 00:00:00 | |
| DO3MHA-11 | 2026-09-02 12:05:49 | 45.14580 | 9.27237 | 110° | 37km/h | 16807m | 4.9m/s | -57.2°C | 5.0% | 0hPa | 2.7V | 00:00:00 | 01:30:38 | 00:00:00 | |
| IW2NTF | 2026-09-02 12:05:46 | 45.14605 | 9.27135 | 111° | 40km/h | 16768m | 4.6m/s | -57.4°C | 5.2% | 0hPa | 2.7V | 08:30:00 | 01:30:29 | 00:00:00 | |
| DO3MHA-11 | 2026-09-02 12:05:37 | 45.14616 | 9.27096 | 112° | 35km/h | 16755m | 3.6m/s | -57.2°C | 5.1% | 0hPa | 2.7V | 00:00:00 | 01:30:26 | 00:00:00 | |
| IW2NTF | 2026-09-02 12:05:33 | 45.14642 | 9.27010 | 112° | 38km/h | 16723m | 4.5m/s | -57.1°C | 4.9% | 0hPa | 2.7V | 08:30:00 | 01:30:19 | 00:00:00 | |
| IW2NTF | 2026-09-02 12:05:25 | 45.14671 | 9.26896 | 112° | 35km/h | 16681m | 4.5m/s | -56.9°C | 5% | 0hPa | 2.7V | 08:30:00 | 01:30:09 | 00:00:00 | |
| DO3MHA-11 | 2026-09-02 12:05:23 | 45.14661 | 9.26927 | 116° | 35km/h | 16694m | 3.5m/s | -56.9°C | 5.0% | 0hPa | 2.6V | 00:00:00 | 01:30:12 | 00:00:00 | |
| IW2NTF | 2026-09-02 12:05:13 | 45.14714 | 9.26784 | 123° | 35km/h | 16640m | 4.5m/s | -57.1°C | 5% | 0hPa | 2.6V | 08:30:00 | 01:29:59 | 00:00:00 | |
| IW2NTF | 2026-09-02 12:05:05 | 45.14764 | 9.26677 | 125° | 40km/h | 16598m | 4.2m/s | -57°C | 5% | 0hPa | 2.7V | 08:30:00 | 01:29:49 | 00:00:00 | |
| DO3MHA-11 | 2026-09-02 12:05:03 | 45.14746 | 9.26710 | 128° | 46km/h | 16611m | 3.5m/s | -57.0°C | 5.0% | 0hPa | 2.6V | 00:00:00 | 01:29:52 | 00:00:00 | |
| IW2NTF | 2026-09-02 12:04:55 | 45.14826 | 9.26532 | 122° | 42km/h | 16555m | 4.8m/s | -56.8°C | 4.8% | 0hPa | 2.7V | 08:30:00 | 01:29:39 | 00:00:00 | |
| DO3MHA-11 | 2026-09-02 12:04:53 | 45.14809 | 9.26575 | 118° | 46km/h | 16568m | 3.6m/s | -56.9°C | 4.9% | 0hPa | 2.6V | 00:00:00 | 01:29:42 | 00:00:00 | |
| IW2NTF | 2026-09-02 12:04:45 | 45.14895 | 9.26391 | 118° | 53km/h | 16512m | 3.8m/s | -56.8°C | 5% | 0hPa | 2.6V | 08:30:00 | 01:29:29 | 00:00:00 | |
| DO3MHA-11 | 2026-09-02 12:04:43 | 45.14873 | 9.26440 | 126° | 51km/h | 16525m | 4.2m/s | -56.7°C | 4.9% | 0hPa | 2.7V | 00:00:00 | 01:29:32 | 00:00:00 | |
| IW2NTF | 2026-09-02 12:04:35 | 45.14955 | 9.26234 | 124° | 49km/h | 16470m | 4.3m/s | -57°C | 4.9% | 0hPa | 2.7V | 08:30:00 | 01:29:19 | 00:00:00 | |
| IW2NTF | 2026-09-02 12:04:24 | 45.15012 | 9.26079 | 116° | 51km/h | 16427m | 4.4m/s | -57°C | 5% | 0hPa | 2.7V | 08:30:00 | 01:29:09 | 00:00:00 | |
| IW2NTF | 2026-09-02 12:04:14 | 45.15064 | 9.25910 | 110° | 51km/h | 16385m | 4.3m/s | -56.9°C | 5% | 0hPa | 2.6V | 08:30:00 | 01:28:59 | 00:00:00 | |
| IW2NTF | 2026-09-02 12:04:05 | 45.15112 | 9.25736 | 106° | 55km/h | 16342m | 4.1m/s | -56.7°C | 5% | 0hPa | 2.7V | 08:30:00 | 01:28:49 | 00:00:00 | |
| DO3MHA-11 | 2026-09-02 12:04:02 | 45.15103 | 9.25773 | 113° | 51km/h | 16351m | 4.5m/s | -56.7°C | 5.1% | 0hPa | 2.7V | 00:00:00 | 01:28:51 | 08:30:00 | |
| DO3MHA-11 | 2026-09-02 12:03:51 | 45.15138 | 9.25584 | 104° | 53km/h | 16304m | 3.8m/s | -56.4°C | 4.9% | 0hPa | 2.6V | 00:00:00 | 01:28:40 | 00:00:00 | |
| IW2NTF | 2026-09-02 12:03:49 | 45.15146 | 9.25529 | 100° | 57km/h | 16291m | 3.9m/s | -56.4°C | 4.9% | 0hPa | 2.6V | 08:30:00 | 01:28:37 | 00:00:00 | |
| IW2NTF | 2026-09-02 12:03:43 | 45.15167 | 9.25340 | 97° | 49km/h | 16249m | 4.2m/s | -56.3°C | 4.8% | 0hPa | 2.7V | 08:30:00 | 01:28:27 | 00:00:00 | |
| DO3MHA-11 | 2026-09-02 12:03:41 | 45.15161 | 9.25393 | 101° | 53km/h | 16262m | 4.0m/s | -56.3°C | 4.9% | 0hPa | 2.7V | 00:00:00 | 01:28:30 | 00:00:00 | |
| IW2NTF | 2026-09-02 12:03:33 | 45.15186 | 9.25131 | 96° | 51km/h | 16200m | 4.4m/s | -56.8°C | 4.9% | 0hPa | 2.7V | 08:30:00 | 01:28:16 | 00:00:00 | |
| DO3MHA-11 | 2026-09-02 12:03:31 | 45.15180 | 9.25208 | 99° | 53km/h | 16217m | 3.9m/s | -56.5°C | 4.9% | 0hPa | 2.6V | 00:00:00 | 01:28:20 | 00:00:00 | |
| IW2NTF | 2026-09-02 12:03:23 | 45.15197 | 9.24938 | 93° | 62km/h | 16156m | 4.9m/s | -57.4°C | 5.2% | 0hPa | 2.7V | 08:30:00 | 01:28:06 | 00:00:00 | |
| IW2NTF | 2026-09-02 12:03:11 | 45.15212 | 9.24720 | 97° | 66km/h | 16111m | 4.9m/s | -57.4°C | 5.2% | 0hPa | 2.6V | 08:30:00 | 01:27:56 | 00:00:00 | |
| DO3MHA-11 | 2026-09-02 12:03:11 | 45.15206 | 9.24810 | 97° | 62km/h | 16129m | 4.8m/s | -57.4°C | 5.2% | 0hPa | 2.6V | 00:00:00 | 01:28:00 | 00:00:00 | |
| IW2NTF | 2026-09-02 12:03:02 | 45.15236 | 9.24508 | 99° | 55km/h | 16065m | 4.6m/s | -57.1°C | 5.1% | 0hPa | 2.6V | 08:30:00 | 01:27:46 | 00:00:00 | |
| DO3MHA-11 | 2026-09-02 12:03:01 | 45.15225 | 9.24588 | 99° | 57km/h | 16084m | 4.9m/s | -57.1°C | 5.1% | 0hPa | 2.6V | 00:00:00 | 01:27:50 | 00:00:00 | |
| DO3MHA-11 | 2026-09-02 12:02:51 | 45.15252 | 9.24386 | 100° | 55km/h | 16039m | 4.0m/s | -57.5°C | 5.3% | 0hPa | 2.7V | 00:00:00 | 01:27:40 | 00:00:00 | |
| IW2NTF | 2026-09-02 12:02:46 | 45.15281 | 9.24197 | 103° | 55km/h | 15994m | 4.1m/s | -57.5°C | 5.3% | 0hPa | 2.7V | 08:30:00 | 01:27:30 | 00:00:00 | |
| DO3MHA-11 | 2026-09-02 12:02:41 | 45.15281 | 9.24197 | 104° | 53km/h | 15994m | 4.1m/s | -57.4°C | 5.3% | 0hPa | 2.7V | 00:00:00 | 01:27:30 | 00:00:00 | |
| IW2NTF | 2026-09-02 12:02:36 | 45.15302 | 9.24011 | 102° | 49km/h | 15947m | 3.6m/s | -57.1°C | 5.3% | 0hPa | 2.7V | 08:30:00 | 01:27:20 | 00:00:00 | |
| DO3MHA-11 | 2026-09-02 12:02:30 | 45.15305 | 9.23994 | 102° | 51km/h | 15943m | 4.1m/s | -57.1°C | 5.3% | 0hPa | 2.7V | 00:00:00 | 01:27:19 | 08:30:00 | |
| IW2NTF | 2026-09-02 12:02:26 | 45.15323 | 9.23833 | 93° | 51km/h | 15907m | 4m/s | -56.9°C | 5.1% | 0hPa | 2.7V | 08:30:00 | 01:27:10 | 00:00:00 | |
| DO3MHA-11 | 2026-09-02 12:02:21 | 45.15324 | 9.23815 | 96° | 49km/h | 15903m | 4.4m/s | -56.9°C | 5.1% | 0hPa | 2.6V | 00:00:00 | 01:27:09 | 00:00:00 | |
| IW2NTF | 2026-09-02 12:02:16 | 45.15346 | 9.23661 | 105° | 46km/h | 15865m | 5.4m/s | -56.9°C | 5.1% | 0hPa | 2.6V | 08:30:00 | 01:27:00 | 00:00:00 | |
| DO3MHA-11 | 2026-09-02 12:02:10 | 45.15349 | 9.23646 | 105° | 46km/h | 15860m | 3.8m/s | -56.8°C | 5.1% | 0hPa | 2.6V | 00:00:00 | 01:26:59 | 00:00:00 | |
| IW2NTF | 2026-09-02 12:02:06 | 45.15384 | 9.23487 | 112° | 49km/h | 15816m | 4m/s | -56.8°C | 5.1% | 0hPa | 2.6V | 08:30:00 | 01:26:49 | 00:00:00 | |
| DO3MHA-11 | 2026-09-02 12:02:00 | 45.15384 | 9.23487 | 113° | 49km/h | 15816m | 3.9m/s | -56.8°C | 5.1% | 0hPa | 2.6V | 00:00:00 | 01:26:49 | 00:00:00 | |
| IW2NTF | 2026-09-02 12:01:56 | 45.15435 | 9.23326 | 106° | 49km/h | 15775m | 4.4m/s | -56.9°C | 5.2% | 0hPa | 2.6V | 08:30:00 | 01:26:39 | 00:00:00 | |
| DO3MHA-11 | 2026-09-02 12:01:50 | 45.15436 | 9.23326 | 107° | 51km/h | 15776m | 4.3m/s | -56.8°C | 5.2% | 0hPa | 2.6V | 00:00:00 | 01:26:39 | 00:00:00 | |
| IW2NTF | 2026-09-02 12:01:46 | 45.15483 | 9.23154 | 113° | 53km/h | 15733m | 4.6m/s | -56.8°C | 5.1% | 0hPa | 2.6V | 08:30:00 | 01:26:29 | 00:00:00 | |
| DO3MHA-11 | 2026-09-02 12:01:40 | 45.15483 | 9.23154 | 114° | 53km/h | 15733m | 4.6m/s | -56.7°C | 5.1% | 0hPa | 2.6V | 00:00:00 | 01:26:29 | 00:00:00 | |
| IW2NTF | 2026-09-02 12:01:34 | 45.15519 | 9.22971 | 104° | 53km/h | 15691m | 3.9m/s | -56.7°C | 5.1% | 0hPa | 2.6V | 08:30:00 | 01:26:19 | 00:00:00 | |
| DO3MHA-11 | 2026-09-02 12:01:30 | 45.15519 | 9.22971 | 105° | 55km/h | 15691m | 3.9m/s | -56.6°C | 5.1% | 0hPa | 2.6V | 00:00:00 | 01:26:19 | 00:00:00 | |
| IW2NTF | 2026-09-02 12:01:25 | 45.15548 | 9.22780 | 98° | 53km/h | 15651m | 4.6m/s | -56.6°C | 5.1% | 0hPa | 2.6V | 08:30:00 | 01:26:09 | 00:00:00 | |
| DO3MHA-11 | 2026-09-02 12:01:20 | 45.15549 | 9.22780 | 99° | 57km/h | 15651m | 4.6m/s | -56.6°C | 5.1% | 0hPa | 2.7V | 00:00:00 | 01:26:09 | 00:00:00 | |
| IW2NTF | 2026-09-02 12:01:15 | 45.15565 | 9.22576 | 96° | 60km/h | 15611m | 4.2m/s | -56.7°C | 5.1% | 0hPa | 2.7V | 08:30:00 | 01:25:59 | 00:00:00 | |
| DO3MHA-11 | 2026-09-02 12:01:10 | 45.15565 | 9.22576 | 97° | 55km/h | 15611m | 4.2m/s | -56.7°C | 5.1% | 0hPa | 2.7V | 00:00:00 | 01:25:59 | 00:00:00 | |
| IW2NTF | 2026-09-02 12:01:05 | 45.15576 | 9.22382 | 92° | 49km/h | 15572m | 4.2m/s | -56.5°C | 5.2% | 0hPa | 2.7V | 08:30:00 | 01:25:49 | 00:00:00 | |
| DO3MHA-11 | 2026-09-02 12:01:00 | 45.15576 | 9.22382 | 93° | 51km/h | 15572m | 4.1m/s | -56.4°C | 5.2% | 0hPa | 2.7V | 00:00:00 | 01:25:49 | 08:30:00 | |
| IW2NTF | 2026-09-02 12:00:55 | 45.15588 | 9.22202 | 97° | 49km/h | 15532m | 4.6m/s | -56.2°C | 5% | 0hPa | 2.7V | 08:30:00 | 01:25:39 | 00:00:00 | |
| DO3MHA-11 | 2026-09-02 12:00:50 | 45.15588 | 9.22201 | 98° | 51km/h | 15532m | 4.5m/s | 0°C | 0% | 0hPa | 2.8V | 00:00:00 | 01:25:39 | 00:00:00 | |
| IW2NTF | 2026-09-02 12:00:43 | 45.15596 | 9.22017 | 101° | 49km/h | 15491m | 4.3m/s | -55.8°C | 4.9% | 0hPa | 2.8V | 08:30:00 | 01:25:29 | 00:00:00 | |
| DO3MHA-11 | 2026-09-02 12:00:40 | 45.15596 | 9.22017 | 102° | 47km/h | 15491m | 4.2m/s | -55.7°C | 4.9% | 0hPa | 2.7V | 00:00:00 | 01:25:29 | 00:00:00 | |
| IW2NTF | 2026-09-02 12:00:30 | 45.15612 | 9.21813 | 96° | 55km/h | 15442m | 3.4m/s | -55.5°C | 4.9% | 0hPa | 2.7V | 08:30:00 | 01:25:17 | 00:00:00 | |
| DO3MHA-11 | 2026-09-02 12:00:30 | 45.15610 | 9.21851 | 92° | 49km/h | 15450m | 4.3m/s | -55.5°C | 4.8% | 0hPa | 2.6V | 00:00:00 | 01:25:19 | 00:00:00 | |
| IW2NTF | 2026-09-02 12:00:24 | 45.15634 | 9.21651 | 98° | 38km/h | 15402m | 3.2m/s | -55.3°C | 4.8% | 0hPa | 2.7V | 08:30:00 | 01:25:07 | 00:00:00 | |
| DO3MHA-11 | 2026-09-02 12:00:20 | 45.15630 | 9.21677 | 105° | 46km/h | 15410m | 4.0m/s | -55.3°C | 4.8% | 0hPa | 2.8V | 00:00:00 | 01:25:09 | 00:00:00 | |
| IW2NTF | 2026-09-02 12:00:09 | 45.15662 | 9.21491 | 107° | 42km/h | 15362m | 3.9m/s | -55°C | 4.6% | 0hPa | 2.8V | 08:30:00 | 01:24:57 | 00:00:00 | |
| IW2NTF | 2026-09-02 12:00:04 | 45.15700 | 9.21351 | 111° | 49km/h | 15320m | 4.7m/s | -55.2°C | 4.8% | 0hPa | 2.7V | 08:30:00 | 01:24:47 | 00:00:00 | |
| DO3MHA-11 | 2026-09-02 12:00:00 | 45.15690 | 9.21382 | 115° | 49km/h | 15329m | 4.2m/s | -54.8°C | 4.7% | 0hPa | 2.6V | 00:00:00 | 01:24:49 | 00:00:00 | |
| IW2NTF | 2026-09-02 11:59:50 | 45.15741 | 9.21198 | 127° | 35km/h | 15276m | 4.3m/s | -55.2°C | 4.8% | 0hPa | 2.6V | 08:30:00 | 01:24:37 | 00:00:00 | |
| DB0UT-7 | 2026-09-02 11:59:49 | 45.15736 | 9.21208 | 119° | 37km/h | 15281m | 5.0m/s | 0°C | 0% | 0hPa | 2.7V | 00:00:00 | 01:24:38 | 00:00:00 | |
| IW2NTF | 2026-09-02 11:59:43 | 45.15800 | 9.21047 | 133° | 60km/h | 15225m | 5.2m/s | -55.2°C | 4.7% | 0hPa | 2.7V | 08:30:00 | 01:24:27 | 00:00:00 | |
| DO3MHA-11 | 2026-09-02 11:59:40 | 45.15784 | 9.21080 | 116° | 57km/h | 15235m | 4.3m/s | -55.2°C | 4.8% | 0hPa | 2.8V | 00:00:00 | 01:24:29 | 00:00:00 | |
| IW2NTF | 2026-09-02 11:59:30 | 45.15898 | 9.20897 | 118° | 68km/h | 15180m | 4.5m/s | -55.1°C | 4.7% | 0hPa | 2.8V | 08:30:00 | 01:24:17 | 00:00:00 | |
| IW2NTF | 2026-09-02 11:59:23 | 45.16003 | 9.20713 | 127° | 68km/h | 15133m | 4.6m/s | -55.7°C | 4.8% | 0hPa | 2.8V | 08:30:00 | 01:24:07 | 00:00:00 | |
| DO3MHA-11 | 2026-09-02 11:59:20 | 45.15981 | 9.20749 | 134° | 69km/h | 15142m | 4.6m/s | -55.5°C | 4.8% | 0hPa | 2.8V | 00:00:00 | 01:24:09 | 00:00:00 | |
| IW2NTF | 2026-09-02 11:59:10 | 45.16108 | 9.20500 | 121° | 86km/h | 15085m | 5.3m/s | -55.9°C | 5% | 0hPa | 2.8V | 08:30:00 | 01:23:57 | 00:00:00 | |
| IW2NTF | 2026-09-02 11:59:03 | 45.16211 | 9.20253 | 119° | 78km/h | 15042m | 4.4m/s | -56°C | 5.1% | 0hPa | 2.6V | 08:30:00 | 01:23:47 | 00:00:00 | |
| DO3MHA-11 | 2026-09-02 11:59:00 | 45.16191 | 9.20300 | 123° | 80km/h | 15051m | 3.5m/s | -55.9°C | 5.1% | 0hPa | 2.6V | 00:00:00 | 01:23:49 | 00:00:00 | |
| IW2NTF | 2026-09-02 11:58:49 | 45.16312 | 9.20000 | 119° | 77km/h | 15002m | 4.8m/s | -56.1°C | 5.1% | 0hPa | 2.8V | 08:30:00 | 01:23:37 | 00:00:00 | |
| IW2NTF | 2026-09-02 11:58:43 | 45.16399 | 9.19765 | 117° | 75km/h | 14959m | 4.2m/s | -55.9°C | 5.1% | 0hPa | 2.6V | 08:30:00 | 01:23:27 | 00:00:00 | |
| DO3MHA-11 | 2026-09-02 11:58:40 | 45.16382 | 9.19813 | 118° | 71km/h | 14967m | 5.0m/s | -55.9°C | 5.1% | 0hPa | 2.8V | 00:00:00 | 01:23:29 | 00:00:00 | |
| IW2NTF | 2026-09-02 11:58:32 | 45.16492 | 9.19501 | 115° | 73km/h | 14907m | 3.8m/s | -55.7°C | 5% | 0hPa | 2.8V | 08:30:00 | 01:23:15 | 00:00:00 | |
| DO3MHA-11 | 2026-09-02 11:58:30 | 45.16460 | 9.19590 | 116° | 71km/h | 14923m | 4.2m/s | -55.7°C | 5.0% | 0hPa | 2.7V | 00:00:00 | 01:23:19 | 00:00:00 | |
| IW2NTF | 2026-09-02 11:58:21 | 45.16579 | 9.19273 | 116° | 68km/h | 14864m | 4.9m/s | -55.5°C | 5% | 0hPa | 2.6V | 08:30:00 | 01:23:05 | 00:00:00 | |
| DO3MHA-11 | 2026-09-02 11:58:20 | 45.16545 | 9.19362 | 119° | 68km/h | 14882m | 3.7m/s | -55.5°C | 5.0% | 0hPa | 2.6V | 00:00:00 | 01:23:09 | 00:00:00 | |
| IW2NTF | 2026-09-02 11:58:11 | 45.16653 | 9.19049 | 114° | 73km/h | 14820m | 4.5m/s | -55.4°C | 4.9% | 0hPa | 2.6V | 08:30:00 | 01:22:55 | 00:00:00 | |
| DO3MHA-11 | 2026-09-02 11:58:10 | 45.16624 | 9.19145 | 115° | 73km/h | 14838m | 4.4m/s | -55.4°C | 4.9% | 0hPa | 2.6V | 00:00:00 | 01:22:59 | 00:00:00 | |
| IW2NTF | 2026-09-02 11:58:01 | 45.16719 | 9.18812 | 106° | 69km/h | 14777m | 4m/s | -55.4°C | 5.1% | 0hPa | 2.6V | 08:30:00 | 01:22:45 | 00:00:00 | |
| DO3MHA-11 | 2026-09-02 11:58:00 | 45.16697 | 9.18905 | 112° | 69km/h | 14793m | 4.0m/s | -55.2°C | 5.0% | 0hPa | 2.6V | 00:00:00 | 01:22:49 | 08:30:00 | |
| DO3MHA-11 | 2026-09-02 11:57:50 | 45.16754 | 9.18667 | 109° | 73km/h | 14752m | 4.1m/s | -55.2°C | 5.0% | 0hPa | 2.6V | 00:00:00 | 01:22:39 | 00:00:00 | |
| IW2NTF | 2026-09-02 11:57:44 | 45.16791 | 9.18492 | 103° | 71km/h | 14721m | 3.9m/s | -55°C | 4.8% | 0hPa | 2.6V | 08:30:00 | 01:22:32 | 00:00:00 | |
| DO3MHA-11 | 2026-09-02 11:57:40 | 45.16805 | 9.18418 | 107° | 71km/h | 14707m | 3.9m/s | -54.8°C | 4.8% | 0hPa | 2.6V | 00:00:00 | 01:22:29 | 00:00:00 | |
| IW2NTF | 2026-09-02 11:57:34 | 45.16841 | 9.18245 | 105° | 71km/h | 14677m | 4.7m/s | -55.1°C | 4.9% | 0hPa | 2.6V | 08:30:00 | 01:22:22 | 00:00:00 | |
| DO3MHA-11 | 2026-09-02 11:57:30 | 45.16855 | 9.18173 | 107° | 71km/h | 14665m | 4.5m/s | -55.4°C | 5.0% | 0hPa | 2.6V | 00:00:00 | 01:22:19 | 00:00:00 | |
| IW2NTF | 2026-09-02 11:57:28 | 45.16885 | 9.18004 | 101° | 73km/h | 14634m | 4.9m/s | -55.8°C | 5.2% | 0hPa | 2.8V | 08:30:00 | 01:22:12 | 00:00:00 | |
| DO3MHA-11 | 2026-09-02 11:57:20 | 45.16898 | 9.17927 | 107° | 75km/h | 14621m | 4.4m/s | -55.7°C | 5.1% | 0hPa | 2.6V | 00:00:00 | 01:22:09 | 00:00:00 | |
| IW2NTF | 2026-09-02 11:57:15 | 45.16946 | 9.17753 | 111° | 75km/h | 14587m | 3.5m/s | -55.5°C | 5.2% | 0hPa | 2.6V | 08:30:00 | 01:22:02 | 00:00:00 | |
| DO3MHA-11 | 2026-09-02 11:57:09 | 45.16975 | 9.17649 | 113° | 73km/h | 14571m | 4.1m/s | -55.5°C | 5.2% | 0hPa | 2.6V | 00:00:00 | 01:21:58 | 00:00:00 | |
| IW2NTF | 2026-09-02 11:57:08 | 45.17018 | 9.17504 | 110° | 71km/h | 14545m | 4m/s | -55.6°C | 5.2% | 0hPa | 2.6V | 08:30:00 | 01:21:52 | 00:00:00 | |
| DO3MHA-11 | 2026-09-02 11:56:59 | 45.17045 | 9.17412 | 116° | 78km/h | 14528m | 4.1m/s | -55.7°C | 5.3% | 0hPa | 2.6V | 00:00:00 | 01:21:48 | 00:00:00 | |
| IW2NTF | 2026-09-02 11:56:54 | 45.17099 | 9.17265 | 122° | 80km/h | 14499m | 4m/s | -55.8°C | 5.3% | 0hPa | 2.6V | 08:30:00 | 01:21:42 | 00:00:00 | |
| DO3MHA-11 | 2026-09-02 11:56:49 | 45.17140 | 9.17165 | 118° | 80km/h | 14479m | 4.3m/s | -55.7°C | 5.3% | 0hPa | 2.6V | 00:00:00 | 01:21:38 | 00:00:00 | |
| IW2NTF | 2026-09-02 11:56:48 | 45.17198 | 9.17011 | 118° | 78km/h | 14453m | 3.7m/s | -56°C | 5.5% | 0hPa | 2.6V | 08:30:00 | 01:21:32 | 00:00:00 | |
| DO3MHA-11 | 2026-09-02 11:56:39 | 45.17239 | 9.16911 | 120° | 88km/h | 14435m | 4.4m/s | -55.8°C | 5.5% | 0hPa | 2.8V | 00:00:00 | 01:21:28 | 00:00:00 | |
| IW2NTF | 2026-09-02 11:56:34 | 45.17304 | 9.16747 | 117° | 89km/h | 14409m | 3.9m/s | -56°C | 5.5% | 0hPa | 2.8V | 08:30:00 | 01:21:22 | 00:00:00 | |
| DO3MHA-11 | 2026-09-02 11:56:29 | 45.17348 | 9.16637 | 122° | 86km/h | 14393m | 4.4m/s | -56.2°C | 5.5% | 0hPa | 2.6V | 00:00:00 | 01:21:18 | 08:30:00 | |
| IW2NTF | 2026-09-02 11:56:28 | 45.17416 | 9.16479 | 119° | 84km/h | 14366m | 5.1m/s | -56.5°C | 5.7% | 0hPa | 2.8V | 08:30:00 | 01:21:12 | 00:00:00 | |
| DO3MHA-11 | 2026-09-02 11:56:19 | 45.17456 | 9.16373 | 119° | 84km/h | 14349m | 3.7m/s | -56.5°C | 5.7% | 0hPa | 2.8V | 00:00:00 | 01:21:08 | 00:00:00 | |
| IW2NTF | 2026-09-02 11:56:15 | 45.17515 | 9.16214 | 118° | 84km/h | 14324m | 3.4m/s | -56.5°C | 5.6% | 0hPa | 2.8V | 08:30:00 | 01:21:02 | 00:00:00 | |
| DO3MHA-11 | 2026-09-02 11:56:09 | 45.17552 | 9.16108 | 116° | 80km/h | 14307m | 4.5m/s | -56.7°C | 5.7% | 0hPa | 2.8V | 00:00:00 | 01:20:58 | 00:00:00 | |
| IW2NTF | 2026-09-02 11:56:05 | 45.17606 | 9.15949 | 115° | 82km/h | 14283m | 4.6m/s | -57.1°C | 5.9% | 0hPa | 2.8V | 08:30:00 | 01:20:52 | 00:00:00 | |
| DO3MHA-11 | 2026-09-02 11:55:59 | 45.17641 | 9.15848 | 116° | 77km/h | 14267m | 3.6m/s | -57.0°C | 5.9% | 0hPa | 2.6V | 00:00:00 | 01:20:48 | 00:00:00 | |
| IW2NTF | 2026-09-02 11:55:54 | 45.17691 | 9.15699 | 113° | 78km/h | 14243m | 3.4m/s | -57.1°C | 5.8% | 0hPa | 2.6V | 08:30:00 | 01:20:42 | 00:00:00 | |
| DO3MHA-11 | 2026-09-02 11:55:49 | 45.17724 | 9.15600 | 117° | 73km/h | 14227m | 4.6m/s | -57.3°C | 5.8% | 0hPa | 2.6V | 00:00:00 | 01:20:38 | 00:00:00 | |
| IW2NTF | 2026-09-02 11:55:45 | 45.17778 | 9.15462 | 119° | 73km/h | 14202m | 3.4m/s | -57.6°C | 6.1% | 0hPa | 2.6V | 08:30:00 | 01:20:32 | 00:00:00 | |
| DO3MHA-11 | 2026-09-02 11:55:39 | 45.17814 | 9.15368 | 119° | 73km/h | 14188m | 3.0m/s | -57.5°C | 6.1% | 0hPa | 2.8V | 00:00:00 | 01:20:28 | 00:00:00 | |
| IW2NTF | 2026-09-02 11:55:35 | 45.17873 | 9.15237 | 125° | 75km/h | 14164m | 3.6m/s | -57.5°C | 6% | 0hPa | 2.8V | 08:30:00 | 01:20:22 | 00:00:00 | |
| DO3MHA-11 | 2026-09-02 11:55:29 | 45.17916 | 9.15151 | 125° | 77km/h | 14149m | 3.1m/s | -57.4°C | 6.0% | 0hPa | 2.7V | 00:00:00 | 01:20:18 | 00:00:00 | |
| IW2NTF | 2026-09-02 11:55:24 | 45.17979 | 9.15013 | 121° | 77km/h | 14126m | 3.4m/s | -57.6°C | 6.1% | 0hPa | 2.8V | 08:30:00 | 01:20:12 | 00:00:00 | |
| DO3MHA-11 | 2026-09-02 11:55:19 | 45.18021 | 9.14919 | 123° | 78km/h | 14110m | 3.8m/s | -57.7°C | 6.4% | 0hPa | 2.7V | 00:00:00 | 01:20:08 | 00:00:00 | |
| IW2NTF | 2026-09-02 11:55:14 | 45.18086 | 9.14776 | 120° | 80km/h | 14087m | 4.5m/s | -57.7°C | 6.4% | 0hPa | 2.7V | 08:30:00 | 01:20:02 | 00:00:00 | |
| DO3MHA-11 | 2026-09-02 11:55:09 | 45.18126 | 9.14682 | 124° | 73km/h | 14070m | 3.2m/s | -57.6°C | 6.2% | 0hPa | 2.6V | 00:00:00 | 01:19:58 | 00:00:00 | |
| IW2NTF | 2026-09-02 11:55:05 | 45.18181 | 9.14548 | 120° | 75km/h | 14048m | 3.8m/s | -57.5°C | 6.3% | 0hPa | 2.6V | 08:30:00 | 01:19:52 | 00:00:00 | |
| IW2NTF | 2026-09-02 11:54:55 | 45.18274 | 9.14310 | 117° | 77km/h | 14010m | 4.2m/s | -57.6°C | 6.4% | 0hPa | 2.8V | 08:30:00 | 01:19:42 | 00:00:00 | |
| DO3MHA-11 | 2026-09-02 11:54:49 | 45.18308 | 9.14216 | 117° | 73km/h | 13994m | 3.3m/s | -57.5°C | 6.7% | 0hPa | 2.7V | 00:00:00 | 01:19:38 | 00:00:00 | |
| IW2NTF | 2026-09-02 11:54:45 | 45.18357 | 9.14075 | 114° | 73km/h | 13971m | 4.1m/s | -57.5°C | 6.5% | 0hPa | 2.7V | 08:30:00 | 01:19:32 | 00:00:00 | |
| DO3MHA-11 | 2026-09-02 11:54:39 | 45.18386 | 9.13978 | 113° | 69km/h | 13954m | 3.1m/s | -57.5°C | 6.4% | 0hPa | 2.6V | 00:00:00 | 01:19:28 | 00:00:00 | |
| IW2NTF | 2026-09-02 11:54:35 | 45.18431 | 9.13842 | 116° | 68km/h | 13931m | 4.2m/s | -57.5°C | 6.6% | 0hPa | 2.6V | 08:30:00 | 01:19:22 | 00:00:00 | |
| DO3MHA-11 | 2026-09-02 11:54:29 | 45.18461 | 9.13753 | 114° | 69km/h | 13914m | 2.9m/s | 0°C | 0% | 0hPa | 2.8V | 00:00:00 | 01:19:18 | 00:00:00 | |
| IW2NTF | 2026-09-02 11:54:28 | 45.18505 | 9.13620 | 115° | 66km/h | 13891m | 3.5m/s | -57.1°C | 6.7% | 0hPa | 2.8V | 08:30:00 | 01:19:12 | 00:00:00 | |
| DO3MHA-11 | 2026-09-02 11:54:18 | 45.18547 | 9.13513 | 119° | 66km/h | 13871m | 4.8m/s | 0°C | 0% | 0hPa | 2.8V | 00:00:00 | 01:19:07 | 00:00:00 | |
| IW2NTF | 2026-09-02 11:54:15 | 45.18610 | 9.13345 | 118° | 68km/h | 13839m | 3.9m/s | -57°C | 6.6% | 0hPa | 2.8V | 08:30:00 | 01:18:59 | 00:00:00 | |
| DO3MHA-11 | 2026-09-02 11:54:08 | 45.18627 | 9.13304 | 124° | 71km/h | 13832m | 3.9m/s | 0°C | 0% | 0hPa | 2.8V | 00:00:00 | 01:18:57 | 00:00:00 | |
| IW2NTF | 2026-09-02 11:54:05 | 45.18703 | 9.13131 | 123° | 73km/h | 13799m | 3.4m/s | -56.8°C | 6.6% | 0hPa | 2.8V | 08:30:00 | 01:18:49 | 00:00:00 | |
| DO3MHA-11 | 2026-09-02 11:53:58 | 45.18723 | 9.13089 | 123° | 69km/h | 13791m | 3.9m/s | 0°C | 0% | 0hPa | 2.7V | 00:00:00 | 01:18:47 | 00:00:00 | |
| IW2NTF | 2026-09-02 11:53:55 | 45.18803 | 9.12932 | 120° | 73km/h | 13758m | 4m/s | -57.3°C | 7.2% | 0hPa | 2.7V | 08:30:00 | 01:18:39 | 00:00:00 | |
| DO3MHA-11 | 2026-09-02 11:53:48 | 45.18822 | 9.12886 | 122° | 77km/h | 13751m | 4.4m/s | 0°C | 0% | 0hPa | 2.8V | 00:00:00 | 01:18:37 | 00:00:00 | |
| IW2NTF | 2026-09-02 11:53:45 | 45.18917 | 9.12709 | 126° | 75km/h | 13717m | 4.4m/s | -57.5°C | 7.5% | 0hPa | 2.8V | 08:30:00 | 01:18:29 | 00:00:00 | |
| DO3MHA-11 | 2026-09-02 11:53:38 | 45.18939 | 9.12665 | 127° | 78km/h | 13709m | 3.7m/s | 0°C | 0% | 0hPa | 2.8V | 00:00:00 | 01:18:27 | 00:00:00 | |
| IW2NTF | 2026-09-02 11:53:35 | 45.19035 | 9.12481 | 126° | 78km/h | 13677m | 4.1m/s | -57.5°C | 7.6% | 0hPa | 2.8V | 08:30:00 | 01:18:19 | 00:00:00 | |
| DO3MHA-11 | 2026-09-02 11:53:28 | 45.19059 | 9.12437 | 130° | 75km/h | 13668m | 3.6m/s | 0°C | 0% | 0hPa | 2.7V | 00:00:00 | 01:18:17 | 00:00:00 | |
| IW2NTF | 2026-09-02 11:53:25 | 45.19157 | 9.12265 | 130° | 78km/h | 13637m | 4.4m/s | -57.8°C | 7.9% | 0hPa | 2.7V | 08:30:00 | 01:18:09 | 00:00:00 | |
| IW2NTF | 2026-09-02 11:53:13 | 45.19290 | 9.12058 | 130° | 78km/h | 13597m | 4.9m/s | -58.2°C | 8.8% | 0hPa | 2.7V | 08:30:00 | 01:17:59 | 00:00:00 | |
| IW2NTF | 2026-09-02 11:53:02 | 45.19415 | 9.11819 | 128° | 86km/h | 13555m | 4.3m/s | -58.1°C | 8.4% | 0hPa | 2.8V | 08:30:00 | 01:17:49 | 00:00:00 | |
| IW2NTF | 2026-09-02 11:52:53 | 45.19538 | 9.11614 | 132° | 75km/h | 13510m | 3.6m/s | -57.7°C | 8.6% | 0hPa | 2.7V | 08:30:00 | 01:17:39 | 00:00:00 | |
| IW2NTF | 2026-09-02 11:52:45 | 45.19669 | 9.11402 | 130° | 69km/h | 13465m | 5m/s | -57.4°C | 8.4% | 0hPa | 2.6V | 08:30:00 | 01:17:29 | 00:00:00 | |
| IW2NTF | 2026-09-02 11:52:31 | 45.19793 | 9.11211 | 134° | 80km/h | 13420m | 5.4m/s | -57°C | 8.4% | 0hPa | 2.8V | 08:30:00 | 01:17:19 | 00:00:00 | |
| IW2NTF | 2026-09-02 11:52:25 | 45.19915 | 9.11019 | 133° | 78km/h | 13373m | 6.8m/s | -56.5°C | 8.4% | 0hPa | 2.7V | 08:30:00 | 01:17:09 | 00:00:00 | |
| IW2NTF | 2026-09-02 11:52:16 | 45.20058 | 9.10820 | 137° | 62km/h | 13321m | 4.2m/s | -56.2°C | 8.4% | 0hPa | 2.8V | 08:30:00 | 01:16:59 | 00:00:00 | |
| IW2NTF | 2026-09-02 11:52:06 | 45.20195 | 9.10650 | 138° | 84km/h | 13267m | 6.2m/s | -55.7°C | 8.3% | 0hPa | 2.8V | 08:30:00 | 01:16:49 | 00:00:00 | |
| IW2NTF | 2026-09-02 11:51:56 | 45.20348 | 9.10463 | 140° | 80km/h | 13217m | 5.3m/s | -55.4°C | 8.7% | 0hPa | 2.8V | 08:30:00 | 01:16:39 | 00:00:00 | |
| IW2NTF | 2026-09-02 11:51:46 | 45.20507 | 9.10274 | 141° | 82km/h | 13169m | 5.1m/s | -55.7°C | 9.5% | 0hPa | 2.8V | 08:30:00 | 01:16:29 | 00:00:00 | |
| IW2NTF | 2026-09-02 11:51:35 | 45.20678 | 9.10093 | 144° | 89km/h | 13125m | 4m/s | -55.8°C | 10.2% | 0hPa | 2.8V | 08:30:00 | 01:16:19 | 00:00:00 | |
| IW2NTF | 2026-09-02 11:51:25 | 45.20859 | 9.09908 | 145° | 88km/h | 13086m | 4.6m/s | -55.6°C | 10.9% | 0hPa | 2.8V | 08:30:00 | 01:16:09 | 00:00:00 | |
| IW2NTF | 2026-09-02 11:51:16 | 45.21046 | 9.09711 | 143° | 95km/h | 13045m | 4.1m/s | -56°C | 12.1% | 0hPa | 2.7V | 08:30:00 | 01:15:59 | 00:00:00 | |
| IW2NTF | 2026-09-02 11:51:05 | 45.21244 | 9.09504 | 143° | 97km/h | 13006m | 4m/s | -56.5°C | 13.7% | 0hPa | 2.7V | 08:30:00 | 01:15:49 | 00:00:00 | |
| IW2NTF | 2026-09-02 11:50:56 | 45.21439 | 9.09273 | 142° | 99km/h | 12968m | 3.8m/s | -56.9°C | 14.8% | 0hPa | 2.8V | 08:30:00 | 01:15:39 | 00:00:00 | |
| IW2NTF | 2026-09-02 11:50:45 | 45.21650 | 9.09028 | 138° | 97km/h | 12927m | 3.5m/s | -57.1°C | 15.2% | 0hPa | 2.8V | 08:30:00 | 01:15:28 | 00:00:00 | |
| IW2NTF | 2026-09-02 11:50:34 | 45.21848 | 9.08815 | 142° | 93km/h | 12889m | 2.9m/s | -57.1°C | 15.9% | 0hPa | 2.8V | 08:30:00 | 01:15:18 | 00:00:00 | |
| IW2NTF | 2026-09-02 11:50:25 | 45.22036 | 9.08615 | 146° | 89km/h | 12852m | 4.3m/s | -57°C | 16.2% | 0hPa | 2.8V | 08:30:00 | 01:15:08 | 00:00:00 | |
| IW2NTF | 2026-09-02 11:50:14 | 45.22223 | 9.08439 | 146° | 88km/h | 12814m | 2.7m/s | -56.8°C | 16.6% | 0hPa | 2.8V | 08:30:00 | 01:14:58 | 00:00:00 | |
| IW2NTF | 2026-09-02 11:50:04 | 45.22416 | 9.08268 | 147° | 93km/h | 12778m | 4m/s | -57°C | 16.6% | 0hPa | 2.8V | 08:30:00 | 01:14:48 | 00:00:00 | |
| IW2NTF | 2026-09-02 11:49:54 | 45.22640 | 9.08089 | 152° | 93km/h | 12736m | 4.5m/s | -56.6°C | 16.7% | 0hPa | 2.8V | 08:30:00 | 01:14:37 | 00:00:00 | |
| IW2NTF | 2026-09-02 11:49:44 | 45.22860 | 9.07926 | 151° | 95km/h | 12700m | 2.9m/s | -56.3°C | 17% | 0hPa | 2.8V | 08:30:00 | 01:14:27 | 00:00:00 | |
| IW2NTF | 2026-09-02 11:49:31 | 45.23080 | 9.07753 | 151° | 100km/h | 12664m | 3.2m/s | -56.1°C | 17.2% | 0hPa | 2.8V | 08:30:00 | 01:14:17 | 00:00:00 | |
| IW2NTF | 2026-09-02 11:49:24 | 45.23328 | 9.07559 | 150° | 102km/h | 12622m | 3m/s | -55.9°C | 17.6% | 0hPa | 2.8V | 08:30:00 | 01:14:06 | 00:00:00 | |
| IW2NTF | 2026-09-02 11:49:14 | 45.23535 | 9.07398 | 151° | 102km/h | 12590m | 3.6m/s | -55.7°C | 17.5% | 0hPa | 2.7V | 08:30:00 | 01:13:57 | 00:00:00 | |
| IW2NTF | 2026-09-02 11:49:04 | 45.23773 | 9.07209 | 149° | 108km/h | 12552m | 3.3m/s | -55.4°C | 17.8% | 0hPa | 2.7V | 08:30:00 | 01:13:47 | 00:00:00 | |
| IW2NTF | 2026-09-02 11:48:54 | 45.24008 | 9.07023 | 149° | 110km/h | 12515m | 4.3m/s | -55.5°C | 18.5% | 0hPa | 2.7V | 08:30:00 | 01:13:37 | 00:00:00 | |
| IW2NTF | 2026-09-02 11:48:44 | 45.24252 | 9.06837 | 153° | 110km/h | 12476m | 3.7m/s | -55.3°C | 19.1% | 0hPa | 2.8V | 08:30:00 | 01:13:27 | 00:00:00 | |
| IW2NTF | 2026-09-02 11:48:34 | 45.24507 | 9.06638 | 151° | 111km/h | 12436m | 5.5m/s | -55.9°C | 20.8% | 0hPa | 2.8V | 08:30:00 | 01:13:17 | 00:00:00 | |
| IW2NTF | 2026-09-02 11:48:22 | 45.24806 | 9.06396 | 151° | 110km/h | 12389m | 4.3m/s | -55.9°C | 21.4% | 0hPa | 2.8V | 08:30:00 | 01:13:05 | 00:00:00 | |
| IW2NTF | 2026-09-02 11:48:04 | 45.25165 | 9.06126 | 148° | 113km/h | 12332m | 3.3m/s | -55.4°C | 21.4% | 0hPa | 2.8V | 08:30:00 | 01:12:51 | 00:00:00 | |
| IW2NTF | 2026-09-02 11:47:54 | 45.25417 | 9.05930 | 152° | 111km/h | 12291m | 4.3m/s | -55.6°C | 21% | 0hPa | 2.8V | 08:30:00 | 01:12:41 | 00:00:00 | |
| IW2NTF | 2026-09-02 11:47:47 | 45.25665 | 9.05727 | 146° | 113km/h | 12253m | 3.5m/s | -55.7°C | 22.1% | 0hPa | 2.7V | 08:30:00 | 01:12:31 | 00:00:00 | |
| IW2NTF | 2026-09-02 11:47:35 | 45.25904 | 9.05505 | 145° | 110km/h | 12213m | 4m/s | -55.7°C | 23.9% | 0hPa | 2.8V | 08:30:00 | 01:12:21 | 00:00:00 | |
| IW2NTF | 2026-09-02 11:47:25 | 45.26130 | 9.05269 | 145° | 111km/h | 12172m | 4.2m/s | -55.4°C | 23.8% | 0hPa | 2.8V | 08:30:00 | 01:12:11 | 00:00:00 | |
| IW2NTF | 2026-09-02 11:47:17 | 45.26366 | 9.05060 | 148° | 113km/h | 12131m | 5.2m/s | -55.2°C | 26.5% | 0hPa | 2.8V | 08:30:00 | 01:12:01 | 00:00:00 | |
| IW2NTF | 2026-09-02 11:47:07 | 45.26609 | 9.04846 | 149° | 111km/h | 12091m | 4.2m/s | -55.4°C | 26.7% | 0hPa | 2.7V | 08:30:00 | 01:11:51 | 00:00:00 | |
| IW2NTF | 2026-09-02 11:46:56 | 45.26864 | 9.04650 | 154° | 117km/h | 12050m | 3.6m/s | -55.1°C | 30% | 0hPa | 2.8V | 08:30:00 | 01:11:41 | 00:00:00 | |
| IW2NTF | 2026-09-02 11:46:47 | 45.27132 | 9.04455 | 154° | 130km/h | 12004m | 6.3m/s | -55.2°C | 30.2% | 0hPa | 2.7V | 08:30:00 | 01:11:31 | 00:00:00 | |
| IW2NTF | 2026-09-02 11:46:36 | 45.27425 | 9.04280 | 155° | 130km/h | 11956m | 4.7m/s | -54.9°C | 31.7% | 0hPa | 2.8V | 08:30:00 | 01:11:21 | 00:00:00 | |
| IW2NTF | 2026-09-02 11:46:23 | 45.27724 | 9.04105 | 158° | 126km/h | 11911m | 3.9m/s | -54.7°C | 31.7% | 0hPa | 2.7V | 08:30:00 | 01:11:11 | 00:00:00 | |
| IW2NTF | 2026-09-02 11:46:16 | 45.28035 | 9.03943 | 161° | 135km/h | 11864m | 4.1m/s | -54.5°C | 33% | 0hPa | 2.8V | 08:30:00 | 01:11:01 | 00:00:00 | |
| IW2NTF | 2026-09-02 11:46:07 | 45.28360 | 9.03765 | 159° | 146km/h | 11820m | 4.1m/s | -54.4°C | 32.8% | 0hPa | 2.8V | 08:30:00 | 01:10:51 | 00:00:00 | |
| IW2NTF | 2026-09-02 11:45:52 | 45.28709 | 9.03591 | 158° | 146km/h | 11780m | 4.7m/s | -54°C | 31.7% | 0hPa | 2.7V | 08:30:00 | 01:10:41 | 00:00:00 | |
| IW2NTF | 2026-09-02 11:45:47 | 45.29063 | 9.03397 | 161° | 150km/h | 11741m | 3.9m/s | -53.7°C | 30.4% | 0hPa | 2.8V | 08:30:00 | 01:10:31 | 00:00:00 | |
| IW2NTF | 2026-09-02 11:45:37 | 45.29405 | 9.03202 | 156° | 146km/h | 11702m | 4.2m/s | -53.5°C | 28.5% | 0hPa | 2.8V | 08:30:00 | 01:10:21 | 00:00:00 | |
| IW2NTF | 2026-09-02 11:45:26 | 45.29753 | 9.03011 | 156° | 144km/h | 11664m | 3m/s | -53.2°C | 27.7% | 0hPa | 2.7V | 08:30:00 | 01:10:11 | 00:00:00 | |
| IW2NTF | 2026-09-02 11:45:18 | 45.30094 | 9.02814 | 159° | 141km/h | 11624m | 3.6m/s | -53°C | 26% | 0hPa | 2.7V | 08:30:00 | 01:10:01 | 00:00:00 | |
| IW2NTF | 2026-09-02 11:45:06 | 45.30430 | 9.02608 | 159° | 144km/h | 11586m | 4m/s | -52.6°C | 23.9% | 0hPa | 2.7V | 08:30:00 | 01:09:51 | 00:00:00 | |
| IW2NTF | 2026-09-02 11:44:56 | 45.30756 | 9.02409 | 157° | 139km/h | 11542m | 3.9m/s | -52.4°C | 23.7% | 0hPa | 2.7V | 08:30:00 | 01:09:41 | 00:00:00 | |
| IW2NTF | 2026-09-02 11:44:47 | 45.31075 | 9.02226 | 154° | 137km/h | 11503m | 3.3m/s | -52.2°C | 22.9% | 0hPa | 2.7V | 08:30:00 | 01:09:31 | 00:00:00 | |
| IW2NTF | 2026-09-02 11:44:36 | 45.31391 | 9.02030 | 160° | 122km/h | 11466m | 3.8m/s | -52.2°C | 24.4% | 0hPa | 2.7V | 08:30:00 | 01:09:21 | 00:00:00 | |
| IW2NTF | 2026-09-02 11:44:26 | 45.31687 | 9.01874 | 159° | 130km/h | 11418m | 5.4m/s | -52.6°C | 25% | 0hPa | 2.7V | 08:30:00 | 01:09:11 | 00:00:00 | |
| IW2NTF | 2026-09-02 11:44:16 | 45.31978 | 9.01724 | 158° | 120km/h | 11374m | 2.9m/s | -52.5°C | 26.1% | 0hPa | 2.7V | 08:30:00 | 01:09:01 | 00:00:00 | |
| IW2NTF | 2026-09-02 11:44:06 | 45.32265 | 9.01580 | 159° | 120km/h | 11337m | 2.9m/s | -52.5°C | 26.9% | 0hPa | 2.8V | 08:30:00 | 01:08:51 | 00:00:00 | |
| IW2NTF | 2026-09-02 11:43:52 | 45.32600 | 9.01415 | 160° | 117km/h | 11294m | 3m/s | -52.4°C | 26.5% | 0hPa | 2.7V | 08:30:00 | 01:08:39 | 00:00:00 | |
| IW2NTF | 2026-09-02 11:43:45 | 45.32885 | 9.01274 | 159° | 119km/h | 11257m | 4.3m/s | -52°C | 27% | 0hPa | 2.8V | 08:30:00 | 01:08:29 | 00:00:00 | |
| IW2NTF | 2026-09-02 11:43:35 | 45.33160 | 9.01137 | 161° | 115km/h | 11220m | 3.2m/s | -51.6°C | 25.6% | 0hPa | 2.8V | 08:30:00 | 01:08:19 | 00:00:00 | |
| IW2NTF | 2026-09-02 11:43:25 | 45.33443 | 9.00999 | 159° | 115km/h | 11183m | 3m/s | -51.3°C | 25.9% | 0hPa | 2.8V | 08:30:00 | 01:08:09 | 00:00:00 | |
| IW2NTF | 2026-09-02 11:43:15 | 45.33718 | 9.00854 | 160° | 117km/h | 11147m | 4.2m/s | -51.1°C | 26% | 0hPa | 2.8V | 08:30:00 | 01:07:59 | 00:00:00 | |
| IW2NTF | 2026-09-02 11:43:05 | 45.33997 | 9.00718 | 161° | 117km/h | 11110m | 3.5m/s | -50.8°C | 25.3% | 0hPa | 2.8V | 08:30:00 | 01:07:49 | 00:00:00 | |
| IW2NTF | 2026-09-02 11:42:55 | 45.34277 | 9.00578 | 161° | 115km/h | 11073m | 3m/s | -50.5°C | 25.5% | 0hPa | 2.8V | 08:30:00 | 01:07:39 | 00:00:00 | |
| IW2NTF | 2026-09-02 11:42:45 | 45.34554 | 9.00442 | 160° | 117km/h | 11038m | 3.7m/s | -50.2°C | 25.9% | 0hPa | 2.9V | 08:30:00 | 01:07:29 | 00:00:00 | |
| IW2NTF | 2026-09-02 11:42:35 | 45.34831 | 9.00299 | 159° | 117km/h | 11003m | 3.2m/s | -50.1°C | 26.8% | 0hPa | 2.7V | 08:30:00 | 01:07:19 | 00:00:00 | |
| IW2NTF | 2026-09-02 11:42:25 | 45.35104 | 9.00144 | 157° | 115km/h | 10966m | 3.3m/s | -49.9°C | 27.4% | 0hPa | 2.7V | 08:30:00 | 01:07:09 | 00:00:00 | |
| IW2NTF | 2026-09-02 11:42:15 | 45.35374 | 8.99985 | 156° | 117km/h | 10928m | 3.7m/s | -49.6°C | 28.4% | 0hPa | 2.8V | 08:30:00 | 01:06:59 | 00:00:00 | |
| IW2NTF | 2026-09-02 11:42:05 | 45.35640 | 8.99816 | 154° | 113km/h | 10892m | 3.7m/s | -49.4°C | 29.2% | 0hPa | 2.8V | 08:30:00 | 01:06:49 | 00:00:00 | |
| IW2NTF | 2026-09-02 11:41:55 | 45.35910 | 8.99650 | 155° | 115km/h | 10855m | 3.9m/s | -49.2°C | 33.1% | 0hPa | 2.9V | 08:30:00 | 01:06:39 | 00:00:00 | |
| IW2NTF | 2026-09-02 11:41:45 | 45.36180 | 8.99479 | 156° | 115km/h | 10817m | 4.1m/s | -49°C | 35.8% | 0hPa | 2.9V | 08:30:00 | 01:06:29 | 00:00:00 | |
| IW2NTF | 2026-09-02 11:41:35 | 45.36460 | 8.99318 | 157° | 120km/h | 10777m | 4.1m/s | -48.7°C | 37.3% | 0hPa | 2.7V | 08:30:00 | 01:06:19 | 00:00:00 | |
| IW2NTF | 2026-09-02 11:41:26 | 45.36742 | 8.99163 | 159° | 119km/h | 10740m | 4.5m/s | -48.4°C | 38% | 0hPa | 2.9V | 08:30:00 | 01:06:09 | 00:00:00 | |
| IW2NTF | 2026-09-02 11:41:12 | 45.37145 | 8.98936 | 158° | 120km/h | 10684m | 3.1m/s | -48.1°C | 44.3% | 0hPa | 2.9V | 08:30:00 | 01:05:55 | 00:00:00 | |
| IW2NTF | 2026-09-02 11:41:00 | 45.37436 | 8.98771 | 158° | 124km/h | 10645m | 4.1m/s | -47.9°C | 43.7% | 0hPa | 2.7V | 08:30:00 | 01:05:45 | 00:00:00 | |
| IW2NTF | 2026-09-02 11:40:51 | 45.37717 | 8.98613 | 159° | 124km/h | 10605m | 4.1m/s | -47.7°C | 42.8% | 0hPa | 2.9V | 08:30:00 | 01:05:35 | 00:00:00 | |
| IW2NTF | 2026-09-02 11:40:42 | 45.37999 | 8.98448 | 156° | 119km/h | 10563m | 5.1m/s | -47.4°C | 46.2% | 0hPa | 2.9V | 08:30:00 | 01:05:25 | 00:00:00 | |
| IW2NTF | 2026-09-02 11:40:31 | 45.38279 | 8.98293 | 151° | 113km/h | 10514m | 5.8m/s | -47°C | 50.3% | 0hPa | 2.7V | 08:30:00 | 01:05:15 | 00:00:00 | |
| IW2NTF | 2026-09-02 11:40:22 | 45.38550 | 8.98137 | 160° | 113km/h | 10460m | 5.3m/s | -46.6°C | 49.9% | 0hPa | 2.9V | 08:30:00 | 01:05:05 | 00:00:00 | |
| IW2NTF | 2026-09-02 11:40:11 | 45.38817 | 8.97987 | 157° | 113km/h | 10416m | 3.5m/s | -46.1°C | 49.2% | 0hPa | 2.9V | 08:30:00 | 01:04:55 | 00:00:00 | |
| IW2NTF | 2026-09-02 11:40:01 | 45.39078 | 8.97836 | 157° | 106km/h | 10374m | 3.9m/s | -45.8°C | 50.1% | 0hPa | 2.7V | 08:30:00 | 01:04:45 | 00:00:00 | |
| IW2NTF | 2026-09-02 11:39:51 | 45.39336 | 8.97682 | 157° | 108km/h | 10333m | 4.6m/s | -45.5°C | 53.7% | 0hPa | 2.9V | 08:30:00 | 01:04:35 | 00:00:00 | |
| IW2NTF | 2026-09-02 11:39:41 | 45.39591 | 8.97525 | 154° | 111km/h | 10291m | 4m/s | -45.2°C | 54.9% | 0hPa | 2.9V | 08:30:00 | 01:04:25 | 00:00:00 | |
| IW2NTF | 2026-09-02 11:39:31 | 45.39844 | 8.97368 | 157° | 108km/h | 10252m | 3.7m/s | -44.9°C | 54.8% | 0hPa | 2.7V | 08:30:00 | 01:04:15 | 00:00:00 | |
| IW2NTF | 2026-09-02 11:39:22 | 45.40102 | 8.97215 | 158° | 111km/h | 10213m | 4.7m/s | -44.5°C | 57.4% | 0hPa | 2.9V | 08:30:00 | 01:04:05 | 00:00:00 | |
| IW2NTF | 2026-09-02 11:39:11 | 45.40361 | 8.97068 | 156° | 111km/h | 10172m | 4.1m/s | -44.4°C | 58.9% | 0hPa | 2.9V | 08:30:00 | 01:03:55 | 00:00:00 | |
| IW2NTF | 2026-09-02 11:39:01 | 45.40624 | 8.96922 | 158° | 110km/h | 10132m | 3.7m/s | -44.1°C | 59.1% | 0hPa | 2.9V | 08:30:00 | 01:03:45 | 00:00:00 | |
| IW2NTF | 2026-09-02 11:38:51 | 45.40878 | 8.96766 | 155° | 106km/h | 10092m | 4.3m/s | -43.8°C | 56.7% | 0hPa | 2.9V | 08:30:00 | 01:03:35 | 00:00:00 | |
| IW2NTF | 2026-09-02 11:38:41 | 45.41142 | 8.96611 | 157° | 110km/h | 10051m | 4.8m/s | -43.5°C | 58.6% | 0hPa | 2.7V | 08:30:00 | 01:03:25 | 00:00:00 | |
| IW2NTF | 2026-09-02 11:38:32 | 45.41394 | 8.96451 | 159° | 110km/h | 10002m | 4.6m/s | -43.2°C | 58.1% | 0hPa | 2.9V | 08:30:00 | 01:03:15 | 00:00:00 | |
| IW2NTF | 2026-09-02 11:38:21 | 45.41646 | 8.96277 | 153° | 108km/h | 9961m | 3.8m/s | -42.9°C | 57.2% | 0hPa | 2.7V | 08:30:00 | 01:03:05 | 00:00:00 | |
| IW2NTF | 2026-09-02 11:38:12 | 45.41889 | 8.96110 | 153° | 102km/h | 9921m | 3.3m/s | -42.6°C | 55.9% | 0hPa | 2.9V | 08:30:00 | 01:02:55 | 00:00:00 | |
| IW2NTF | 2026-09-02 11:38:01 | 45.42117 | 8.95933 | 152° | 106km/h | 9879m | 4.1m/s | -42.3°C | 54.2% | 0hPa | 2.8V | 08:30:00 | 01:02:45 | 00:00:00 | |
| IW2NTF | 2026-09-02 11:37:51 | 45.42343 | 8.95766 | 151° | 97km/h | 9842m | 4.1m/s | -41.9°C | 50.5% | 0hPa | 2.9V | 08:30:00 | 01:02:35 | 00:00:00 | |
| IW2NTF | 2026-09-02 11:37:42 | 45.42567 | 8.95595 | 154° | 99km/h | 9806m | 2.8m/s | -41.6°C | 50.3% | 0hPa | 2.8V | 08:30:00 | 01:02:25 | 00:00:00 | |
| IW2NTF | 2026-09-02 11:37:31 | 45.42787 | 8.95420 | 147° | 99km/h | 9770m | 3.7m/s | -41.4°C | 51.2% | 0hPa | 2.9V | 08:30:00 | 01:02:15 | 00:00:00 | |
| IW2NTF | 2026-09-02 11:37:22 | 45.42991 | 8.95244 | 147° | 95km/h | 9733m | 4.5m/s | -41.1°C | 52.9% | 0hPa | 2.8V | 08:30:00 | 01:02:05 | 00:00:00 | |
| IW2NTF | 2026-09-02 11:37:11 | 45.43195 | 8.95065 | 149° | 91km/h | 9692m | 3.1m/s | -40.7°C | 51.6% | 0hPa | 2.9V | 08:30:00 | 01:01:55 | 00:00:00 | |
| IW2NTF | 2026-09-02 11:37:00 | 45.43390 | 8.94882 | 148° | 97km/h | 9656m | 4.3m/s | -40.4°C | 51.1% | 0hPa | 2.8V | 08:30:00 | 01:01:45 | 00:00:00 | |
| IW2NTF | 2026-09-02 11:36:52 | 45.43587 | 8.94713 | 142° | 91km/h | 9620m | 2.5m/s | -40.2°C | 50.3% | 0hPa | 2.9V | 08:30:00 | 01:01:35 | 00:00:00 | |
| IW2NTF | 2026-09-02 11:36:41 | 45.43786 | 8.94520 | 147° | 95km/h | 9584m | 5m/s | -39.9°C | 49.1% | 0hPa | 2.9V | 08:30:00 | 01:01:25 | 00:00:00 | |
| IW2NTF | 2026-09-02 11:36:31 | 45.43982 | 8.94334 | 144° | 99km/h | 9543m | 4.9m/s | -39.6°C | 45.7% | 0hPa | 2.9V | 08:30:00 | 01:01:15 | 00:00:00 | |
| IW2NTF | 2026-09-02 11:36:21 | 45.44174 | 8.94134 | 143° | 91km/h | 9500m | 6m/s | -39.2°C | 42.1% | 0hPa | 2.9V | 08:30:00 | 01:01:05 | 00:00:00 | |
| IW2NTF | 2026-09-02 11:36:11 | 45.44361 | 8.93926 | 144° | 88km/h | 9457m | 6.1m/s | -38.9°C | 38.3% | 0hPa | 2.8V | 08:30:00 | 01:00:55 | 00:00:00 | |
| IW2NTF | 2026-09-02 11:36:02 | 45.44546 | 8.93725 | 141° | 93km/h | 9411m | 4.5m/s | -38.5°C | 35.1% | 0hPa | 2.9V | 08:30:00 | 01:00:45 | 00:00:00 | |
| IW2NTF | 2026-09-02 11:35:51 | 45.44727 | 8.93521 | 138° | 93km/h | 9369m | 5m/s | -38.1°C | 30.6% | 0hPa | 2.9V | 08:30:00 | 01:00:35 | 00:00:00 | |
| IW2NTF | 2026-09-02 11:35:41 | 45.44909 | 8.93319 | 145° | 84km/h | 9329m | 3.6m/s | -37.8°C | 28.7% | 0hPa | 2.8V | 08:30:00 | 01:00:25 | 00:00:00 | |
| IW2NTF | 2026-09-02 11:35:32 | 45.45085 | 8.93118 | 146° | 84km/h | 9281m | 5.5m/s | -37.5°C | 23.6% | 0hPa | 2.9V | 08:30:00 | 01:00:15 | 00:00:00 | |
| IW2NTF | 2026-09-02 11:35:21 | 45.45246 | 8.92903 | 138° | 80km/h | 9228m | 4.3m/s | -37.1°C | 22.2% | 0hPa | 2.9V | 08:30:00 | 01:00:05 | 00:00:00 | |
| IW2NTF | 2026-09-02 11:35:12 | 45.45401 | 8.92690 | 136° | 97km/h | 9178m | 4.2m/s | -36.7°C | 21.6% | 0hPa | 2.8V | 08:30:00 | 00:59:55 | 00:00:00 | |
| IW2NTF | 2026-09-02 11:35:01 | 45.45548 | 8.92474 | 132° | 84km/h | 9135m | 3.7m/s | -36.6°C | 24.3% | 0hPa | 2.9V | 08:30:00 | 00:59:45 | 00:00:00 | |
| IW2NTF | 2026-09-02 11:34:52 | 45.45695 | 8.92239 | 128° | 84km/h | 9091m | 4.5m/s | -36.3°C | 24.6% | 0hPa | 2.9V | 08:30:00 | 00:59:35 | 00:00:00 | |
| IW2NTF | 2026-09-02 11:34:41 | 45.45824 | 8.91985 | 127° | 88km/h | 9053m | 5m/s | -36.2°C | 27.7% | 0hPa | 2.9V | 08:30:00 | 00:59:25 | 00:00:00 | |
| IW2NTF | 2026-09-02 11:34:31 | 45.45958 | 8.91730 | 127° | 91km/h | 9014m | 5m/s | -36.1°C | 31.7% | 0hPa | 2.8V | 08:30:00 | 00:59:15 | 00:00:00 | |
| IW2NTF | 2026-09-02 11:34:21 | 45.46087 | 8.91489 | 128° | 86km/h | 8969m | 4.5m/s | -36°C | 35.1% | 0hPa | 2.9V | 08:30:00 | 00:59:05 | 00:00:00 | |
| IW2NTF | 2026-09-02 11:34:11 | 45.46222 | 8.91259 | 128° | 71km/h | 8925m | 3.8m/s | -35.6°C | 36.1% | 0hPa | 2.9V | 08:30:00 | 00:58:55 | 00:00:00 | |
| IW2NTF | 2026-09-02 11:34:01 | 45.46349 | 8.91048 | 134° | 78km/h | 8883m | 3.9m/s | -35.3°C | 37.9% | 0hPa | 2.9V | 08:30:00 | 00:58:45 | 00:00:00 | |
| IW2NTF | 2026-09-02 11:33:52 | 45.46474 | 8.90844 | 132° | 80km/h | 8840m | 4.2m/s | -35°C | 41.4% | 0hPa | 2.9V | 08:30:00 | 00:58:35 | 00:00:00 | |
| IW2NTF | 2026-09-02 11:33:42 | 45.46589 | 8.90632 | 122° | 75km/h | 8791m | 3.4m/s | -34.5°C | 39.9% | 0hPa | 2.9V | 08:30:00 | 00:58:25 | 00:00:00 | |
| IW2NTF | 2026-09-02 11:33:29 | 45.46736 | 8.90387 | 129° | 68km/h | 8743m | 3.8m/s | -34°C | 39.4% | 0hPa | 2.9V | 08:30:00 | 00:58:13 | 00:00:00 | |
| IW2NTF | 2026-09-02 11:33:20 | 45.46851 | 8.90170 | 131° | 77km/h | 8697m | 5.9m/s | -33.7°C | 43% | 0hPa | 2.9V | 08:30:00 | 00:58:03 | 00:00:00 | |
| IW2NTF | 2026-09-02 11:33:09 | 45.46949 | 8.89944 | 114° | 69km/h | 8651m | 3.3m/s | -33.2°C | 45.1% | 0hPa | 2.9V | 08:30:00 | 00:57:53 | 00:00:00 | |
| IW2NTF | 2026-09-02 11:32:59 | 45.47042 | 8.89729 | 121° | 69km/h | 8596m | 4.1m/s | -32.9°C | 52.5% | 0hPa | 2.9V | 08:30:00 | 00:57:43 | 00:00:00 | |
| IW2NTF | 2026-09-02 11:32:50 | 45.47134 | 8.89515 | 122° | 68km/h | 8553m | 4.5m/s | -32.5°C | 56.4% | 0hPa | 2.9V | 08:30:00 | 00:57:33 | 00:00:00 | |
| IW2NTF | 2026-09-02 11:32:38 | 45.47241 | 8.89261 | 114° | 77km/h | 8508m | 3.6m/s | -32.2°C | 62.4% | 0hPa | 2.8V | 08:30:00 | 00:57:22 | 00:00:00 | |
| IW2NTF | 2026-09-02 11:32:29 | 45.47332 | 8.89025 | 119° | 80km/h | 8468m | 4.6m/s | -31.9°C | 65.5% | 0hPa | 2.9V | 08:30:00 | 00:57:12 | 00:00:00 | |
| IW2NTF | 2026-09-02 11:32:19 | 45.47416 | 8.88789 | 115° | 68km/h | 8423m | 4.2m/s | -31.4°C | 63.3% | 0hPa | 2.9V | 08:30:00 | 00:57:02 | 00:00:00 | |
| IW2NTF | 2026-09-02 11:32:09 | 45.47501 | 8.88558 | 118° | 77km/h | 8377m | 4.2m/s | -31°C | 62.4% | 0hPa | 2.9V | 08:30:00 | 00:56:52 | 00:00:00 | |
| IW2NTF | 2026-09-02 11:31:58 | 45.47584 | 8.88327 | 115° | 71km/h | 8335m | 4m/s | -30.6°C | 59% | 0hPa | 2.9V | 08:30:00 | 00:56:42 | 00:00:00 | |
| IW2NTF | 2026-09-02 11:31:48 | 45.47679 | 8.88088 | 118° | 75km/h | 8293m | 2.9m/s | -30.2°C | 61.7% | 0hPa | 2.9V | 08:30:00 | 00:56:32 | 00:00:00 | |
| IW2NTF | 2026-09-02 11:31:39 | 45.47763 | 8.87865 | 117° | 75km/h | 8248m | 3.7m/s | -29.9°C | 62.7% | 0hPa | 2.9V | 08:30:00 | 00:56:22 | 00:00:00 | |
| IW2NTF | 2026-09-02 11:31:27 | 45.47875 | 8.87598 | 120° | 71km/h | 8198m | 3m/s | -29.5°C | 61.6% | 0hPa | 2.9V | 08:30:00 | 00:56:10 | 00:00:00 | |
| IW2NTF | 2026-09-02 11:31:11 | 45.47985 | 8.87346 | 119° | 77km/h | 8153m | 4.6m/s | -29.1°C | 64% | 0hPa | 2.9V | 08:30:00 | 00:55:59 | 00:00:00 | |
| IW2NTF | 2026-09-02 11:31:01 | 45.48079 | 8.87129 | 122° | 77km/h | 8115m | 3.7m/s | -28.8°C | 65.2% | 0hPa | 2.9V | 08:30:00 | 00:55:49 | 00:00:00 | |
| IW2NTF | 2026-09-02 11:30:52 | 45.48175 | 8.86898 | 119° | 68km/h | 8072m | 5.5m/s | -28.4°C | 63.7% | 0hPa | 2.8V | 08:30:00 | 00:55:39 | 00:00:00 | |
| IW2NTF | 2026-09-02 11:30:41 | 45.48274 | 8.86658 | 119° | 82km/h | 8024m | 6.3m/s | -28°C | 65.1% | 0hPa | 2.9V | 08:30:00 | 00:55:28 | 00:00:00 | |
| IW2NTF | 2026-09-02 11:30:31 | 45.48360 | 8.86435 | 122° | 69km/h | 7976m | 4.8m/s | -27.6°C | 67.3% | 0hPa | 2.9V | 08:30:00 | 00:55:18 | 00:00:00 | |
| IW2NTF | 2026-09-02 11:30:22 | 45.48449 | 8.86212 | 121° | 69km/h | 7924m | 5m/s | -27.3°C | 73.9% | 0hPa | 2.9V | 08:30:00 | 00:55:08 | 00:00:00 | |
| IW2NTF | 2026-09-02 11:30:11 | 45.48533 | 8.86005 | 122° | 66km/h | 7882m | 6.3m/s | -27.1°C | 77.7% | 0hPa | 2.9V | 08:30:00 | 00:54:58 | 00:00:00 | |
| IW2NTF | 2026-09-02 11:30:02 | 45.48634 | 8.85804 | 123° | 66km/h | 7830m | 2.2m/s | -26.6°C | 78.8% | 0hPa | 2.9V | 08:30:00 | 00:54:48 | 00:00:00 | |
| IW2NTF | 2026-09-02 11:29:51 | 45.48742 | 8.85595 | 127° | 73km/h | 7794m | 4.2m/s | -26.4°C | 81.9% | 0hPa | 2.9V | 08:30:00 | 00:54:38 | 00:00:00 | |
| IW2NTF | 2026-09-02 11:29:41 | 45.48845 | 8.85394 | 127° | 80km/h | 7754m | 6.1m/s | -26.1°C | 82.4% | 0hPa | 2.9V | 08:30:00 | 00:54:28 | 00:00:00 | |
| IW2NTF | 2026-09-02 11:29:31 | 45.48957 | 8.85179 | 110° | 75km/h | 7698m | 5.3m/s | -25.6°C | 81.7% | 0hPa | 2.9V | 08:30:00 | 00:54:18 | 00:00:00 | |
| IW2NTF | 2026-09-02 11:29:21 | 45.49044 | 8.84931 | 128° | 78km/h | 7650m | 4.5m/s | -25.2°C | 83.1% | 0hPa | 2.9V | 08:30:00 | 00:54:08 | 00:00:00 | |
| IW2NTF | 2026-09-02 11:29:11 | 45.49150 | 8.84694 | 122° | 66km/h | 7602m | 5.9m/s | -24.9°C | 82.7% | 0hPa | 2.9V | 08:30:00 | 00:53:58 | 00:00:00 | |
| IW2NTF | 2026-09-02 11:29:02 | 45.49234 | 8.84473 | 115° | 69km/h | 7559m | 4m/s | -24.5°C | 81.1% | 0hPa | 2.8V | 08:30:00 | 00:53:48 | 00:00:00 | |
| IW2NTF | 2026-09-02 11:28:52 | 45.49319 | 8.84237 | 118° | 75km/h | 7521m | 3.6m/s | -24.1°C | 79.4% | 0hPa | 2.9V | 08:30:00 | 00:53:38 | 00:00:00 | |
| IW2NTF | 2026-09-02 11:28:41 | 45.49402 | 8.83999 | 116° | 77km/h | 7482m | 4.8m/s | -23.8°C | 77.2% | 0hPa | 2.9V | 08:30:00 | 00:53:28 | 00:00:00 | |
| IW2NTF | 2026-09-02 11:28:32 | 45.49505 | 8.83774 | 126° | 73km/h | 7438m | 7m/s | -23.5°C | 76.1% | 0hPa | 2.9V | 08:30:00 | 00:53:18 | 00:00:00 | |
| IW2NTF | 2026-09-02 11:28:21 | 45.49597 | 8.83539 | 110° | 71km/h | 7383m | 4m/s | -23°C | 74.4% | 0hPa | 2.9V | 08:30:00 | 00:53:08 | 00:00:00 | |
| IW2NTF | 2026-09-02 11:28:11 | 45.49681 | 8.83335 | 119° | 62km/h | 7326m | 5.9m/s | -22.4°C | 72.4% | 0hPa | 2.9V | 08:30:00 | 00:52:58 | 00:00:00 | |
| IW2NTF | 2026-09-02 11:28:01 | 45.49763 | 8.83123 | 117° | 62km/h | 7275m | 6.1m/s | -22.1°C | 71.7% | 0hPa | 2.9V | 08:30:00 | 00:52:48 | 00:00:00 | |
| IW2NTF | 2026-09-02 11:27:51 | 45.49854 | 8.82937 | 123° | 66km/h | 7228m | 6.2m/s | -22°C | 89.3% | 0hPa | 2.8V | 08:30:00 | 00:52:38 | 00:00:00 | |
| IW2NTF | 2026-09-02 11:27:41 | 45.49935 | 8.82748 | 122° | 57km/h | 7178m | 4.3m/s | -22°C | 94.4% | 0hPa | 2.9V | 08:30:00 | 00:52:28 | 00:00:00 | |
| IW2NTF | 2026-09-02 11:27:31 | 45.50014 | 8.82561 | 124° | 60km/h | 7141m | 3.3m/s | -21.9°C | 92.7% | 0hPa | 2.9V | 08:30:00 | 00:52:18 | 00:00:00 | |
| IW2NTF | 2026-09-02 11:27:21 | 45.50068 | 8.82378 | 113° | 60km/h | 7102m | 4.1m/s | -21.7°C | 90.7% | 0hPa | 2.9V | 08:30:00 | 00:52:08 | 00:00:00 | |
| IW2NTF | 2026-09-02 11:27:11 | 45.50114 | 8.82199 | 107° | 49km/h | 7059m | 6.2m/s | -21.4°C | 87.6% | 0hPa | 2.9V | 08:30:00 | 00:51:58 | 00:00:00 | |
| IW2NTF | 2026-09-02 11:27:01 | 45.50164 | 8.81998 | 110° | 53km/h | 7014m | 4.2m/s | -21.1°C | 81.4% | 0hPa | 2.9V | 08:30:00 | 00:51:48 | 00:00:00 | |
| IW2NTF | 2026-09-02 11:26:51 | 45.50201 | 8.81810 | 106° | 55km/h | 6972m | 3.9m/s | -21°C | 76.6% | 0hPa | 2.9V | 08:30:00 | 00:51:38 | 00:00:00 | |
| IW2NTF | 2026-09-02 11:26:40 | 45.50223 | 8.81619 | 107° | 57km/h | 6929m | 4.6m/s | -20.6°C | 74.5% | 0hPa | 2.9V | 08:30:00 | 00:51:28 | 00:00:00 | |
| IW2NTF | 2026-09-02 11:26:35 | 45.50253 | 8.81421 | 98° | 57km/h | 6877m | 3.6m/s | -20.4°C | 74.7% | 0hPa | 3V | 08:30:00 | 00:51:18 | 00:00:00 | |
| IW2NTF | 2026-09-02 11:26:19 | 45.50276 | 8.81217 | 95° | 58km/h | 6836m | 5.7m/s | -20.3°C | 56.9% | 0hPa | 2.9V | 08:30:00 | 00:51:08 | 00:00:00 | |
| IW2NTF | 2026-09-02 11:26:09 | 45.50283 | 8.80991 | 94° | 55km/h | 6793m | 3.2m/s | -19.9°C | 52.3% | 0hPa | 3V | 08:30:00 | 00:50:57 | 00:00:00 | |
| IW2NTF | 2026-09-02 11:25:58 | 45.50288 | 8.80783 | 91° | 57km/h | 6757m | 4.2m/s | -19.6°C | 49.8% | 0hPa | 2.9V | 08:30:00 | 00:50:47 | 00:00:00 | |
| IW2NTF | 2026-09-02 11:25:49 | 45.50292 | 8.80569 | 89° | 64km/h | 6714m | 3.4m/s | -19.3°C | 58.3% | 0hPa | 3V | 08:30:00 | 00:50:37 | 00:00:00 | |
| IW2NTF | 2026-09-02 11:25:38 | 45.50300 | 8.80348 | 95° | 64km/h | 6673m | 3.7m/s | -18.9°C | 59.9% | 0hPa | 3V | 08:30:00 | 00:50:27 | 00:00:00 | |
| IW2NTF | 2026-09-02 11:25:29 | 45.50311 | 8.80128 | 96° | 64km/h | 6632m | 5m/s | -18.6°C | 55.9% | 0hPa | 3V | 08:30:00 | 00:50:17 | 00:00:00 | |
| IW2NTF | 2026-09-02 11:25:18 | 45.50321 | 8.79898 | 91° | 64km/h | 6588m | 4.6m/s | -18.2°C | 46.1% | 0hPa | 3V | 08:30:00 | 00:50:07 | 00:00:00 | |
| IW2NTF | 2026-09-02 11:25:09 | 45.50334 | 8.79684 | 89° | 68km/h | 6546m | 4.4m/s | -17.8°C | 31.3% | 0hPa | 3V | 08:30:00 | 00:49:57 | 00:00:00 | |
| IW2NTF | 2026-09-02 11:24:58 | 45.50341 | 8.79426 | 93° | 66km/h | 6487m | 6m/s | -17.4°C | 41.3% | 0hPa | 3V | 08:30:00 | 00:49:45 | 00:00:00 | |
| IW2NTF | 2026-09-02 11:24:48 | 45.50359 | 8.79217 | 93° | 58km/h | 6440m | 4.8m/s | -16.9°C | 42.6% | 0hPa | 3V | 08:30:00 | 00:49:35 | 00:00:00 | |
| IW2NTF | 2026-09-02 11:24:39 | 45.50379 | 8.78993 | 96° | 58km/h | 6397m | 5.8m/s | -16.6°C | 43.1% | 0hPa | 3V | 08:30:00 | 00:49:25 | 00:00:00 | |
| IW2NTF | 2026-09-02 11:24:29 | 45.50391 | 8.78788 | 99° | 62km/h | 6352m | 6.4m/s | -16.3°C | 41.4% | 0hPa | 2.8V | 08:30:00 | 00:49:15 | 00:00:00 | |
| IW2NTF | 2026-09-02 11:24:18 | 45.50408 | 8.78571 | 106° | 58km/h | 6303m | 5.8m/s | -15.9°C | 42.4% | 0hPa | 3V | 08:30:00 | 00:49:05 | 00:00:00 | |
| IW2NTF | 2026-09-02 11:24:08 | 45.50438 | 8.78361 | 93° | 62km/h | 6251m | 3.7m/s | -15.4°C | 45.4% | 0hPa | 3V | 08:30:00 | 00:48:55 | 00:00:00 | |
| IW2NTF | 2026-09-02 11:23:58 | 45.50454 | 8.78145 | 100° | 62km/h | 6204m | 3.4m/s | -15°C | 47.1% | 0hPa | 3V | 08:30:00 | 00:48:45 | 00:00:00 | |
| IW2NTF | 2026-09-02 11:23:49 | 45.50475 | 8.77939 | 101° | 53km/h | 6156m | 5.4m/s | -14.6°C | 46.4% | 0hPa | 3V | 08:30:00 | 00:48:35 | 00:00:00 | |
| IW2NTF | 2026-09-02 11:23:39 | 45.50496 | 8.77724 | 96° | 66km/h | 6112m | 5.3m/s | -14.3°C | 44.5% | 0hPa | 3V | 08:30:00 | 00:48:25 | 00:00:00 | |
| IW2NTF | 2026-09-02 11:23:28 | 45.50518 | 8.77524 | 108° | 55km/h | 6062m | 4.3m/s | -13.9°C | 42.2% | 0hPa | 3V | 08:30:00 | 00:48:15 | 00:00:00 | |
| IW2NTF | 2026-09-02 11:23:18 | 45.50543 | 8.77335 | 105° | 60km/h | 6013m | 5.1m/s | -13.6°C | 44.6% | 0hPa | 3V | 08:30:00 | 00:48:05 | 00:00:00 | |
| IW2NTF | 2026-09-02 11:23:07 | 45.50578 | 8.77137 | 104° | 53km/h | 5966m | 4.3m/s | -13.2°C | 40.2% | 0hPa | 3V | 08:30:00 | 00:47:55 | 00:00:00 | |
| IW2NTF | 2026-09-02 11:22:57 | 45.50617 | 8.76939 | 105° | 62km/h | 5926m | 4.6m/s | -12.9°C | 31.4% | 0hPa | 3V | 08:30:00 | 00:47:45 | 00:00:00 | |
| IW2NTF | 2026-09-02 11:22:47 | 45.50654 | 8.76752 | 115° | 49km/h | 5882m | 4.2m/s | -12.6°C | 22.4% | 0hPa | 3V | 08:30:00 | 00:47:35 | 00:00:00 | |
| IW2NTF | 2026-09-02 11:22:37 | 45.50703 | 8.76555 | 112° | 55km/h | 5832m | 5m/s | -12.1°C | 20.3% | 0hPa | 3V | 08:30:00 | 00:47:25 | 00:00:00 | |
| IW2NTF | 2026-09-02 11:22:27 | 45.50757 | 8.76370 | 113° | 57km/h | 5776m | 4.6m/s | -11.6°C | 16.3% | 0hPa | 3V | 08:30:00 | 00:47:15 | 00:00:00 | |
| IW2NTF | 2026-09-02 11:22:17 | 45.50809 | 8.76179 | 108° | 62km/h | 5728m | 5.2m/s | -11.1°C | 12.4% | 0hPa | 3V | 08:30:00 | 00:47:05 | 00:00:00 | |
| IW2NTF | 2026-09-02 11:22:07 | 45.50877 | 8.75998 | 123° | 57km/h | 5672m | 4.7m/s | -10.6°C | 13.3% | 0hPa | 2.8V | 08:30:00 | 00:46:55 | 00:00:00 | |
| IW2NTF | 2026-09-02 11:21:58 | 45.50955 | 8.75829 | 124° | 53km/h | 5622m | 5.1m/s | -10.2°C | 16.3% | 0hPa | 3V | 08:30:00 | 00:46:45 | 00:00:00 | |
| IW2NTF | 2026-09-02 11:21:48 | 45.51013 | 8.75653 | 111° | 53km/h | 5567m | 7m/s | -9.8°C | 18.3% | 0hPa | 3V | 08:30:00 | 00:46:35 | 00:00:00 | |
| IW2NTF | 2026-09-02 11:21:37 | 45.51085 | 8.75459 | 118° | 51km/h | 5512m | 5.6m/s | -9.3°C | 16.7% | 0hPa | 3V | 08:30:00 | 00:46:25 | 00:00:00 | |
| IW2NTF | 2026-09-02 11:21:27 | 45.51164 | 8.75315 | 125° | 55km/h | 5460m | 5.8m/s | -9°C | 18.6% | 0hPa | 3V | 08:30:00 | 00:46:15 | 00:00:00 | |
| IW2NTF | 2026-09-02 11:21:21 | 45.51232 | 8.75154 | 118° | 49km/h | 5414m | 5m/s | -8.6°C | 17.3% | 0hPa | 3V | 08:30:00 | 00:46:05 | 00:00:00 | |
| IW2NTF | 2026-09-02 11:21:10 | 45.51320 | 8.74972 | 126° | 53km/h | 5359m | 3.8m/s | -8.2°C | 17% | 0hPa | 3V | 08:30:00 | 00:45:54 | 00:00:00 | |
| IW2NTF | 2026-09-02 11:21:00 | 45.51404 | 8.74833 | 124° | 58km/h | 5313m | 5.4m/s | -7.7°C | 17.4% | 0hPa | 3V | 08:30:00 | 00:45:44 | 00:00:00 | |
| IW2NTF | 2026-09-02 11:20:50 | 45.51478 | 8.74674 | 120° | 47km/h | 5263m | 4.9m/s | -7.3°C | 14.8% | 0hPa | 3V | 08:30:00 | 00:45:34 | 00:00:00 | |
| IW2NTF | 2026-09-02 11:20:41 | 45.51551 | 8.74523 | 124° | 38km/h | 5217m | 4.4m/s | -6.9°C | 12.1% | 0hPa | 3V | 08:30:00 | 00:45:24 | 00:00:00 | |
| IW2NTF | 2026-09-02 11:20:31 | 45.51627 | 8.74385 | 129° | 49km/h | 5166m | 2.3m/s | -6.4°C | 11.2% | 0hPa | 3V | 08:30:00 | 00:45:14 | 00:00:00 | |
| IW2NTF | 2026-09-02 11:20:20 | 45.51693 | 8.74241 | 125° | 47km/h | 5121m | 5.2m/s | -6.2°C | 8.4% | 0hPa | 3V | 08:30:00 | 00:45:04 | 00:00:00 | |
| IW2NTF | 2026-09-02 11:20:11 | 45.51762 | 8.74086 | 112° | 49km/h | 5074m | 4.2m/s | -6.6°C | 26.5% | 0hPa | 3V | 08:30:00 | 00:44:54 | 00:00:00 | |
| IW2NTF | 2026-09-02 11:20:00 | 45.51820 | 8.73952 | 119° | 51km/h | 5028m | 4.7m/s | -6.4°C | 33.4% | 0hPa | 3V | 08:30:00 | 00:44:44 | 00:00:00 | |
| IW2NTF | 2026-09-02 11:19:50 | 45.51888 | 8.73787 | 126° | 49km/h | 4979m | 4.5m/s | -6°C | 29.4% | 0hPa | 3V | 08:30:00 | 00:44:34 | 00:00:00 | |
| IW2NTF | 2026-09-02 11:19:44 | 45.51925 | 8.73711 | 123° | 35km/h | 4944m | 5.2m/s | -5.7°C | 14.2% | 0hPa | 3V | 08:30:00 | 00:44:28 | 00:00:00 | |
| IW2NTF | 2026-09-02 11:19:38 | 45.51956 | 8.73639 | 120° | 47km/h | 4914m | 4.2m/s | -5.5°C | 6.1% | 0hPa | 3V | 08:30:00 | 00:44:22 | 00:00:00 | |
| IW2NTF | 2026-09-02 11:19:32 | 45.51982 | 8.73561 | 116° | 31km/h | 4887m | 3.3m/s | -5.4°C | 4.9% | 0hPa | 3V | 08:30:00 | 00:44:16 | 00:00:00 | |
| IW2NTF | 2026-09-02 11:19:26 | 45.52000 | 8.73495 | 108° | 38km/h | 4860m | 5.9m/s | -5.3°C | 3.9% | 0hPa | 3V | 08:30:00 | 00:44:10 | 00:00:00 | |
| IW2NTF | 2026-09-02 11:19:20 | 45.52027 | 8.73419 | 117° | 38km/h | 4835m | 3m/s | -5.1°C | 4.1% | 0hPa | 3V | 08:30:00 | 00:44:04 | 00:00:00 | |
| IW2NTF | 2026-09-02 11:19:14 | 45.52057 | 8.73347 | 119° | 38km/h | 4810m | 4.9m/s | -4.9°C | 4.8% | 0hPa | 3V | 08:30:00 | 00:43:58 | 00:00:00 | |
| IW2NTF | 2026-09-02 11:19:09 | 45.52067 | 8.73271 | 99° | 37km/h | 4787m | 3.1m/s | -4.8°C | 5.4% | 0hPa | 3V | 08:30:00 | 00:43:52 | 00:00:00 | |
| IW2NTF | 2026-09-02 11:19:03 | 45.52088 | 8.73186 | 119° | 40km/h | 4753m | 4.3m/s | -4.5°C | 6.8% | 0hPa | 3V | 08:30:00 | 00:43:46 | 00:00:00 | |
| IW2NTF | 2026-09-02 11:18:57 | 45.52113 | 8.73112 | 103° | 37km/h | 4719m | 4.3m/s | -4.4°C | 10.3% | 0hPa | 3V | 08:30:00 | 00:43:40 | 00:00:00 | |
| IW2NTF | 2026-09-02 11:18:50 | 45.52124 | 8.73034 | 107° | 38km/h | 4689m | 4.7m/s | -4.1°C | 8.8% | 0hPa | 3V | 08:30:00 | 00:43:34 | 00:00:00 | |
| IW2NTF | 2026-09-02 11:18:44 | 45.52142 | 8.72949 | 106° | 37km/h | 4659m | 5.3m/s | -4°C | 6.1% | 0hPa | 3V | 08:30:00 | 00:43:28 | 00:00:00 | |
| IW2NTF | 2026-09-02 11:18:38 | 45.52160 | 8.72888 | 106° | 35km/h | 4627m | 5.1m/s | -3.8°C | 4.7% | 0hPa | 3V | 08:30:00 | 00:43:22 | 00:00:00 | |
| IW2NTF | 2026-09-02 11:18:32 | 45.52175 | 8.72817 | 108° | 31km/h | 4599m | 4.1m/s | -3.9°C | 7.5% | 0hPa | 3V | 08:30:00 | 00:43:16 | 00:00:00 | |
| IW2NTF | 2026-09-02 11:18:26 | 45.52189 | 8.72754 | 114° | 31km/h | 4574m | 3.7m/s | -3.8°C | 8.6% | 0hPa | 3V | 08:30:00 | 00:43:10 | 00:00:00 | |
| IW2NTF | 2026-09-02 11:18:20 | 45.52217 | 8.72696 | 129° | 33km/h | 4550m | 4.1m/s | -3.6°C | 8.6% | 0hPa | 3V | 08:30:00 | 00:43:04 | 00:00:00 | |
| IW2NTF | 2026-09-02 11:18:14 | 45.52246 | 8.72636 | 119° | 35km/h | 4529m | 4m/s | -3.4°C | 8.6% | 0hPa | 3V | 08:30:00 | 00:42:58 | 00:00:00 | |
| IW2NTF | 2026-09-02 11:18:08 | 45.52270 | 8.72573 | 114° | 27km/h | 4507m | 5.2m/s | -3.2°C | 8.7% | 0hPa | 3V | 08:30:00 | 00:42:52 | 00:00:00 | |
| IW2NTF | 2026-09-02 11:18:02 | 45.52287 | 8.72507 | 115° | 37km/h | 4483m | 4.6m/s | -3°C | 8.8% | 0hPa | 3V | 08:30:00 | 00:42:46 | 00:00:00 | |
| IW2NTF | 2026-09-02 11:17:56 | 45.52312 | 8.72431 | 117° | 46km/h | 4457m | 4.3m/s | -2.8°C | 8.6% | 0hPa | 3V | 08:30:00 | 00:42:40 | 00:00:00 | |
| IW2NTF | 2026-09-02 11:17:50 | 45.52339 | 8.72366 | 105° | 31km/h | 4428m | 6.5m/s | -2.5°C | 8.6% | 0hPa | 3V | 08:30:00 | 00:42:34 | 00:00:00 | |
| IW2NTF | 2026-09-02 11:17:44 | 45.52341 | 8.72296 | 91° | 26km/h | 4403m | 5.3m/s | -2.3°C | 8.7% | 0hPa | 3V | 08:30:00 | 00:42:28 | 00:00:00 | |
| IW2NTF | 2026-09-02 11:17:38 | 45.52349 | 8.72251 | 100° | 20km/h | 4376m | 4.2m/s | -2.1°C | 8.6% | 0hPa | 3V | 08:30:00 | 00:42:22 | 00:00:00 | |
| IW2NTF | 2026-09-02 11:17:32 | 45.52351 | 8.72198 | 105° | 26km/h | 4348m | 5.2m/s | -1.8°C | 8.7% | 0hPa | 3V | 08:30:00 | 00:42:16 | 00:00:00 | |
| IW2NTF | 2026-09-02 11:17:27 | 45.52368 | 8.72140 | 100° | 27km/h | 4320m | 5m/s | -1.6°C | 9.3% | 0hPa | 3V | 08:30:00 | 00:42:10 | 00:00:00 | |
| IW2NTF | 2026-09-02 11:17:20 | 45.52377 | 8.72090 | 115° | 26km/h | 4286m | 5.3m/s | -1.4°C | 9.2% | 0hPa | 3V | 08:30:00 | 00:42:04 | 00:00:00 | |
| IW2NTF | 2026-09-02 11:17:15 | 45.52389 | 8.72037 | 99° | 24km/h | 4259m | 5.3m/s | -1.1°C | 8.3% | 0hPa | 3V | 08:30:00 | 00:41:58 | 00:00:00 | |
| IW2NTF | 2026-09-02 11:17:08 | 45.52399 | 8.71978 | 108° | 27km/h | 4231m | 5m/s | -0.9°C | 7% | 0hPa | 3V | 08:30:00 | 00:41:52 | 00:00:00 | |
| IW2NTF | 2026-09-02 11:17:02 | 45.52414 | 8.71922 | 103° | 33km/h | 4207m | 3.5m/s | -0.7°C | 6.1% | 0hPa | 3V | 08:30:00 | 00:41:46 | 00:00:00 | |
| IW2NTF | 2026-09-02 11:16:56 | 45.52419 | 8.71857 | 93° | 29km/h | 4181m | 5m/s | -0.5°C | 5.9% | 0hPa | 3V | 08:30:00 | 00:41:40 | 00:00:00 | |
| IW2NTF | 2026-09-02 11:16:50 | 45.52424 | 8.71797 | 98° | 26km/h | 4157m | 4.1m/s | -0.3°C | 5.8% | 0hPa | 3V | 08:30:00 | 00:41:34 | 00:00:00 | |
| IW2NTF | 2026-09-02 11:16:44 | 45.52428 | 8.71736 | 95° | 33km/h | 4137m | 3.8m/s | -0.1°C | 5.9% | 0hPa | 3V | 08:30:00 | 00:41:28 | 00:00:00 | |
| IW2NTF | 2026-09-02 11:16:38 | 45.52432 | 8.71669 | 96° | 29km/h | 4116m | 4.6m/s | 0°C | 6.1% | 0hPa | 3V | 08:30:00 | 00:41:22 | 00:00:00 | |
| IW2NTF | 2026-09-02 11:16:32 | 45.52443 | 8.71608 | 98° | 27km/h | 4093m | 2.5m/s | 0.3°C | 6.1% | 0hPa | 3V | 08:30:00 | 00:41:16 | 00:00:00 | |
| IW2NTF | 2026-09-02 11:16:26 | 45.52452 | 8.71539 | 94° | 31km/h | 4071m | 3.6m/s | 0.4°C | 6.2% | 0hPa | 3V | 08:30:00 | 00:41:10 | 00:00:00 | |
| IW2NTF | 2026-09-02 11:16:20 | 45.52456 | 8.71478 | 97° | 27km/h | 4048m | 3.5m/s | 0.6°C | 7% | 0hPa | 3V | 08:30:00 | 00:41:04 | 00:00:00 | |
| IW2NTF | 2026-09-02 11:16:14 | 45.52463 | 8.71418 | 99° | 31km/h | 4026m | 3.6m/s | 0.7°C | 7% | 0hPa | 3V | 08:30:00 | 00:40:58 | 00:00:00 | |
| IW2NTF | 2026-09-02 11:16:08 | 45.52469 | 8.71350 | 97° | 33km/h | 4007m | 2.9m/s | 0.9°C | 7.3% | 0hPa | 3V | 08:30:00 | 00:40:52 | 00:00:00 | |
| IW2NTF | 2026-09-02 11:16:02 | 45.52475 | 8.71293 | 101° | 27km/h | 3989m | 2.1m/s | 1.1°C | 7.6% | 0hPa | 3V | 08:30:00 | 00:40:46 | 00:00:00 | |
| IW2NTF | 2026-09-02 11:15:56 | 45.52487 | 8.71224 | 97° | 35km/h | 3971m | 2.9m/s | 1.2°C | 7.6% | 0hPa | 3V | 08:30:00 | 00:40:40 | 00:00:00 | |
| IW2NTF | 2026-09-02 11:15:51 | 45.52496 | 8.71166 | 100° | 26km/h | 3950m | 3.4m/s | 1.4°C | 7.8% | 0hPa | 3V | 08:30:00 | 00:40:34 | 00:00:00 | |
| IW2NTF | 2026-09-02 11:15:39 | 45.52505 | 8.71094 | 108° | 38km/h | 3933m | 2.9m/s | 1.6°C | 7.7% | 0hPa | 3V | 08:30:00 | 00:40:28 | 00:00:00 | |
| IW2NTF | 2026-09-02 11:15:39 | 45.52515 | 8.71034 | 94° | 29km/h | 3916m | 2.6m/s | 1.7°C | 7.8% | 0hPa | 3V | 08:30:00 | 00:40:23 | 00:00:00 | |
| IW2NTF | 2026-09-02 11:15:33 | 45.52527 | 8.70973 | 107° | 35km/h | 3896m | 3m/s | 1.9°C | 8% | 0hPa | 3V | 08:30:00 | 00:40:17 | 00:00:00 | |
| IW2NTF | 2026-09-02 11:15:27 | 45.52538 | 8.70905 | 100° | 31km/h | 3879m | 2m/s | 2.1°C | 8% | 0hPa | 3V | 08:30:00 | 00:40:11 | 00:00:00 | |
| IW2NTF | 2026-09-02 11:15:21 | 45.52553 | 8.70840 | 120° | 27km/h | 3860m | 3.2m/s | 2.2°C | 8.3% | 0hPa | 3V | 08:30:00 | 00:40:05 | 00:00:00 | |
| IW2NTF | 2026-09-02 11:15:15 | 45.52566 | 8.70791 | 105° | 27km/h | 3839m | 4.1m/s | 2.1°C | 11% | 0hPa | 3V | 08:30:00 | 00:39:59 | 00:00:00 | |
| IW2NTF | 2026-09-02 11:15:09 | 45.52576 | 8.70729 | 99° | 29km/h | 3817m | 4m/s | 1.8°C | 15.5% | 0hPa | 3V | 08:30:00 | 00:39:53 | 00:00:00 | |
| IW2NTF | 2026-09-02 11:15:03 | 45.52589 | 8.70676 | 115° | 27km/h | 3798m | 3m/s | 1.9°C | 16.6% | 0hPa | 3V | 08:30:00 | 00:39:47 | 00:00:00 | |
| IW2NTF | 2026-09-02 11:14:57 | 45.52604 | 8.70614 | 109° | 29km/h | 3779m | 4.1m/s | 2°C | 16.5% | 0hPa | 3V | 08:30:00 | 00:39:41 | 00:00:00 | |
| IW2NTF | 2026-09-02 11:14:51 | 45.52617 | 8.70565 | 99° | 26km/h | 3758m | 3.6m/s | 2°C | 17.9% | 0hPa | 3V | 08:30:00 | 00:39:35 | 00:00:00 | |
| IW2NTF | 2026-09-02 11:14:44 | 45.52635 | 8.70482 | 115° | 33km/h | 3735m | 4m/s | 1.8°C | 21.5% | 0hPa | 3V | 08:30:00 | 00:39:28 | 00:00:00 | |
| IW2NTF | 2026-09-02 11:14:38 | 45.52659 | 8.70434 | 125° | 26km/h | 3710m | 4.4m/s | 2°C | 21.8% | 0hPa | 3V | 08:30:00 | 00:39:22 | 00:00:00 | |
| IW2NTF | 2026-09-02 11:14:32 | 45.52679 | 8.70368 | 111° | 37km/h | 3678m | 4.9m/s | 1.9°C | 24% | 0hPa | 3V | 08:30:00 | 00:39:16 | 00:00:00 | |
| IW2NTF | 2026-09-02 11:14:26 | 45.52694 | 8.70309 | 94° | 22km/h | 3652m | 4.4m/s | 2.1°C | 24.4% | 0hPa | 3V | 08:30:00 | 00:39:10 | 00:00:00 | |
| IW2NTF | 2026-09-02 11:14:20 | 45.52691 | 8.70256 | 83° | 26km/h | 3620m | 4.5m/s | 2.2°C | 25.7% | 0hPa | 3V | 08:30:00 | 00:39:04 | 00:00:00 | |
| IW2NTF | 2026-09-02 11:14:14 | 45.52690 | 8.70194 | 85° | 35km/h | 3590m | 5m/s | 2.4°C | 26.4% | 0hPa | 3V | 08:30:00 | 00:38:58 | 00:00:00 | |
| IW2NTF | 2026-09-02 11:14:08 | 45.52687 | 8.70108 | 94° | 40km/h | 3559m | 4.7m/s | 2.5°C | 28.7% | 0hPa | 3V | 08:30:00 | 00:38:52 | 00:00:00 | |
| IW2NTF | 2026-09-02 11:14:02 | 45.52694 | 8.70029 | 95° | 33km/h | 3531m | 3.4m/s | 2.6°C | 31% | 0hPa | 3V | 08:30:00 | 00:38:46 | 00:00:00 | |
| IW2NTF | 2026-09-02 11:13:56 | 45.52699 | 8.69954 | 95° | 35km/h | 3508m | 2.9m/s | 2.8°C | 31.3% | 0hPa | 3V | 08:30:00 | 00:38:40 | 00:00:00 | |
| IW2NTF | 2026-09-02 11:13:50 | 45.52704 | 8.69871 | 89° | 38km/h | 3487m | 3.5m/s | 2.9°C | 33.1% | 0hPa | 3V | 08:30:00 | 00:38:34 | 00:00:00 | |
| IW2NTF | 2026-09-02 11:13:44 | 45.52708 | 8.69785 | 93° | 40km/h | 3467m | 2.6m/s | 2.8°C | 36.7% | 0hPa | 3V | 08:30:00 | 00:38:28 | 00:00:00 | |
| IW2NTF | 2026-09-02 11:13:38 | 45.52714 | 8.69701 | 91° | 38km/h | 3451m | 2.9m/s | 2.8°C | 39.1% | 0hPa | 3V | 08:30:00 | 00:38:22 | 00:00:00 | |
| IW2NTF | 2026-09-02 11:13:32 | 45.52723 | 8.69617 | 100° | 42km/h | 3432m | 3.9m/s | 2.8°C | 41.8% | 0hPa | 3V | 08:30:00 | 00:38:16 | 00:00:00 | |
| IW2NTF | 2026-09-02 11:13:26 | 45.52735 | 8.69520 | 108° | 40km/h | 3413m | 2.4m/s | 2.6°C | 46.3% | 0hPa | 3V | 08:30:00 | 00:38:10 | 00:00:00 | |
| IW2NTF | 2026-09-02 11:13:20 | 45.52757 | 8.69459 | 113° | 35km/h | 3385m | 4m/s | 2.7°C | 49% | 0hPa | 3V | 08:30:00 | 00:38:04 | 00:00:00 | |
| IW2NTF | 2026-09-02 11:13:11 | 45.52778 | 8.69340 | 118° | 27km/h | 3342m | 6.3m/s | 3.1°C | 46.7% | 0hPa | 3V | 08:30:00 | 00:37:55 | 00:00:00 | |
| IW2NTF | 2026-09-02 11:13:05 | 45.52794 | 8.69293 | 114° | 20km/h | 3314m | 5.2m/s | 3.4°C | 45.7% | 0hPa | 3V | 08:30:00 | 00:37:49 | 00:00:00 | |
| IW2NTF | 2026-09-02 11:13:00 | 45.52801 | 8.69236 | 88° | 35km/h | 3287m | 5.3m/s | 3.6°C | 45.6% | 0hPa | 3V | 08:30:00 | 00:37:43 | 00:00:00 | |
| IW2NTF | 2026-09-02 11:12:53 | 45.52797 | 8.69182 | 78° | 22km/h | 3260m | 3.6m/s | 3.9°C | 44.8% | 0hPa | 3V | 08:30:00 | 00:37:37 | 00:00:00 | |
| IW2NTF | 2026-09-02 11:12:47 | 45.52789 | 8.69107 | 79° | 38km/h | 3231m | 7.5m/s | 4.1°C | 43.6% | 0hPa | 3V | 08:30:00 | 00:37:31 | 00:00:00 | |
| IW2NTF | 2026-09-02 11:12:41 | 45.52787 | 8.69056 | 101° | 18km/h | 3202m | 3.7m/s | 4.5°C | 42.7% | 0hPa | 3V | 08:30:00 | 00:37:25 | 00:00:00 | |
| IW2NTF | 2026-09-02 11:12:35 | 45.52792 | 8.68987 | 97° | 40km/h | 3178m | 4.2m/s | 4.7°C | 41% | 0hPa | 3V | 08:30:00 | 00:37:19 | 00:00:00 | |
| IW2NTF | 2026-09-02 11:12:29 | 45.52806 | 8.68920 | 109° | 26km/h | 3156m | 4m/s | 4.9°C | 39.5% | 0hPa | 3V | 08:30:00 | 00:37:13 | 00:00:00 | |
| IW2NTF | 2026-09-02 11:12:23 | 45.52822 | 8.68862 | 99° | 24km/h | 3129m | 4.1m/s | 5.2°C | 39.3% | 0hPa | 3V | 08:30:00 | 00:37:07 | 00:00:00 | |
| IW2NTF | 2026-09-02 11:12:18 | 45.52814 | 8.68816 | 83° | 20km/h | 3100m | 3.9m/s | 5.4°C | 38.4% | 0hPa | 3V | 08:30:00 | 00:37:01 | 00:00:00 | |
| IW2NTF | 2026-09-02 11:12:09 | 45.52812 | 8.68738 | 89° | 27km/h | 3065m | 4.5m/s | 5.8°C | 37.2% | 0hPa | 3V | 08:30:00 | 00:36:53 | 00:00:00 | |
| IW2NTF | 2026-09-02 11:12:02 | 45.52813 | 8.68675 | 92° | 35km/h | 3043m | 4.5m/s | 6°C | 36.8% | 0hPa | 3V | 08:30:00 | 00:36:47 | 00:00:00 | |
| IW2NTF | 2026-09-02 11:11:57 | 45.52806 | 8.68614 | 61° | 27km/h | 3022m | 3.4m/s | 6.1°C | 36.6% | 0hPa | 3V | 08:30:00 | 00:36:41 | 00:00:00 | |
| IW2NTF | 2026-09-02 11:11:51 | 45.52801 | 8.68569 | 114° | 18km/h | 3000m | 5m/s | 6.2°C | 36.2% | 0hPa | 3V | 08:30:00 | 00:36:35 | 00:00:00 | |
| IW2NTF | 2026-09-02 11:11:45 | 45.52803 | 8.68530 | 76° | 24km/h | 2971m | 5m/s | 6.5°C | 36% | 0hPa | 3V | 08:30:00 | 00:36:29 | 00:00:00 | |
| IW2NTF | 2026-09-02 11:11:39 | 45.52802 | 8.68469 | 97° | 27km/h | 2942m | 4.3m/s | 6.8°C | 33.8% | 0hPa | 3V | 08:30:00 | 00:36:23 | 00:00:00 | |
| IW2NTF | 2026-09-02 11:11:32 | 45.52796 | 8.68411 | 83° | 26km/h | 2917m | 3.9m/s | 6.9°C | 34.8% | 0hPa | 3V | 08:30:00 | 00:36:17 | 00:00:00 | |
| IW2NTF | 2026-09-02 11:11:26 | 45.52805 | 8.68360 | 98° | 22km/h | 2890m | 4.7m/s | 7.1°C | 35.3% | 0hPa | 3V | 08:30:00 | 00:36:10 | 00:00:00 | |
| IW2NTF | 2026-09-02 11:11:15 | 45.52798 | 8.68301 | 66° | 29km/h | 2861m | 3.2m/s | 7.3°C | 36.8% | 0hPa | 3V | 08:30:00 | 00:36:04 | 00:00:00 | |
| IW2NTF | 2026-09-02 11:11:15 | 45.52789 | 8.68248 | 99° | 29km/h | 2840m | 4.3m/s | 7.5°C | 37.3% | 0hPa | 3V | 08:30:00 | 00:35:59 | 00:00:00 | |
| IW2NTF | 2026-09-02 11:11:08 | 45.52808 | 8.68186 | 100° | 35km/h | 2801m | 6.3m/s | 7.8°C | 38.4% | 0hPa | 3V | 08:30:00 | 00:35:52 | 00:00:00 | |
| IW2NTF | 2026-09-02 11:11:02 | 45.52805 | 8.68110 | 84° | 38km/h | 2773m | 4m/s | 8°C | 39.1% | 0hPa | 3V | 08:30:00 | 00:35:46 | 00:00:00 | |
| IW2NTF | 2026-09-02 11:10:57 | 45.52813 | 8.68044 | 114° | 24km/h | 2744m | 6.1m/s | 8.2°C | 41.4% | 0hPa | 3V | 08:30:00 | 00:35:40 | 00:00:00 | |
| IW2NTF | 2026-09-02 11:10:51 | 45.52822 | 8.67992 | 91° | 27km/h | 2717m | 3.8m/s | 8.4°C | 42.3% | 0hPa | 3V | 08:30:00 | 00:35:34 | 00:00:00 | |
| IW2NTF | 2026-09-02 11:10:40 | 45.52825 | 8.67925 | 104° | 26km/h | 2692m | 4m/s | 8.6°C | 42.4% | 0hPa | 3V | 08:30:00 | 00:35:28 | 00:00:00 | |
| IW2NTF | 2026-09-02 11:10:33 | 45.52836 | 8.67864 | 94° | 31km/h | 2669m | 4.4m/s | 8.7°C | 48.1% | 0hPa | 3V | 08:30:00 | 00:35:22 | 00:00:00 | |
| IW2NTF | 2026-09-02 11:10:33 | 45.52838 | 8.67803 | 95° | 40km/h | 2651m | 3.5m/s | 8.7°C | 49.2% | 0hPa | 3V | 08:30:00 | 00:35:17 | 00:00:00 | |
| IW2NTF | 2026-09-02 11:10:27 | 45.52848 | 8.67724 | 106° | 37km/h | 2626m | 4.7m/s | 8.9°C | 49.8% | 0hPa | 3V | 08:30:00 | 00:35:11 | 00:00:00 | |
| IW2NTF | 2026-09-02 11:10:20 | 45.52859 | 8.67642 | 96° | 46km/h | 2603m | 4m/s | 9.1°C | 49.5% | 0hPa | 3V | 08:30:00 | 00:35:05 | 00:00:00 | |
| IW2NTF | 2026-09-02 11:10:15 | 45.52870 | 8.67562 | 119° | 31km/h | 2577m | 4.1m/s | 9.3°C | 49.5% | 0hPa | 3V | 08:30:00 | 00:34:59 | 00:00:00 | |
| IW2NTF | 2026-09-02 11:10:09 | 45.52895 | 8.67502 | 114° | 38km/h | 2554m | 4.7m/s | 9.5°C | 49.2% | 0hPa | 3V | 08:30:00 | 00:34:53 | 00:00:00 | |
| IW2NTF | 2026-09-02 11:10:03 | 45.52914 | 8.67437 | 101° | 24km/h | 2526m | 4.2m/s | 9.7°C | 48.9% | 0hPa | 3V | 08:30:00 | 00:34:47 | 00:00:00 | |
| IW2NTF | 2026-09-02 11:09:58 | 45.52914 | 8.67379 | 90° | 26km/h | 2508m | 3.2m/s | 9.8°C | 47.5% | 0hPa | 3V | 08:30:00 | 00:34:41 | 00:00:00 | |
| IW2NTF | 2026-09-02 11:09:50 | 45.52926 | 8.67327 | 112° | 35km/h | 2480m | 4.7m/s | 9.9°C | 48.5% | 0hPa | 3V | 08:30:00 | 00:34:35 | 00:00:00 | |
| IW2NTF | 2026-09-02 11:09:45 | 45.52949 | 8.67253 | 119° | 35km/h | 2458m | 4.1m/s | 10°C | 49.6% | 0hPa | 3V | 08:30:00 | 00:34:29 | 00:00:00 | |
| IW2NTF | 2026-09-02 11:09:39 | 45.52968 | 8.67185 | 99° | 33km/h | 2428m | 4.5m/s | 10.3°C | 48.9% | 0hPa | 3V | 08:30:00 | 00:34:23 | 00:00:00 | |
| IW2NTF | 2026-09-02 11:09:33 | 45.52970 | 8.67123 | 92° | 20km/h | 2406m | 3.9m/s | 10.4°C | 48.5% | 0hPa | 3V | 08:30:00 | 00:34:17 | 00:00:00 | |
| IW2NTF | 2026-09-02 11:09:27 | 45.52988 | 8.67091 | 127° | 27km/h | 2380m | 3.2m/s | 10.6°C | 48.1% | 0hPa | 3V | 08:30:00 | 00:34:11 | 00:00:00 | |
| IW2NTF | 2026-09-02 11:09:20 | 45.52998 | 8.67043 | 91° | 15km/h | 2350m | 3.5m/s | 10.9°C | 47.3% | 0hPa | 3V | 08:30:00 | 00:34:05 | 00:00:00 | |
| IW2NTF | 2026-09-02 11:09:15 | 45.53001 | 8.67004 | 110° | 26km/h | 2327m | 5.1m/s | 10.8°C | 49.2% | 0hPa | 3V | 08:30:00 | 00:33:59 | 00:00:00 | |
| IW2NTF | 2026-09-02 11:09:09 | 45.53016 | 8.66967 | 117° | 15km/h | 2291m | 4.4m/s | 11.2°C | 49.3% | 0hPa | 3V | 08:30:00 | 00:33:53 | 00:00:00 | |
| IW2NTF | 2026-09-02 11:09:03 | 45.53036 | 8.66949 | 159° | 13km/h | 2266m | 2.7m/s | 11.3°C | 50.9% | 0hPa | 3V | 08:30:00 | 00:33:47 | 00:00:00 | |
| IW2NTF | 2026-09-02 11:08:58 | 45.53048 | 8.66920 | 100° | 24km/h | 2241m | 4.7m/s | 11.5°C | 50.7% | 0hPa | 3V | 08:30:00 | 00:33:41 | 00:00:00 | |
| IW2NTF | 2026-09-02 11:08:50 | 45.53062 | 8.66886 | 143° | 22km/h | 2214m | 6m/s | 11.7°C | 51.1% | 0hPa | 3V | 08:30:00 | 00:33:35 | 00:00:00 | |
| IW2NTF | 2026-09-02 11:08:45 | 45.53084 | 8.66857 | 118° | 15km/h | 2191m | 4.3m/s | 11.9°C | 48.5% | 0hPa | 3V | 08:30:00 | 00:33:29 | 00:00:00 | |
| IW2NTF | 2026-09-02 11:08:39 | 45.53083 | 8.66822 | 97° | 16km/h | 2162m | 3.3m/s | 12.1°C | 45.2% | 0hPa | 3V | 08:30:00 | 00:33:23 | 00:00:00 | |
| IW2NTF | 2026-09-02 11:08:33 | 45.53081 | 8.66788 | 86° | 16km/h | 2131m | 3.7m/s | 11.8°C | 61.6% | 0hPa | 3V | 08:30:00 | 00:33:17 | 00:00:00 | |
| IW2NTF | 2026-09-02 11:08:27 | 45.53094 | 8.66755 | 114° | 20km/h | 2110m | 3.2m/s | 11.9°C | 66% | 0hPa | 3V | 08:30:00 | 00:33:11 | 00:00:00 | |
| IW2NTF | 2026-09-02 11:08:21 | 45.53085 | 8.66712 | 44° | 22km/h | 2079m | 5.2m/s | 12.1°C | 67.3% | 0hPa | 3V | 08:30:00 | 00:33:05 | 00:00:00 | |
| IW2NTF | 2026-09-02 11:08:15 | 45.53062 | 8.66683 | 54° | 18km/h | 2052m | 5m/s | 12.2°C | 70% | 0hPa | 3V | 08:30:00 | 00:32:59 | 00:00:00 | |
| IW2NTF | 2026-09-02 11:08:09 | 45.53049 | 8.66659 | 39° | 15km/h | 2022m | 3.7m/s | 12.3°C | 73.6% | 0hPa | 3V | 08:30:00 | 00:32:53 | 00:00:00 | |
| IW2NTF | 2026-09-02 11:08:03 | 45.53040 | 8.66626 | 94° | 20km/h | 2000m | 2.4m/s | 12.6°C | 71.3% | 0hPa | 3V | 08:30:00 | 00:32:47 | 00:00:00 | |
| IW2NTF | 2026-09-02 11:07:56 | 45.53041 | 8.66613 | 107° | 15km/h | 1995m | 2.3m/s | 12.6°C | 69.7% | 0hPa | 3V | 08:30:00 | 00:32:45 | 00:00:00 | |
| IW2NTF | 2026-09-02 11:07:56 | 45.53044 | 8.66602 | 101° | 18km/h | 1987m | 4.9m/s | 12.6°C | 70.2% | 0hPa | 3V | 08:30:00 | 00:32:43 | 00:00:00 | |
| IW2NTF | 2026-09-02 11:07:56 | 45.53043 | 8.66591 | 71° | 16km/h | 1977m | 5.5m/s | 12.7°C | 70.6% | 0hPa | 3V | 08:30:00 | 00:32:41 | 00:00:00 | |
| IW2NTF | 2026-09-02 11:07:51 | 45.53030 | 8.66566 | 51° | 26km/h | 1956m | 5.7m/s | 12.7°C | 78.3% | 0hPa | 3V | 08:30:00 | 00:32:37 | 00:00:00 | |
| IW2NTF | 2026-09-02 11:07:51 | 45.53023 | 8.66552 | 59° | 20km/h | 1946m | 4m/s | 12.7°C | 80.4% | 0hPa | 3V | 08:30:00 | 00:32:35 | 00:00:00 | |
| IW2NTF | 2026-09-02 11:07:45 | 45.53019 | 8.66543 | 58° | 9km/h | 1937m | 6m/s | 12.7°C | 82.2% | 0hPa | 3V | 08:30:00 | 00:32:33 | 00:00:00 | |
| IW2NTF | 2026-09-02 11:07:45 | 45.53018 | 8.66540 | 25° | 2km/h | 1926m | 5.3m/s | 12.8°C | 81.6% | 0hPa | 3V | 08:30:00 | 00:32:31 | 00:00:00 | |
| IW2NTF | 2026-09-02 11:07:45 | 45.53017 | 8.66539 | 55° | 4km/h | 1918m | 3.2m/s | 12.9°C | 80.7% | 0hPa | 3V | 08:30:00 | 00:32:29 | 00:00:00 | |
| IW2NTF | 2026-09-02 11:07:40 | 45.53016 | 8.66536 | 63° | 5km/h | 1910m | 4.3m/s | 12.9°C | 79.9% | 0hPa | 3V | 08:30:00 | 00:32:27 | 00:00:00 | |
| IW2NTF | 2026-09-02 11:07:40 | 45.53014 | 8.66532 | 69° | 7km/h | 1900m | 5.6m/s | 13°C | 79.8% | 0hPa | 3V | 08:30:00 | 00:32:25 | 00:00:00 | |
| IW2NTF | 2026-09-02 11:07:40 | 45.53012 | 8.66525 | 78° | 13km/h | 1889m | 6.3m/s | 13°C | 82.3% | 0hPa | 3V | 08:30:00 | 00:32:23 | 00:00:00 | |
| IW2NTF | 2026-09-02 11:07:33 | 45.53007 | 8.66506 | 65° | 13km/h | 1872m | 4.3m/s | 13.1°C | 84% | 0hPa | 3V | 08:30:00 | 00:32:19 | 00:00:00 | |
| IW2NTF | 2026-09-02 11:07:33 | 45.53004 | 8.66498 | 67° | 11km/h | 1864m | 4.5m/s | 13.2°C | 84.7% | 0hPa | 3V | 08:30:00 | 00:32:17 | 00:00:00 | |
| IW2NTF | 2026-09-02 11:07:28 | 45.53002 | 8.66491 | 65° | 11km/h | 1856m | 3.1m/s | 13.2°C | 86.6% | 0hPa | 3V | 08:30:00 | 00:32:15 | 00:00:00 | |
| IW2NTF | 2026-09-02 11:07:28 | 45.53001 | 8.66484 | 95° | 11km/h | 1849m | 4.1m/s | 13.3°C | 86% | 0hPa | 3V | 08:30:00 | 00:32:13 | 00:00:00 | |
| IW2NTF | 2026-09-02 11:07:28 | 45.53003 | 8.66475 | 113° | 15km/h | 1843m | 3.9m/s | 13.3°C | 85.8% | 0hPa | 3V | 08:30:00 | 00:32:11 | 00:00:00 | |
| IW2NTF | 2026-09-02 11:07:21 | 45.53004 | 8.66466 | 93° | 11km/h | 1836m | 3.1m/s | 13.3°C | 87.4% | 0hPa | 3V | 08:30:00 | 00:32:09 | 00:00:00 | |
| IW2NTF | 2026-09-02 11:07:21 | 45.53003 | 8.66459 | 70° | 11km/h | 1829m | 3.7m/s | 13.4°C | 88.2% | 0hPa | 3V | 08:30:00 | 00:32:07 | 00:00:00 | |
| IW2NTF | 2026-09-02 11:07:21 | 45.53001 | 8.66452 | 64° | 11km/h | 1822m | 3.7m/s | 13.4°C | 88.3% | 0hPa | 3V | 08:30:00 | 00:32:05 | 00:00:00 | |
| IW2NTF | 2026-09-02 11:07:15 | 45.52999 | 8.66444 | 85° | 11km/h | 1816m | 2.6m/s | 13.5°C | 88.6% | 0hPa | 3V | 08:30:00 | 00:32:03 | 00:00:00 | |
| IW2NTF | 2026-09-02 11:07:15 | 45.52999 | 8.66439 | 89° | 5km/h | 1810m | 3.2m/s | 13.5°C | 89.1% | 0hPa | 3V | 08:30:00 | 00:32:01 | 00:00:00 | |
| IW2NTF | 2026-09-02 11:07:15 | 45.52998 | 8.66434 | 86° | 9km/h | 1803m | 4.2m/s | 13.6°C | 89.1% | 0hPa | 3V | 08:30:00 | 00:31:59 | 00:00:00 | |
| IW2NTF | 2026-09-02 11:07:09 | 45.52998 | 8.66426 | 90° | 9km/h | 1796m | 4m/s | 13.6°C | 89% | 0hPa | 3V | 08:30:00 | 00:31:57 | 00:00:00 | |
| IW2NTF | 2026-09-02 11:07:09 | 45.52998 | 8.66419 | 93° | 11km/h | 1789m | 3.3m/s | 13.7°C | 89% | 0hPa | 3V | 08:30:00 | 00:31:55 | 00:00:00 | |
| IW2NTF | 2026-09-02 11:07:09 | 45.52998 | 8.66409 | 92° | 16km/h | 1781m | 3.6m/s | 13.7°C | 88.7% | 0hPa | 3V | 08:30:00 | 00:31:53 | 00:00:00 | |
| IW2NTF | 2026-09-02 11:07:03 | 45.52998 | 8.66395 | 90° | 20km/h | 1776m | 2.8m/s | 13.8°C | 88.6% | 0hPa | 3V | 08:30:00 | 00:31:51 | 00:00:00 | |
| IW2NTF | 2026-09-02 11:07:03 | 45.52998 | 8.66382 | 107° | 15km/h | 1770m | 2.9m/s | 13.8°C | 89.8% | 0hPa | 3V | 08:30:00 | 00:31:49 | 00:00:00 | |
| IW2NTF | 2026-09-02 11:07:03 | 45.53001 | 8.66375 | 118° | 7km/h | 1762m | 5m/s | 13.8°C | 90.4% | 0hPa | 3V | 08:30:00 | 00:31:47 | 00:00:00 | |
| IW2NTF | 2026-09-02 11:06:58 | 45.53000 | 8.66372 | 23° | 5km/h | 1751m | 5.3m/s | 13.9°C | 90.3% | 0hPa | 3V | 08:30:00 | 00:31:45 | 00:00:00 | |
| IW2NTF | 2026-09-02 11:06:58 | 45.52995 | 8.66369 | 31° | 15km/h | 1743m | 3.5m/s | 14°C | 90% | 0hPa | 3V | 08:30:00 | 00:31:43 | 00:00:00 | |
| IW2NTF | 2026-09-02 11:06:58 | 45.52988 | 8.66363 | 35° | 16km/h | 1736m | 3.1m/s | 14.1°C | 89.7% | 0hPa | 3V | 08:30:00 | 00:31:41 | 00:00:00 | |
| IW2NTF | 2026-09-02 11:06:51 | 45.52982 | 8.66357 | 32° | 15km/h | 1730m | 4.2m/s | 14.1°C | 89.8% | 0hPa | 3V | 08:30:00 | 00:31:39 | 00:00:00 | |
| IW2NTF | 2026-09-02 11:06:51 | 45.52976 | 8.66353 | 22° | 9km/h | 1719m | 6.2m/s | 14.2°C | 89.2% | 0hPa | 3V | 08:30:00 | 00:31:37 | 00:00:00 | |
| IW2NTF | 2026-09-02 11:06:51 | 45.52973 | 8.66351 | 67° | 5km/h | 1707m | 6.1m/s | 14.4°C | 88.4% | 0hPa | 3V | 08:30:00 | 00:31:35 | 00:00:00 | |
| IW2NTF | 2026-09-02 11:06:45 | 45.52974 | 8.66347 | 141° | 11km/h | 1697m | 3.6m/s | 14.5°C | 87.8% | 0hPa | 3V | 08:30:00 | 00:31:33 | 00:00:00 | |
| IW2NTF | 2026-09-02 11:06:45 | 45.52979 | 8.66341 | 140° | 11km/h | 1690m | 3.9m/s | 14.5°C | 87.4% | 0hPa | 3V | 08:30:00 | 00:31:31 | 00:00:00 | |
| IW2NTF | 2026-09-02 11:06:45 | 45.52981 | 8.66337 | 81° | 2km/h | 1683m | 3.6m/s | 14.6°C | 87.3% | 0hPa | 3V | 08:30:00 | 00:31:29 | 00:00:00 | |
| IW2NTF | 2026-09-02 11:06:39 | 45.52979 | 8.66337 | 342° | 5km/h | 1673m | 7.1m/s | 14.7°C | 86.7% | 0hPa | 3V | 08:30:00 | 00:31:27 | 00:00:00 | |
| IW2NTF | 2026-09-02 11:06:39 | 45.52976 | 8.66338 | 343° | 5km/h | 1661m | 5.3m/s | 14.8°C | 86.2% | 0hPa | 3V | 08:30:00 | 00:31:25 | 00:00:00 | |
| IW2NTF | 2026-09-02 11:06:39 | 45.52975 | 8.66337 | 93° | 5km/h | 1653m | 3.2m/s | 14.9°C | 85.9% | 0hPa | 3V | 08:30:00 | 00:31:23 | 00:00:00 | |
| IW2NTF | 2026-09-02 11:06:31 | 45.52974 | 8.66325 | 74° | 5km/h | 1633m | 5.3m/s | 15°C | 85.4% | 0hPa | 3V | 08:30:00 | 00:31:19 | 00:00:00 | |
| IW2NTF | 2026-09-02 11:06:31 | 45.52976 | 8.66324 | 195° | 9km/h | 1616m | 3.7m/s | 15.1°C | 84.9% | 0hPa | 3V | 08:30:00 | 00:31:15 | 00:00:00 | |
| IW2NTF | 2026-09-02 11:06:23 | 45.52981 | 8.66330 | 266° | 5km/h | 1604m | 3.1m/s | 15.2°C | 84.3% | 0hPa | 3V | 08:30:00 | 00:31:11 | 00:00:00 | |
| IW2NTF | 2026-09-02 11:06:23 | 45.52980 | 8.66333 | 322° | 4km/h | 1596m | 4.5m/s | 15.3°C | 83.6% | 0hPa | 3V | 08:30:00 | 00:31:09 | 00:00:00 | |
| IW2NTF | 2026-09-02 11:06:23 | 45.52979 | 8.66334 | 34° | 2km/h | 1586m | 6.2m/s | 15.4°C | 82.9% | 0hPa | 3V | 08:30:00 | 00:31:07 | 00:00:00 | |
| IW2NTF | 2026-09-02 11:06:17 | 45.52978 | 8.66331 | 62° | 5km/h | 1576m | 4.2m/s | 15.5°C | 81.8% | 0hPa | 3V | 08:30:00 | 00:31:05 | 00:00:00 | |
| IW2NTF | 2026-09-02 11:06:17 | 45.52976 | 8.66330 | 348° | 5km/h | 1567m | 4.8m/s | 15.6°C | 81.7% | 0hPa | 3V | 08:30:00 | 00:31:03 | 00:00:00 | |
| IW2NTF | 2026-09-02 11:06:17 | 45.52971 | 8.66332 | 345° | 11km/h | 1560m | 3.4m/s | 15.7°C | 81.5% | 0hPa | 3V | 08:30:00 | 00:31:01 | 00:00:00 | |
| IW2NTF | 2026-09-02 11:06:11 | 45.52964 | 8.66333 | 7° | 13km/h | 1554m | 2.2m/s | 15.7°C | 81.4% | 0hPa | 3V | 08:30:00 | 00:30:59 | 00:00:00 | |
| IW2NTF | 2026-09-02 11:06:11 | 45.52958 | 8.66331 | 31° | 11km/h | 1549m | 3.5m/s | 15.7°C | 82.1% | 0hPa | 3V | 08:30:00 | 00:30:57 | 00:00:00 | |
| IW2NTF | 2026-09-02 11:06:11 | 45.52954 | 8.66326 | 55° | 9km/h | 1542m | 4m/s | 15.8°C | 81.6% | 0hPa | 3V | 08:30:00 | 00:30:55 | 00:00:00 | |
| IW2NTF | 2026-09-02 11:06:06 | 45.52952 | 8.66321 | 56° | 7km/h | 1533m | 5.2m/s | 15.9°C | 78.4% | 0hPa | 3V | 08:30:00 | 00:30:53 | 00:00:00 | |
| IW2NTF | 2026-09-02 11:06:06 | 45.52950 | 8.66318 | 25° | 5km/h | 1525m | 3.1m/s | 15.9°C | 78.3% | 0hPa | 3V | 08:30:00 | 00:30:51 | 00:00:00 | |
| IW2NTF | 2026-09-02 11:06:06 | 45.52947 | 8.66315 | 42° | 5km/h | 1518m | 3.8m/s | 16°C | 79.8% | 0hPa | 3V | 08:30:00 | 00:30:49 | 00:00:00 | |
| IW2NTF | 2026-09-02 11:05:59 | 45.52946 | 8.66313 | 45° | 2km/h | 1510m | 4.8m/s | 15.9°C | 83.1% | 0hPa | 3V | 08:30:00 | 00:30:47 | 00:00:00 | |
| IW2NTF | 2026-09-02 11:05:59 | 45.52945 | 8.66314 | 293° | 0km/h | 1503m | 3m/s | 15.9°C | 89.2% | 0hPa | 3V | 08:30:00 | 00:30:45 | 00:00:00 | |
| IW2NTF | 2026-09-02 11:05:59 | 45.52945 | 8.66313 | 49° | 4km/h | 1496m | 2.2m/s | 15.8°C | 93.9% | 0hPa | 3V | 08:30:00 | 00:30:43 | 00:00:00 | |
| IW2NTF | 2026-09-02 11:05:54 | 45.52943 | 8.66311 | 18° | 2km/h | 1489m | 4.1m/s | 15.9°C | 92.9% | 0hPa | 3V | 08:30:00 | 00:30:41 | 00:00:00 | |
| IW2NTF | 2026-09-02 11:05:54 | 45.52942 | 8.66312 | 314° | 2km/h | 1483m | 3m/s | 15.9°C | 92.8% | 0hPa | 3V | 08:30:00 | 00:30:39 | 00:00:00 | |
| IW2NTF | 2026-09-02 11:05:54 | 45.52940 | 8.66312 | 64° | 2km/h | 1478m | 2.5m/s | 16°C | 92.4% | 0hPa | 3V | 08:30:00 | 00:30:37 | 00:00:00 | |
| IW2NTF | 2026-09-02 11:05:47 | 45.52941 | 8.66309 | 144° | 5km/h | 1471m | 4.1m/s | 16.1°C | 91.9% | 0hPa | 3V | 08:30:00 | 00:30:35 | 00:00:00 | |
| IW2NTF | 2026-09-02 11:05:47 | 45.52945 | 8.66305 | 155° | 11km/h | 1465m | 3m/s | 16.1°C | 91.6% | 0hPa | 3V | 08:30:00 | 00:30:33 | 00:00:00 | |
| IW2NTF | 2026-09-02 11:05:47 | 45.52948 | 8.66301 | 124° | 9km/h | 1459m | 2.2m/s | 16.2°C | 91.2% | 0hPa | 3V | 08:30:00 | 00:30:31 | 00:00:00 | |
| IW2NTF | 2026-09-02 11:05:41 | 45.52949 | 8.66293 | 86° | 13km/h | 1454m | 3.3m/s | 16.2°C | 91.1% | 0hPa | 3V | 08:30:00 | 00:30:29 | 00:00:00 | |
| IW2NTF | 2026-09-02 11:05:41 | 45.52949 | 8.66285 | 90° | 9km/h | 1444m | 5.1m/s | 16.3°C | 90.7% | 0hPa | 3V | 08:30:00 | 00:30:27 | 00:00:00 | |
| IW2NTF | 2026-09-02 11:05:41 | 45.52951 | 8.66279 | 127° | 9km/h | 1434m | 5.5m/s | 16.4°C | 90.2% | 0hPa | 3V | 08:30:00 | 00:30:25 | 00:00:00 | |
| IW2NTF | 2026-09-02 11:05:35 | 45.52954 | 8.66275 | 162° | 9km/h | 1424m | 4.2m/s | 16.4°C | 89.9% | 0hPa | 3V | 08:30:00 | 00:30:23 | 00:00:00 | |
| IW2NTF | 2026-09-02 11:05:35 | 45.52958 | 8.66275 | 214° | 7km/h | 1417m | 4.2m/s | 16.4°C | 89.7% | 0hPa | 3V | 08:30:00 | 00:30:21 | 00:00:00 | |
| IW2NTF | 2026-09-02 11:05:35 | 45.52959 | 8.66280 | 289° | 9km/h | 1408m | 5m/s | 16.5°C | 89.3% | 0hPa | 3V | 08:30:00 | 00:30:19 | 00:00:00 | |
| IW2NTF | 2026-09-02 11:05:29 | 45.52956 | 8.66287 | 301° | 13km/h | 1400m | 3.7m/s | 16.6°C | 89.1% | 0hPa | 3V | 08:30:00 | 00:30:17 | 00:00:00 | |
| IW2NTF | 2026-09-02 11:05:29 | 45.52953 | 8.66296 | 288° | 15km/h | 1391m | 4.7m/s | 16.6°C | 88.6% | 0hPa | 3V | 08:30:00 | 00:30:15 | 00:00:00 | |
| IW2NTF | 2026-09-02 11:05:29 | 45.52953 | 8.66303 | 241° | 7km/h | 1384m | 4.5m/s | 16.7°C | 88.6% | 0hPa | 3V | 08:30:00 | 00:30:13 | 00:00:00 | |
| IW2NTF | 2026-09-02 11:05:23 | 45.52956 | 8.66304 | 138° | 5km/h | 1375m | 5.2m/s | 16.8°C | 88.2% | 0hPa | 3V | 08:30:00 | 00:30:11 | 00:00:00 | |
| IW2NTF | 2026-09-02 11:05:23 | 45.52957 | 8.66298 | 98° | 11km/h | 1366m | 5.5m/s | 16.9°C | 87.5% | 0hPa | 3V | 08:30:00 | 00:30:09 | 00:00:00 | |
| IW2NTF | 2026-09-02 11:05:23 | 45.52956 | 8.66290 | 70° | 13km/h | 1355m | 4.5m/s | 17°C | 87.1% | 0hPa | 3V | 08:30:00 | 00:30:07 | 00:00:00 | |
| IW2NTF | 2026-09-02 11:05:17 | 45.52953 | 8.66284 | 50° | 11km/h | 1348m | 3.4m/s | 17°C | 87.1% | 0hPa | 3V | 08:30:00 | 00:30:05 | 00:00:00 | |
| IW2NTF | 2026-09-02 11:05:17 | 45.52951 | 8.66278 | 61° | 7km/h | 1341m | 4m/s | 17.1°C | 86.6% | 0hPa | 3V | 08:30:00 | 00:30:03 | 00:00:00 | |
| IW2NTF | 2026-09-02 11:05:17 | 45.52950 | 8.66276 | 256° | 4km/h | 1333m | 4m/s | 17.1°C | 86.6% | 0hPa | 3V | 08:30:00 | 00:30:01 | 00:00:00 | |
| IW2NTF | 2026-09-02 11:05:12 | 45.52950 | 8.66281 | 280° | 9km/h | 1322m | 7.5m/s | 17.2°C | 86% | 0hPa | 3V | 08:30:00 | 00:29:59 | 00:00:00 | |
| IW2NTF | 2026-09-02 11:05:12 | 45.52948 | 8.66289 | 296° | 15km/h | 1310m | 4.2m/s | 17.3°C | 85.4% | 0hPa | 3V | 08:30:00 | 00:29:57 | 00:00:00 | |
| IW2NTF | 2026-09-02 11:05:12 | 45.52946 | 8.66297 | 270° | 13km/h | 1302m | 4m/s | 17.4°C | 85.2% | 0hPa | 3V | 08:30:00 | 00:29:55 | 00:00:00 | |
| IW2NTF | 2026-09-02 11:05:05 | 45.52948 | 8.66304 | 221° | 11km/h | 1294m | 3.8m/s | 17.5°C | 84.9% | 0hPa | 3V | 08:30:00 | 00:29:53 | 00:00:00 | |
| IW2NTF | 2026-09-02 11:05:05 | 45.52952 | 8.66306 | 169° | 7km/h | 1286m | 4.5m/s | 17.5°C | 0% | 0hPa | 3V | 08:30:00 | 00:29:51 | 00:00:00 | |
| IW2NTF | 2026-09-02 11:05:05 | 45.52956 | 8.66302 | 127° | 11km/h | 1278m | 4m/s | 0°C | 0% | 0hPa | 3V | 08:30:00 | 00:29:49 | 00:00:00 | |
| IW2NTF | 2026-09-02 11:04:59 | 45.52958 | 8.66296 | 119° | 9km/h | 1269m | 4.8m/s | 0°C | 0% | 0hPa | 3V | 08:30:00 | 00:29:47 | 00:00:00 | |
| IW2NTF | 2026-09-02 11:04:59 | 45.52961 | 8.66292 | 192° | 4km/h | 1261m | 3.4m/s | 0°C | 0% | 0hPa | 3V | 08:30:00 | 00:29:45 | 00:00:00 | |
| IW2NTF | 2026-09-02 11:04:59 | 45.52962 | 8.66296 | 260° | 11km/h | 1253m | 4.5m/s | 0°C | 0% | 0hPa | 3V | 00:00:00 | 00:29:43 | 00:00:00 | |
| IW2NTF | 2026-09-02 11:04:53 | 45.52961 | 8.66304 | 309° | 11km/h | 1242m | 4.9m/s | 0°C | 0% | 0hPa | 3V | 00:00:00 | 00:29:41 | 00:00:00 | |
| IW2NTF | 2026-09-02 11:04:53 | 45.52957 | 8.66307 | 4° | 7km/h | 1235m | 3.8m/s | 0°C | 0% | 0hPa | 3V | 00:00:00 | 00:29:39 | 00:00:00 | |
| IW2NTF | 2026-09-02 11:04:53 | 45.52954 | 8.66306 | 49° | 5km/h | 1229m | 2.5m/s | 0°C | 0% | 0hPa | 3V | 00:00:00 | 00:29:37 | 00:00:00 | |
| IW2NTF | 2026-09-02 11:04:48 | 45.52955 | 8.66302 | 147° | 7km/h | 1222m | 4.4m/s | 0°C | 0% | 0hPa | 3V | 00:00:00 | 00:29:35 | 00:00:00 | |
| IW2NTF | 2026-09-02 11:04:48 | 45.52959 | 8.66304 | 217° | 15km/h | 1212m | 4.7m/s | 0°C | 0% | 0hPa | 3V | 00:00:00 | 00:29:33 | 00:00:00 | |
| IW2NTF | 2026-09-02 11:04:48 | 45.52964 | 8.66313 | 251° | 16km/h | 1202m | 4.8m/s | 0°C | 0% | 0hPa | 3V | 00:00:00 | 00:29:31 | 00:00:00 | |
| IW2NTF | 2026-09-02 11:04:41 | 45.52963 | 8.66325 | 292° | 15km/h | 1194m | 4m/s | 0°C | 0% | 0hPa | 3V | 00:00:00 | 00:29:29 | 00:00:00 | |
| IW2NTF | 2026-09-02 11:04:41 | 45.52959 | 8.66334 | 320° | 15km/h | 1185m | 2.9m/s | 0°C | 0% | 0hPa | 3V | 00:00:00 | 00:29:27 | 00:00:00 | |
| IW2NTF | 2026-09-02 11:04:41 | 45.52955 | 8.66337 | 352° | 7km/h | 1178m | 4.6m/s | 0°C | 0% | 0hPa | 3V | 00:00:00 | 00:29:25 | 00:00:00 | |
| IW2NTF | 2026-09-02 11:04:35 | 45.52954 | 8.66337 | 182° | 4km/h | 1170m | 3.7m/s | 0°C | 0% | 0hPa | 3V | 00:00:00 | 00:29:23 | 00:00:00 | |
| IW2NTF | 2026-09-02 11:04:35 | 45.52958 | 8.66339 | 216° | 13km/h | 1160m | 4.8m/s | 0°C | 0% | 0hPa | 3V | 00:00:00 | 00:29:21 | 00:00:00 | |
| IW2NTF | 2026-09-02 11:04:35 | 45.52963 | 8.66348 | 239° | 20km/h | 1152m | 3.4m/s | 0°C | 0% | 0hPa | 3V | 00:00:00 | 00:29:19 | 00:00:00 | |
| IW2NTF | 2026-09-02 11:04:29 | 45.52968 | 8.66361 | 248° | 20km/h | 1141m | 5.5m/s | 0°C | 0% | 0hPa | 3V | 00:00:00 | 00:29:17 | 00:00:00 | |
| IW2NTF | 2026-09-02 11:04:29 | 45.52969 | 8.66372 | 285° | 11km/h | 1132m | 3.7m/s | 0°C | 0% | 0hPa | 3V | 00:00:00 | 00:29:15 | 00:00:00 | |
| IW2NTF | 2026-09-02 11:04:29 | 45.52966 | 8.66377 | 323° | 7km/h | 1122m | 5.5m/s | 0°C | 0% | 0hPa | 3V | 00:00:00 | 00:29:13 | 00:00:00 | |
| IW2NTF | 2026-09-02 11:04:23 | 45.52966 | 8.66378 | 164° | 7km/h | 1112m | 4.8m/s | 0°C | 0% | 0hPa | 3V | 00:00:00 | 00:29:11 | 00:00:00 | |
| IW2NTF | 2026-09-02 11:04:23 | 45.52971 | 8.66376 | 172° | 15km/h | 1102m | 6m/s | 0°C | 0% | 0hPa | 3V | 00:00:00 | 00:29:09 | 00:00:00 | |
| IW2NTF | 2026-09-02 11:04:23 | 45.52978 | 8.66377 | 201° | 13km/h | 1091m | 4.3m/s | 0°C | 0% | 0hPa | 3V | 00:00:00 | 00:29:07 | 00:00:00 | |
| IW2NTF | 2026-09-02 11:04:17 | 45.52982 | 8.66384 | 252° | 15km/h | 1082m | 3.6m/s | 0°C | 0% | 0hPa | 3V | 00:00:00 | 00:29:05 | 00:00:00 | |
| IW2NTF | 2026-09-02 11:04:17 | 45.52983 | 8.66394 | 277° | 15km/h | 1074m | 5.4m/s | 0°C | 0% | 0hPa | 3V | 00:00:00 | 00:29:03 | 00:00:00 | |
| IW2NTF | 2026-09-02 11:04:17 | 45.52982 | 8.66402 | 256° | 7km/h | 1063m | 5.7m/s | 0°C | 0% | 0hPa | 3V | 00:00:00 | 00:29:01 | 00:00:00 | |
| IW2NTF | 2026-09-02 11:04:11 | 45.52985 | 8.66404 | 170° | 11km/h | 1053m | 3.4m/s | 0°C | 0% | 0hPa | 3V | 00:00:00 | 00:28:59 | 00:00:00 | |
| IW2NTF | 2026-09-02 11:04:11 | 45.52992 | 8.66402 | 171° | 16km/h | 1044m | 5.8m/s | 0°C | 0% | 0hPa | 3V | 00:00:00 | 00:28:57 | 00:00:00 | |
| IW2NTF | 2026-09-02 11:04:11 | 45.53000 | 8.66401 | 193° | 15km/h | 1036m | 2.1m/s | 0°C | 0% | 0hPa | 3V | 00:00:00 | 00:28:55 | 00:00:00 | |
| IW2NTF | 2026-09-02 11:04:05 | 45.53008 | 8.66406 | 209° | 20km/h | 1029m | 5.1m/s | 0°C | 0% | 0hPa | 3V | 00:00:00 | 00:28:53 | 00:00:00 | |
| IW2NTF | 2026-09-02 11:04:05 | 45.53015 | 8.66413 | 217° | 15km/h | 1021m | 3.2m/s | 0°C | 0% | 0hPa | 3V | 00:00:00 | 00:28:51 | 00:00:00 | |
| IW2NTF | 2026-09-02 11:04:05 | 45.53022 | 8.66419 | 199° | 18km/h | 1013m | 5.4m/s | 0°C | 0% | 0hPa | 3V | 00:00:00 | 00:28:49 | 00:00:00 | |
| IW2NTF | 2026-09-02 11:03:59 | 45.53031 | 8.66424 | 209° | 20km/h | 1003m | 5.6m/s | 0°C | 0% | 0hPa | 3V | 00:00:00 | 00:28:47 | 00:00:00 | |
| IW2NTF | 2026-09-02 11:03:59 | 45.53037 | 8.66433 | 248° | 18km/h | 996m | 1.4m/s | 0°C | 0% | 0hPa | 3V | 00:00:00 | 00:28:45 | 00:00:00 | |
| IW2NTF | 2026-09-02 11:03:59 | 45.53040 | 8.66446 | 259° | 20km/h | 988m | 5.8m/s | 0°C | 0% | 0hPa | 3V | 00:00:00 | 00:28:43 | 00:00:00 | |
| IW2NTF | 2026-09-02 11:03:53 | 45.53042 | 8.66459 | 248° | 16km/h | 978m | 4.2m/s | 0°C | 0% | 0hPa | 3V | 00:00:00 | 00:28:41 | 00:00:00 | |
| IW2NTF | 2026-09-02 11:03:53 | 45.53047 | 8.66470 | 232° | 20km/h | 969m | 5m/s | 0°C | 0% | 0hPa | 3V | 00:00:00 | 00:28:39 | 00:00:00 | |
| IW2NTF | 2026-09-02 11:03:53 | 45.53054 | 8.66478 | 199° | 18km/h | 961m | 3.8m/s | 0°C | 0% | 0hPa | 3V | 00:00:00 | 00:28:37 | 00:00:00 | |
| IW2NTF | 2026-09-02 11:03:47 | 45.53062 | 8.66481 | 190° | 16km/h | 952m | 3.7m/s | 0°C | 0% | 0hPa | 3V | 00:00:00 | 00:28:35 | 00:00:00 | |
| IW2NTF | 2026-09-02 11:03:47 | 45.53069 | 8.66481 | 162° | 11km/h | 946m | 3.7m/s | 0°C | 0% | 0hPa | 3V | 00:00:00 | 00:28:33 | 00:00:00 | |
| IW2NTF | 2026-09-02 11:03:47 | 45.53073 | 8.66476 | 111° | 11km/h | 936m | 5.5m/s | 0°C | 0% | 0hPa | 3V | 00:00:00 | 00:28:31 | 00:00:00 | |
| IW2NTF | 2026-09-02 11:03:41 | 45.53072 | 8.66469 | 61° | 11km/h | 928m | 2.7m/s | 0°C | 0% | 0hPa | 3V | 00:00:00 | 00:28:29 | 00:00:00 | |
| IW2NTF | 2026-09-02 11:03:41 | 45.53069 | 8.66464 | 48° | 11km/h | 922m | 4.7m/s | 0°C | 0% | 0hPa | 3V | 00:00:00 | 00:28:27 | 00:00:00 | |
| IW2NTF | 2026-09-02 11:03:41 | 45.53066 | 8.66461 | 356° | 4km/h | 914m | 3.3m/s | 0°C | 0% | 0hPa | 3V | 00:00:00 | 00:28:25 | 00:00:00 | |
| IW2NTF | 2026-09-02 11:03:35 | 45.53064 | 8.66465 | 286° | 11km/h | 906m | 4.5m/s | 0°C | 0% | 0hPa | 3V | 00:00:00 | 00:28:23 | 00:00:00 | |
| IW2NTF | 2026-09-02 11:03:35 | 45.53062 | 8.66474 | 289° | 13km/h | 895m | 5.8m/s | 0°C | 0% | 0hPa | 3V | 00:00:00 | 00:28:21 | 00:00:00 | |
| IW2NTF | 2026-09-02 11:03:35 | 45.53060 | 8.66483 | 309° | 13km/h | 886m | 3m/s | 0°C | 0% | 0hPa | 3V | 00:00:00 | 00:28:19 | 00:00:00 | |
| IW2NTF | 2026-09-02 11:03:29 | 45.53055 | 8.66489 | 321° | 15km/h | 878m | 4.4m/s | 0°C | 0% | 0hPa | 3V | 00:00:00 | 00:28:17 | 00:00:00 | |
| IW2NTF | 2026-09-02 11:03:29 | 45.53052 | 8.66495 | 280° | 9km/h | 871m | 3.3m/s | 0°C | 0% | 0hPa | 3V | 00:00:00 | 00:28:15 | 00:00:00 | |
| IW2NTF | 2026-09-02 11:03:29 | 45.53054 | 8.66504 | 231° | 16km/h | 863m | 4.7m/s | 0°C | 0% | 0hPa | 3V | 00:00:00 | 00:28:13 | 00:00:00 |